<?xml version="1.0" encoding="UTF-8" standalone="no" ?>
<gpx xmlns="http://www.topografix.com/GPX/1/1" xmlns:xsi="http://www.w3.org/2001/XMLSchema-instance" xsi:schemaLocation="http://www.topografix.com/GPX/1/1 http://www.topografix.com/GPX/1/1/gpx.xsd" version="1.1" creator="VisuGPX - https://www.visugpx.com">
  <metadata>
    <name>Pornichet 28/04/2022</name>
    <desc><![CDATA[Sortie jeudi 28 avril 2022]]></desc>
  </metadata>
  <trk>
    <name><![CDATA[Pornichet Cyclisme]]></name>
    <trkseg>
      <trkpt lat="47.26404" lon="-2.31558">
        <ele>9.6</ele>
        <time>2022-04-28T06:50:16.000Z</time>
      </trkpt>
      <trkpt lat="47.26405" lon="-2.31573">
        <ele>9.6</ele>
        <time>2022-04-28T06:50:19.000Z</time>
      </trkpt>
      <trkpt lat="47.26405" lon="-2.31579">
        <ele>1.7999999523163</ele>
        <time>2022-04-28T06:50:20.000Z</time>
      </trkpt>
      <trkpt lat="47.26405" lon="-2.31584">
        <ele>3.5999999046326</ele>
        <time>2022-04-28T06:50:21.000Z</time>
      </trkpt>
      <trkpt lat="47.26405" lon="-2.3159">
        <ele>5.4000000953674</ele>
        <time>2022-04-28T06:50:22.000Z</time>
      </trkpt>
      <trkpt lat="47.26405" lon="-2.31626">
        <ele>5.4000000953674</ele>
        <time>2022-04-28T06:50:28.000Z</time>
      </trkpt>
      <trkpt lat="47.26405" lon="-2.31646">
        <ele>5.4000000953674</ele>
        <time>2022-04-28T06:50:32.000Z</time>
      </trkpt>
      <trkpt lat="47.26404" lon="-2.31649">
        <ele>5.4000000953674</ele>
        <time>2022-04-28T06:50:33.000Z</time>
      </trkpt>
      <trkpt lat="47.26396" lon="-2.31653">
        <ele>5.4000000953674</ele>
        <time>2022-04-28T06:50:36.000Z</time>
      </trkpt>
      <trkpt lat="47.26393" lon="-2.31655">
        <ele>5.4000000953674</ele>
        <time>2022-04-28T06:50:37.000Z</time>
      </trkpt>
      <trkpt lat="47.26379" lon="-2.31665">
        <ele>5.4000000953674</ele>
        <time>2022-04-28T06:50:41.000Z</time>
      </trkpt>
      <trkpt lat="47.26371" lon="-2.31669">
        <ele>5.4000000953674</ele>
        <time>2022-04-28T06:50:43.000Z</time>
      </trkpt>
      <trkpt lat="47.26355" lon="-2.31677">
        <ele>5.4000000953674</ele>
        <time>2022-04-28T06:50:47.000Z</time>
      </trkpt>
      <trkpt lat="47.26351" lon="-2.31678">
        <ele>4</ele>
        <time>2022-04-28T06:50:48.000Z</time>
      </trkpt>
      <trkpt lat="47.26346" lon="-2.3168">
        <ele>2.4000000953674</ele>
        <time>2022-04-28T06:50:49.000Z</time>
      </trkpt>
      <trkpt lat="47.26342" lon="-2.31682">
        <ele>1</ele>
        <time>2022-04-28T06:50:50.000Z</time>
      </trkpt>
      <trkpt lat="47.26338" lon="-2.31683">
        <ele>-0.60000002384186</ele>
        <time>2022-04-28T06:50:51.000Z</time>
      </trkpt>
      <trkpt lat="47.26336" lon="-2.31685">
        <ele>-2.2000000476837</ele>
        <time>2022-04-28T06:50:52.000Z</time>
      </trkpt>
      <trkpt lat="47.26333" lon="-2.31689">
        <ele>-2.2000000476837</ele>
        <time>2022-04-28T06:50:53.000Z</time>
      </trkpt>
      <trkpt lat="47.2633" lon="-2.31698">
        <ele>-2.2000000476837</ele>
        <time>2022-04-28T06:50:55.000Z</time>
      </trkpt>
      <trkpt lat="47.26322" lon="-2.31707">
        <ele>-2.5999999046326</ele>
        <time>2022-04-28T06:50:58.000Z</time>
      </trkpt>
      <trkpt lat="47.26315" lon="-2.31711">
        <ele>-3.4000000953674</ele>
        <time>2022-04-28T06:50:59.000Z</time>
      </trkpt>
      <trkpt lat="47.26311" lon="-2.31714">
        <ele>-3.7999999523163</ele>
        <time>2022-04-28T06:51:01.000Z</time>
      </trkpt>
      <trkpt lat="47.26307" lon="-2.31717">
        <ele>-4.1999998092651</ele>
        <time>2022-04-28T06:51:02.000Z</time>
      </trkpt>
      <trkpt lat="47.26303" lon="-2.31722">
        <ele>-4.1999998092651</ele>
        <time>2022-04-28T06:51:03.000Z</time>
      </trkpt>
      <trkpt lat="47.26301" lon="-2.31726">
        <ele>-4.1999998092651</ele>
        <time>2022-04-28T06:51:04.000Z</time>
      </trkpt>
      <trkpt lat="47.26303" lon="-2.31743">
        <ele>-4.1999998092651</ele>
        <time>2022-04-28T06:51:07.000Z</time>
      </trkpt>
      <trkpt lat="47.26304" lon="-2.31748">
        <ele>-4.1999998092651</ele>
        <time>2022-04-28T06:51:08.000Z</time>
      </trkpt>
      <trkpt lat="47.26306" lon="-2.31776">
        <ele>-4.1999998092651</ele>
        <time>2022-04-28T06:51:13.000Z</time>
      </trkpt>
      <trkpt lat="47.26306" lon="-2.31795">
        <ele>-4.1999998092651</ele>
        <time>2022-04-28T06:51:16.000Z</time>
      </trkpt>
      <trkpt lat="47.26305" lon="-2.31807">
        <ele>-4.1999998092651</ele>
        <time>2022-04-28T06:51:18.000Z</time>
      </trkpt>
      <trkpt lat="47.263" lon="-2.31852">
        <ele>-4.1999998092651</ele>
        <time>2022-04-28T06:51:25.000Z</time>
      </trkpt>
      <trkpt lat="47.263" lon="-2.31858">
        <ele>-4.1999998092651</ele>
        <time>2022-04-28T06:51:26.000Z</time>
      </trkpt>
      <trkpt lat="47.26298" lon="-2.31876">
        <ele>-4.1999998092651</ele>
        <time>2022-04-28T06:51:29.000Z</time>
      </trkpt>
      <trkpt lat="47.26296" lon="-2.31881">
        <ele>-4.8000001907349</ele>
        <time>2022-04-28T06:51:30.000Z</time>
      </trkpt>
      <trkpt lat="47.26293" lon="-2.31885">
        <ele>-5.1999998092651</ele>
        <time>2022-04-28T06:51:31.000Z</time>
      </trkpt>
      <trkpt lat="47.2629" lon="-2.31888">
        <ele>-5.5999999046326</ele>
        <time>2022-04-28T06:51:32.000Z</time>
      </trkpt>
      <trkpt lat="47.26287" lon="-2.31892">
        <ele>-6</ele>
        <time>2022-04-28T06:51:33.000Z</time>
      </trkpt>
      <trkpt lat="47.26284" lon="-2.31896">
        <ele>-6.4000000953674</ele>
        <time>2022-04-28T06:51:34.000Z</time>
      </trkpt>
      <trkpt lat="47.26281" lon="-2.31901">
        <ele>-6.4000000953674</ele>
        <time>2022-04-28T06:51:35.000Z</time>
      </trkpt>
      <trkpt lat="47.2627" lon="-2.31914">
        <ele>-6.4000000953674</ele>
        <time>2022-04-28T06:51:39.000Z</time>
      </trkpt>
      <trkpt lat="47.26257" lon="-2.31934">
        <ele>-6.4000000953674</ele>
        <time>2022-04-28T06:51:44.000Z</time>
      </trkpt>
      <trkpt lat="47.2624" lon="-2.31954">
        <ele>-6.4000000953674</ele>
        <time>2022-04-28T06:51:49.000Z</time>
      </trkpt>
      <trkpt lat="47.26221" lon="-2.31971">
        <ele>-6.4000000953674</ele>
        <time>2022-04-28T06:51:55.000Z</time>
      </trkpt>
      <trkpt lat="47.26204" lon="-2.31983">
        <ele>-6.4000000953674</ele>
        <time>2022-04-28T06:52:00.000Z</time>
      </trkpt>
      <trkpt lat="47.262" lon="-2.31991">
        <ele>-6.4000000953674</ele>
        <time>2022-04-28T06:52:03.000Z</time>
      </trkpt>
      <trkpt lat="47.262" lon="-2.31995">
        <ele>-6.4000000953674</ele>
        <time>2022-04-28T06:52:04.000Z</time>
      </trkpt>
      <trkpt lat="47.26196" lon="-2.32001">
        <ele>-6.4000000953674</ele>
        <time>2022-04-28T06:52:06.000Z</time>
      </trkpt>
      <trkpt lat="47.26189" lon="-2.32002">
        <ele>-6.4000000953674</ele>
        <time>2022-04-28T06:52:09.000Z</time>
      </trkpt>
      <trkpt lat="47.26187" lon="-2.32002">
        <ele>-6.4000000953674</ele>
        <time>2022-04-28T06:52:10.000Z</time>
      </trkpt>
      <trkpt lat="47.26171" lon="-2.32004">
        <ele>-6.4000000953674</ele>
        <time>2022-04-28T06:52:15.000Z</time>
      </trkpt>
      <trkpt lat="47.26157" lon="-2.32021">
        <ele>-6.4000000953674</ele>
        <time>2022-04-28T06:52:19.000Z</time>
      </trkpt>
      <trkpt lat="47.26155" lon="-2.32026">
        <ele>-6.4000000953674</ele>
        <time>2022-04-28T06:52:20.000Z</time>
      </trkpt>
      <trkpt lat="47.26142" lon="-2.32066">
        <ele>-6.4000000953674</ele>
        <time>2022-04-28T06:52:27.000Z</time>
      </trkpt>
      <trkpt lat="47.26132" lon="-2.32107">
        <ele>-6.4000000953674</ele>
        <time>2022-04-28T06:52:34.000Z</time>
      </trkpt>
      <trkpt lat="47.26126" lon="-2.32125">
        <ele>-6.4000000953674</ele>
        <time>2022-04-28T06:52:37.000Z</time>
      </trkpt>
      <trkpt lat="47.2612" lon="-2.32141">
        <ele>-6.4000000953674</ele>
        <time>2022-04-28T06:52:40.000Z</time>
      </trkpt>
      <trkpt lat="47.26106" lon="-2.32175">
        <ele>-6.4000000953674</ele>
        <time>2022-04-28T06:52:46.000Z</time>
      </trkpt>
      <trkpt lat="47.26103" lon="-2.3218">
        <ele>-6.4000000953674</ele>
        <time>2022-04-28T06:52:47.000Z</time>
      </trkpt>
      <trkpt lat="47.26091" lon="-2.32205">
        <ele>-6.4000000953674</ele>
        <time>2022-04-28T06:52:52.000Z</time>
      </trkpt>
      <trkpt lat="47.26088" lon="-2.3221">
        <ele>-6.4000000953674</ele>
        <time>2022-04-28T06:52:53.000Z</time>
      </trkpt>
      <trkpt lat="47.26063" lon="-2.32241">
        <ele>-6.4000000953674</ele>
        <time>2022-04-28T06:53:00.000Z</time>
      </trkpt>
      <trkpt lat="47.26051" lon="-2.32253">
        <ele>-6.4000000953674</ele>
        <time>2022-04-28T06:53:03.000Z</time>
      </trkpt>
      <trkpt lat="47.26039" lon="-2.32265">
        <ele>-6.4000000953674</ele>
        <time>2022-04-28T06:53:06.000Z</time>
      </trkpt>
      <trkpt lat="47.26009" lon="-2.32298">
        <ele>-6.4000000953674</ele>
        <time>2022-04-28T06:53:14.000Z</time>
      </trkpt>
      <trkpt lat="47.25977" lon="-2.3234">
        <ele>-6.4000000953674</ele>
        <time>2022-04-28T06:53:23.000Z</time>
      </trkpt>
      <trkpt lat="47.25951" lon="-2.32373">
        <ele>-6.4000000953674</ele>
        <time>2022-04-28T06:53:30.000Z</time>
      </trkpt>
      <trkpt lat="47.25923" lon="-2.32412">
        <ele>-6.4000000953674</ele>
        <time>2022-04-28T06:53:38.000Z</time>
      </trkpt>
      <trkpt lat="47.25898" lon="-2.32448">
        <ele>-6.4000000953674</ele>
        <time>2022-04-28T06:53:46.000Z</time>
      </trkpt>
      <trkpt lat="47.25897" lon="-2.32457">
        <ele>-6.4000000953674</ele>
        <time>2022-04-28T06:53:49.000Z</time>
      </trkpt>
      <trkpt lat="47.25899" lon="-2.32457">
        <ele>-6.4000000953674</ele>
        <time>2022-04-28T06:53:50.000Z</time>
      </trkpt>
      <trkpt lat="47.25906" lon="-2.32463">
        <ele>-6.4000000953674</ele>
        <time>2022-04-28T06:53:53.000Z</time>
      </trkpt>
      <trkpt lat="47.2591" lon="-2.32469">
        <ele>-6.4000000953674</ele>
        <time>2022-04-28T06:53:54.000Z</time>
      </trkpt>
      <trkpt lat="47.2592" lon="-2.32496">
        <ele>-6.4000000953674</ele>
        <time>2022-04-28T06:53:58.000Z</time>
      </trkpt>
      <trkpt lat="47.2594" lon="-2.32553">
        <ele>-6.4000000953674</ele>
        <time>2022-04-28T06:54:06.000Z</time>
      </trkpt>
      <trkpt lat="47.25958" lon="-2.32616">
        <ele>-6.4000000953674</ele>
        <time>2022-04-28T06:54:15.000Z</time>
      </trkpt>
      <trkpt lat="47.25959" lon="-2.32623">
        <ele>-6.4000000953674</ele>
        <time>2022-04-28T06:54:16.000Z</time>
      </trkpt>
      <trkpt lat="47.2596" lon="-2.32637">
        <ele>-6.4000000953674</ele>
        <time>2022-04-28T06:54:18.000Z</time>
      </trkpt>
      <trkpt lat="47.25961" lon="-2.3265">
        <ele>-6.4000000953674</ele>
        <time>2022-04-28T06:54:20.000Z</time>
      </trkpt>
      <trkpt lat="47.25969" lon="-2.32654">
        <ele>-6.4000000953674</ele>
        <time>2022-04-28T06:54:23.000Z</time>
      </trkpt>
      <trkpt lat="47.25984" lon="-2.32655">
        <ele>-6.4000000953674</ele>
        <time>2022-04-28T06:54:27.000Z</time>
      </trkpt>
      <trkpt lat="47.26008" lon="-2.32653">
        <ele>-6.4000000953674</ele>
        <time>2022-04-28T06:54:33.000Z</time>
      </trkpt>
      <trkpt lat="47.26035" lon="-2.32649">
        <ele>-6.4000000953674</ele>
        <time>2022-04-28T06:54:41.000Z</time>
      </trkpt>
      <trkpt lat="47.26035" lon="-2.3265">
        <ele>-6.4000000953674</ele>
        <time>2022-04-28T06:54:44.000Z</time>
      </trkpt>
      <trkpt lat="47.26035" lon="-2.3265">
        <ele>-6.4000000953674</ele>
        <time>2022-04-28T06:54:46.000Z</time>
      </trkpt>
      <trkpt lat="47.26036" lon="-2.3265">
        <ele>-6.4000000953674</ele>
        <time>2022-04-28T06:54:47.000Z</time>
      </trkpt>
      <trkpt lat="47.26038" lon="-2.3265">
        <ele>-6.4000000953674</ele>
        <time>2022-04-28T06:54:48.000Z</time>
      </trkpt>
      <trkpt lat="47.26054" lon="-2.32647">
        <ele>-6.4000000953674</ele>
        <time>2022-04-28T06:54:54.000Z</time>
      </trkpt>
      <trkpt lat="47.26077" lon="-2.32644">
        <ele>-6</ele>
        <time>2022-04-28T06:55:00.000Z</time>
      </trkpt>
      <trkpt lat="47.26082" lon="-2.32643">
        <ele>-5.5999999046326</ele>
        <time>2022-04-28T06:55:01.000Z</time>
      </trkpt>
      <trkpt lat="47.26086" lon="-2.32641">
        <ele>-5.1999998092651</ele>
        <time>2022-04-28T06:55:02.000Z</time>
      </trkpt>
      <trkpt lat="47.2609" lon="-2.3264">
        <ele>-4.8000001907349</ele>
        <time>2022-04-28T06:55:03.000Z</time>
      </trkpt>
      <trkpt lat="47.26094" lon="-2.32639">
        <ele>-4.4000000953674</ele>
        <time>2022-04-28T06:55:04.000Z</time>
      </trkpt>
      <trkpt lat="47.26112" lon="-2.32637">
        <ele>-4.4000000953674</ele>
        <time>2022-04-28T06:55:08.000Z</time>
      </trkpt>
      <trkpt lat="47.26151" lon="-2.32642">
        <ele>-4.4000000953674</ele>
        <time>2022-04-28T06:55:17.000Z</time>
      </trkpt>
      <trkpt lat="47.26155" lon="-2.32644">
        <ele>-4.4000000953674</ele>
        <time>2022-04-28T06:55:18.000Z</time>
      </trkpt>
      <trkpt lat="47.26172" lon="-2.32654">
        <ele>-4.4000000953674</ele>
        <time>2022-04-28T06:55:22.000Z</time>
      </trkpt>
      <trkpt lat="47.26181" lon="-2.3266">
        <ele>-4.4000000953674</ele>
        <time>2022-04-28T06:55:24.000Z</time>
      </trkpt>
      <trkpt lat="47.26204" lon="-2.32682">
        <ele>-4.4000000953674</ele>
        <time>2022-04-28T06:55:30.000Z</time>
      </trkpt>
      <trkpt lat="47.26234" lon="-2.32722">
        <ele>-4.4000000953674</ele>
        <time>2022-04-28T06:55:38.000Z</time>
      </trkpt>
      <trkpt lat="47.26255" lon="-2.32759">
        <ele>-4.4000000953674</ele>
        <time>2022-04-28T06:55:44.000Z</time>
      </trkpt>
      <trkpt lat="47.2626" lon="-2.32774">
        <ele>-4.4000000953674</ele>
        <time>2022-04-28T06:55:46.000Z</time>
      </trkpt>
      <trkpt lat="47.26267" lon="-2.32787">
        <ele>-4.4000000953674</ele>
        <time>2022-04-28T06:55:48.000Z</time>
      </trkpt>
      <trkpt lat="47.26278" lon="-2.32817">
        <ele>-4.4000000953674</ele>
        <time>2022-04-28T06:55:52.000Z</time>
      </trkpt>
      <trkpt lat="47.26282" lon="-2.32833">
        <ele>-4.8000001907349</ele>
        <time>2022-04-28T06:55:54.000Z</time>
      </trkpt>
      <trkpt lat="47.26284" lon="-2.3284">
        <ele>-5.1999998092651</ele>
        <time>2022-04-28T06:55:55.000Z</time>
      </trkpt>
      <trkpt lat="47.26287" lon="-2.32847">
        <ele>-5.5999999046326</ele>
        <time>2022-04-28T06:55:56.000Z</time>
      </trkpt>
      <trkpt lat="47.26291" lon="-2.32853">
        <ele>-6</ele>
        <time>2022-04-28T06:55:57.000Z</time>
      </trkpt>
      <trkpt lat="47.26295" lon="-2.32858">
        <ele>-6.4000000953674</ele>
        <time>2022-04-28T06:55:58.000Z</time>
      </trkpt>
      <trkpt lat="47.26305" lon="-2.32864">
        <ele>-6.4000000953674</ele>
        <time>2022-04-28T06:56:00.000Z</time>
      </trkpt>
      <trkpt lat="47.2631" lon="-2.32867">
        <ele>-6.4000000953674</ele>
        <time>2022-04-28T06:56:01.000Z</time>
      </trkpt>
      <trkpt lat="47.26314" lon="-2.32871">
        <ele>-6.4000000953674</ele>
        <time>2022-04-28T06:56:02.000Z</time>
      </trkpt>
      <trkpt lat="47.26324" lon="-2.32897">
        <ele>-6.4000000953674</ele>
        <time>2022-04-28T06:56:06.000Z</time>
      </trkpt>
      <trkpt lat="47.26343" lon="-2.32954">
        <ele>-6.4000000953674</ele>
        <time>2022-04-28T06:56:14.000Z</time>
      </trkpt>
      <trkpt lat="47.26352" lon="-2.32973">
        <ele>-6.4000000953674</ele>
        <time>2022-04-28T06:56:17.000Z</time>
      </trkpt>
      <trkpt lat="47.26362" lon="-2.32989">
        <ele>-6.4000000953674</ele>
        <time>2022-04-28T06:56:20.000Z</time>
      </trkpt>
      <trkpt lat="47.26366" lon="-2.33017">
        <ele>-6.4000000953674</ele>
        <time>2022-04-28T06:56:24.000Z</time>
      </trkpt>
      <trkpt lat="47.26366" lon="-2.33025">
        <ele>-6.4000000953674</ele>
        <time>2022-04-28T06:56:25.000Z</time>
      </trkpt>
      <trkpt lat="47.2637" lon="-2.33086">
        <ele>-6.4000000953674</ele>
        <time>2022-04-28T06:56:33.000Z</time>
      </trkpt>
      <trkpt lat="47.26374" lon="-2.33154">
        <ele>-6.4000000953674</ele>
        <time>2022-04-28T06:56:42.000Z</time>
      </trkpt>
      <trkpt lat="47.26377" lon="-2.33215">
        <ele>-6.4000000953674</ele>
        <time>2022-04-28T06:56:50.000Z</time>
      </trkpt>
      <trkpt lat="47.26379" lon="-2.33238">
        <ele>-6.4000000953674</ele>
        <time>2022-04-28T06:56:53.000Z</time>
      </trkpt>
      <trkpt lat="47.26382" lon="-2.33252">
        <ele>-6.4000000953674</ele>
        <time>2022-04-28T06:56:55.000Z</time>
      </trkpt>
      <trkpt lat="47.26393" lon="-2.33265">
        <ele>-6.4000000953674</ele>
        <time>2022-04-28T06:56:58.000Z</time>
      </trkpt>
      <trkpt lat="47.26408" lon="-2.33267">
        <ele>-6.4000000953674</ele>
        <time>2022-04-28T06:57:01.000Z</time>
      </trkpt>
      <trkpt lat="47.26418" lon="-2.33268">
        <ele>-6.4000000953674</ele>
        <time>2022-04-28T06:57:03.000Z</time>
      </trkpt>
      <trkpt lat="47.26456" lon="-2.33272">
        <ele>-6.4000000953674</ele>
        <time>2022-04-28T06:57:11.000Z</time>
      </trkpt>
      <trkpt lat="47.26468" lon="-2.33273">
        <ele>-6.4000000953674</ele>
        <time>2022-04-28T06:57:14.000Z</time>
      </trkpt>
      <trkpt lat="47.26481" lon="-2.33276">
        <ele>-6.4000000953674</ele>
        <time>2022-04-28T06:57:17.000Z</time>
      </trkpt>
      <trkpt lat="47.26505" lon="-2.33285">
        <ele>-6.4000000953674</ele>
        <time>2022-04-28T06:57:24.000Z</time>
      </trkpt>
      <trkpt lat="47.26512" lon="-2.33294">
        <ele>-6.4000000953674</ele>
        <time>2022-04-28T06:57:26.000Z</time>
      </trkpt>
      <trkpt lat="47.26519" lon="-2.33303">
        <ele>-6.4000000953674</ele>
        <time>2022-04-28T06:57:28.000Z</time>
      </trkpt>
      <trkpt lat="47.26522" lon="-2.3331">
        <ele>-6.4000000953674</ele>
        <time>2022-04-28T06:57:29.000Z</time>
      </trkpt>
      <trkpt lat="47.26525" lon="-2.33334">
        <ele>-6.4000000953674</ele>
        <time>2022-04-28T06:57:32.000Z</time>
      </trkpt>
      <trkpt lat="47.26532" lon="-2.33373">
        <ele>-6.4000000953674</ele>
        <time>2022-04-28T06:57:37.000Z</time>
      </trkpt>
      <trkpt lat="47.26538" lon="-2.33394">
        <ele>-6.4000000953674</ele>
        <time>2022-04-28T06:57:40.000Z</time>
      </trkpt>
      <trkpt lat="47.26544" lon="-2.33423">
        <ele>-6.4000000953674</ele>
        <time>2022-04-28T06:57:44.000Z</time>
      </trkpt>
      <trkpt lat="47.26554" lon="-2.3349">
        <ele>-6.4000000953674</ele>
        <time>2022-04-28T06:57:53.000Z</time>
      </trkpt>
      <trkpt lat="47.26556" lon="-2.33496">
        <ele>-6.4000000953674</ele>
        <time>2022-04-28T06:57:54.000Z</time>
      </trkpt>
      <trkpt lat="47.26562" lon="-2.33516">
        <ele>-6.4000000953674</ele>
        <time>2022-04-28T06:57:57.000Z</time>
      </trkpt>
      <trkpt lat="47.26566" lon="-2.33535">
        <ele>-6.4000000953674</ele>
        <time>2022-04-28T06:58:00.000Z</time>
      </trkpt>
      <trkpt lat="47.26566" lon="-2.33542">
        <ele>-6.4000000953674</ele>
        <time>2022-04-28T06:58:01.000Z</time>
      </trkpt>
      <trkpt lat="47.26568" lon="-2.33556">
        <ele>-6.4000000953674</ele>
        <time>2022-04-28T06:58:03.000Z</time>
      </trkpt>
      <trkpt lat="47.26571" lon="-2.33583">
        <ele>-6.4000000953674</ele>
        <time>2022-04-28T06:58:07.000Z</time>
      </trkpt>
      <trkpt lat="47.26572" lon="-2.33596">
        <ele>-6.4000000953674</ele>
        <time>2022-04-28T06:58:09.000Z</time>
      </trkpt>
      <trkpt lat="47.26579" lon="-2.33635">
        <ele>-6.4000000953674</ele>
        <time>2022-04-28T06:58:15.000Z</time>
      </trkpt>
      <trkpt lat="47.26583" lon="-2.33662">
        <ele>-6.4000000953674</ele>
        <time>2022-04-28T06:58:20.000Z</time>
      </trkpt>
      <trkpt lat="47.26585" lon="-2.33667">
        <ele>-6</ele>
        <time>2022-04-28T06:58:21.000Z</time>
      </trkpt>
      <trkpt lat="47.26587" lon="-2.33671">
        <ele>-5.1999998092651</ele>
        <time>2022-04-28T06:58:22.000Z</time>
      </trkpt>
      <trkpt lat="47.26589" lon="-2.33676">
        <ele>-4.5999999046326</ele>
        <time>2022-04-28T06:58:23.000Z</time>
      </trkpt>
      <trkpt lat="47.26591" lon="-2.3368">
        <ele>-4.1999998092651</ele>
        <time>2022-04-28T06:58:24.000Z</time>
      </trkpt>
      <trkpt lat="47.26593" lon="-2.33685">
        <ele>-4.1999998092651</ele>
        <time>2022-04-28T06:58:25.000Z</time>
      </trkpt>
      <trkpt lat="47.26598" lon="-2.33695">
        <ele>-4.1999998092651</ele>
        <time>2022-04-28T06:58:27.000Z</time>
      </trkpt>
      <trkpt lat="47.26608" lon="-2.33708">
        <ele>-4.1999998092651</ele>
        <time>2022-04-28T06:58:30.000Z</time>
      </trkpt>
      <trkpt lat="47.26618" lon="-2.33723">
        <ele>-4.1999998092651</ele>
        <time>2022-04-28T06:58:33.000Z</time>
      </trkpt>
      <trkpt lat="47.26627" lon="-2.33739">
        <ele>-4.1999998092651</ele>
        <time>2022-04-28T06:58:36.000Z</time>
      </trkpt>
      <trkpt lat="47.26645" lon="-2.33765">
        <ele>-4.1999998092651</ele>
        <time>2022-04-28T06:58:42.000Z</time>
      </trkpt>
      <trkpt lat="47.26647" lon="-2.33768">
        <ele>-3.7999999523163</ele>
        <time>2022-04-28T06:58:43.000Z</time>
      </trkpt>
      <trkpt lat="47.26649" lon="-2.33772">
        <ele>-3.4000000953674</ele>
        <time>2022-04-28T06:58:44.000Z</time>
      </trkpt>
      <trkpt lat="47.26651" lon="-2.33776">
        <ele>-3</ele>
        <time>2022-04-28T06:58:45.000Z</time>
      </trkpt>
      <trkpt lat="47.26653" lon="-2.3378">
        <ele>-2.2000000476837</ele>
        <time>2022-04-28T06:58:46.000Z</time>
      </trkpt>
      <trkpt lat="47.26656" lon="-2.33784">
        <ele>-2.2000000476837</ele>
        <time>2022-04-28T06:58:47.000Z</time>
      </trkpt>
      <trkpt lat="47.26671" lon="-2.33806">
        <ele>-2.2000000476837</ele>
        <time>2022-04-28T06:58:52.000Z</time>
      </trkpt>
      <trkpt lat="47.26677" lon="-2.33816">
        <ele>-2.2000000476837</ele>
        <time>2022-04-28T06:58:54.000Z</time>
      </trkpt>
      <trkpt lat="47.26698" lon="-2.33844">
        <ele>-2.2000000476837</ele>
        <time>2022-04-28T06:59:00.000Z</time>
      </trkpt>
      <trkpt lat="47.26704" lon="-2.33853">
        <ele>-2.2000000476837</ele>
        <time>2022-04-28T06:59:02.000Z</time>
      </trkpt>
      <trkpt lat="47.26712" lon="-2.33869">
        <ele>-2.2000000476837</ele>
        <time>2022-04-28T06:59:05.000Z</time>
      </trkpt>
      <trkpt lat="47.26736" lon="-2.33907">
        <ele>-2.2000000476837</ele>
        <time>2022-04-28T06:59:12.000Z</time>
      </trkpt>
      <trkpt lat="47.26764" lon="-2.33954">
        <ele>-2.2000000476837</ele>
        <time>2022-04-28T06:59:21.000Z</time>
      </trkpt>
      <trkpt lat="47.26792" lon="-2.34">
        <ele>-2.2000000476837</ele>
        <time>2022-04-28T06:59:30.000Z</time>
      </trkpt>
      <trkpt lat="47.2682" lon="-2.34046">
        <ele>-2.2000000476837</ele>
        <time>2022-04-28T06:59:39.000Z</time>
      </trkpt>
      <trkpt lat="47.26827" lon="-2.34056">
        <ele>-2.2000000476837</ele>
        <time>2022-04-28T06:59:41.000Z</time>
      </trkpt>
      <trkpt lat="47.26839" lon="-2.34076">
        <ele>-2.2000000476837</ele>
        <time>2022-04-28T06:59:45.000Z</time>
      </trkpt>
      <trkpt lat="47.26862" lon="-2.34111">
        <ele>-2.2000000476837</ele>
        <time>2022-04-28T06:59:52.000Z</time>
      </trkpt>
      <trkpt lat="47.26865" lon="-2.34116">
        <ele>-2.2000000476837</ele>
        <time>2022-04-28T06:59:53.000Z</time>
      </trkpt>
      <trkpt lat="47.26877" lon="-2.34136">
        <ele>-2.2000000476837</ele>
        <time>2022-04-28T06:59:57.000Z</time>
      </trkpt>
      <trkpt lat="47.26898" lon="-2.34166">
        <ele>-2.2000000476837</ele>
        <time>2022-04-28T07:00:03.000Z</time>
      </trkpt>
      <trkpt lat="47.26905" lon="-2.34175">
        <ele>-1.7999999523163</ele>
        <time>2022-04-28T07:00:05.000Z</time>
      </trkpt>
      <trkpt lat="47.26908" lon="-2.3418">
        <ele>-1.3999999761581</ele>
        <time>2022-04-28T07:00:06.000Z</time>
      </trkpt>
      <trkpt lat="47.26911" lon="-2.34185">
        <ele>-1</ele>
        <time>2022-04-28T07:00:07.000Z</time>
      </trkpt>
      <trkpt lat="47.26915" lon="-2.3419">
        <ele>-0.60000002384186</ele>
        <time>2022-04-28T07:00:08.000Z</time>
      </trkpt>
      <trkpt lat="47.26918" lon="-2.34195">
        <ele>-0.20000000298023</ele>
        <time>2022-04-28T07:00:09.000Z</time>
      </trkpt>
      <trkpt lat="47.26937" lon="-2.34225">
        <ele>-0.20000000298023</ele>
        <time>2022-04-28T07:00:15.000Z</time>
      </trkpt>
      <trkpt lat="47.26964" lon="-2.34266">
        <ele>-0.20000000298023</ele>
        <time>2022-04-28T07:00:23.000Z</time>
      </trkpt>
      <trkpt lat="47.26971" lon="-2.34277">
        <ele>-0.20000000298023</ele>
        <time>2022-04-28T07:00:25.000Z</time>
      </trkpt>
      <trkpt lat="47.26982" lon="-2.34296">
        <ele>-0.20000000298023</ele>
        <time>2022-04-28T07:00:29.000Z</time>
      </trkpt>
      <trkpt lat="47.26995" lon="-2.34314">
        <ele>-0.20000000298023</ele>
        <time>2022-04-28T07:00:34.000Z</time>
      </trkpt>
      <trkpt lat="47.27001" lon="-2.34316">
        <ele>-0.20000000298023</ele>
        <time>2022-04-28T07:00:38.000Z</time>
      </trkpt>
      <trkpt lat="47.27002" lon="-2.34316">
        <ele>-0.20000000298023</ele>
        <time>2022-04-28T07:00:39.000Z</time>
      </trkpt>
      <trkpt lat="47.27007" lon="-2.34315">
        <ele>-0.20000000298023</ele>
        <time>2022-04-28T07:00:44.000Z</time>
      </trkpt>
      <trkpt lat="47.27009" lon="-2.34314">
        <ele>-0.20000000298023</ele>
        <time>2022-04-28T07:00:52.000Z</time>
      </trkpt>
      <trkpt lat="47.27013" lon="-2.34314">
        <ele>-0.20000000298023</ele>
        <time>2022-04-28T07:00:54.000Z</time>
      </trkpt>
      <trkpt lat="47.27032" lon="-2.34321">
        <ele>-0.20000000298023</ele>
        <time>2022-04-28T07:00:59.000Z</time>
      </trkpt>
      <trkpt lat="47.27035" lon="-2.34326">
        <ele>-0.20000000298023</ele>
        <time>2022-04-28T07:01:00.000Z</time>
      </trkpt>
      <trkpt lat="47.27039" lon="-2.34339">
        <ele>-0.20000000298023</ele>
        <time>2022-04-28T07:01:02.000Z</time>
      </trkpt>
      <trkpt lat="47.2705" lon="-2.34389">
        <ele>-0.20000000298023</ele>
        <time>2022-04-28T07:01:09.000Z</time>
      </trkpt>
      <trkpt lat="47.27056" lon="-2.3441">
        <ele>-0.20000000298023</ele>
        <time>2022-04-28T07:01:12.000Z</time>
      </trkpt>
      <trkpt lat="47.27059" lon="-2.34425">
        <ele>-0.20000000298023</ele>
        <time>2022-04-28T07:01:14.000Z</time>
      </trkpt>
      <trkpt lat="47.27071" lon="-2.34476">
        <ele>-0.20000000298023</ele>
        <time>2022-04-28T07:01:21.000Z</time>
      </trkpt>
      <trkpt lat="47.27084" lon="-2.34534">
        <ele>-0.20000000298023</ele>
        <time>2022-04-28T07:01:29.000Z</time>
      </trkpt>
      <trkpt lat="47.27096" lon="-2.34585">
        <ele>-0.20000000298023</ele>
        <time>2022-04-28T07:01:36.000Z</time>
      </trkpt>
      <trkpt lat="47.27112" lon="-2.34657">
        <ele>-0.20000000298023</ele>
        <time>2022-04-28T07:01:45.000Z</time>
      </trkpt>
      <trkpt lat="47.27126" lon="-2.34721">
        <ele>-0.20000000298023</ele>
        <time>2022-04-28T07:01:53.000Z</time>
      </trkpt>
      <trkpt lat="47.27129" lon="-2.34736">
        <ele>-0.20000000298023</ele>
        <time>2022-04-28T07:01:55.000Z</time>
      </trkpt>
      <trkpt lat="47.27136" lon="-2.34766">
        <ele>-0.20000000298023</ele>
        <time>2022-04-28T07:01:59.000Z</time>
      </trkpt>
      <trkpt lat="47.2715" lon="-2.34829">
        <ele>-0.20000000298023</ele>
        <time>2022-04-28T07:02:07.000Z</time>
      </trkpt>
      <trkpt lat="47.27154" lon="-2.34844">
        <ele>-0.20000000298023</ele>
        <time>2022-04-28T07:02:09.000Z</time>
      </trkpt>
      <trkpt lat="47.27161" lon="-2.34875">
        <ele>-0.20000000298023</ele>
        <time>2022-04-28T07:02:13.000Z</time>
      </trkpt>
      <trkpt lat="47.27176" lon="-2.34924">
        <ele>-0.20000000298023</ele>
        <time>2022-04-28T07:02:20.000Z</time>
      </trkpt>
      <trkpt lat="47.27196" lon="-2.34987">
        <ele>-0.20000000298023</ele>
        <time>2022-04-28T07:02:29.000Z</time>
      </trkpt>
      <trkpt lat="47.27198" lon="-2.34993">
        <ele>0.20000000298023</ele>
        <time>2022-04-28T07:02:30.000Z</time>
      </trkpt>
      <trkpt lat="47.272" lon="-2.35">
        <ele>0.60000002384186</ele>
        <time>2022-04-28T07:02:31.000Z</time>
      </trkpt>
      <trkpt lat="47.27203" lon="-2.35006">
        <ele>1</ele>
        <time>2022-04-28T07:02:32.000Z</time>
      </trkpt>
      <trkpt lat="47.27205" lon="-2.35012">
        <ele>1.3999999761581</ele>
        <time>2022-04-28T07:02:33.000Z</time>
      </trkpt>
      <trkpt lat="47.27207" lon="-2.35018">
        <ele>1.7999999523163</ele>
        <time>2022-04-28T07:02:34.000Z</time>
      </trkpt>
      <trkpt lat="47.27212" lon="-2.35031">
        <ele>1.7999999523163</ele>
        <time>2022-04-28T07:02:36.000Z</time>
      </trkpt>
      <trkpt lat="47.27229" lon="-2.35079">
        <ele>1.7999999523163</ele>
        <time>2022-04-28T07:02:43.000Z</time>
      </trkpt>
      <trkpt lat="47.27235" lon="-2.35092">
        <ele>1.7999999523163</ele>
        <time>2022-04-28T07:02:45.000Z</time>
      </trkpt>
      <trkpt lat="47.27248" lon="-2.35116">
        <ele>1.7999999523163</ele>
        <time>2022-04-28T07:02:49.000Z</time>
      </trkpt>
      <trkpt lat="47.27253" lon="-2.35124">
        <ele>1.7999999523163</ele>
        <time>2022-04-28T07:02:51.000Z</time>
      </trkpt>
      <trkpt lat="47.27259" lon="-2.35123">
        <ele>1.7999999523163</ele>
        <time>2022-04-28T07:02:53.000Z</time>
      </trkpt>
      <trkpt lat="47.27266" lon="-2.35119">
        <ele>1.7999999523163</ele>
        <time>2022-04-28T07:02:55.000Z</time>
      </trkpt>
      <trkpt lat="47.27279" lon="-2.35112">
        <ele>1.7999999523163</ele>
        <time>2022-04-28T07:02:59.000Z</time>
      </trkpt>
      <trkpt lat="47.27299" lon="-2.351">
        <ele>1.7999999523163</ele>
        <time>2022-04-28T07:03:06.000Z</time>
      </trkpt>
      <trkpt lat="47.2731" lon="-2.35094">
        <ele>2.2000000476837</ele>
        <time>2022-04-28T07:03:10.000Z</time>
      </trkpt>
      <trkpt lat="47.27314" lon="-2.35093">
        <ele>2.7999999523163</ele>
        <time>2022-04-28T07:03:11.000Z</time>
      </trkpt>
      <trkpt lat="47.27317" lon="-2.35092">
        <ele>3.2000000476837</ele>
        <time>2022-04-28T07:03:12.000Z</time>
      </trkpt>
      <trkpt lat="47.2732" lon="-2.3509">
        <ele>3.5999999046326</ele>
        <time>2022-04-28T07:03:13.000Z</time>
      </trkpt>
      <trkpt lat="47.27322" lon="-2.35088">
        <ele>4</ele>
        <time>2022-04-28T07:03:14.000Z</time>
      </trkpt>
      <trkpt lat="47.27335" lon="-2.35082">
        <ele>4.8000001907349</ele>
        <time>2022-04-28T07:03:18.000Z</time>
      </trkpt>
      <trkpt lat="47.27339" lon="-2.3508">
        <ele>5.1999998092651</ele>
        <time>2022-04-28T07:03:19.000Z</time>
      </trkpt>
      <trkpt lat="47.27342" lon="-2.35078">
        <ele>5.5999999046326</ele>
        <time>2022-04-28T07:03:20.000Z</time>
      </trkpt>
      <trkpt lat="47.27345" lon="-2.35076">
        <ele>6</ele>
        <time>2022-04-28T07:03:21.000Z</time>
      </trkpt>
      <trkpt lat="47.27352" lon="-2.35072">
        <ele>6</ele>
        <time>2022-04-28T07:03:23.000Z</time>
      </trkpt>
      <trkpt lat="47.27368" lon="-2.35064">
        <ele>6.4000000953674</ele>
        <time>2022-04-28T07:03:28.000Z</time>
      </trkpt>
      <trkpt lat="47.27371" lon="-2.35061">
        <ele>6.8000001907349</ele>
        <time>2022-04-28T07:03:29.000Z</time>
      </trkpt>
      <trkpt lat="47.27374" lon="-2.3506">
        <ele>7.1999998092651</ele>
        <time>2022-04-28T07:03:30.000Z</time>
      </trkpt>
      <trkpt lat="47.27377" lon="-2.35058">
        <ele>7.5999999046326</ele>
        <time>2022-04-28T07:03:31.000Z</time>
      </trkpt>
      <trkpt lat="47.2738" lon="-2.35056">
        <ele>8</ele>
        <time>2022-04-28T07:03:32.000Z</time>
      </trkpt>
      <trkpt lat="47.27393" lon="-2.35054">
        <ele>8</ele>
        <time>2022-04-28T07:03:36.000Z</time>
      </trkpt>
      <trkpt lat="47.27403" lon="-2.35066">
        <ele>8</ele>
        <time>2022-04-28T07:03:40.000Z</time>
      </trkpt>
      <trkpt lat="47.27411" lon="-2.35104">
        <ele>8</ele>
        <time>2022-04-28T07:03:47.000Z</time>
      </trkpt>
      <trkpt lat="47.27417" lon="-2.35132">
        <ele>8.3999996185303</ele>
        <time>2022-04-28T07:03:52.000Z</time>
      </trkpt>
      <trkpt lat="47.27418" lon="-2.35137">
        <ele>8.8000001907349</ele>
        <time>2022-04-28T07:03:53.000Z</time>
      </trkpt>
      <trkpt lat="47.27419" lon="-2.35142">
        <ele>9.1999998092651</ele>
        <time>2022-04-28T07:03:54.000Z</time>
      </trkpt>
      <trkpt lat="47.27421" lon="-2.35148">
        <ele>9.6000003814697</ele>
        <time>2022-04-28T07:03:55.000Z</time>
      </trkpt>
      <trkpt lat="47.27422" lon="-2.35153">
        <ele>10</ele>
        <time>2022-04-28T07:03:56.000Z</time>
      </trkpt>
      <trkpt lat="47.27429" lon="-2.35172">
        <ele>10</ele>
        <time>2022-04-28T07:04:00.000Z</time>
      </trkpt>
      <trkpt lat="47.2744" lon="-2.3517">
        <ele>10</ele>
        <time>2022-04-28T07:04:03.000Z</time>
      </trkpt>
      <trkpt lat="47.27447" lon="-2.35165">
        <ele>10</ele>
        <time>2022-04-28T07:04:05.000Z</time>
      </trkpt>
      <trkpt lat="47.2746" lon="-2.35155">
        <ele>10</ele>
        <time>2022-04-28T07:04:09.000Z</time>
      </trkpt>
      <trkpt lat="47.27483" lon="-2.35143">
        <ele>10</ele>
        <time>2022-04-28T07:04:16.000Z</time>
      </trkpt>
      <trkpt lat="47.27486" lon="-2.35141">
        <ele>10.39999961853</ele>
        <time>2022-04-28T07:04:17.000Z</time>
      </trkpt>
      <trkpt lat="47.2749" lon="-2.3514">
        <ele>11</ele>
        <time>2022-04-28T07:04:18.000Z</time>
      </trkpt>
      <trkpt lat="47.27493" lon="-2.35138">
        <ele>11.39999961853</ele>
        <time>2022-04-28T07:04:19.000Z</time>
      </trkpt>
      <trkpt lat="47.27496" lon="-2.35135">
        <ele>11.800000190735</ele>
        <time>2022-04-28T07:04:20.000Z</time>
      </trkpt>
      <trkpt lat="47.27498" lon="-2.35131">
        <ele>12.199999809265</ele>
        <time>2022-04-28T07:04:21.000Z</time>
      </trkpt>
      <trkpt lat="47.27508" lon="-2.35125">
        <ele>12.199999809265</ele>
        <time>2022-04-28T07:04:25.000Z</time>
      </trkpt>
      <trkpt lat="47.27511" lon="-2.35126">
        <ele>12.199999809265</ele>
        <time>2022-04-28T07:04:26.000Z</time>
      </trkpt>
      <trkpt lat="47.27533" lon="-2.35133">
        <ele>12.199999809265</ele>
        <time>2022-04-28T07:04:32.000Z</time>
      </trkpt>
      <trkpt lat="47.27557" lon="-2.35131">
        <ele>12.199999809265</ele>
        <time>2022-04-28T07:04:38.000Z</time>
      </trkpt>
      <trkpt lat="47.27582" lon="-2.35127">
        <ele>12.199999809265</ele>
        <time>2022-04-28T07:04:44.000Z</time>
      </trkpt>
      <trkpt lat="47.27595" lon="-2.35127">
        <ele>12.199999809265</ele>
        <time>2022-04-28T07:04:47.000Z</time>
      </trkpt>
      <trkpt lat="47.276" lon="-2.3513">
        <ele>12.199999809265</ele>
        <time>2022-04-28T07:04:48.000Z</time>
      </trkpt>
      <trkpt lat="47.27604" lon="-2.35135">
        <ele>12.199999809265</ele>
        <time>2022-04-28T07:04:49.000Z</time>
      </trkpt>
      <trkpt lat="47.27608" lon="-2.35155">
        <ele>12.199999809265</ele>
        <time>2022-04-28T07:04:52.000Z</time>
      </trkpt>
      <trkpt lat="47.2761" lon="-2.35162">
        <ele>12.199999809265</ele>
        <time>2022-04-28T07:04:53.000Z</time>
      </trkpt>
      <trkpt lat="47.27616" lon="-2.35172">
        <ele>12.199999809265</ele>
        <time>2022-04-28T07:04:55.000Z</time>
      </trkpt>
      <trkpt lat="47.2763" lon="-2.35175">
        <ele>12.199999809265</ele>
        <time>2022-04-28T07:04:58.000Z</time>
      </trkpt>
      <trkpt lat="47.27645" lon="-2.35175">
        <ele>12.199999809265</ele>
        <time>2022-04-28T07:05:01.000Z</time>
      </trkpt>
      <trkpt lat="47.27659" lon="-2.35174">
        <ele>11.800000190735</ele>
        <time>2022-04-28T07:05:04.000Z</time>
      </trkpt>
      <trkpt lat="47.27664" lon="-2.35175">
        <ele>11.39999961853</ele>
        <time>2022-04-28T07:05:05.000Z</time>
      </trkpt>
      <trkpt lat="47.27668" lon="-2.35178">
        <ele>11</ele>
        <time>2022-04-28T07:05:06.000Z</time>
      </trkpt>
      <trkpt lat="47.27671" lon="-2.35184">
        <ele>10.39999961853</ele>
        <time>2022-04-28T07:05:07.000Z</time>
      </trkpt>
      <trkpt lat="47.27672" lon="-2.35191">
        <ele>10</ele>
        <time>2022-04-28T07:05:08.000Z</time>
      </trkpt>
      <trkpt lat="47.27675" lon="-2.35218">
        <ele>10</ele>
        <time>2022-04-28T07:05:12.000Z</time>
      </trkpt>
      <trkpt lat="47.2768" lon="-2.35223">
        <ele>9.6000003814697</ele>
        <time>2022-04-28T07:05:14.000Z</time>
      </trkpt>
      <trkpt lat="47.27684" lon="-2.35223">
        <ele>9.1999998092651</ele>
        <time>2022-04-28T07:05:15.000Z</time>
      </trkpt>
      <trkpt lat="47.27689" lon="-2.35221">
        <ele>8.8000001907349</ele>
        <time>2022-04-28T07:05:16.000Z</time>
      </trkpt>
      <trkpt lat="47.27693" lon="-2.3522">
        <ele>8.3999996185303</ele>
        <time>2022-04-28T07:05:17.000Z</time>
      </trkpt>
      <trkpt lat="47.27698" lon="-2.35218">
        <ele>8</ele>
        <time>2022-04-28T07:05:18.000Z</time>
      </trkpt>
      <trkpt lat="47.27718" lon="-2.35211">
        <ele>8</ele>
        <time>2022-04-28T07:05:22.000Z</time>
      </trkpt>
      <trkpt lat="47.27755" lon="-2.35201">
        <ele>8</ele>
        <time>2022-04-28T07:05:29.000Z</time>
      </trkpt>
      <trkpt lat="47.2776" lon="-2.35201">
        <ele>7.5999999046326</ele>
        <time>2022-04-28T07:05:30.000Z</time>
      </trkpt>
      <trkpt lat="47.27764" lon="-2.35201">
        <ele>7.1999998092651</ele>
        <time>2022-04-28T07:05:31.000Z</time>
      </trkpt>
      <trkpt lat="47.27767" lon="-2.35201">
        <ele>6.8000001907349</ele>
        <time>2022-04-28T07:05:32.000Z</time>
      </trkpt>
      <trkpt lat="47.27769" lon="-2.35205">
        <ele>6.4000000953674</ele>
        <time>2022-04-28T07:05:33.000Z</time>
      </trkpt>
      <trkpt lat="47.27771" lon="-2.35209">
        <ele>6</ele>
        <time>2022-04-28T07:05:34.000Z</time>
      </trkpt>
      <trkpt lat="47.27776" lon="-2.35236">
        <ele>6</ele>
        <time>2022-04-28T07:05:38.000Z</time>
      </trkpt>
      <trkpt lat="47.27778" lon="-2.35243">
        <ele>6</ele>
        <time>2022-04-28T07:05:39.000Z</time>
      </trkpt>
      <trkpt lat="47.27788" lon="-2.35293">
        <ele>6</ele>
        <time>2022-04-28T07:05:46.000Z</time>
      </trkpt>
      <trkpt lat="47.27799" lon="-2.35344">
        <ele>6</ele>
        <time>2022-04-28T07:05:53.000Z</time>
      </trkpt>
      <trkpt lat="47.27801" lon="-2.3535">
        <ele>6</ele>
        <time>2022-04-28T07:05:54.000Z</time>
      </trkpt>
      <trkpt lat="47.27811" lon="-2.35365">
        <ele>6</ele>
        <time>2022-04-28T07:05:57.000Z</time>
      </trkpt>
      <trkpt lat="47.27828" lon="-2.35366">
        <ele>6</ele>
        <time>2022-04-28T07:06:01.000Z</time>
      </trkpt>
      <trkpt lat="47.27838" lon="-2.35364">
        <ele>6</ele>
        <time>2022-04-28T07:06:03.000Z</time>
      </trkpt>
      <trkpt lat="47.2786" lon="-2.35362">
        <ele>6</ele>
        <time>2022-04-28T07:06:08.000Z</time>
      </trkpt>
      <trkpt lat="47.27874" lon="-2.35366">
        <ele>6</ele>
        <time>2022-04-28T07:06:12.000Z</time>
      </trkpt>
      <trkpt lat="47.27877" lon="-2.35368">
        <ele>6</ele>
        <time>2022-04-28T07:06:13.000Z</time>
      </trkpt>
      <trkpt lat="47.27892" lon="-2.35385">
        <ele>6</ele>
        <time>2022-04-28T07:06:17.000Z</time>
      </trkpt>
      <trkpt lat="47.27923" lon="-2.35429">
        <ele>6</ele>
        <time>2022-04-28T07:06:26.000Z</time>
      </trkpt>
      <trkpt lat="47.27941" lon="-2.35451">
        <ele>6</ele>
        <time>2022-04-28T07:06:31.000Z</time>
      </trkpt>
      <trkpt lat="47.27949" lon="-2.35458">
        <ele>6</ele>
        <time>2022-04-28T07:06:33.000Z</time>
      </trkpt>
      <trkpt lat="47.27954" lon="-2.35461">
        <ele>6</ele>
        <time>2022-04-28T07:06:34.000Z</time>
      </trkpt>
      <trkpt lat="47.27972" lon="-2.35467">
        <ele>6</ele>
        <time>2022-04-28T07:06:38.000Z</time>
      </trkpt>
      <trkpt lat="47.2798" lon="-2.35481">
        <ele>6</ele>
        <time>2022-04-28T07:06:41.000Z</time>
      </trkpt>
      <trkpt lat="47.27982" lon="-2.35488">
        <ele>6</ele>
        <time>2022-04-28T07:06:42.000Z</time>
      </trkpt>
      <trkpt lat="47.27994" lon="-2.35516">
        <ele>6</ele>
        <time>2022-04-28T07:06:47.000Z</time>
      </trkpt>
      <trkpt lat="47.28003" lon="-2.35543">
        <ele>6</ele>
        <time>2022-04-28T07:06:53.000Z</time>
      </trkpt>
      <trkpt lat="47.28007" lon="-2.35549">
        <ele>6.4000000953674</ele>
        <time>2022-04-28T07:06:56.000Z</time>
      </trkpt>
      <trkpt lat="47.28008" lon="-2.35549">
        <ele>6.8000001907349</ele>
        <time>2022-04-28T07:06:57.000Z</time>
      </trkpt>
      <trkpt lat="47.28008" lon="-2.3555">
        <ele>7.1999998092651</ele>
        <time>2022-04-28T07:06:58.000Z</time>
      </trkpt>
      <trkpt lat="47.28009" lon="-2.35551">
        <ele>7.5999999046326</ele>
        <time>2022-04-28T07:06:59.000Z</time>
      </trkpt>
      <trkpt lat="47.28011" lon="-2.35553">
        <ele>8</ele>
        <time>2022-04-28T07:07:00.000Z</time>
      </trkpt>
      <trkpt lat="47.28013" lon="-2.35555">
        <ele>8</ele>
        <time>2022-04-28T07:07:01.000Z</time>
      </trkpt>
      <trkpt lat="47.28021" lon="-2.3556">
        <ele>8</ele>
        <time>2022-04-28T07:07:04.000Z</time>
      </trkpt>
      <trkpt lat="47.28024" lon="-2.35562">
        <ele>8</ele>
        <time>2022-04-28T07:07:05.000Z</time>
      </trkpt>
      <trkpt lat="47.28041" lon="-2.35574">
        <ele>8</ele>
        <time>2022-04-28T07:07:11.000Z</time>
      </trkpt>
      <trkpt lat="47.2805" lon="-2.35578">
        <ele>8.3999996185303</ele>
        <time>2022-04-28T07:07:14.000Z</time>
      </trkpt>
      <trkpt lat="47.28053" lon="-2.35579">
        <ele>8.8000001907349</ele>
        <time>2022-04-28T07:07:15.000Z</time>
      </trkpt>
      <trkpt lat="47.28056" lon="-2.3558">
        <ele>9.3999996185303</ele>
        <time>2022-04-28T07:07:16.000Z</time>
      </trkpt>
      <trkpt lat="47.28058" lon="-2.35581">
        <ele>9.8000001907349</ele>
        <time>2022-04-28T07:07:17.000Z</time>
      </trkpt>
      <trkpt lat="47.28061" lon="-2.35583">
        <ele>10.199999809265</ele>
        <time>2022-04-28T07:07:18.000Z</time>
      </trkpt>
      <trkpt lat="47.28071" lon="-2.35593">
        <ele>10.199999809265</ele>
        <time>2022-04-28T07:07:23.000Z</time>
      </trkpt>
      <trkpt lat="47.28082" lon="-2.35612">
        <ele>10.199999809265</ele>
        <time>2022-04-28T07:07:30.000Z</time>
      </trkpt>
      <trkpt lat="47.28085" lon="-2.35614">
        <ele>10.199999809265</ele>
        <time>2022-04-28T07:07:34.000Z</time>
      </trkpt>
      <trkpt lat="47.2808" lon="-2.35613">
        <ele>10.199999809265</ele>
        <time>2022-04-28T07:11:44.000Z</time>
      </trkpt>
      <trkpt lat="47.28079" lon="-2.35614">
        <ele>10.199999809265</ele>
        <time>2022-04-28T07:11:45.000Z</time>
      </trkpt>
      <trkpt lat="47.28078" lon="-2.35623">
        <ele>10.199999809265</ele>
        <time>2022-04-28T07:11:49.000Z</time>
      </trkpt>
      <trkpt lat="47.28079" lon="-2.35628">
        <ele>10.60000038147</ele>
        <time>2022-04-28T07:11:51.000Z</time>
      </trkpt>
      <trkpt lat="47.2808" lon="-2.3563">
        <ele>11</ele>
        <time>2022-04-28T07:11:52.000Z</time>
      </trkpt>
      <trkpt lat="47.2808" lon="-2.35633">
        <ele>11.39999961853</ele>
        <time>2022-04-28T07:11:53.000Z</time>
      </trkpt>
      <trkpt lat="47.2808" lon="-2.35636">
        <ele>11.800000190735</ele>
        <time>2022-04-28T07:11:54.000Z</time>
      </trkpt>
      <trkpt lat="47.28081" lon="-2.35637">
        <ele>12.199999809265</ele>
        <time>2022-04-28T07:11:55.000Z</time>
      </trkpt>
      <trkpt lat="47.28081" lon="-2.35641">
        <ele>12.60000038147</ele>
        <time>2022-04-28T07:11:57.000Z</time>
      </trkpt>
      <trkpt lat="47.28082" lon="-2.35643">
        <ele>13</ele>
        <time>2022-04-28T07:11:58.000Z</time>
      </trkpt>
      <trkpt lat="47.28082" lon="-2.35646">
        <ele>13.39999961853</ele>
        <time>2022-04-28T07:11:59.000Z</time>
      </trkpt>
      <trkpt lat="47.28082" lon="-2.35649">
        <ele>13.800000190735</ele>
        <time>2022-04-28T07:12:00.000Z</time>
      </trkpt>
      <trkpt lat="47.28083" lon="-2.35652">
        <ele>14.199999809265</ele>
        <time>2022-04-28T07:12:01.000Z</time>
      </trkpt>
      <trkpt lat="47.28083" lon="-2.35655">
        <ele>14.199999809265</ele>
        <time>2022-04-28T07:12:02.000Z</time>
      </trkpt>
      <trkpt lat="47.28084" lon="-2.35669">
        <ele>14.199999809265</ele>
        <time>2022-04-28T07:12:08.000Z</time>
      </trkpt>
      <trkpt lat="47.28084" lon="-2.35671">
        <ele>14.199999809265</ele>
        <time>2022-04-28T07:12:09.000Z</time>
      </trkpt>
      <trkpt lat="47.28085" lon="-2.35675">
        <ele>14.60000038147</ele>
        <time>2022-04-28T07:12:11.000Z</time>
      </trkpt>
      <trkpt lat="47.28085" lon="-2.35676">
        <ele>15</ele>
        <time>2022-04-28T07:12:12.000Z</time>
      </trkpt>
      <trkpt lat="47.28086" lon="-2.35679">
        <ele>15.39999961853</ele>
        <time>2022-04-28T07:12:13.000Z</time>
      </trkpt>
      <trkpt lat="47.28087" lon="-2.35681">
        <ele>15.800000190735</ele>
        <time>2022-04-28T07:12:14.000Z</time>
      </trkpt>
      <trkpt lat="47.28088" lon="-2.35683">
        <ele>16.200000762939</ele>
        <time>2022-04-28T07:12:15.000Z</time>
      </trkpt>
      <trkpt lat="47.2809" lon="-2.35698">
        <ele>16.200000762939</ele>
        <time>2022-04-28T07:12:21.000Z</time>
      </trkpt>
      <trkpt lat="47.28091" lon="-2.35707">
        <ele>16.60000038147</ele>
        <time>2022-04-28T07:12:24.000Z</time>
      </trkpt>
      <trkpt lat="47.28091" lon="-2.35709">
        <ele>17</ele>
        <time>2022-04-28T07:12:25.000Z</time>
      </trkpt>
      <trkpt lat="47.28091" lon="-2.35712">
        <ele>17.39999961853</ele>
        <time>2022-04-28T07:12:26.000Z</time>
      </trkpt>
      <trkpt lat="47.2809" lon="-2.35714">
        <ele>17.799999237061</ele>
        <time>2022-04-28T07:12:27.000Z</time>
      </trkpt>
      <trkpt lat="47.2809" lon="-2.35717">
        <ele>18.200000762939</ele>
        <time>2022-04-28T07:12:28.000Z</time>
      </trkpt>
      <trkpt lat="47.28084" lon="-2.35742">
        <ele>18.200000762939</ele>
        <time>2022-04-28T07:12:33.000Z</time>
      </trkpt>
      <trkpt lat="47.28083" lon="-2.35759">
        <ele>17.799999237061</ele>
        <time>2022-04-28T07:12:36.000Z</time>
      </trkpt>
      <trkpt lat="47.28082" lon="-2.35764">
        <ele>17.39999961853</ele>
        <time>2022-04-28T07:12:37.000Z</time>
      </trkpt>
      <trkpt lat="47.28082" lon="-2.35769">
        <ele>17</ele>
        <time>2022-04-28T07:12:38.000Z</time>
      </trkpt>
      <trkpt lat="47.28082" lon="-2.35774">
        <ele>16.60000038147</ele>
        <time>2022-04-28T07:12:39.000Z</time>
      </trkpt>
      <trkpt lat="47.28081" lon="-2.35779">
        <ele>16.200000762939</ele>
        <time>2022-04-28T07:12:40.000Z</time>
      </trkpt>
      <trkpt lat="47.28078" lon="-2.35793">
        <ele>16.200000762939</ele>
        <time>2022-04-28T07:12:43.000Z</time>
      </trkpt>
      <trkpt lat="47.28077" lon="-2.35797">
        <ele>15.800000190735</ele>
        <time>2022-04-28T07:12:44.000Z</time>
      </trkpt>
      <trkpt lat="47.28076" lon="-2.358">
        <ele>15.39999961853</ele>
        <time>2022-04-28T07:12:45.000Z</time>
      </trkpt>
      <trkpt lat="47.28077" lon="-2.35802">
        <ele>14.60000038147</ele>
        <time>2022-04-28T07:12:46.000Z</time>
      </trkpt>
      <trkpt lat="47.28079" lon="-2.35805">
        <ele>14.199999809265</ele>
        <time>2022-04-28T07:12:47.000Z</time>
      </trkpt>
      <trkpt lat="47.28081" lon="-2.35805">
        <ele>14.199999809265</ele>
        <time>2022-04-28T07:12:48.000Z</time>
      </trkpt>
      <trkpt lat="47.28085" lon="-2.358">
        <ele>14.199999809265</ele>
        <time>2022-04-28T07:12:50.000Z</time>
      </trkpt>
      <trkpt lat="47.2809" lon="-2.35791">
        <ele>13.800000190735</ele>
        <time>2022-04-28T07:12:52.000Z</time>
      </trkpt>
      <trkpt lat="47.28091" lon="-2.35786">
        <ele>13.39999961853</ele>
        <time>2022-04-28T07:12:53.000Z</time>
      </trkpt>
      <trkpt lat="47.28093" lon="-2.35781">
        <ele>13</ele>
        <time>2022-04-28T07:12:54.000Z</time>
      </trkpt>
      <trkpt lat="47.28095" lon="-2.35777">
        <ele>12.39999961853</ele>
        <time>2022-04-28T07:12:55.000Z</time>
      </trkpt>
      <trkpt lat="47.28097" lon="-2.35772">
        <ele>12</ele>
        <time>2022-04-28T07:12:56.000Z</time>
      </trkpt>
      <trkpt lat="47.28106" lon="-2.3575">
        <ele>12</ele>
        <time>2022-04-28T07:13:02.000Z</time>
      </trkpt>
      <trkpt lat="47.28116" lon="-2.35739">
        <ele>12</ele>
        <time>2022-04-28T07:13:08.000Z</time>
      </trkpt>
      <trkpt lat="47.28118" lon="-2.3574">
        <ele>12</ele>
        <time>2022-04-28T07:13:09.000Z</time>
      </trkpt>
      <trkpt lat="47.28121" lon="-2.35746">
        <ele>12</ele>
        <time>2022-04-28T07:13:12.000Z</time>
      </trkpt>
      <trkpt lat="47.28122" lon="-2.35764">
        <ele>12</ele>
        <time>2022-04-28T07:13:17.000Z</time>
      </trkpt>
      <trkpt lat="47.28132" lon="-2.35793">
        <ele>12</ele>
        <time>2022-04-28T07:13:22.000Z</time>
      </trkpt>
      <trkpt lat="47.28134" lon="-2.35795">
        <ele>12.39999961853</ele>
        <time>2022-04-28T07:13:23.000Z</time>
      </trkpt>
      <trkpt lat="47.28135" lon="-2.35798">
        <ele>12.800000190735</ele>
        <time>2022-04-28T07:13:24.000Z</time>
      </trkpt>
      <trkpt lat="47.28136" lon="-2.358">
        <ele>13.199999809265</ele>
        <time>2022-04-28T07:13:25.000Z</time>
      </trkpt>
      <trkpt lat="47.28138" lon="-2.35802">
        <ele>13.60000038147</ele>
        <time>2022-04-28T07:13:26.000Z</time>
      </trkpt>
      <trkpt lat="47.28139" lon="-2.35804">
        <ele>14</ele>
        <time>2022-04-28T07:13:27.000Z</time>
      </trkpt>
      <trkpt lat="47.28141" lon="-2.35806">
        <ele>14</ele>
        <time>2022-04-28T07:13:28.000Z</time>
      </trkpt>
      <trkpt lat="47.28153" lon="-2.35807">
        <ele>14</ele>
        <time>2022-04-28T07:13:34.000Z</time>
      </trkpt>
      <trkpt lat="47.28159" lon="-2.35807">
        <ele>14</ele>
        <time>2022-04-28T07:13:37.000Z</time>
      </trkpt>
      <trkpt lat="47.28163" lon="-2.35813">
        <ele>14</ele>
        <time>2022-04-28T07:13:39.000Z</time>
      </trkpt>
      <trkpt lat="47.28166" lon="-2.35822">
        <ele>14</ele>
        <time>2022-04-28T07:13:41.000Z</time>
      </trkpt>
      <trkpt lat="47.2817" lon="-2.35837">
        <ele>14</ele>
        <time>2022-04-28T07:13:46.000Z</time>
      </trkpt>
      <trkpt lat="47.28176" lon="-2.35859">
        <ele>14</ele>
        <time>2022-04-28T07:13:52.000Z</time>
      </trkpt>
      <trkpt lat="47.28179" lon="-2.35862">
        <ele>14</ele>
        <time>2022-04-28T07:13:53.000Z</time>
      </trkpt>
      <trkpt lat="47.28192" lon="-2.35872">
        <ele>14</ele>
        <time>2022-04-28T07:13:57.000Z</time>
      </trkpt>
      <trkpt lat="47.28203" lon="-2.35876">
        <ele>14</ele>
        <time>2022-04-28T07:14:00.000Z</time>
      </trkpt>
      <trkpt lat="47.28227" lon="-2.35887">
        <ele>14</ele>
        <time>2022-04-28T07:14:06.000Z</time>
      </trkpt>
      <trkpt lat="47.28232" lon="-2.35892">
        <ele>14.39999961853</ele>
        <time>2022-04-28T07:14:07.000Z</time>
      </trkpt>
      <trkpt lat="47.28235" lon="-2.35896">
        <ele>14.800000190735</ele>
        <time>2022-04-28T07:14:08.000Z</time>
      </trkpt>
      <trkpt lat="47.28238" lon="-2.359">
        <ele>15.39999961853</ele>
        <time>2022-04-28T07:14:09.000Z</time>
      </trkpt>
      <trkpt lat="47.2824" lon="-2.35903">
        <ele>15.800000190735</ele>
        <time>2022-04-28T07:14:10.000Z</time>
      </trkpt>
      <trkpt lat="47.28242" lon="-2.35907">
        <ele>16.200000762939</ele>
        <time>2022-04-28T07:14:11.000Z</time>
      </trkpt>
      <trkpt lat="47.28256" lon="-2.35937">
        <ele>16.200000762939</ele>
        <time>2022-04-28T07:14:16.000Z</time>
      </trkpt>
      <trkpt lat="47.28263" lon="-2.35969">
        <ele>15.60000038147</ele>
        <time>2022-04-28T07:14:20.000Z</time>
      </trkpt>
      <trkpt lat="47.28263" lon="-2.35976">
        <ele>15.199999809265</ele>
        <time>2022-04-28T07:14:21.000Z</time>
      </trkpt>
      <trkpt lat="47.28262" lon="-2.35981">
        <ele>14.800000190735</ele>
        <time>2022-04-28T07:14:22.000Z</time>
      </trkpt>
      <trkpt lat="47.28261" lon="-2.35985">
        <ele>14.39999961853</ele>
        <time>2022-04-28T07:14:23.000Z</time>
      </trkpt>
      <trkpt lat="47.2826" lon="-2.35988">
        <ele>14</ele>
        <time>2022-04-28T07:14:24.000Z</time>
      </trkpt>
      <trkpt lat="47.28257" lon="-2.35993">
        <ele>14</ele>
        <time>2022-04-28T07:14:25.000Z</time>
      </trkpt>
      <trkpt lat="47.28251" lon="-2.36004">
        <ele>14</ele>
        <time>2022-04-28T07:14:27.000Z</time>
      </trkpt>
      <trkpt lat="47.28247" lon="-2.36016">
        <ele>14</ele>
        <time>2022-04-28T07:14:29.000Z</time>
      </trkpt>
      <trkpt lat="47.28246" lon="-2.36022">
        <ele>14</ele>
        <time>2022-04-28T07:14:30.000Z</time>
      </trkpt>
      <trkpt lat="47.28247" lon="-2.36054">
        <ele>14</ele>
        <time>2022-04-28T07:14:35.000Z</time>
      </trkpt>
      <trkpt lat="47.28246" lon="-2.3608">
        <ele>14</ele>
        <time>2022-04-28T07:14:40.000Z</time>
      </trkpt>
      <trkpt lat="47.28248" lon="-2.36103">
        <ele>14</ele>
        <time>2022-04-28T07:14:44.000Z</time>
      </trkpt>
      <trkpt lat="47.28262" lon="-2.36133">
        <ele>14</ele>
        <time>2022-04-28T07:14:49.000Z</time>
      </trkpt>
      <trkpt lat="47.28273" lon="-2.36173">
        <ele>14</ele>
        <time>2022-04-28T07:14:55.000Z</time>
      </trkpt>
      <trkpt lat="47.28278" lon="-2.36209">
        <ele>14</ele>
        <time>2022-04-28T07:15:01.000Z</time>
      </trkpt>
      <trkpt lat="47.28282" lon="-2.36219">
        <ele>14</ele>
        <time>2022-04-28T07:15:04.000Z</time>
      </trkpt>
      <trkpt lat="47.28283" lon="-2.3622">
        <ele>14</ele>
        <time>2022-04-28T07:15:05.000Z</time>
      </trkpt>
      <trkpt lat="47.28286" lon="-2.36225">
        <ele>14</ele>
        <time>2022-04-28T07:15:09.000Z</time>
      </trkpt>
      <trkpt lat="47.28289" lon="-2.36222">
        <ele>14</ele>
        <time>2022-04-28T07:15:11.000Z</time>
      </trkpt>
      <trkpt lat="47.28294" lon="-2.36216">
        <ele>14</ele>
        <time>2022-04-28T07:15:15.000Z</time>
      </trkpt>
      <trkpt lat="47.28308" lon="-2.36209">
        <ele>14</ele>
        <time>2022-04-28T07:15:22.000Z</time>
      </trkpt>
      <trkpt lat="47.28318" lon="-2.36195">
        <ele>14</ele>
        <time>2022-04-28T07:15:27.000Z</time>
      </trkpt>
      <trkpt lat="47.28322" lon="-2.36191">
        <ele>14.39999961853</ele>
        <time>2022-04-28T07:15:29.000Z</time>
      </trkpt>
      <trkpt lat="47.28324" lon="-2.36189">
        <ele>14.800000190735</ele>
        <time>2022-04-28T07:15:30.000Z</time>
      </trkpt>
      <trkpt lat="47.28327" lon="-2.36187">
        <ele>15.199999809265</ele>
        <time>2022-04-28T07:15:31.000Z</time>
      </trkpt>
      <trkpt lat="47.28329" lon="-2.36186">
        <ele>15.60000038147</ele>
        <time>2022-04-28T07:15:32.000Z</time>
      </trkpt>
      <trkpt lat="47.28331" lon="-2.36184">
        <ele>16</ele>
        <time>2022-04-28T07:15:33.000Z</time>
      </trkpt>
      <trkpt lat="47.28337" lon="-2.36176">
        <ele>16.39999961853</ele>
        <time>2022-04-28T07:15:37.000Z</time>
      </trkpt>
      <trkpt lat="47.28338" lon="-2.36174">
        <ele>17</ele>
        <time>2022-04-28T07:15:38.000Z</time>
      </trkpt>
      <trkpt lat="47.2834" lon="-2.36173">
        <ele>17.799999237061</ele>
        <time>2022-04-28T07:15:39.000Z</time>
      </trkpt>
      <trkpt lat="47.28341" lon="-2.36172">
        <ele>18.200000762939</ele>
        <time>2022-04-28T07:15:40.000Z</time>
      </trkpt>
      <trkpt lat="47.28343" lon="-2.36169">
        <ele>18.60000038147</ele>
        <time>2022-04-28T07:15:42.000Z</time>
      </trkpt>
      <trkpt lat="47.28344" lon="-2.36168">
        <ele>19.200000762939</ele>
        <time>2022-04-28T07:15:43.000Z</time>
      </trkpt>
      <trkpt lat="47.28345" lon="-2.36167">
        <ele>19.60000038147</ele>
        <time>2022-04-28T07:15:44.000Z</time>
      </trkpt>
      <trkpt lat="47.28346" lon="-2.36165">
        <ele>20</ele>
        <time>2022-04-28T07:15:45.000Z</time>
      </trkpt>
      <trkpt lat="47.28347" lon="-2.36164">
        <ele>20.39999961853</ele>
        <time>2022-04-28T07:15:46.000Z</time>
      </trkpt>
      <trkpt lat="47.28348" lon="-2.36163">
        <ele>20.799999237061</ele>
        <time>2022-04-28T07:15:47.000Z</time>
      </trkpt>
      <trkpt lat="47.28349" lon="-2.36162">
        <ele>21.200000762939</ele>
        <time>2022-04-28T07:15:48.000Z</time>
      </trkpt>
      <trkpt lat="47.2835" lon="-2.36161">
        <ele>21.799999237061</ele>
        <time>2022-04-28T07:15:49.000Z</time>
      </trkpt>
      <trkpt lat="47.28351" lon="-2.36159">
        <ele>22.200000762939</ele>
        <time>2022-04-28T07:15:50.000Z</time>
      </trkpt>
      <trkpt lat="47.28352" lon="-2.36158">
        <ele>22.60000038147</ele>
        <time>2022-04-28T07:15:51.000Z</time>
      </trkpt>
      <trkpt lat="47.28356" lon="-2.36154">
        <ele>23</ele>
        <time>2022-04-28T07:15:53.000Z</time>
      </trkpt>
      <trkpt lat="47.28358" lon="-2.36151">
        <ele>23.39999961853</ele>
        <time>2022-04-28T07:15:54.000Z</time>
      </trkpt>
      <trkpt lat="47.28359" lon="-2.3615">
        <ele>23.799999237061</ele>
        <time>2022-04-28T07:15:55.000Z</time>
      </trkpt>
      <trkpt lat="47.2836" lon="-2.36148">
        <ele>24.200000762939</ele>
        <time>2022-04-28T07:15:56.000Z</time>
      </trkpt>
      <trkpt lat="47.28361" lon="-2.36146">
        <ele>24.60000038147</ele>
        <time>2022-04-28T07:15:57.000Z</time>
      </trkpt>
      <trkpt lat="47.28364" lon="-2.36141">
        <ele>24.60000038147</ele>
        <time>2022-04-28T07:15:59.000Z</time>
      </trkpt>
      <trkpt lat="47.28366" lon="-2.36136">
        <ele>25</ele>
        <time>2022-04-28T07:16:01.000Z</time>
      </trkpt>
      <trkpt lat="47.28367" lon="-2.36134">
        <ele>25.39999961853</ele>
        <time>2022-04-28T07:16:02.000Z</time>
      </trkpt>
      <trkpt lat="47.28368" lon="-2.36132">
        <ele>25.799999237061</ele>
        <time>2022-04-28T07:16:03.000Z</time>
      </trkpt>
      <trkpt lat="47.28368" lon="-2.3613">
        <ele>26.60000038147</ele>
        <time>2022-04-28T07:16:04.000Z</time>
      </trkpt>
      <trkpt lat="47.2837" lon="-2.36128">
        <ele>26.60000038147</ele>
        <time>2022-04-28T07:16:05.000Z</time>
      </trkpt>
      <trkpt lat="47.28373" lon="-2.36118">
        <ele>26.60000038147</ele>
        <time>2022-04-28T07:16:09.000Z</time>
      </trkpt>
      <trkpt lat="47.28374" lon="-2.36116">
        <ele>27</ele>
        <time>2022-04-28T07:16:10.000Z</time>
      </trkpt>
      <trkpt lat="47.28375" lon="-2.36113">
        <ele>27.39999961853</ele>
        <time>2022-04-28T07:16:11.000Z</time>
      </trkpt>
      <trkpt lat="47.28375" lon="-2.3611">
        <ele>27.799999237061</ele>
        <time>2022-04-28T07:16:12.000Z</time>
      </trkpt>
      <trkpt lat="47.28376" lon="-2.36107">
        <ele>28.200000762939</ele>
        <time>2022-04-28T07:16:13.000Z</time>
      </trkpt>
      <trkpt lat="47.28377" lon="-2.36104">
        <ele>28.60000038147</ele>
        <time>2022-04-28T07:16:14.000Z</time>
      </trkpt>
      <trkpt lat="47.2838" lon="-2.36092">
        <ele>28.60000038147</ele>
        <time>2022-04-28T07:16:18.000Z</time>
      </trkpt>
      <trkpt lat="47.28383" lon="-2.3608">
        <ele>29</ele>
        <time>2022-04-28T07:16:22.000Z</time>
      </trkpt>
      <trkpt lat="47.28384" lon="-2.36078">
        <ele>29.39999961853</ele>
        <time>2022-04-28T07:16:23.000Z</time>
      </trkpt>
      <trkpt lat="47.28384" lon="-2.36075">
        <ele>30</ele>
        <time>2022-04-28T07:16:24.000Z</time>
      </trkpt>
      <trkpt lat="47.28384" lon="-2.36072">
        <ele>30.39999961853</ele>
        <time>2022-04-28T07:16:25.000Z</time>
      </trkpt>
      <trkpt lat="47.28384" lon="-2.36069">
        <ele>30.799999237061</ele>
        <time>2022-04-28T07:16:26.000Z</time>
      </trkpt>
      <trkpt lat="47.28382" lon="-2.36058">
        <ele>30.799999237061</ele>
        <time>2022-04-28T07:16:32.000Z</time>
      </trkpt>
      <trkpt lat="47.28382" lon="-2.36057">
        <ele>30.799999237061</ele>
        <time>2022-04-28T07:16:33.000Z</time>
      </trkpt>
      <trkpt lat="47.28381" lon="-2.36042">
        <ele>30.799999237061</ele>
        <time>2022-04-28T07:16:53.000Z</time>
      </trkpt>
      <trkpt lat="47.28381" lon="-2.36038">
        <ele>30.799999237061</ele>
        <time>2022-04-28T07:16:55.000Z</time>
      </trkpt>
      <trkpt lat="47.28381" lon="-2.36036">
        <ele>30.39999961853</ele>
        <time>2022-04-28T07:16:56.000Z</time>
      </trkpt>
      <trkpt lat="47.28383" lon="-2.36034">
        <ele>29.799999237061</ele>
        <time>2022-04-28T07:16:57.000Z</time>
      </trkpt>
      <trkpt lat="47.28384" lon="-2.36033">
        <ele>29.39999961853</ele>
        <time>2022-04-28T07:16:58.000Z</time>
      </trkpt>
      <trkpt lat="47.28386" lon="-2.36032">
        <ele>29</ele>
        <time>2022-04-28T07:16:59.000Z</time>
      </trkpt>
      <trkpt lat="47.28387" lon="-2.36031">
        <ele>28.60000038147</ele>
        <time>2022-04-28T07:17:00.000Z</time>
      </trkpt>
      <trkpt lat="47.28394" lon="-2.36031">
        <ele>28.60000038147</ele>
        <time>2022-04-28T07:17:05.000Z</time>
      </trkpt>
      <trkpt lat="47.28403" lon="-2.36025">
        <ele>28.60000038147</ele>
        <time>2022-04-28T07:17:11.000Z</time>
      </trkpt>
      <trkpt lat="47.28408" lon="-2.3602">
        <ele>28.60000038147</ele>
        <time>2022-04-28T07:17:13.000Z</time>
      </trkpt>
      <trkpt lat="47.2842" lon="-2.36007">
        <ele>28.60000038147</ele>
        <time>2022-04-28T07:17:19.000Z</time>
      </trkpt>
      <trkpt lat="47.28427" lon="-2.35997">
        <ele>28.60000038147</ele>
        <time>2022-04-28T07:17:25.000Z</time>
      </trkpt>
      <trkpt lat="47.28429" lon="-2.35996">
        <ele>29</ele>
        <time>2022-04-28T07:17:26.000Z</time>
      </trkpt>
      <trkpt lat="47.2843" lon="-2.35995">
        <ele>29.39999961853</ele>
        <time>2022-04-28T07:17:27.000Z</time>
      </trkpt>
      <trkpt lat="47.28432" lon="-2.35995">
        <ele>29.799999237061</ele>
        <time>2022-04-28T07:17:28.000Z</time>
      </trkpt>
      <trkpt lat="47.28433" lon="-2.35994">
        <ele>30.200000762939</ele>
        <time>2022-04-28T07:17:29.000Z</time>
      </trkpt>
      <trkpt lat="47.28434" lon="-2.35993">
        <ele>30.60000038147</ele>
        <time>2022-04-28T07:17:30.000Z</time>
      </trkpt>
      <trkpt lat="47.28435" lon="-2.35992">
        <ele>30.60000038147</ele>
        <time>2022-04-28T07:17:31.000Z</time>
      </trkpt>
      <trkpt lat="47.28437" lon="-2.35991">
        <ele>30.60000038147</ele>
        <time>2022-04-28T07:17:32.000Z</time>
      </trkpt>
      <trkpt lat="47.28449" lon="-2.35987">
        <ele>30.60000038147</ele>
        <time>2022-04-28T07:17:38.000Z</time>
      </trkpt>
      <trkpt lat="47.28463" lon="-2.35972">
        <ele>30.60000038147</ele>
        <time>2022-04-28T07:17:44.000Z</time>
      </trkpt>
      <trkpt lat="47.28478" lon="-2.35951">
        <ele>30.60000038147</ele>
        <time>2022-04-28T07:17:49.000Z</time>
      </trkpt>
      <trkpt lat="47.28493" lon="-2.35943">
        <ele>30.60000038147</ele>
        <time>2022-04-28T07:17:54.000Z</time>
      </trkpt>
      <trkpt lat="47.28512" lon="-2.3594">
        <ele>30.60000038147</ele>
        <time>2022-04-28T07:18:00.000Z</time>
      </trkpt>
      <trkpt lat="47.28531" lon="-2.35939">
        <ele>30.60000038147</ele>
        <time>2022-04-28T07:18:06.000Z</time>
      </trkpt>
      <trkpt lat="47.28541" lon="-2.35925">
        <ele>30.60000038147</ele>
        <time>2022-04-28T07:18:10.000Z</time>
      </trkpt>
      <trkpt lat="47.28544" lon="-2.35914">
        <ele>30.200000762939</ele>
        <time>2022-04-28T07:18:12.000Z</time>
      </trkpt>
      <trkpt lat="47.28546" lon="-2.35908">
        <ele>29.60000038147</ele>
        <time>2022-04-28T07:18:13.000Z</time>
      </trkpt>
      <trkpt lat="47.28549" lon="-2.35903">
        <ele>29.200000762939</ele>
        <time>2022-04-28T07:18:14.000Z</time>
      </trkpt>
      <trkpt lat="47.28552" lon="-2.35898">
        <ele>28.60000038147</ele>
        <time>2022-04-28T07:18:15.000Z</time>
      </trkpt>
      <trkpt lat="47.28556" lon="-2.35895">
        <ele>27.799999237061</ele>
        <time>2022-04-28T07:18:16.000Z</time>
      </trkpt>
      <trkpt lat="47.28559" lon="-2.35894">
        <ele>27.200000762939</ele>
        <time>2022-04-28T07:18:17.000Z</time>
      </trkpt>
      <trkpt lat="47.28562" lon="-2.35894">
        <ele>26.60000038147</ele>
        <time>2022-04-28T07:18:18.000Z</time>
      </trkpt>
      <trkpt lat="47.28565" lon="-2.35896">
        <ele>26</ele>
        <time>2022-04-28T07:18:19.000Z</time>
      </trkpt>
      <trkpt lat="47.28568" lon="-2.35898">
        <ele>25.60000038147</ele>
        <time>2022-04-28T07:18:20.000Z</time>
      </trkpt>
      <trkpt lat="47.2857" lon="-2.359">
        <ele>25.200000762939</ele>
        <time>2022-04-28T07:18:21.000Z</time>
      </trkpt>
      <trkpt lat="47.28571" lon="-2.35902">
        <ele>24.799999237061</ele>
        <time>2022-04-28T07:18:22.000Z</time>
      </trkpt>
      <trkpt lat="47.28573" lon="-2.35906">
        <ele>24.39999961853</ele>
        <time>2022-04-28T07:18:23.000Z</time>
      </trkpt>
      <trkpt lat="47.28573" lon="-2.3591">
        <ele>24</ele>
        <time>2022-04-28T07:18:24.000Z</time>
      </trkpt>
      <trkpt lat="47.28578" lon="-2.35921">
        <ele>24</ele>
        <time>2022-04-28T07:18:26.000Z</time>
      </trkpt>
      <trkpt lat="47.28588" lon="-2.35933">
        <ele>24</ele>
        <time>2022-04-28T07:18:29.000Z</time>
      </trkpt>
      <trkpt lat="47.28593" lon="-2.35939">
        <ele>24</ele>
        <time>2022-04-28T07:18:31.000Z</time>
      </trkpt>
      <trkpt lat="47.28607" lon="-2.35962">
        <ele>24</ele>
        <time>2022-04-28T07:18:36.000Z</time>
      </trkpt>
      <trkpt lat="47.28617" lon="-2.35992">
        <ele>24</ele>
        <time>2022-04-28T07:18:42.000Z</time>
      </trkpt>
      <trkpt lat="47.28629" lon="-2.36027">
        <ele>24</ele>
        <time>2022-04-28T07:18:49.000Z</time>
      </trkpt>
      <trkpt lat="47.2864" lon="-2.36062">
        <ele>24</ele>
        <time>2022-04-28T07:18:56.000Z</time>
      </trkpt>
      <trkpt lat="47.2865" lon="-2.36082">
        <ele>24</ele>
        <time>2022-04-28T07:19:01.000Z</time>
      </trkpt>
      <trkpt lat="47.28663" lon="-2.36114">
        <ele>24</ele>
        <time>2022-04-28T07:19:07.000Z</time>
      </trkpt>
      <trkpt lat="47.28669" lon="-2.36135">
        <ele>24</ele>
        <time>2022-04-28T07:19:12.000Z</time>
      </trkpt>
      <trkpt lat="47.28674" lon="-2.36151">
        <ele>24</ele>
        <time>2022-04-28T07:19:18.000Z</time>
      </trkpt>
      <trkpt lat="47.2868" lon="-2.36163">
        <ele>24</ele>
        <time>2022-04-28T07:19:25.000Z</time>
      </trkpt>
      <trkpt lat="47.28688" lon="-2.36184">
        <ele>24</ele>
        <time>2022-04-28T07:19:30.000Z</time>
      </trkpt>
      <trkpt lat="47.28695" lon="-2.36212">
        <ele>24</ele>
        <time>2022-04-28T07:19:37.000Z</time>
      </trkpt>
      <trkpt lat="47.28705" lon="-2.36226">
        <ele>24</ele>
        <time>2022-04-28T07:19:43.000Z</time>
      </trkpt>
      <trkpt lat="47.28707" lon="-2.36225">
        <ele>24</ele>
        <time>2022-04-28T07:19:44.000Z</time>
      </trkpt>
      <trkpt lat="47.28715" lon="-2.36222">
        <ele>24</ele>
        <time>2022-04-28T07:19:47.000Z</time>
      </trkpt>
      <trkpt lat="47.28744" lon="-2.36204">
        <ele>24</ele>
        <time>2022-04-28T07:19:53.000Z</time>
      </trkpt>
      <trkpt lat="47.28772" lon="-2.36192">
        <ele>24</ele>
        <time>2022-04-28T07:19:59.000Z</time>
      </trkpt>
      <trkpt lat="47.28806" lon="-2.36173">
        <ele>24</ele>
        <time>2022-04-28T07:20:06.000Z</time>
      </trkpt>
      <trkpt lat="47.28824" lon="-2.36157">
        <ele>24</ele>
        <time>2022-04-28T07:20:10.000Z</time>
      </trkpt>
      <trkpt lat="47.28831" lon="-2.36148">
        <ele>24</ele>
        <time>2022-04-28T07:20:12.000Z</time>
      </trkpt>
      <trkpt lat="47.28856" lon="-2.36121">
        <ele>24</ele>
        <time>2022-04-28T07:20:18.000Z</time>
      </trkpt>
      <trkpt lat="47.2886" lon="-2.36117">
        <ele>24</ele>
        <time>2022-04-28T07:20:19.000Z</time>
      </trkpt>
      <trkpt lat="47.28869" lon="-2.36109">
        <ele>24</ele>
        <time>2022-04-28T07:20:21.000Z</time>
      </trkpt>
      <trkpt lat="47.28897" lon="-2.36079">
        <ele>24</ele>
        <time>2022-04-28T07:20:28.000Z</time>
      </trkpt>
      <trkpt lat="47.28921" lon="-2.3606">
        <ele>24</ele>
        <time>2022-04-28T07:20:33.000Z</time>
      </trkpt>
      <trkpt lat="47.28958" lon="-2.36034">
        <ele>24</ele>
        <time>2022-04-28T07:20:41.000Z</time>
      </trkpt>
      <trkpt lat="47.28989" lon="-2.36006">
        <ele>24</ele>
        <time>2022-04-28T07:20:48.000Z</time>
      </trkpt>
      <trkpt lat="47.29025" lon="-2.35972">
        <ele>24</ele>
        <time>2022-04-28T07:20:56.000Z</time>
      </trkpt>
      <trkpt lat="47.29049" lon="-2.35943">
        <ele>24</ele>
        <time>2022-04-28T07:21:02.000Z</time>
      </trkpt>
      <trkpt lat="47.29082" lon="-2.35905">
        <ele>24</ele>
        <time>2022-04-28T07:21:10.000Z</time>
      </trkpt>
      <trkpt lat="47.29123" lon="-2.35857">
        <ele>24</ele>
        <time>2022-04-28T07:21:20.000Z</time>
      </trkpt>
      <trkpt lat="47.29127" lon="-2.35853">
        <ele>24</ele>
        <time>2022-04-28T07:21:21.000Z</time>
      </trkpt>
      <trkpt lat="47.29147" lon="-2.35833">
        <ele>24</ele>
        <time>2022-04-28T07:21:26.000Z</time>
      </trkpt>
      <trkpt lat="47.29164" lon="-2.35818">
        <ele>24</ele>
        <time>2022-04-28T07:21:30.000Z</time>
      </trkpt>
      <trkpt lat="47.29173" lon="-2.35813">
        <ele>24</ele>
        <time>2022-04-28T07:21:32.000Z</time>
      </trkpt>
      <trkpt lat="47.29206" lon="-2.3579">
        <ele>24</ele>
        <time>2022-04-28T07:21:39.000Z</time>
      </trkpt>
      <trkpt lat="47.29218" lon="-2.35778">
        <ele>24</ele>
        <time>2022-04-28T07:21:42.000Z</time>
      </trkpt>
      <trkpt lat="47.29229" lon="-2.35768">
        <ele>24</ele>
        <time>2022-04-28T07:21:45.000Z</time>
      </trkpt>
      <trkpt lat="47.29236" lon="-2.3576">
        <ele>24</ele>
        <time>2022-04-28T07:21:47.000Z</time>
      </trkpt>
      <trkpt lat="47.29244" lon="-2.35746">
        <ele>24</ele>
        <time>2022-04-28T07:21:50.000Z</time>
      </trkpt>
      <trkpt lat="47.29255" lon="-2.35728">
        <ele>24</ele>
        <time>2022-04-28T07:21:56.000Z</time>
      </trkpt>
      <trkpt lat="47.29257" lon="-2.35728">
        <ele>24</ele>
        <time>2022-04-28T07:21:57.000Z</time>
      </trkpt>
      <trkpt lat="47.29265" lon="-2.35731">
        <ele>24</ele>
        <time>2022-04-28T07:21:59.000Z</time>
      </trkpt>
      <trkpt lat="47.29278" lon="-2.35742">
        <ele>24</ele>
        <time>2022-04-28T07:22:02.000Z</time>
      </trkpt>
      <trkpt lat="47.29282" lon="-2.35746">
        <ele>24</ele>
        <time>2022-04-28T07:22:03.000Z</time>
      </trkpt>
      <trkpt lat="47.29318" lon="-2.35778">
        <ele>24</ele>
        <time>2022-04-28T07:22:11.000Z</time>
      </trkpt>
      <trkpt lat="47.29356" lon="-2.35816">
        <ele>24</ele>
        <time>2022-04-28T07:22:20.000Z</time>
      </trkpt>
      <trkpt lat="47.2936" lon="-2.35819">
        <ele>24</ele>
        <time>2022-04-28T07:22:21.000Z</time>
      </trkpt>
      <trkpt lat="47.29372" lon="-2.35828">
        <ele>24</ele>
        <time>2022-04-28T07:22:24.000Z</time>
      </trkpt>
      <trkpt lat="47.29375" lon="-2.35831">
        <ele>24</ele>
        <time>2022-04-28T07:22:25.000Z</time>
      </trkpt>
      <trkpt lat="47.29383" lon="-2.35837">
        <ele>24</ele>
        <time>2022-04-28T07:22:29.000Z</time>
      </trkpt>
      <trkpt lat="47.29385" lon="-2.35839">
        <ele>23.60000038147</ele>
        <time>2022-04-28T07:22:31.000Z</time>
      </trkpt>
      <trkpt lat="47.29386" lon="-2.3584">
        <ele>23.200000762939</ele>
        <time>2022-04-28T07:22:32.000Z</time>
      </trkpt>
      <trkpt lat="47.29387" lon="-2.3584">
        <ele>22.799999237061</ele>
        <time>2022-04-28T07:22:33.000Z</time>
      </trkpt>
      <trkpt lat="47.29387" lon="-2.3584">
        <ele>22.39999961853</ele>
        <time>2022-04-28T07:22:34.000Z</time>
      </trkpt>
      <trkpt lat="47.29388" lon="-2.35841">
        <ele>22</ele>
        <time>2022-04-28T07:22:35.000Z</time>
      </trkpt>
      <trkpt lat="47.29389" lon="-2.35843">
        <ele>22</ele>
        <time>2022-04-28T07:22:36.000Z</time>
      </trkpt>
      <trkpt lat="47.29392" lon="-2.35849">
        <ele>22</ele>
        <time>2022-04-28T07:22:39.000Z</time>
      </trkpt>
      <trkpt lat="47.29394" lon="-2.35849">
        <ele>22</ele>
        <time>2022-04-28T07:22:42.000Z</time>
      </trkpt>
      <trkpt lat="47.29396" lon="-2.35847">
        <ele>22</ele>
        <time>2022-04-28T07:22:43.000Z</time>
      </trkpt>
      <trkpt lat="47.29402" lon="-2.35846">
        <ele>22</ele>
        <time>2022-04-28T07:22:46.000Z</time>
      </trkpt>
      <trkpt lat="47.29404" lon="-2.35848">
        <ele>22</ele>
        <time>2022-04-28T07:22:47.000Z</time>
      </trkpt>
      <trkpt lat="47.29407" lon="-2.35864">
        <ele>22</ele>
        <time>2022-04-28T07:22:50.000Z</time>
      </trkpt>
      <trkpt lat="47.29407" lon="-2.35868">
        <ele>22</ele>
        <time>2022-04-28T07:22:51.000Z</time>
      </trkpt>
      <trkpt lat="47.2941" lon="-2.35871">
        <ele>22</ele>
        <time>2022-04-28T07:22:52.000Z</time>
      </trkpt>
      <trkpt lat="47.29417" lon="-2.35878">
        <ele>22</ele>
        <time>2022-04-28T07:22:54.000Z</time>
      </trkpt>
      <trkpt lat="47.2943" lon="-2.35896">
        <ele>22</ele>
        <time>2022-04-28T07:22:58.000Z</time>
      </trkpt>
      <trkpt lat="47.29433" lon="-2.35898">
        <ele>22</ele>
        <time>2022-04-28T07:22:59.000Z</time>
      </trkpt>
      <trkpt lat="47.29449" lon="-2.359">
        <ele>22</ele>
        <time>2022-04-28T07:23:04.000Z</time>
      </trkpt>
      <trkpt lat="47.29469" lon="-2.359">
        <ele>22</ele>
        <time>2022-04-28T07:23:10.000Z</time>
      </trkpt>
      <trkpt lat="47.29484" lon="-2.35898">
        <ele>22</ele>
        <time>2022-04-28T07:23:15.000Z</time>
      </trkpt>
      <trkpt lat="47.29493" lon="-2.35899">
        <ele>22</ele>
        <time>2022-04-28T07:23:19.000Z</time>
      </trkpt>
      <trkpt lat="47.29495" lon="-2.35903">
        <ele>22</ele>
        <time>2022-04-28T07:23:20.000Z</time>
      </trkpt>
      <trkpt lat="47.295" lon="-2.35915">
        <ele>22</ele>
        <time>2022-04-28T07:23:23.000Z</time>
      </trkpt>
      <trkpt lat="47.29501" lon="-2.3592">
        <ele>22</ele>
        <time>2022-04-28T07:23:24.000Z</time>
      </trkpt>
      <trkpt lat="47.29509" lon="-2.35941">
        <ele>22</ele>
        <time>2022-04-28T07:23:30.000Z</time>
      </trkpt>
      <trkpt lat="47.29512" lon="-2.3594">
        <ele>22</ele>
        <time>2022-04-28T07:23:31.000Z</time>
      </trkpt>
      <trkpt lat="47.2953" lon="-2.35931">
        <ele>22</ele>
        <time>2022-04-28T07:23:36.000Z</time>
      </trkpt>
      <trkpt lat="47.2956" lon="-2.35914">
        <ele>22</ele>
        <time>2022-04-28T07:23:43.000Z</time>
      </trkpt>
      <trkpt lat="47.29589" lon="-2.35898">
        <ele>22</ele>
        <time>2022-04-28T07:23:49.000Z</time>
      </trkpt>
      <trkpt lat="47.29618" lon="-2.3588">
        <ele>22</ele>
        <time>2022-04-28T07:23:55.000Z</time>
      </trkpt>
      <trkpt lat="47.29647" lon="-2.35859">
        <ele>22</ele>
        <time>2022-04-28T07:24:01.000Z</time>
      </trkpt>
      <trkpt lat="47.2965" lon="-2.35853">
        <ele>22</ele>
        <time>2022-04-28T07:24:02.000Z</time>
      </trkpt>
      <trkpt lat="47.29658" lon="-2.35837">
        <ele>22</ele>
        <time>2022-04-28T07:24:05.000Z</time>
      </trkpt>
      <trkpt lat="47.29673" lon="-2.35836">
        <ele>22</ele>
        <time>2022-04-28T07:24:08.000Z</time>
      </trkpt>
      <trkpt lat="47.29702" lon="-2.35833">
        <ele>22</ele>
        <time>2022-04-28T07:24:13.000Z</time>
      </trkpt>
      <trkpt lat="47.29708" lon="-2.35831">
        <ele>22</ele>
        <time>2022-04-28T07:24:14.000Z</time>
      </trkpt>
      <trkpt lat="47.29713" lon="-2.35828">
        <ele>22</ele>
        <time>2022-04-28T07:24:15.000Z</time>
      </trkpt>
      <trkpt lat="47.29728" lon="-2.35818">
        <ele>22.39999961853</ele>
        <time>2022-04-28T07:24:18.000Z</time>
      </trkpt>
      <trkpt lat="47.29733" lon="-2.35816">
        <ele>22.799999237061</ele>
        <time>2022-04-28T07:24:19.000Z</time>
      </trkpt>
      <trkpt lat="47.29737" lon="-2.35813">
        <ele>23.200000762939</ele>
        <time>2022-04-28T07:24:20.000Z</time>
      </trkpt>
      <trkpt lat="47.29742" lon="-2.3581">
        <ele>23.60000038147</ele>
        <time>2022-04-28T07:24:21.000Z</time>
      </trkpt>
      <trkpt lat="47.29747" lon="-2.35808">
        <ele>24</ele>
        <time>2022-04-28T07:24:22.000Z</time>
      </trkpt>
      <trkpt lat="47.29756" lon="-2.35804">
        <ele>24</ele>
        <time>2022-04-28T07:24:24.000Z</time>
      </trkpt>
      <trkpt lat="47.29766" lon="-2.35801">
        <ele>24.39999961853</ele>
        <time>2022-04-28T07:24:26.000Z</time>
      </trkpt>
      <trkpt lat="47.2977" lon="-2.35799">
        <ele>24.799999237061</ele>
        <time>2022-04-28T07:24:27.000Z</time>
      </trkpt>
      <trkpt lat="47.29776" lon="-2.35797">
        <ele>25.200000762939</ele>
        <time>2022-04-28T07:24:28.000Z</time>
      </trkpt>
      <trkpt lat="47.2978" lon="-2.35795">
        <ele>25.60000038147</ele>
        <time>2022-04-28T07:24:29.000Z</time>
      </trkpt>
      <trkpt lat="47.29785" lon="-2.35794">
        <ele>26</ele>
        <time>2022-04-28T07:24:30.000Z</time>
      </trkpt>
      <trkpt lat="47.29795" lon="-2.3579">
        <ele>26</ele>
        <time>2022-04-28T07:24:32.000Z</time>
      </trkpt>
      <trkpt lat="47.29838" lon="-2.35775">
        <ele>26</ele>
        <time>2022-04-28T07:24:40.000Z</time>
      </trkpt>
      <trkpt lat="47.29883" lon="-2.35758">
        <ele>26</ele>
        <time>2022-04-28T07:24:47.000Z</time>
      </trkpt>
      <trkpt lat="47.299" lon="-2.35749">
        <ele>25.60000038147</ele>
        <time>2022-04-28T07:24:50.000Z</time>
      </trkpt>
      <trkpt lat="47.29905" lon="-2.35745">
        <ele>25.200000762939</ele>
        <time>2022-04-28T07:24:51.000Z</time>
      </trkpt>
      <trkpt lat="47.2991" lon="-2.35742">
        <ele>24.60000038147</ele>
        <time>2022-04-28T07:24:52.000Z</time>
      </trkpt>
      <trkpt lat="47.29915" lon="-2.35739">
        <ele>24.200000762939</ele>
        <time>2022-04-28T07:24:53.000Z</time>
      </trkpt>
      <trkpt lat="47.29919" lon="-2.35734">
        <ele>23.799999237061</ele>
        <time>2022-04-28T07:24:54.000Z</time>
      </trkpt>
      <trkpt lat="47.29936" lon="-2.3572">
        <ele>23.799999237061</ele>
        <time>2022-04-28T07:24:58.000Z</time>
      </trkpt>
      <trkpt lat="47.29977" lon="-2.35692">
        <ele>23.799999237061</ele>
        <time>2022-04-28T07:25:07.000Z</time>
      </trkpt>
      <trkpt lat="47.30015" lon="-2.3567">
        <ele>23.799999237061</ele>
        <time>2022-04-28T07:25:15.000Z</time>
      </trkpt>
      <trkpt lat="47.3002" lon="-2.35668">
        <ele>24.200000762939</ele>
        <time>2022-04-28T07:25:16.000Z</time>
      </trkpt>
      <trkpt lat="47.30024" lon="-2.35666">
        <ele>24.799999237061</ele>
        <time>2022-04-28T07:25:17.000Z</time>
      </trkpt>
      <trkpt lat="47.30029" lon="-2.35663">
        <ele>25.200000762939</ele>
        <time>2022-04-28T07:25:18.000Z</time>
      </trkpt>
      <trkpt lat="47.30033" lon="-2.3566">
        <ele>25.799999237061</ele>
        <time>2022-04-28T07:25:19.000Z</time>
      </trkpt>
      <trkpt lat="47.30038" lon="-2.35657">
        <ele>26.200000762939</ele>
        <time>2022-04-28T07:25:20.000Z</time>
      </trkpt>
      <trkpt lat="47.30047" lon="-2.3565">
        <ele>26.200000762939</ele>
        <time>2022-04-28T07:25:22.000Z</time>
      </trkpt>
      <trkpt lat="47.30052" lon="-2.35648">
        <ele>26.200000762939</ele>
        <time>2022-04-28T07:25:23.000Z</time>
      </trkpt>
      <trkpt lat="47.30072" lon="-2.35636">
        <ele>26.200000762939</ele>
        <time>2022-04-28T07:25:27.000Z</time>
      </trkpt>
      <trkpt lat="47.30109" lon="-2.35613">
        <ele>26.200000762939</ele>
        <time>2022-04-28T07:25:35.000Z</time>
      </trkpt>
      <trkpt lat="47.30121" lon="-2.35603">
        <ele>26.200000762939</ele>
        <time>2022-04-28T07:25:38.000Z</time>
      </trkpt>
      <trkpt lat="47.30127" lon="-2.35594">
        <ele>26.200000762939</ele>
        <time>2022-04-28T07:25:40.000Z</time>
      </trkpt>
      <trkpt lat="47.30137" lon="-2.35603">
        <ele>26.200000762939</ele>
        <time>2022-04-28T07:25:43.000Z</time>
      </trkpt>
      <trkpt lat="47.30134" lon="-2.3562">
        <ele>26.200000762939</ele>
        <time>2022-04-28T07:25:46.000Z</time>
      </trkpt>
      <trkpt lat="47.30133" lon="-2.35627">
        <ele>26.200000762939</ele>
        <time>2022-04-28T07:25:47.000Z</time>
      </trkpt>
      <trkpt lat="47.30133" lon="-2.35633">
        <ele>26.200000762939</ele>
        <time>2022-04-28T07:25:48.000Z</time>
      </trkpt>
      <trkpt lat="47.30135" lon="-2.35653">
        <ele>26.200000762939</ele>
        <time>2022-04-28T07:25:51.000Z</time>
      </trkpt>
      <trkpt lat="47.30138" lon="-2.35716">
        <ele>26.200000762939</ele>
        <time>2022-04-28T07:26:00.000Z</time>
      </trkpt>
      <trkpt lat="47.30141" lon="-2.3577">
        <ele>26.200000762939</ele>
        <time>2022-04-28T07:26:06.000Z</time>
      </trkpt>
      <trkpt lat="47.3014" lon="-2.35833">
        <ele>26.200000762939</ele>
        <time>2022-04-28T07:26:12.000Z</time>
      </trkpt>
      <trkpt lat="47.30135" lon="-2.35856">
        <ele>25.799999237061</ele>
        <time>2022-04-28T07:26:14.000Z</time>
      </trkpt>
      <trkpt lat="47.30133" lon="-2.35868">
        <ele>25.39999961853</ele>
        <time>2022-04-28T07:26:15.000Z</time>
      </trkpt>
      <trkpt lat="47.30131" lon="-2.3588">
        <ele>25</ele>
        <time>2022-04-28T07:26:16.000Z</time>
      </trkpt>
      <trkpt lat="47.30129" lon="-2.35893">
        <ele>24.60000038147</ele>
        <time>2022-04-28T07:26:17.000Z</time>
      </trkpt>
      <trkpt lat="47.30126" lon="-2.35905">
        <ele>24</ele>
        <time>2022-04-28T07:26:18.000Z</time>
      </trkpt>
      <trkpt lat="47.30122" lon="-2.35928">
        <ele>23.60000038147</ele>
        <time>2022-04-28T07:26:20.000Z</time>
      </trkpt>
      <trkpt lat="47.30119" lon="-2.3594">
        <ele>23.200000762939</ele>
        <time>2022-04-28T07:26:21.000Z</time>
      </trkpt>
      <trkpt lat="47.30117" lon="-2.35952">
        <ele>22.39999961853</ele>
        <time>2022-04-28T07:26:22.000Z</time>
      </trkpt>
      <trkpt lat="47.30115" lon="-2.35964">
        <ele>22</ele>
        <time>2022-04-28T07:26:23.000Z</time>
      </trkpt>
      <trkpt lat="47.3011" lon="-2.35987">
        <ele>22</ele>
        <time>2022-04-28T07:26:25.000Z</time>
      </trkpt>
      <trkpt lat="47.30102" lon="-2.3606">
        <ele>22</ele>
        <time>2022-04-28T07:26:31.000Z</time>
      </trkpt>
      <trkpt lat="47.30095" lon="-2.36126">
        <ele>22</ele>
        <time>2022-04-28T07:26:37.000Z</time>
      </trkpt>
      <trkpt lat="47.30088" lon="-2.36198">
        <ele>22</ele>
        <time>2022-04-28T07:26:44.000Z</time>
      </trkpt>
      <trkpt lat="47.3009" lon="-2.36244">
        <ele>22</ele>
        <time>2022-04-28T07:26:49.000Z</time>
      </trkpt>
      <trkpt lat="47.30094" lon="-2.36295">
        <ele>22</ele>
        <time>2022-04-28T07:26:55.000Z</time>
      </trkpt>
      <trkpt lat="47.30099" lon="-2.36349">
        <ele>22</ele>
        <time>2022-04-28T07:27:02.000Z</time>
      </trkpt>
      <trkpt lat="47.30102" lon="-2.36381">
        <ele>22.39999961853</ele>
        <time>2022-04-28T07:27:06.000Z</time>
      </trkpt>
      <trkpt lat="47.30103" lon="-2.36389">
        <ele>23</ele>
        <time>2022-04-28T07:27:07.000Z</time>
      </trkpt>
      <trkpt lat="47.30103" lon="-2.36397">
        <ele>23.39999961853</ele>
        <time>2022-04-28T07:27:08.000Z</time>
      </trkpt>
      <trkpt lat="47.30104" lon="-2.36405">
        <ele>23.799999237061</ele>
        <time>2022-04-28T07:27:09.000Z</time>
      </trkpt>
      <trkpt lat="47.30105" lon="-2.36413">
        <ele>24.200000762939</ele>
        <time>2022-04-28T07:27:10.000Z</time>
      </trkpt>
      <trkpt lat="47.30105" lon="-2.36421">
        <ele>24.200000762939</ele>
        <time>2022-04-28T07:27:11.000Z</time>
      </trkpt>
      <trkpt lat="47.30113" lon="-2.36474">
        <ele>24.200000762939</ele>
        <time>2022-04-28T07:27:18.000Z</time>
      </trkpt>
      <trkpt lat="47.30121" lon="-2.36533">
        <ele>24.200000762939</ele>
        <time>2022-04-28T07:27:26.000Z</time>
      </trkpt>
      <trkpt lat="47.30123" lon="-2.36547">
        <ele>24.60000038147</ele>
        <time>2022-04-28T07:27:28.000Z</time>
      </trkpt>
      <trkpt lat="47.30125" lon="-2.36555">
        <ele>25</ele>
        <time>2022-04-28T07:27:29.000Z</time>
      </trkpt>
      <trkpt lat="47.30125" lon="-2.36562">
        <ele>25.39999961853</ele>
        <time>2022-04-28T07:27:30.000Z</time>
      </trkpt>
      <trkpt lat="47.30126" lon="-2.36569">
        <ele>25.799999237061</ele>
        <time>2022-04-28T07:27:31.000Z</time>
      </trkpt>
      <trkpt lat="47.30127" lon="-2.36576">
        <ele>26.200000762939</ele>
        <time>2022-04-28T07:27:32.000Z</time>
      </trkpt>
      <trkpt lat="47.30129" lon="-2.36589">
        <ele>26.200000762939</ele>
        <time>2022-04-28T07:27:34.000Z</time>
      </trkpt>
      <trkpt lat="47.30143" lon="-2.36635">
        <ele>26.200000762939</ele>
        <time>2022-04-28T07:27:41.000Z</time>
      </trkpt>
      <trkpt lat="47.3016" lon="-2.3667">
        <ele>26.60000038147</ele>
        <time>2022-04-28T07:27:48.000Z</time>
      </trkpt>
      <trkpt lat="47.30162" lon="-2.36673">
        <ele>27</ele>
        <time>2022-04-28T07:27:49.000Z</time>
      </trkpt>
      <trkpt lat="47.30163" lon="-2.36677">
        <ele>27.39999961853</ele>
        <time>2022-04-28T07:27:50.000Z</time>
      </trkpt>
      <trkpt lat="47.30165" lon="-2.36681">
        <ele>28</ele>
        <time>2022-04-28T07:27:51.000Z</time>
      </trkpt>
      <trkpt lat="47.30168" lon="-2.36683">
        <ele>28.39999961853</ele>
        <time>2022-04-28T07:27:52.000Z</time>
      </trkpt>
      <trkpt lat="47.3017" lon="-2.36684">
        <ele>28.39999961853</ele>
        <time>2022-04-28T07:27:53.000Z</time>
      </trkpt>
      <trkpt lat="47.30173" lon="-2.36683">
        <ele>28.39999961853</ele>
        <time>2022-04-28T07:27:55.000Z</time>
      </trkpt>
      <trkpt lat="47.30175" lon="-2.36682">
        <ele>28.39999961853</ele>
        <time>2022-04-28T07:27:57.000Z</time>
      </trkpt>
      <trkpt lat="47.30176" lon="-2.36682">
        <ele>28.39999961853</ele>
        <time>2022-04-28T07:28:00.000Z</time>
      </trkpt>
      <trkpt lat="47.30176" lon="-2.36682">
        <ele>28.39999961853</ele>
        <time>2022-04-28T07:28:07.000Z</time>
      </trkpt>
      <trkpt lat="47.30178" lon="-2.36681">
        <ele>28.39999961853</ele>
        <time>2022-04-28T07:28:08.000Z</time>
      </trkpt>
      <trkpt lat="47.30183" lon="-2.36677">
        <ele>28.39999961853</ele>
        <time>2022-04-28T07:28:12.000Z</time>
      </trkpt>
      <trkpt lat="47.30188" lon="-2.36674">
        <ele>28.39999961853</ele>
        <time>2022-04-28T07:28:14.000Z</time>
      </trkpt>
      <trkpt lat="47.30207" lon="-2.3667">
        <ele>28.39999961853</ele>
        <time>2022-04-28T07:28:20.000Z</time>
      </trkpt>
      <trkpt lat="47.30235" lon="-2.36666">
        <ele>28.39999961853</ele>
        <time>2022-04-28T07:28:27.000Z</time>
      </trkpt>
      <trkpt lat="47.30247" lon="-2.36664">
        <ele>28.799999237061</ele>
        <time>2022-04-28T07:28:30.000Z</time>
      </trkpt>
      <trkpt lat="47.30251" lon="-2.36663">
        <ele>29.200000762939</ele>
        <time>2022-04-28T07:28:31.000Z</time>
      </trkpt>
      <trkpt lat="47.30255" lon="-2.36662">
        <ele>29.60000038147</ele>
        <time>2022-04-28T07:28:32.000Z</time>
      </trkpt>
      <trkpt lat="47.30259" lon="-2.36661">
        <ele>30</ele>
        <time>2022-04-28T07:28:33.000Z</time>
      </trkpt>
      <trkpt lat="47.30263" lon="-2.3666">
        <ele>30.39999961853</ele>
        <time>2022-04-28T07:28:34.000Z</time>
      </trkpt>
      <trkpt lat="47.3029" lon="-2.36648">
        <ele>30.39999961853</ele>
        <time>2022-04-28T07:28:40.000Z</time>
      </trkpt>
      <trkpt lat="47.30303" lon="-2.36643">
        <ele>30.39999961853</ele>
        <time>2022-04-28T07:28:43.000Z</time>
      </trkpt>
      <trkpt lat="47.30317" lon="-2.36642">
        <ele>30.39999961853</ele>
        <time>2022-04-28T07:28:46.000Z</time>
      </trkpt>
      <trkpt lat="47.30322" lon="-2.36643">
        <ele>30.39999961853</ele>
        <time>2022-04-28T07:28:47.000Z</time>
      </trkpt>
      <trkpt lat="47.30342" lon="-2.36649">
        <ele>30.39999961853</ele>
        <time>2022-04-28T07:28:51.000Z</time>
      </trkpt>
      <trkpt lat="47.3037" lon="-2.36654">
        <ele>30.39999961853</ele>
        <time>2022-04-28T07:28:57.000Z</time>
      </trkpt>
      <trkpt lat="47.30398" lon="-2.36655">
        <ele>30.799999237061</ele>
        <time>2022-04-28T07:29:04.000Z</time>
      </trkpt>
      <trkpt lat="47.30402" lon="-2.36654">
        <ele>31.200000762939</ele>
        <time>2022-04-28T07:29:05.000Z</time>
      </trkpt>
      <trkpt lat="47.30406" lon="-2.36654">
        <ele>31.60000038147</ele>
        <time>2022-04-28T07:29:06.000Z</time>
      </trkpt>
      <trkpt lat="47.30411" lon="-2.36653">
        <ele>32.200000762939</ele>
        <time>2022-04-28T07:29:07.000Z</time>
      </trkpt>
      <trkpt lat="47.30415" lon="-2.36651">
        <ele>32.599998474121</ele>
        <time>2022-04-28T07:29:08.000Z</time>
      </trkpt>
      <trkpt lat="47.30423" lon="-2.36647">
        <ele>32.599998474121</ele>
        <time>2022-04-28T07:29:10.000Z</time>
      </trkpt>
      <trkpt lat="47.30427" lon="-2.36645">
        <ele>32.599998474121</ele>
        <time>2022-04-28T07:29:11.000Z</time>
      </trkpt>
      <trkpt lat="47.30442" lon="-2.3663">
        <ele>32.599998474121</ele>
        <time>2022-04-28T07:29:15.000Z</time>
      </trkpt>
      <trkpt lat="47.30475" lon="-2.36606">
        <ele>32.599998474121</ele>
        <time>2022-04-28T07:29:23.000Z</time>
      </trkpt>
      <trkpt lat="47.30492" lon="-2.366">
        <ele>32.599998474121</ele>
        <time>2022-04-28T07:29:28.000Z</time>
      </trkpt>
      <trkpt lat="47.30503" lon="-2.36596">
        <ele>32.599998474121</ele>
        <time>2022-04-28T07:29:31.000Z</time>
      </trkpt>
      <trkpt lat="47.30521" lon="-2.3659">
        <ele>32.599998474121</ele>
        <time>2022-04-28T07:29:35.000Z</time>
      </trkpt>
      <trkpt lat="47.30525" lon="-2.36588">
        <ele>32.599998474121</ele>
        <time>2022-04-28T07:29:36.000Z</time>
      </trkpt>
      <trkpt lat="47.30542" lon="-2.36575">
        <ele>32.599998474121</ele>
        <time>2022-04-28T07:29:40.000Z</time>
      </trkpt>
      <trkpt lat="47.30559" lon="-2.36562">
        <ele>32.599998474121</ele>
        <time>2022-04-28T07:29:44.000Z</time>
      </trkpt>
      <trkpt lat="47.30568" lon="-2.36556">
        <ele>32.599998474121</ele>
        <time>2022-04-28T07:29:46.000Z</time>
      </trkpt>
      <trkpt lat="47.30594" lon="-2.36546">
        <ele>32.599998474121</ele>
        <time>2022-04-28T07:29:52.000Z</time>
      </trkpt>
      <trkpt lat="47.30615" lon="-2.36542">
        <ele>32.599998474121</ele>
        <time>2022-04-28T07:29:57.000Z</time>
      </trkpt>
      <trkpt lat="47.30642" lon="-2.36531">
        <ele>32.599998474121</ele>
        <time>2022-04-28T07:30:03.000Z</time>
      </trkpt>
      <trkpt lat="47.30671" lon="-2.36516">
        <ele>32.599998474121</ele>
        <time>2022-04-28T07:30:09.000Z</time>
      </trkpt>
      <trkpt lat="47.3069" lon="-2.36509">
        <ele>32.599998474121</ele>
        <time>2022-04-28T07:30:13.000Z</time>
      </trkpt>
      <trkpt lat="47.30694" lon="-2.36511">
        <ele>32.599998474121</ele>
        <time>2022-04-28T07:30:14.000Z</time>
      </trkpt>
      <trkpt lat="47.30703" lon="-2.36518">
        <ele>32.599998474121</ele>
        <time>2022-04-28T07:30:17.000Z</time>
      </trkpt>
      <trkpt lat="47.30714" lon="-2.36507">
        <ele>32.599998474121</ele>
        <time>2022-04-28T07:30:20.000Z</time>
      </trkpt>
      <trkpt lat="47.30729" lon="-2.36496">
        <ele>32.599998474121</ele>
        <time>2022-04-28T07:30:23.000Z</time>
      </trkpt>
      <trkpt lat="47.30734" lon="-2.36493">
        <ele>32.599998474121</ele>
        <time>2022-04-28T07:30:24.000Z</time>
      </trkpt>
      <trkpt lat="47.30745" lon="-2.36489">
        <ele>32.200000762939</ele>
        <time>2022-04-28T07:30:26.000Z</time>
      </trkpt>
      <trkpt lat="47.30751" lon="-2.36486">
        <ele>31.799999237061</ele>
        <time>2022-04-28T07:30:27.000Z</time>
      </trkpt>
      <trkpt lat="47.30757" lon="-2.36484">
        <ele>31.200000762939</ele>
        <time>2022-04-28T07:30:28.000Z</time>
      </trkpt>
      <trkpt lat="47.30763" lon="-2.36482">
        <ele>30.39999961853</ele>
        <time>2022-04-28T07:30:29.000Z</time>
      </trkpt>
      <trkpt lat="47.30781" lon="-2.36478">
        <ele>30.39999961853</ele>
        <time>2022-04-28T07:30:32.000Z</time>
      </trkpt>
      <trkpt lat="47.30811" lon="-2.36471">
        <ele>30.39999961853</ele>
        <time>2022-04-28T07:30:37.000Z</time>
      </trkpt>
      <trkpt lat="47.30827" lon="-2.36482">
        <ele>30</ele>
        <time>2022-04-28T07:30:40.000Z</time>
      </trkpt>
      <trkpt lat="47.30832" lon="-2.36484">
        <ele>29.60000038147</ele>
        <time>2022-04-28T07:30:41.000Z</time>
      </trkpt>
      <trkpt lat="47.30838" lon="-2.36485">
        <ele>29.200000762939</ele>
        <time>2022-04-28T07:30:42.000Z</time>
      </trkpt>
      <trkpt lat="47.30844" lon="-2.36485">
        <ele>28.799999237061</ele>
        <time>2022-04-28T07:30:43.000Z</time>
      </trkpt>
      <trkpt lat="47.3085" lon="-2.36484">
        <ele>28.39999961853</ele>
        <time>2022-04-28T07:30:44.000Z</time>
      </trkpt>
      <trkpt lat="47.30875" lon="-2.36478">
        <ele>28.39999961853</ele>
        <time>2022-04-28T07:30:48.000Z</time>
      </trkpt>
      <trkpt lat="47.30915" lon="-2.36464">
        <ele>28.39999961853</ele>
        <time>2022-04-28T07:30:55.000Z</time>
      </trkpt>
      <trkpt lat="47.30949" lon="-2.36455">
        <ele>28.39999961853</ele>
        <time>2022-04-28T07:31:01.000Z</time>
      </trkpt>
      <trkpt lat="47.30954" lon="-2.36454">
        <ele>28.39999961853</ele>
        <time>2022-04-28T07:31:02.000Z</time>
      </trkpt>
      <trkpt lat="47.3098" lon="-2.36441">
        <ele>28.39999961853</ele>
        <time>2022-04-28T07:31:07.000Z</time>
      </trkpt>
      <trkpt lat="47.31012" lon="-2.36426">
        <ele>27.799999237061</ele>
        <time>2022-04-28T07:31:13.000Z</time>
      </trkpt>
      <trkpt lat="47.31018" lon="-2.36424">
        <ele>27.39999961853</ele>
        <time>2022-04-28T07:31:14.000Z</time>
      </trkpt>
      <trkpt lat="47.31023" lon="-2.36422">
        <ele>27</ele>
        <time>2022-04-28T07:31:15.000Z</time>
      </trkpt>
      <trkpt lat="47.31029" lon="-2.36421">
        <ele>26.60000038147</ele>
        <time>2022-04-28T07:31:16.000Z</time>
      </trkpt>
      <trkpt lat="47.31035" lon="-2.3642">
        <ele>26.200000762939</ele>
        <time>2022-04-28T07:31:17.000Z</time>
      </trkpt>
      <trkpt lat="47.31046" lon="-2.36419">
        <ele>26.200000762939</ele>
        <time>2022-04-28T07:31:19.000Z</time>
      </trkpt>
      <trkpt lat="47.3108" lon="-2.36415">
        <ele>26.200000762939</ele>
        <time>2022-04-28T07:31:26.000Z</time>
      </trkpt>
      <trkpt lat="47.31101" lon="-2.36412">
        <ele>26.200000762939</ele>
        <time>2022-04-28T07:31:31.000Z</time>
      </trkpt>
      <trkpt lat="47.3111" lon="-2.36409">
        <ele>26.200000762939</ele>
        <time>2022-04-28T07:31:33.000Z</time>
      </trkpt>
      <trkpt lat="47.31129" lon="-2.36397">
        <ele>26.200000762939</ele>
        <time>2022-04-28T07:31:37.000Z</time>
      </trkpt>
      <trkpt lat="47.31159" lon="-2.36377">
        <ele>26.200000762939</ele>
        <time>2022-04-28T07:31:43.000Z</time>
      </trkpt>
      <trkpt lat="47.31194" lon="-2.36352">
        <ele>26.200000762939</ele>
        <time>2022-04-28T07:31:50.000Z</time>
      </trkpt>
      <trkpt lat="47.31226" lon="-2.36337">
        <ele>26.200000762939</ele>
        <time>2022-04-28T07:31:56.000Z</time>
      </trkpt>
      <trkpt lat="47.31261" lon="-2.36312">
        <ele>26.200000762939</ele>
        <time>2022-04-28T07:32:03.000Z</time>
      </trkpt>
      <trkpt lat="47.31294" lon="-2.36299">
        <ele>26.200000762939</ele>
        <time>2022-04-28T07:32:09.000Z</time>
      </trkpt>
      <trkpt lat="47.31313" lon="-2.36288">
        <ele>26.200000762939</ele>
        <time>2022-04-28T07:32:13.000Z</time>
      </trkpt>
      <trkpt lat="47.31325" lon="-2.36278">
        <ele>26.200000762939</ele>
        <time>2022-04-28T07:32:16.000Z</time>
      </trkpt>
      <trkpt lat="47.31335" lon="-2.36267">
        <ele>26.200000762939</ele>
        <time>2022-04-28T07:32:21.000Z</time>
      </trkpt>
      <trkpt lat="47.31341" lon="-2.3626">
        <ele>26.200000762939</ele>
        <time>2022-04-28T07:32:27.000Z</time>
      </trkpt>
      <trkpt lat="47.31354" lon="-2.36249">
        <ele>26.200000762939</ele>
        <time>2022-04-28T07:32:34.000Z</time>
      </trkpt>
      <trkpt lat="47.31372" lon="-2.36235">
        <ele>26.200000762939</ele>
        <time>2022-04-28T07:32:40.000Z</time>
      </trkpt>
      <trkpt lat="47.31397" lon="-2.36221">
        <ele>26.200000762939</ele>
        <time>2022-04-28T07:32:46.000Z</time>
      </trkpt>
      <trkpt lat="47.31441" lon="-2.36197">
        <ele>26.200000762939</ele>
        <time>2022-04-28T07:32:55.000Z</time>
      </trkpt>
      <trkpt lat="47.31461" lon="-2.36179">
        <ele>26.200000762939</ele>
        <time>2022-04-28T07:33:00.000Z</time>
      </trkpt>
      <trkpt lat="47.31464" lon="-2.36174">
        <ele>26.200000762939</ele>
        <time>2022-04-28T07:33:01.000Z</time>
      </trkpt>
      <trkpt lat="47.31473" lon="-2.36163">
        <ele>26.200000762939</ele>
        <time>2022-04-28T07:33:04.000Z</time>
      </trkpt>
      <trkpt lat="47.31479" lon="-2.36157">
        <ele>26.200000762939</ele>
        <time>2022-04-28T07:33:06.000Z</time>
      </trkpt>
      <trkpt lat="47.31492" lon="-2.36142">
        <ele>26.200000762939</ele>
        <time>2022-04-28T07:33:10.000Z</time>
      </trkpt>
      <trkpt lat="47.31495" lon="-2.36138">
        <ele>26.200000762939</ele>
        <time>2022-04-28T07:33:11.000Z</time>
      </trkpt>
      <trkpt lat="47.31521" lon="-2.36107">
        <ele>26.200000762939</ele>
        <time>2022-04-28T07:33:19.000Z</time>
      </trkpt>
      <trkpt lat="47.31537" lon="-2.36092">
        <ele>26.200000762939</ele>
        <time>2022-04-28T07:33:23.000Z</time>
      </trkpt>
      <trkpt lat="47.31544" lon="-2.36084">
        <ele>26.200000762939</ele>
        <time>2022-04-28T07:33:25.000Z</time>
      </trkpt>
      <trkpt lat="47.31569" lon="-2.3606">
        <ele>26.200000762939</ele>
        <time>2022-04-28T07:33:31.000Z</time>
      </trkpt>
      <trkpt lat="47.31594" lon="-2.36036">
        <ele>26.200000762939</ele>
        <time>2022-04-28T07:33:37.000Z</time>
      </trkpt>
      <trkpt lat="47.31612" lon="-2.36019">
        <ele>26.200000762939</ele>
        <time>2022-04-28T07:33:41.000Z</time>
      </trkpt>
      <trkpt lat="47.31623" lon="-2.36005">
        <ele>25.799999237061</ele>
        <time>2022-04-28T07:33:44.000Z</time>
      </trkpt>
      <trkpt lat="47.31627" lon="-2.36001">
        <ele>25</ele>
        <time>2022-04-28T07:33:45.000Z</time>
      </trkpt>
      <trkpt lat="47.31631" lon="-2.35996">
        <ele>24.60000038147</ele>
        <time>2022-04-28T07:33:46.000Z</time>
      </trkpt>
      <trkpt lat="47.31635" lon="-2.35992">
        <ele>24.200000762939</ele>
        <time>2022-04-28T07:33:47.000Z</time>
      </trkpt>
      <trkpt lat="47.31648" lon="-2.35978">
        <ele>24.200000762939</ele>
        <time>2022-04-28T07:33:50.000Z</time>
      </trkpt>
      <trkpt lat="47.31681" lon="-2.35958">
        <ele>24.200000762939</ele>
        <time>2022-04-28T07:33:56.000Z</time>
      </trkpt>
      <trkpt lat="47.31708" lon="-2.35942">
        <ele>24.200000762939</ele>
        <time>2022-04-28T07:34:01.000Z</time>
      </trkpt>
      <trkpt lat="47.31713" lon="-2.35939">
        <ele>23.799999237061</ele>
        <time>2022-04-28T07:34:02.000Z</time>
      </trkpt>
      <trkpt lat="47.31719" lon="-2.35936">
        <ele>23.39999961853</ele>
        <time>2022-04-28T07:34:03.000Z</time>
      </trkpt>
      <trkpt lat="47.31724" lon="-2.35932">
        <ele>23</ele>
        <time>2022-04-28T07:34:04.000Z</time>
      </trkpt>
      <trkpt lat="47.3173" lon="-2.35929">
        <ele>22.60000038147</ele>
        <time>2022-04-28T07:34:05.000Z</time>
      </trkpt>
      <trkpt lat="47.31736" lon="-2.35925">
        <ele>22.200000762939</ele>
        <time>2022-04-28T07:34:06.000Z</time>
      </trkpt>
      <trkpt lat="47.31747" lon="-2.35918">
        <ele>22.200000762939</ele>
        <time>2022-04-28T07:34:08.000Z</time>
      </trkpt>
      <trkpt lat="47.31782" lon="-2.35897">
        <ele>22.200000762939</ele>
        <time>2022-04-28T07:34:14.000Z</time>
      </trkpt>
      <trkpt lat="47.31787" lon="-2.35894">
        <ele>21.799999237061</ele>
        <time>2022-04-28T07:34:15.000Z</time>
      </trkpt>
      <trkpt lat="47.31793" lon="-2.35891">
        <ele>21.39999961853</ele>
        <time>2022-04-28T07:34:16.000Z</time>
      </trkpt>
      <trkpt lat="47.31798" lon="-2.35888">
        <ele>20.799999237061</ele>
        <time>2022-04-28T07:34:17.000Z</time>
      </trkpt>
      <trkpt lat="47.31803" lon="-2.35886">
        <ele>20.39999961853</ele>
        <time>2022-04-28T07:34:18.000Z</time>
      </trkpt>
      <trkpt lat="47.31808" lon="-2.35884">
        <ele>20</ele>
        <time>2022-04-28T07:34:19.000Z</time>
      </trkpt>
      <trkpt lat="47.31812" lon="-2.35881">
        <ele>20</ele>
        <time>2022-04-28T07:34:20.000Z</time>
      </trkpt>
      <trkpt lat="47.3182" lon="-2.35874">
        <ele>20</ele>
        <time>2022-04-28T07:34:22.000Z</time>
      </trkpt>
      <trkpt lat="47.31824" lon="-2.35862">
        <ele>20</ele>
        <time>2022-04-28T07:34:24.000Z</time>
      </trkpt>
      <trkpt lat="47.31819" lon="-2.35843">
        <ele>20</ele>
        <time>2022-04-28T07:34:27.000Z</time>
      </trkpt>
      <trkpt lat="47.31817" lon="-2.35838">
        <ele>20</ele>
        <time>2022-04-28T07:34:28.000Z</time>
      </trkpt>
      <trkpt lat="47.31806" lon="-2.3582">
        <ele>20</ele>
        <time>2022-04-28T07:34:32.000Z</time>
      </trkpt>
      <trkpt lat="47.31802" lon="-2.35815">
        <ele>20</ele>
        <time>2022-04-28T07:34:33.000Z</time>
      </trkpt>
      <trkpt lat="47.31785" lon="-2.35794">
        <ele>20</ele>
        <time>2022-04-28T07:34:37.000Z</time>
      </trkpt>
      <trkpt lat="47.31781" lon="-2.35773">
        <ele>20</ele>
        <time>2022-04-28T07:34:40.000Z</time>
      </trkpt>
      <trkpt lat="47.31781" lon="-2.35732">
        <ele>20</ele>
        <time>2022-04-28T07:34:45.000Z</time>
      </trkpt>
      <trkpt lat="47.31781" lon="-2.35722">
        <ele>20</ele>
        <time>2022-04-28T07:34:46.000Z</time>
      </trkpt>
      <trkpt lat="47.31781" lon="-2.35703">
        <ele>19.60000038147</ele>
        <time>2022-04-28T07:34:48.000Z</time>
      </trkpt>
      <trkpt lat="47.31781" lon="-2.35692">
        <ele>19.200000762939</ele>
        <time>2022-04-28T07:34:49.000Z</time>
      </trkpt>
      <trkpt lat="47.31781" lon="-2.35683">
        <ele>18.799999237061</ele>
        <time>2022-04-28T07:34:50.000Z</time>
      </trkpt>
      <trkpt lat="47.31781" lon="-2.35673">
        <ele>18.200000762939</ele>
        <time>2022-04-28T07:34:51.000Z</time>
      </trkpt>
      <trkpt lat="47.31781" lon="-2.35664">
        <ele>17.799999237061</ele>
        <time>2022-04-28T07:34:52.000Z</time>
      </trkpt>
      <trkpt lat="47.31783" lon="-2.35645">
        <ele>17.799999237061</ele>
        <time>2022-04-28T07:34:54.000Z</time>
      </trkpt>
      <trkpt lat="47.31785" lon="-2.35637">
        <ele>17.39999961853</ele>
        <time>2022-04-28T07:34:55.000Z</time>
      </trkpt>
      <trkpt lat="47.31788" lon="-2.35629">
        <ele>17</ele>
        <time>2022-04-28T07:34:56.000Z</time>
      </trkpt>
      <trkpt lat="47.31791" lon="-2.35622">
        <ele>16.60000038147</ele>
        <time>2022-04-28T07:34:57.000Z</time>
      </trkpt>
      <trkpt lat="47.31794" lon="-2.35615">
        <ele>16.200000762939</ele>
        <time>2022-04-28T07:34:58.000Z</time>
      </trkpt>
      <trkpt lat="47.31796" lon="-2.35608">
        <ele>15.800000190735</ele>
        <time>2022-04-28T07:34:59.000Z</time>
      </trkpt>
      <trkpt lat="47.31799" lon="-2.35601">
        <ele>15.800000190735</ele>
        <time>2022-04-28T07:35:00.000Z</time>
      </trkpt>
      <trkpt lat="47.31802" lon="-2.35595">
        <ele>15.800000190735</ele>
        <time>2022-04-28T07:35:01.000Z</time>
      </trkpt>
      <trkpt lat="47.31815" lon="-2.3558">
        <ele>15.800000190735</ele>
        <time>2022-04-28T07:35:05.000Z</time>
      </trkpt>
      <trkpt lat="47.31819" lon="-2.35576">
        <ele>15.39999961853</ele>
        <time>2022-04-28T07:35:06.000Z</time>
      </trkpt>
      <trkpt lat="47.31822" lon="-2.3557">
        <ele>15</ele>
        <time>2022-04-28T07:35:07.000Z</time>
      </trkpt>
      <trkpt lat="47.31824" lon="-2.35564">
        <ele>14.60000038147</ele>
        <time>2022-04-28T07:35:08.000Z</time>
      </trkpt>
      <trkpt lat="47.31826" lon="-2.35557">
        <ele>14.199999809265</ele>
        <time>2022-04-28T07:35:09.000Z</time>
      </trkpt>
      <trkpt lat="47.31825" lon="-2.3555">
        <ele>13.800000190735</ele>
        <time>2022-04-28T07:35:10.000Z</time>
      </trkpt>
      <trkpt lat="47.31823" lon="-2.35538">
        <ele>13.800000190735</ele>
        <time>2022-04-28T07:35:12.000Z</time>
      </trkpt>
      <trkpt lat="47.31815" lon="-2.35509">
        <ele>13.800000190735</ele>
        <time>2022-04-28T07:35:18.000Z</time>
      </trkpt>
      <trkpt lat="47.31807" lon="-2.35497">
        <ele>13.800000190735</ele>
        <time>2022-04-28T07:35:22.000Z</time>
      </trkpt>
      <trkpt lat="47.31796" lon="-2.35476">
        <ele>13.800000190735</ele>
        <time>2022-04-28T07:35:30.000Z</time>
      </trkpt>
      <trkpt lat="47.31785" lon="-2.35452">
        <ele>13.800000190735</ele>
        <time>2022-04-28T07:35:35.000Z</time>
      </trkpt>
      <trkpt lat="47.31769" lon="-2.35426">
        <ele>13.800000190735</ele>
        <time>2022-04-28T07:35:41.000Z</time>
      </trkpt>
      <trkpt lat="47.31764" lon="-2.35416">
        <ele>14.199999809265</ele>
        <time>2022-04-28T07:35:43.000Z</time>
      </trkpt>
      <trkpt lat="47.3176" lon="-2.35411">
        <ele>14.60000038147</ele>
        <time>2022-04-28T07:35:44.000Z</time>
      </trkpt>
      <trkpt lat="47.31756" lon="-2.35406">
        <ele>15</ele>
        <time>2022-04-28T07:35:45.000Z</time>
      </trkpt>
      <trkpt lat="47.31753" lon="-2.35402">
        <ele>15.39999961853</ele>
        <time>2022-04-28T07:35:46.000Z</time>
      </trkpt>
      <trkpt lat="47.3175" lon="-2.35398">
        <ele>15.800000190735</ele>
        <time>2022-04-28T07:35:47.000Z</time>
      </trkpt>
      <trkpt lat="47.31742" lon="-2.35385">
        <ele>15.800000190735</ele>
        <time>2022-04-28T07:35:51.000Z</time>
      </trkpt>
      <trkpt lat="47.31738" lon="-2.35378">
        <ele>15.800000190735</ele>
        <time>2022-04-28T07:35:55.000Z</time>
      </trkpt>
      <trkpt lat="47.31736" lon="-2.35376">
        <ele>15.800000190735</ele>
        <time>2022-04-28T07:35:57.000Z</time>
      </trkpt>
      <trkpt lat="47.31734" lon="-2.35374">
        <ele>15.800000190735</ele>
        <time>2022-04-28T07:36:00.000Z</time>
      </trkpt>
      <trkpt lat="47.31732" lon="-2.35374">
        <ele>15.800000190735</ele>
        <time>2022-04-28T07:36:22.000Z</time>
      </trkpt>
      <trkpt lat="47.31731" lon="-2.35373">
        <ele>15.800000190735</ele>
        <time>2022-04-28T07:36:23.000Z</time>
      </trkpt>
      <trkpt lat="47.31719" lon="-2.35374">
        <ele>15.800000190735</ele>
        <time>2022-04-28T07:36:28.000Z</time>
      </trkpt>
      <trkpt lat="47.31713" lon="-2.35375">
        <ele>16.200000762939</ele>
        <time>2022-04-28T07:36:30.000Z</time>
      </trkpt>
      <trkpt lat="47.3171" lon="-2.35375">
        <ele>16.60000038147</ele>
        <time>2022-04-28T07:36:31.000Z</time>
      </trkpt>
      <trkpt lat="47.31707" lon="-2.35375">
        <ele>17</ele>
        <time>2022-04-28T07:36:32.000Z</time>
      </trkpt>
      <trkpt lat="47.31704" lon="-2.35375">
        <ele>17.39999961853</ele>
        <time>2022-04-28T07:36:33.000Z</time>
      </trkpt>
      <trkpt lat="47.317" lon="-2.35376">
        <ele>17.799999237061</ele>
        <time>2022-04-28T07:36:34.000Z</time>
      </trkpt>
      <trkpt lat="47.31677" lon="-2.35377">
        <ele>17.799999237061</ele>
        <time>2022-04-28T07:36:40.000Z</time>
      </trkpt>
      <trkpt lat="47.31645" lon="-2.35372">
        <ele>17.799999237061</ele>
        <time>2022-04-28T07:36:47.000Z</time>
      </trkpt>
      <trkpt lat="47.3164" lon="-2.3537">
        <ele>17.799999237061</ele>
        <time>2022-04-28T07:36:48.000Z</time>
      </trkpt>
      <trkpt lat="47.31625" lon="-2.35365">
        <ele>17.799999237061</ele>
        <time>2022-04-28T07:36:51.000Z</time>
      </trkpt>
      <trkpt lat="47.31615" lon="-2.35366">
        <ele>17.799999237061</ele>
        <time>2022-04-28T07:36:53.000Z</time>
      </trkpt>
      <trkpt lat="47.31605" lon="-2.35368">
        <ele>17.799999237061</ele>
        <time>2022-04-28T07:36:55.000Z</time>
      </trkpt>
      <trkpt lat="47.31585" lon="-2.35375">
        <ele>17.799999237061</ele>
        <time>2022-04-28T07:36:59.000Z</time>
      </trkpt>
      <trkpt lat="47.3155" lon="-2.35393">
        <ele>17.799999237061</ele>
        <time>2022-04-28T07:37:06.000Z</time>
      </trkpt>
      <trkpt lat="47.31516" lon="-2.35415">
        <ele>17.799999237061</ele>
        <time>2022-04-28T07:37:13.000Z</time>
      </trkpt>
      <trkpt lat="47.31508" lon="-2.35422">
        <ele>17.799999237061</ele>
        <time>2022-04-28T07:37:15.000Z</time>
      </trkpt>
      <trkpt lat="47.31501" lon="-2.35433">
        <ele>17.799999237061</ele>
        <time>2022-04-28T07:37:17.000Z</time>
      </trkpt>
      <trkpt lat="47.31495" lon="-2.35445">
        <ele>17.799999237061</ele>
        <time>2022-04-28T07:37:19.000Z</time>
      </trkpt>
      <trkpt lat="47.31492" lon="-2.35452">
        <ele>17.799999237061</ele>
        <time>2022-04-28T07:37:20.000Z</time>
      </trkpt>
      <trkpt lat="47.31491" lon="-2.35459">
        <ele>18.200000762939</ele>
        <time>2022-04-28T07:37:21.000Z</time>
      </trkpt>
      <trkpt lat="47.31489" lon="-2.35466">
        <ele>18.799999237061</ele>
        <time>2022-04-28T07:37:22.000Z</time>
      </trkpt>
      <trkpt lat="47.31488" lon="-2.35474">
        <ele>19.200000762939</ele>
        <time>2022-04-28T07:37:23.000Z</time>
      </trkpt>
      <trkpt lat="47.31487" lon="-2.35482">
        <ele>19.60000038147</ele>
        <time>2022-04-28T07:37:24.000Z</time>
      </trkpt>
      <trkpt lat="47.31485" lon="-2.35489">
        <ele>20</ele>
        <time>2022-04-28T07:37:25.000Z</time>
      </trkpt>
      <trkpt lat="47.31481" lon="-2.35504">
        <ele>20</ele>
        <time>2022-04-28T07:37:27.000Z</time>
      </trkpt>
      <trkpt lat="47.31478" lon="-2.3551">
        <ele>20</ele>
        <time>2022-04-28T07:37:28.000Z</time>
      </trkpt>
      <trkpt lat="47.31466" lon="-2.35521">
        <ele>20</ele>
        <time>2022-04-28T07:37:31.000Z</time>
      </trkpt>
      <trkpt lat="47.31457" lon="-2.35523">
        <ele>20</ele>
        <time>2022-04-28T07:37:33.000Z</time>
      </trkpt>
      <trkpt lat="47.31442" lon="-2.35524">
        <ele>20</ele>
        <time>2022-04-28T07:37:36.000Z</time>
      </trkpt>
      <trkpt lat="47.31421" lon="-2.35523">
        <ele>20</ele>
        <time>2022-04-28T07:37:40.000Z</time>
      </trkpt>
      <trkpt lat="47.31411" lon="-2.35523">
        <ele>20</ele>
        <time>2022-04-28T07:37:42.000Z</time>
      </trkpt>
      <trkpt lat="47.31375" lon="-2.35527">
        <ele>20</ele>
        <time>2022-04-28T07:37:49.000Z</time>
      </trkpt>
      <trkpt lat="47.31371" lon="-2.35529">
        <ele>20</ele>
        <time>2022-04-28T07:37:50.000Z</time>
      </trkpt>
      <trkpt lat="47.31355" lon="-2.35538">
        <ele>20</ele>
        <time>2022-04-28T07:37:54.000Z</time>
      </trkpt>
      <trkpt lat="47.31337" lon="-2.35541">
        <ele>20</ele>
        <time>2022-04-28T07:37:59.000Z</time>
      </trkpt>
      <trkpt lat="47.31331" lon="-2.35521">
        <ele>20</ele>
        <time>2022-04-28T07:38:03.000Z</time>
      </trkpt>
      <trkpt lat="47.31331" lon="-2.35514">
        <ele>20.39999961853</ele>
        <time>2022-04-28T07:38:04.000Z</time>
      </trkpt>
      <trkpt lat="47.31331" lon="-2.35506">
        <ele>20.799999237061</ele>
        <time>2022-04-28T07:38:05.000Z</time>
      </trkpt>
      <trkpt lat="47.31331" lon="-2.35499">
        <ele>21.200000762939</ele>
        <time>2022-04-28T07:38:06.000Z</time>
      </trkpt>
      <trkpt lat="47.31331" lon="-2.35492">
        <ele>21.60000038147</ele>
        <time>2022-04-28T07:38:07.000Z</time>
      </trkpt>
      <trkpt lat="47.31332" lon="-2.35484">
        <ele>22</ele>
        <time>2022-04-28T07:38:08.000Z</time>
      </trkpt>
      <trkpt lat="47.31332" lon="-2.35475">
        <ele>22</ele>
        <time>2022-04-28T07:38:09.000Z</time>
      </trkpt>
      <trkpt lat="47.31332" lon="-2.35419">
        <ele>22</ele>
        <time>2022-04-28T07:38:16.000Z</time>
      </trkpt>
      <trkpt lat="47.31336" lon="-2.35356">
        <ele>22</ele>
        <time>2022-04-28T07:38:23.000Z</time>
      </trkpt>
      <trkpt lat="47.31339" lon="-2.35321">
        <ele>22</ele>
        <time>2022-04-28T07:38:27.000Z</time>
      </trkpt>
      <trkpt lat="47.31339" lon="-2.35294">
        <ele>22</ele>
        <time>2022-04-28T07:38:30.000Z</time>
      </trkpt>
      <trkpt lat="47.3134" lon="-2.35214">
        <ele>22</ele>
        <time>2022-04-28T07:38:39.000Z</time>
      </trkpt>
      <trkpt lat="47.31343" lon="-2.35152">
        <ele>22</ele>
        <time>2022-04-28T07:38:46.000Z</time>
      </trkpt>
      <trkpt lat="47.31345" lon="-2.351">
        <ele>22</ele>
        <time>2022-04-28T07:38:52.000Z</time>
      </trkpt>
      <trkpt lat="47.31345" lon="-2.35022">
        <ele>22</ele>
        <time>2022-04-28T07:39:01.000Z</time>
      </trkpt>
      <trkpt lat="47.31344" lon="-2.34999">
        <ele>22</ele>
        <time>2022-04-28T07:39:04.000Z</time>
      </trkpt>
      <trkpt lat="47.31341" lon="-2.34983">
        <ele>22</ele>
        <time>2022-04-28T07:39:06.000Z</time>
      </trkpt>
      <trkpt lat="47.31326" lon="-2.34927">
        <ele>22</ele>
        <time>2022-04-28T07:39:13.000Z</time>
      </trkpt>
      <trkpt lat="47.31307" lon="-2.3487">
        <ele>22</ele>
        <time>2022-04-28T07:39:21.000Z</time>
      </trkpt>
      <trkpt lat="47.31294" lon="-2.3481">
        <ele>22</ele>
        <time>2022-04-28T07:39:29.000Z</time>
      </trkpt>
      <trkpt lat="47.31283" lon="-2.34752">
        <ele>22</ele>
        <time>2022-04-28T07:39:36.000Z</time>
      </trkpt>
      <trkpt lat="47.31277" lon="-2.34708">
        <ele>22</ele>
        <time>2022-04-28T07:39:42.000Z</time>
      </trkpt>
      <trkpt lat="47.3128" lon="-2.34684">
        <ele>22</ele>
        <time>2022-04-28T07:39:47.000Z</time>
      </trkpt>
      <trkpt lat="47.31297" lon="-2.34656">
        <ele>22</ele>
        <time>2022-04-28T07:39:52.000Z</time>
      </trkpt>
      <trkpt lat="47.31316" lon="-2.34642">
        <ele>21.200000762939</ele>
        <time>2022-04-28T07:39:56.000Z</time>
      </trkpt>
      <trkpt lat="47.31321" lon="-2.34637">
        <ele>20.799999237061</ele>
        <time>2022-04-28T07:39:57.000Z</time>
      </trkpt>
      <trkpt lat="47.31326" lon="-2.34632">
        <ele>20.39999961853</ele>
        <time>2022-04-28T07:39:58.000Z</time>
      </trkpt>
      <trkpt lat="47.3133" lon="-2.34628">
        <ele>20</ele>
        <time>2022-04-28T07:39:59.000Z</time>
      </trkpt>
      <trkpt lat="47.31358" lon="-2.34599">
        <ele>20</ele>
        <time>2022-04-28T07:40:05.000Z</time>
      </trkpt>
      <trkpt lat="47.31391" lon="-2.34568">
        <ele>20</ele>
        <time>2022-04-28T07:40:11.000Z</time>
      </trkpt>
      <trkpt lat="47.31428" lon="-2.34545">
        <ele>20</ele>
        <time>2022-04-28T07:40:17.000Z</time>
      </trkpt>
      <trkpt lat="47.31466" lon="-2.34528">
        <ele>20</ele>
        <time>2022-04-28T07:40:23.000Z</time>
      </trkpt>
      <trkpt lat="47.31505" lon="-2.34528">
        <ele>20</ele>
        <time>2022-04-28T07:40:29.000Z</time>
      </trkpt>
      <trkpt lat="47.31524" lon="-2.34527">
        <ele>20</ele>
        <time>2022-04-28T07:40:32.000Z</time>
      </trkpt>
      <trkpt lat="47.31537" lon="-2.34522">
        <ele>20</ele>
        <time>2022-04-28T07:40:34.000Z</time>
      </trkpt>
      <trkpt lat="47.31574" lon="-2.34496">
        <ele>20</ele>
        <time>2022-04-28T07:40:40.000Z</time>
      </trkpt>
      <trkpt lat="47.31581" lon="-2.34493">
        <ele>20</ele>
        <time>2022-04-28T07:40:41.000Z</time>
      </trkpt>
      <trkpt lat="47.31609" lon="-2.34486">
        <ele>20</ele>
        <time>2022-04-28T07:40:45.000Z</time>
      </trkpt>
      <trkpt lat="47.31659" lon="-2.34467">
        <ele>20</ele>
        <time>2022-04-28T07:40:52.000Z</time>
      </trkpt>
      <trkpt lat="47.31698" lon="-2.34441">
        <ele>20</ele>
        <time>2022-04-28T07:40:58.000Z</time>
      </trkpt>
      <trkpt lat="47.31718" lon="-2.34431">
        <ele>20</ele>
        <time>2022-04-28T07:41:02.000Z</time>
      </trkpt>
      <trkpt lat="47.31735" lon="-2.34427">
        <ele>20</ele>
        <time>2022-04-28T07:41:05.000Z</time>
      </trkpt>
      <trkpt lat="47.31748" lon="-2.34426">
        <ele>20</ele>
        <time>2022-04-28T07:41:07.000Z</time>
      </trkpt>
      <trkpt lat="47.31778" lon="-2.34423">
        <ele>19.39999961853</ele>
        <time>2022-04-28T07:41:11.000Z</time>
      </trkpt>
      <trkpt lat="47.31787" lon="-2.34421">
        <ele>19</ele>
        <time>2022-04-28T07:41:12.000Z</time>
      </trkpt>
      <trkpt lat="47.31795" lon="-2.34417">
        <ele>18.60000038147</ele>
        <time>2022-04-28T07:41:13.000Z</time>
      </trkpt>
      <trkpt lat="47.31803" lon="-2.34414">
        <ele>18</ele>
        <time>2022-04-28T07:41:14.000Z</time>
      </trkpt>
      <trkpt lat="47.31812" lon="-2.3441">
        <ele>17.60000038147</ele>
        <time>2022-04-28T07:41:15.000Z</time>
      </trkpt>
      <trkpt lat="47.31828" lon="-2.34403">
        <ele>17.200000762939</ele>
        <time>2022-04-28T07:41:17.000Z</time>
      </trkpt>
      <trkpt lat="47.31836" lon="-2.344">
        <ele>16.60000038147</ele>
        <time>2022-04-28T07:41:18.000Z</time>
      </trkpt>
      <trkpt lat="47.31845" lon="-2.34396">
        <ele>16.200000762939</ele>
        <time>2022-04-28T07:41:19.000Z</time>
      </trkpt>
      <trkpt lat="47.31854" lon="-2.34392">
        <ele>15.800000190735</ele>
        <time>2022-04-28T07:41:20.000Z</time>
      </trkpt>
      <trkpt lat="47.31862" lon="-2.34389">
        <ele>15.199999809265</ele>
        <time>2022-04-28T07:41:21.000Z</time>
      </trkpt>
      <trkpt lat="47.31871" lon="-2.34386">
        <ele>14.60000038147</ele>
        <time>2022-04-28T07:41:22.000Z</time>
      </trkpt>
      <trkpt lat="47.31879" lon="-2.34382">
        <ele>14</ele>
        <time>2022-04-28T07:41:23.000Z</time>
      </trkpt>
      <trkpt lat="47.31887" lon="-2.34379">
        <ele>13.60000038147</ele>
        <time>2022-04-28T07:41:24.000Z</time>
      </trkpt>
      <trkpt lat="47.31896" lon="-2.34375">
        <ele>13</ele>
        <time>2022-04-28T07:41:25.000Z</time>
      </trkpt>
      <trkpt lat="47.31912" lon="-2.34364">
        <ele>12.60000038147</ele>
        <time>2022-04-28T07:41:27.000Z</time>
      </trkpt>
      <trkpt lat="47.3192" lon="-2.34357">
        <ele>12.199999809265</ele>
        <time>2022-04-28T07:41:28.000Z</time>
      </trkpt>
      <trkpt lat="47.31929" lon="-2.34349">
        <ele>11.60000038147</ele>
        <time>2022-04-28T07:41:29.000Z</time>
      </trkpt>
      <trkpt lat="47.31936" lon="-2.34342">
        <ele>11.199999809265</ele>
        <time>2022-04-28T07:41:30.000Z</time>
      </trkpt>
      <trkpt lat="47.31944" lon="-2.34334">
        <ele>10.60000038147</ele>
        <time>2022-04-28T07:41:31.000Z</time>
      </trkpt>
      <trkpt lat="47.31951" lon="-2.34324">
        <ele>10</ele>
        <time>2022-04-28T07:41:32.000Z</time>
      </trkpt>
      <trkpt lat="47.31959" lon="-2.34315">
        <ele>9.3999996185303</ele>
        <time>2022-04-28T07:41:33.000Z</time>
      </trkpt>
      <trkpt lat="47.31965" lon="-2.34305">
        <ele>8.3999996185303</ele>
        <time>2022-04-28T07:41:34.000Z</time>
      </trkpt>
      <trkpt lat="47.31998" lon="-2.34263">
        <ele>8.3999996185303</ele>
        <time>2022-04-28T07:41:39.000Z</time>
      </trkpt>
      <trkpt lat="47.32016" lon="-2.34239">
        <ele>8.3999996185303</ele>
        <time>2022-04-28T07:41:43.000Z</time>
      </trkpt>
      <trkpt lat="47.32036" lon="-2.34212">
        <ele>8.3999996185303</ele>
        <time>2022-04-28T07:41:49.000Z</time>
      </trkpt>
      <trkpt lat="47.32061" lon="-2.34179">
        <ele>8.3999996185303</ele>
        <time>2022-04-28T07:41:56.000Z</time>
      </trkpt>
      <trkpt lat="47.32074" lon="-2.34155">
        <ele>8.3999996185303</ele>
        <time>2022-04-28T07:42:00.000Z</time>
      </trkpt>
      <trkpt lat="47.32077" lon="-2.34148">
        <ele>8.3999996185303</ele>
        <time>2022-04-28T07:42:01.000Z</time>
      </trkpt>
      <trkpt lat="47.32083" lon="-2.34112">
        <ele>8.3999996185303</ele>
        <time>2022-04-28T07:42:05.000Z</time>
      </trkpt>
      <trkpt lat="47.32078" lon="-2.34083">
        <ele>8.3999996185303</ele>
        <time>2022-04-28T07:42:08.000Z</time>
      </trkpt>
      <trkpt lat="47.32076" lon="-2.34073">
        <ele>8.3999996185303</ele>
        <time>2022-04-28T07:42:09.000Z</time>
      </trkpt>
      <trkpt lat="47.32069" lon="-2.34043">
        <ele>8</ele>
        <time>2022-04-28T07:42:12.000Z</time>
      </trkpt>
      <trkpt lat="47.32066" lon="-2.34034">
        <ele>7.4000000953674</ele>
        <time>2022-04-28T07:42:13.000Z</time>
      </trkpt>
      <trkpt lat="47.32064" lon="-2.34024">
        <ele>7</ele>
        <time>2022-04-28T07:42:14.000Z</time>
      </trkpt>
      <trkpt lat="47.32061" lon="-2.34014">
        <ele>6.5999999046326</ele>
        <time>2022-04-28T07:42:15.000Z</time>
      </trkpt>
      <trkpt lat="47.32059" lon="-2.34004">
        <ele>6.1999998092651</ele>
        <time>2022-04-28T07:42:16.000Z</time>
      </trkpt>
      <trkpt lat="47.32048" lon="-2.3396">
        <ele>5.8000001907349</ele>
        <time>2022-04-28T07:42:20.000Z</time>
      </trkpt>
      <trkpt lat="47.32046" lon="-2.33949">
        <ele>5.4000000953674</ele>
        <time>2022-04-28T07:42:21.000Z</time>
      </trkpt>
      <trkpt lat="47.32044" lon="-2.33938">
        <ele>4.8000001907349</ele>
        <time>2022-04-28T07:42:22.000Z</time>
      </trkpt>
      <trkpt lat="47.32041" lon="-2.33928">
        <ele>4.4000000953674</ele>
        <time>2022-04-28T07:42:23.000Z</time>
      </trkpt>
      <trkpt lat="47.32039" lon="-2.33918">
        <ele>4</ele>
        <time>2022-04-28T07:42:24.000Z</time>
      </trkpt>
      <trkpt lat="47.32024" lon="-2.33855">
        <ele>4</ele>
        <time>2022-04-28T07:42:30.000Z</time>
      </trkpt>
      <trkpt lat="47.32013" lon="-2.33803">
        <ele>4</ele>
        <time>2022-04-28T07:42:36.000Z</time>
      </trkpt>
      <trkpt lat="47.32011" lon="-2.33767">
        <ele>4</ele>
        <time>2022-04-28T07:42:41.000Z</time>
      </trkpt>
      <trkpt lat="47.32011" lon="-2.3376">
        <ele>4</ele>
        <time>2022-04-28T07:42:42.000Z</time>
      </trkpt>
      <trkpt lat="47.32016" lon="-2.33732">
        <ele>4</ele>
        <time>2022-04-28T07:42:46.000Z</time>
      </trkpt>
      <trkpt lat="47.3202" lon="-2.33708">
        <ele>4.8000001907349</ele>
        <time>2022-04-28T07:42:49.000Z</time>
      </trkpt>
      <trkpt lat="47.32021" lon="-2.337">
        <ele>5.4000000953674</ele>
        <time>2022-04-28T07:42:50.000Z</time>
      </trkpt>
      <trkpt lat="47.32023" lon="-2.33692">
        <ele>5.8000001907349</ele>
        <time>2022-04-28T07:42:51.000Z</time>
      </trkpt>
      <trkpt lat="47.32025" lon="-2.33685">
        <ele>6.1999998092651</ele>
        <time>2022-04-28T07:42:52.000Z</time>
      </trkpt>
      <trkpt lat="47.32033" lon="-2.33655">
        <ele>6.8000001907349</ele>
        <time>2022-04-28T07:42:56.000Z</time>
      </trkpt>
      <trkpt lat="47.32034" lon="-2.33647">
        <ele>7.1999998092651</ele>
        <time>2022-04-28T07:42:57.000Z</time>
      </trkpt>
      <trkpt lat="47.32036" lon="-2.33641">
        <ele>7.8000001907349</ele>
        <time>2022-04-28T07:42:58.000Z</time>
      </trkpt>
      <trkpt lat="47.32039" lon="-2.33634">
        <ele>8.1999998092651</ele>
        <time>2022-04-28T07:42:59.000Z</time>
      </trkpt>
      <trkpt lat="47.32041" lon="-2.33628">
        <ele>8.6000003814697</ele>
        <time>2022-04-28T07:43:00.000Z</time>
      </trkpt>
      <trkpt lat="47.32045" lon="-2.33615">
        <ele>8.6000003814697</ele>
        <time>2022-04-28T07:43:02.000Z</time>
      </trkpt>
      <trkpt lat="47.32048" lon="-2.33609">
        <ele>9.1999998092651</ele>
        <time>2022-04-28T07:43:03.000Z</time>
      </trkpt>
      <trkpt lat="47.32051" lon="-2.33604">
        <ele>9.6000003814697</ele>
        <time>2022-04-28T07:43:04.000Z</time>
      </trkpt>
      <trkpt lat="47.32053" lon="-2.33598">
        <ele>10</ele>
        <time>2022-04-28T07:43:05.000Z</time>
      </trkpt>
      <trkpt lat="47.32056" lon="-2.33592">
        <ele>10.39999961853</ele>
        <time>2022-04-28T07:43:06.000Z</time>
      </trkpt>
      <trkpt lat="47.32059" lon="-2.33586">
        <ele>10.800000190735</ele>
        <time>2022-04-28T07:43:07.000Z</time>
      </trkpt>
      <trkpt lat="47.32071" lon="-2.33564">
        <ele>10.800000190735</ele>
        <time>2022-04-28T07:43:11.000Z</time>
      </trkpt>
      <trkpt lat="47.32085" lon="-2.33543">
        <ele>11.199999809265</ele>
        <time>2022-04-28T07:43:15.000Z</time>
      </trkpt>
      <trkpt lat="47.32088" lon="-2.33538">
        <ele>11.60000038147</ele>
        <time>2022-04-28T07:43:16.000Z</time>
      </trkpt>
      <trkpt lat="47.32091" lon="-2.33533">
        <ele>12</ele>
        <time>2022-04-28T07:43:17.000Z</time>
      </trkpt>
      <trkpt lat="47.32094" lon="-2.33527">
        <ele>12.39999961853</ele>
        <time>2022-04-28T07:43:18.000Z</time>
      </trkpt>
      <trkpt lat="47.32097" lon="-2.33523">
        <ele>12.800000190735</ele>
        <time>2022-04-28T07:43:19.000Z</time>
      </trkpt>
      <trkpt lat="47.3211" lon="-2.33502">
        <ele>12.800000190735</ele>
        <time>2022-04-28T07:43:24.000Z</time>
      </trkpt>
      <trkpt lat="47.32117" lon="-2.33488">
        <ele>12.800000190735</ele>
        <time>2022-04-28T07:43:29.000Z</time>
      </trkpt>
      <trkpt lat="47.32127" lon="-2.33476">
        <ele>12.800000190735</ele>
        <time>2022-04-28T07:43:34.000Z</time>
      </trkpt>
      <trkpt lat="47.32139" lon="-2.33452">
        <ele>12.800000190735</ele>
        <time>2022-04-28T07:43:39.000Z</time>
      </trkpt>
      <trkpt lat="47.32158" lon="-2.33419">
        <ele>12.800000190735</ele>
        <time>2022-04-28T07:43:45.000Z</time>
      </trkpt>
      <trkpt lat="47.32183" lon="-2.33376">
        <ele>12.800000190735</ele>
        <time>2022-04-28T07:43:52.000Z</time>
      </trkpt>
      <trkpt lat="47.322" lon="-2.3335">
        <ele>12.39999961853</ele>
        <time>2022-04-28T07:43:56.000Z</time>
      </trkpt>
      <trkpt lat="47.32205" lon="-2.33342">
        <ele>12</ele>
        <time>2022-04-28T07:43:57.000Z</time>
      </trkpt>
      <trkpt lat="47.3221" lon="-2.33335">
        <ele>11.60000038147</ele>
        <time>2022-04-28T07:43:58.000Z</time>
      </trkpt>
      <trkpt lat="47.32215" lon="-2.33326">
        <ele>11</ele>
        <time>2022-04-28T07:43:59.000Z</time>
      </trkpt>
      <trkpt lat="47.3222" lon="-2.33318">
        <ele>10.60000038147</ele>
        <time>2022-04-28T07:44:00.000Z</time>
      </trkpt>
      <trkpt lat="47.32235" lon="-2.33292">
        <ele>10.199999809265</ele>
        <time>2022-04-28T07:44:03.000Z</time>
      </trkpt>
      <trkpt lat="47.32241" lon="-2.33284">
        <ele>9.6000003814697</ele>
        <time>2022-04-28T07:44:04.000Z</time>
      </trkpt>
      <trkpt lat="47.32246" lon="-2.33275">
        <ele>9.1999998092651</ele>
        <time>2022-04-28T07:44:05.000Z</time>
      </trkpt>
      <trkpt lat="47.32252" lon="-2.33266">
        <ele>8.6000003814697</ele>
        <time>2022-04-28T07:44:06.000Z</time>
      </trkpt>
      <trkpt lat="47.32257" lon="-2.33258">
        <ele>8.1999998092651</ele>
        <time>2022-04-28T07:44:07.000Z</time>
      </trkpt>
      <trkpt lat="47.32274" lon="-2.33231">
        <ele>7.8000001907349</ele>
        <time>2022-04-28T07:44:10.000Z</time>
      </trkpt>
      <trkpt lat="47.3228" lon="-2.33223">
        <ele>7.1999998092651</ele>
        <time>2022-04-28T07:44:11.000Z</time>
      </trkpt>
      <trkpt lat="47.32285" lon="-2.33216">
        <ele>6.8000001907349</ele>
        <time>2022-04-28T07:44:12.000Z</time>
      </trkpt>
      <trkpt lat="47.32289" lon="-2.33211">
        <ele>6.4000000953674</ele>
        <time>2022-04-28T07:44:13.000Z</time>
      </trkpt>
      <trkpt lat="47.32292" lon="-2.33205">
        <ele>6</ele>
        <time>2022-04-28T07:44:14.000Z</time>
      </trkpt>
      <trkpt lat="47.32293" lon="-2.33195">
        <ele>5.5999999046326</ele>
        <time>2022-04-28T07:44:16.000Z</time>
      </trkpt>
      <trkpt lat="47.3229" lon="-2.3319">
        <ele>5.1999998092651</ele>
        <time>2022-04-28T07:44:17.000Z</time>
      </trkpt>
      <trkpt lat="47.32287" lon="-2.33185">
        <ele>4.8000001907349</ele>
        <time>2022-04-28T07:44:18.000Z</time>
      </trkpt>
      <trkpt lat="47.32282" lon="-2.33181">
        <ele>4.4000000953674</ele>
        <time>2022-04-28T07:44:19.000Z</time>
      </trkpt>
      <trkpt lat="47.32277" lon="-2.33178">
        <ele>4</ele>
        <time>2022-04-28T07:44:20.000Z</time>
      </trkpt>
      <trkpt lat="47.32271" lon="-2.33174">
        <ele>4</ele>
        <time>2022-04-28T07:44:21.000Z</time>
      </trkpt>
      <trkpt lat="47.32265" lon="-2.3317">
        <ele>3.5999999046326</ele>
        <time>2022-04-28T07:44:22.000Z</time>
      </trkpt>
      <trkpt lat="47.32259" lon="-2.33165">
        <ele>3.2000000476837</ele>
        <time>2022-04-28T07:44:23.000Z</time>
      </trkpt>
      <trkpt lat="47.32254" lon="-2.3316">
        <ele>2.5999999046326</ele>
        <time>2022-04-28T07:44:24.000Z</time>
      </trkpt>
      <trkpt lat="47.32249" lon="-2.33154">
        <ele>2.2000000476837</ele>
        <time>2022-04-28T07:44:25.000Z</time>
      </trkpt>
      <trkpt lat="47.32243" lon="-2.33148">
        <ele>1.7999999523163</ele>
        <time>2022-04-28T07:44:26.000Z</time>
      </trkpt>
      <trkpt lat="47.32233" lon="-2.33134">
        <ele>1</ele>
        <time>2022-04-28T07:44:28.000Z</time>
      </trkpt>
      <trkpt lat="47.32228" lon="-2.33126">
        <ele>0.60000002384186</ele>
        <time>2022-04-28T07:44:29.000Z</time>
      </trkpt>
      <trkpt lat="47.32223" lon="-2.33119">
        <ele>0.20000000298023</ele>
        <time>2022-04-28T07:44:30.000Z</time>
      </trkpt>
      <trkpt lat="47.32217" lon="-2.33112">
        <ele>-0.20000000298023</ele>
        <time>2022-04-28T07:44:31.000Z</time>
      </trkpt>
      <trkpt lat="47.32208" lon="-2.33098">
        <ele>-0.60000002384186</ele>
        <time>2022-04-28T07:44:33.000Z</time>
      </trkpt>
      <trkpt lat="47.32204" lon="-2.33092">
        <ele>-1</ele>
        <time>2022-04-28T07:44:34.000Z</time>
      </trkpt>
      <trkpt lat="47.32199" lon="-2.33086">
        <ele>-1.3999999761581</ele>
        <time>2022-04-28T07:44:35.000Z</time>
      </trkpt>
      <trkpt lat="47.32194" lon="-2.33081">
        <ele>-1.7999999523163</ele>
        <time>2022-04-28T07:44:36.000Z</time>
      </trkpt>
      <trkpt lat="47.32189" lon="-2.33076">
        <ele>-2.2000000476837</ele>
        <time>2022-04-28T07:44:37.000Z</time>
      </trkpt>
      <trkpt lat="47.32184" lon="-2.33072">
        <ele>-2.2000000476837</ele>
        <time>2022-04-28T07:44:38.000Z</time>
      </trkpt>
      <trkpt lat="47.32174" lon="-2.33065">
        <ele>-2.5999999046326</ele>
        <time>2022-04-28T07:44:40.000Z</time>
      </trkpt>
      <trkpt lat="47.32169" lon="-2.33061">
        <ele>-3</ele>
        <time>2022-04-28T07:44:41.000Z</time>
      </trkpt>
      <trkpt lat="47.32163" lon="-2.33057">
        <ele>-3.4000000953674</ele>
        <time>2022-04-28T07:44:42.000Z</time>
      </trkpt>
      <trkpt lat="47.32158" lon="-2.33054">
        <ele>-3.7999999523163</ele>
        <time>2022-04-28T07:44:43.000Z</time>
      </trkpt>
      <trkpt lat="47.32152" lon="-2.33052">
        <ele>-4.1999998092651</ele>
        <time>2022-04-28T07:44:44.000Z</time>
      </trkpt>
      <trkpt lat="47.32144" lon="-2.3305">
        <ele>-4.1999998092651</ele>
        <time>2022-04-28T07:44:45.000Z</time>
      </trkpt>
      <trkpt lat="47.32137" lon="-2.33049">
        <ele>-4.1999998092651</ele>
        <time>2022-04-28T07:44:46.000Z</time>
      </trkpt>
      <trkpt lat="47.32107" lon="-2.33046">
        <ele>-4.5999999046326</ele>
        <time>2022-04-28T07:44:50.000Z</time>
      </trkpt>
      <trkpt lat="47.321" lon="-2.33045">
        <ele>-5.1999998092651</ele>
        <time>2022-04-28T07:44:51.000Z</time>
      </trkpt>
      <trkpt lat="47.32093" lon="-2.33044">
        <ele>-6</ele>
        <time>2022-04-28T07:44:52.000Z</time>
      </trkpt>
      <trkpt lat="47.32086" lon="-2.33043">
        <ele>-6.4000000953674</ele>
        <time>2022-04-28T07:44:53.000Z</time>
      </trkpt>
      <trkpt lat="47.32049" lon="-2.33037">
        <ele>-6.4000000953674</ele>
        <time>2022-04-28T07:44:59.000Z</time>
      </trkpt>
      <trkpt lat="47.32011" lon="-2.33032">
        <ele>-6.4000000953674</ele>
        <time>2022-04-28T07:45:06.000Z</time>
      </trkpt>
      <trkpt lat="47.31976" lon="-2.33028">
        <ele>-6.4000000953674</ele>
        <time>2022-04-28T07:45:13.000Z</time>
      </trkpt>
      <trkpt lat="47.31959" lon="-2.33025">
        <ele>-5.5999999046326</ele>
        <time>2022-04-28T07:45:17.000Z</time>
      </trkpt>
      <trkpt lat="47.31955" lon="-2.33026">
        <ele>-5.1999998092651</ele>
        <time>2022-04-28T07:45:18.000Z</time>
      </trkpt>
      <trkpt lat="47.31952" lon="-2.33026">
        <ele>-4.8000001907349</ele>
        <time>2022-04-28T07:45:19.000Z</time>
      </trkpt>
      <trkpt lat="47.31949" lon="-2.33026">
        <ele>-4.4000000953674</ele>
        <time>2022-04-28T07:45:20.000Z</time>
      </trkpt>
      <trkpt lat="47.31947" lon="-2.33026">
        <ele>-4.4000000953674</ele>
        <time>2022-04-28T07:45:23.000Z</time>
      </trkpt>
      <trkpt lat="47.31944" lon="-2.33025">
        <ele>-4.4000000953674</ele>
        <time>2022-04-28T07:45:34.000Z</time>
      </trkpt>
      <trkpt lat="47.31937" lon="-2.33025">
        <ele>-4.4000000953674</ele>
        <time>2022-04-28T07:45:37.000Z</time>
      </trkpt>
      <trkpt lat="47.31922" lon="-2.33023">
        <ele>-4.4000000953674</ele>
        <time>2022-04-28T07:45:42.000Z</time>
      </trkpt>
      <trkpt lat="47.3191" lon="-2.33023">
        <ele>-4.4000000953674</ele>
        <time>2022-04-28T07:45:47.000Z</time>
      </trkpt>
      <trkpt lat="47.31904" lon="-2.33023">
        <ele>-4</ele>
        <time>2022-04-28T07:45:51.000Z</time>
      </trkpt>
      <trkpt lat="47.31904" lon="-2.33023">
        <ele>-3.5999999046326</ele>
        <time>2022-04-28T07:45:52.000Z</time>
      </trkpt>
      <trkpt lat="47.31885" lon="-2.33046">
        <ele>-2.4000000953674</ele>
        <time>2022-04-28T07:51:17.000Z</time>
      </trkpt>
      <trkpt lat="47.31881" lon="-2.33062">
        <ele>-2.4000000953674</ele>
        <time>2022-04-28T07:51:23.000Z</time>
      </trkpt>
      <trkpt lat="47.31879" lon="-2.33082">
        <ele>-2</ele>
        <time>2022-04-28T07:51:27.000Z</time>
      </trkpt>
      <trkpt lat="47.31879" lon="-2.33088">
        <ele>-1.6000000238419</ele>
        <time>2022-04-28T07:51:28.000Z</time>
      </trkpt>
      <trkpt lat="47.31878" lon="-2.33093">
        <ele>-1.2000000476837</ele>
        <time>2022-04-28T07:51:29.000Z</time>
      </trkpt>
      <trkpt lat="47.31877" lon="-2.33098">
        <ele>-0.60000002384186</ele>
        <time>2022-04-28T07:51:30.000Z</time>
      </trkpt>
      <trkpt lat="47.31877" lon="-2.33103">
        <ele>-0.20000000298023</ele>
        <time>2022-04-28T07:51:31.000Z</time>
      </trkpt>
      <trkpt lat="47.31876" lon="-2.33117">
        <ele>-0.20000000298023</ele>
        <time>2022-04-28T07:51:34.000Z</time>
      </trkpt>
      <trkpt lat="47.31874" lon="-2.33142">
        <ele>0.20000000298023</ele>
        <time>2022-04-28T07:51:40.000Z</time>
      </trkpt>
      <trkpt lat="47.31873" lon="-2.33146">
        <ele>0.60000002384186</ele>
        <time>2022-04-28T07:51:41.000Z</time>
      </trkpt>
      <trkpt lat="47.31873" lon="-2.3315">
        <ele>1</ele>
        <time>2022-04-28T07:51:42.000Z</time>
      </trkpt>
      <trkpt lat="47.31873" lon="-2.33154">
        <ele>1.3999999761581</ele>
        <time>2022-04-28T07:51:43.000Z</time>
      </trkpt>
      <trkpt lat="47.31873" lon="-2.33158">
        <ele>1.7999999523163</ele>
        <time>2022-04-28T07:51:44.000Z</time>
      </trkpt>
      <trkpt lat="47.31872" lon="-2.3317">
        <ele>1.7999999523163</ele>
        <time>2022-04-28T07:51:47.000Z</time>
      </trkpt>
      <trkpt lat="47.31868" lon="-2.33198">
        <ele>2.2000000476837</ele>
        <time>2022-04-28T07:51:53.000Z</time>
      </trkpt>
      <trkpt lat="47.31866" lon="-2.33205">
        <ele>2.5999999046326</ele>
        <time>2022-04-28T07:51:54.000Z</time>
      </trkpt>
      <trkpt lat="47.31865" lon="-2.33211">
        <ele>3</ele>
        <time>2022-04-28T07:51:55.000Z</time>
      </trkpt>
      <trkpt lat="47.31865" lon="-2.33217">
        <ele>3.4000000953674</ele>
        <time>2022-04-28T07:51:56.000Z</time>
      </trkpt>
      <trkpt lat="47.31865" lon="-2.33223">
        <ele>3.7999999523163</ele>
        <time>2022-04-28T07:51:57.000Z</time>
      </trkpt>
      <trkpt lat="47.31858" lon="-2.33252">
        <ele>3.7999999523163</ele>
        <time>2022-04-28T07:52:03.000Z</time>
      </trkpt>
      <trkpt lat="47.31841" lon="-2.33283">
        <ele>3.7999999523163</ele>
        <time>2022-04-28T07:52:10.000Z</time>
      </trkpt>
      <trkpt lat="47.31836" lon="-2.33289">
        <ele>4.1999998092651</ele>
        <time>2022-04-28T07:52:12.000Z</time>
      </trkpt>
      <trkpt lat="47.31833" lon="-2.33292">
        <ele>4.8000001907349</ele>
        <time>2022-04-28T07:52:13.000Z</time>
      </trkpt>
      <trkpt lat="47.3183" lon="-2.33295">
        <ele>5.1999998092651</ele>
        <time>2022-04-28T07:52:14.000Z</time>
      </trkpt>
      <trkpt lat="47.31827" lon="-2.33298">
        <ele>5.5999999046326</ele>
        <time>2022-04-28T07:52:15.000Z</time>
      </trkpt>
      <trkpt lat="47.31824" lon="-2.333">
        <ele>6</ele>
        <time>2022-04-28T07:52:16.000Z</time>
      </trkpt>
      <trkpt lat="47.31807" lon="-2.33312">
        <ele>6.4000000953674</ele>
        <time>2022-04-28T07:52:22.000Z</time>
      </trkpt>
      <trkpt lat="47.31805" lon="-2.33314">
        <ele>6.8000001907349</ele>
        <time>2022-04-28T07:52:23.000Z</time>
      </trkpt>
      <trkpt lat="47.31802" lon="-2.33315">
        <ele>7.4000000953674</ele>
        <time>2022-04-28T07:52:24.000Z</time>
      </trkpt>
      <trkpt lat="47.318" lon="-2.33317">
        <ele>7.8000001907349</ele>
        <time>2022-04-28T07:52:25.000Z</time>
      </trkpt>
      <trkpt lat="47.31798" lon="-2.33318">
        <ele>8.1999998092651</ele>
        <time>2022-04-28T07:52:26.000Z</time>
      </trkpt>
      <trkpt lat="47.31783" lon="-2.33324">
        <ele>8.6000003814697</ele>
        <time>2022-04-28T07:52:30.000Z</time>
      </trkpt>
      <trkpt lat="47.31779" lon="-2.33324">
        <ele>9</ele>
        <time>2022-04-28T07:52:31.000Z</time>
      </trkpt>
      <trkpt lat="47.31776" lon="-2.33321">
        <ele>9.3999996185303</ele>
        <time>2022-04-28T07:52:32.000Z</time>
      </trkpt>
      <trkpt lat="47.31771" lon="-2.3332">
        <ele>9.8000001907349</ele>
        <time>2022-04-28T07:52:33.000Z</time>
      </trkpt>
      <trkpt lat="47.31769" lon="-2.33318">
        <ele>10.199999809265</ele>
        <time>2022-04-28T07:52:34.000Z</time>
      </trkpt>
      <trkpt lat="47.31755" lon="-2.33298">
        <ele>10.199999809265</ele>
        <time>2022-04-28T07:52:41.000Z</time>
      </trkpt>
      <trkpt lat="47.31753" lon="-2.33295">
        <ele>10.60000038147</ele>
        <time>2022-04-28T07:52:42.000Z</time>
      </trkpt>
      <trkpt lat="47.31752" lon="-2.33291">
        <ele>11</ele>
        <time>2022-04-28T07:52:43.000Z</time>
      </trkpt>
      <trkpt lat="47.3175" lon="-2.33286">
        <ele>11.60000038147</ele>
        <time>2022-04-28T07:52:44.000Z</time>
      </trkpt>
      <trkpt lat="47.31749" lon="-2.3328">
        <ele>12</ele>
        <time>2022-04-28T07:52:45.000Z</time>
      </trkpt>
      <trkpt lat="47.31749" lon="-2.33277">
        <ele>12.39999961853</ele>
        <time>2022-04-28T07:52:46.000Z</time>
      </trkpt>
      <trkpt lat="47.31748" lon="-2.33271">
        <ele>12.39999961853</ele>
        <time>2022-04-28T07:52:47.000Z</time>
      </trkpt>
      <trkpt lat="47.31739" lon="-2.3325">
        <ele>12.39999961853</ele>
        <time>2022-04-28T07:52:52.000Z</time>
      </trkpt>
      <trkpt lat="47.31737" lon="-2.3325">
        <ele>12.39999961853</ele>
        <time>2022-04-28T07:52:53.000Z</time>
      </trkpt>
      <trkpt lat="47.31716" lon="-2.33257">
        <ele>12.39999961853</ele>
        <time>2022-04-28T07:52:59.000Z</time>
      </trkpt>
      <trkpt lat="47.31706" lon="-2.33259">
        <ele>12.800000190735</ele>
        <time>2022-04-28T07:53:02.000Z</time>
      </trkpt>
      <trkpt lat="47.31703" lon="-2.33261">
        <ele>13.199999809265</ele>
        <time>2022-04-28T07:53:03.000Z</time>
      </trkpt>
      <trkpt lat="47.31701" lon="-2.33262">
        <ele>13.60000038147</ele>
        <time>2022-04-28T07:53:04.000Z</time>
      </trkpt>
      <trkpt lat="47.31698" lon="-2.33264">
        <ele>14.199999809265</ele>
        <time>2022-04-28T07:53:05.000Z</time>
      </trkpt>
      <trkpt lat="47.31694" lon="-2.33266">
        <ele>14.60000038147</ele>
        <time>2022-04-28T07:53:06.000Z</time>
      </trkpt>
      <trkpt lat="47.31679" lon="-2.33273">
        <ele>14.60000038147</ele>
        <time>2022-04-28T07:53:10.000Z</time>
      </trkpt>
      <trkpt lat="47.3165" lon="-2.33286">
        <ele>14.60000038147</ele>
        <time>2022-04-28T07:53:18.000Z</time>
      </trkpt>
      <trkpt lat="47.31647" lon="-2.33287">
        <ele>15</ele>
        <time>2022-04-28T07:53:19.000Z</time>
      </trkpt>
      <trkpt lat="47.31643" lon="-2.33289">
        <ele>15.39999961853</ele>
        <time>2022-04-28T07:53:20.000Z</time>
      </trkpt>
      <trkpt lat="47.31639" lon="-2.33291">
        <ele>15.800000190735</ele>
        <time>2022-04-28T07:53:21.000Z</time>
      </trkpt>
      <trkpt lat="47.31635" lon="-2.33292">
        <ele>16.200000762939</ele>
        <time>2022-04-28T07:53:22.000Z</time>
      </trkpt>
      <trkpt lat="47.31631" lon="-2.33294">
        <ele>16.60000038147</ele>
        <time>2022-04-28T07:53:23.000Z</time>
      </trkpt>
      <trkpt lat="47.31619" lon="-2.33301">
        <ele>16.60000038147</ele>
        <time>2022-04-28T07:53:26.000Z</time>
      </trkpt>
      <trkpt lat="47.31602" lon="-2.33311">
        <ele>16.60000038147</ele>
        <time>2022-04-28T07:53:30.000Z</time>
      </trkpt>
      <trkpt lat="47.31594" lon="-2.33316">
        <ele>16.60000038147</ele>
        <time>2022-04-28T07:53:32.000Z</time>
      </trkpt>
      <trkpt lat="47.31564" lon="-2.33333">
        <ele>16.60000038147</ele>
        <time>2022-04-28T07:53:39.000Z</time>
      </trkpt>
      <trkpt lat="47.3153" lon="-2.33347">
        <ele>16.60000038147</ele>
        <time>2022-04-28T07:53:47.000Z</time>
      </trkpt>
      <trkpt lat="47.31512" lon="-2.33356">
        <ele>16.60000038147</ele>
        <time>2022-04-28T07:53:53.000Z</time>
      </trkpt>
      <trkpt lat="47.3151" lon="-2.33357">
        <ele>16.60000038147</ele>
        <time>2022-04-28T07:53:55.000Z</time>
      </trkpt>
      <trkpt lat="47.31508" lon="-2.33358">
        <ele>16.60000038147</ele>
        <time>2022-04-28T07:54:18.000Z</time>
      </trkpt>
      <trkpt lat="47.31506" lon="-2.33359">
        <ele>16.60000038147</ele>
        <time>2022-04-28T07:54:19.000Z</time>
      </trkpt>
      <trkpt lat="47.31493" lon="-2.33365">
        <ele>16.60000038147</ele>
        <time>2022-04-28T07:54:23.000Z</time>
      </trkpt>
      <trkpt lat="47.31489" lon="-2.33366">
        <ele>16.60000038147</ele>
        <time>2022-04-28T07:54:24.000Z</time>
      </trkpt>
      <trkpt lat="47.31476" lon="-2.33358">
        <ele>16.60000038147</ele>
        <time>2022-04-28T07:54:27.000Z</time>
      </trkpt>
      <trkpt lat="47.31466" lon="-2.33342">
        <ele>16.60000038147</ele>
        <time>2022-04-28T07:54:30.000Z</time>
      </trkpt>
      <trkpt lat="47.3146" lon="-2.33329">
        <ele>16.60000038147</ele>
        <time>2022-04-28T07:54:32.000Z</time>
      </trkpt>
      <trkpt lat="47.31442" lon="-2.33297">
        <ele>16.60000038147</ele>
        <time>2022-04-28T07:54:37.000Z</time>
      </trkpt>
      <trkpt lat="47.31412" lon="-2.33265">
        <ele>16.60000038147</ele>
        <time>2022-04-28T07:54:43.000Z</time>
      </trkpt>
      <trkpt lat="47.31371" lon="-2.33238">
        <ele>16.60000038147</ele>
        <time>2022-04-28T07:54:50.000Z</time>
      </trkpt>
      <trkpt lat="47.31326" lon="-2.33201">
        <ele>16.60000038147</ele>
        <time>2022-04-28T07:54:58.000Z</time>
      </trkpt>
      <trkpt lat="47.31295" lon="-2.33172">
        <ele>16.60000038147</ele>
        <time>2022-04-28T07:55:04.000Z</time>
      </trkpt>
      <trkpt lat="47.31284" lon="-2.33164">
        <ele>16.60000038147</ele>
        <time>2022-04-28T07:55:06.000Z</time>
      </trkpt>
      <trkpt lat="47.31267" lon="-2.33156">
        <ele>16.60000038147</ele>
        <time>2022-04-28T07:55:09.000Z</time>
      </trkpt>
      <trkpt lat="47.3125" lon="-2.33151">
        <ele>16.60000038147</ele>
        <time>2022-04-28T07:55:12.000Z</time>
      </trkpt>
      <trkpt lat="47.3124" lon="-2.33148">
        <ele>16.60000038147</ele>
        <time>2022-04-28T07:55:14.000Z</time>
      </trkpt>
      <trkpt lat="47.3123" lon="-2.33137">
        <ele>16.60000038147</ele>
        <time>2022-04-28T07:55:17.000Z</time>
      </trkpt>
      <trkpt lat="47.31229" lon="-2.33125">
        <ele>16.60000038147</ele>
        <time>2022-04-28T07:55:20.000Z</time>
      </trkpt>
      <trkpt lat="47.31231" lon="-2.33116">
        <ele>16.60000038147</ele>
        <time>2022-04-28T07:55:22.000Z</time>
      </trkpt>
      <trkpt lat="47.31235" lon="-2.33107">
        <ele>16.200000762939</ele>
        <time>2022-04-28T07:55:24.000Z</time>
      </trkpt>
      <trkpt lat="47.31237" lon="-2.33102">
        <ele>15.800000190735</ele>
        <time>2022-04-28T07:55:25.000Z</time>
      </trkpt>
      <trkpt lat="47.31239" lon="-2.33098">
        <ele>15.39999961853</ele>
        <time>2022-04-28T07:55:26.000Z</time>
      </trkpt>
      <trkpt lat="47.31242" lon="-2.33093">
        <ele>15</ele>
        <time>2022-04-28T07:55:27.000Z</time>
      </trkpt>
      <trkpt lat="47.31244" lon="-2.33089">
        <ele>14.60000038147</ele>
        <time>2022-04-28T07:55:28.000Z</time>
      </trkpt>
      <trkpt lat="47.31251" lon="-2.33077">
        <ele>14.60000038147</ele>
        <time>2022-04-28T07:55:31.000Z</time>
      </trkpt>
      <trkpt lat="47.31264" lon="-2.33055">
        <ele>14.60000038147</ele>
        <time>2022-04-28T07:55:37.000Z</time>
      </trkpt>
      <trkpt lat="47.31283" lon="-2.33024">
        <ele>14.60000038147</ele>
        <time>2022-04-28T07:55:44.000Z</time>
      </trkpt>
      <trkpt lat="47.31303" lon="-2.32987">
        <ele>14.60000038147</ele>
        <time>2022-04-28T07:55:51.000Z</time>
      </trkpt>
      <trkpt lat="47.31312" lon="-2.32969">
        <ele>14.60000038147</ele>
        <time>2022-04-28T07:55:54.000Z</time>
      </trkpt>
      <trkpt lat="47.31318" lon="-2.32957">
        <ele>14.60000038147</ele>
        <time>2022-04-28T07:55:56.000Z</time>
      </trkpt>
      <trkpt lat="47.3133" lon="-2.32933">
        <ele>14.60000038147</ele>
        <time>2022-04-28T07:56:01.000Z</time>
      </trkpt>
      <trkpt lat="47.31341" lon="-2.32906">
        <ele>14.60000038147</ele>
        <time>2022-04-28T07:56:06.000Z</time>
      </trkpt>
      <trkpt lat="47.31341" lon="-2.329">
        <ele>14.60000038147</ele>
        <time>2022-04-28T07:56:07.000Z</time>
      </trkpt>
      <trkpt lat="47.31339" lon="-2.3289">
        <ele>14.60000038147</ele>
        <time>2022-04-28T07:56:09.000Z</time>
      </trkpt>
      <trkpt lat="47.31321" lon="-2.32864">
        <ele>14.60000038147</ele>
        <time>2022-04-28T07:56:15.000Z</time>
      </trkpt>
      <trkpt lat="47.31295" lon="-2.32825">
        <ele>14.60000038147</ele>
        <time>2022-04-28T07:56:22.000Z</time>
      </trkpt>
      <trkpt lat="47.3128" lon="-2.32793">
        <ele>14.60000038147</ele>
        <time>2022-04-28T07:56:27.000Z</time>
      </trkpt>
      <trkpt lat="47.31276" lon="-2.32787">
        <ele>14.60000038147</ele>
        <time>2022-04-28T07:56:28.000Z</time>
      </trkpt>
      <trkpt lat="47.31264" lon="-2.32775">
        <ele>14.60000038147</ele>
        <time>2022-04-28T07:56:31.000Z</time>
      </trkpt>
      <trkpt lat="47.31254" lon="-2.32767">
        <ele>14.60000038147</ele>
        <time>2022-04-28T07:56:33.000Z</time>
      </trkpt>
      <trkpt lat="47.31226" lon="-2.32747">
        <ele>14.60000038147</ele>
        <time>2022-04-28T07:56:39.000Z</time>
      </trkpt>
      <trkpt lat="47.31213" lon="-2.32737">
        <ele>14.60000038147</ele>
        <time>2022-04-28T07:56:42.000Z</time>
      </trkpt>
      <trkpt lat="47.31206" lon="-2.32728">
        <ele>14.60000038147</ele>
        <time>2022-04-28T07:56:44.000Z</time>
      </trkpt>
      <trkpt lat="47.31194" lon="-2.32694">
        <ele>14.60000038147</ele>
        <time>2022-04-28T07:56:49.000Z</time>
      </trkpt>
      <trkpt lat="47.31177" lon="-2.32642">
        <ele>14.60000038147</ele>
        <time>2022-04-28T07:56:56.000Z</time>
      </trkpt>
      <trkpt lat="47.31173" lon="-2.32607">
        <ele>14.60000038147</ele>
        <time>2022-04-28T07:57:00.000Z</time>
      </trkpt>
      <trkpt lat="47.31175" lon="-2.32543">
        <ele>14.60000038147</ele>
        <time>2022-04-28T07:57:07.000Z</time>
      </trkpt>
      <trkpt lat="47.31178" lon="-2.32461">
        <ele>14.60000038147</ele>
        <time>2022-04-28T07:57:16.000Z</time>
      </trkpt>
      <trkpt lat="47.31179" lon="-2.32445">
        <ele>14.60000038147</ele>
        <time>2022-04-28T07:57:18.000Z</time>
      </trkpt>
      <trkpt lat="47.31175" lon="-2.32433">
        <ele>14.199999809265</ele>
        <time>2022-04-28T07:57:20.000Z</time>
      </trkpt>
      <trkpt lat="47.31171" lon="-2.32429">
        <ele>13.800000190735</ele>
        <time>2022-04-28T07:57:21.000Z</time>
      </trkpt>
      <trkpt lat="47.31167" lon="-2.32427">
        <ele>13.199999809265</ele>
        <time>2022-04-28T07:57:22.000Z</time>
      </trkpt>
      <trkpt lat="47.31163" lon="-2.32427">
        <ele>12.800000190735</ele>
        <time>2022-04-28T07:57:23.000Z</time>
      </trkpt>
      <trkpt lat="47.31159" lon="-2.32426">
        <ele>12.39999961853</ele>
        <time>2022-04-28T07:57:24.000Z</time>
      </trkpt>
      <trkpt lat="47.3115" lon="-2.32419">
        <ele>12.39999961853</ele>
        <time>2022-04-28T07:57:27.000Z</time>
      </trkpt>
      <trkpt lat="47.31149" lon="-2.32415">
        <ele>12.39999961853</ele>
        <time>2022-04-28T07:57:28.000Z</time>
      </trkpt>
      <trkpt lat="47.31148" lon="-2.32404">
        <ele>12.39999961853</ele>
        <time>2022-04-28T07:57:30.000Z</time>
      </trkpt>
      <trkpt lat="47.31146" lon="-2.32366">
        <ele>12.39999961853</ele>
        <time>2022-04-28T07:57:35.000Z</time>
      </trkpt>
      <trkpt lat="47.31138" lon="-2.32322">
        <ele>12</ele>
        <time>2022-04-28T07:57:40.000Z</time>
      </trkpt>
      <trkpt lat="47.31136" lon="-2.32314">
        <ele>11.60000038147</ele>
        <time>2022-04-28T07:57:41.000Z</time>
      </trkpt>
      <trkpt lat="47.31134" lon="-2.32306">
        <ele>11.199999809265</ele>
        <time>2022-04-28T07:57:42.000Z</time>
      </trkpt>
      <trkpt lat="47.31131" lon="-2.32298">
        <ele>10.800000190735</ele>
        <time>2022-04-28T07:57:43.000Z</time>
      </trkpt>
      <trkpt lat="47.31127" lon="-2.32291">
        <ele>10.199999809265</ele>
        <time>2022-04-28T07:57:44.000Z</time>
      </trkpt>
      <trkpt lat="47.31119" lon="-2.32273">
        <ele>10.199999809265</ele>
        <time>2022-04-28T07:57:46.000Z</time>
      </trkpt>
      <trkpt lat="47.31106" lon="-2.32247">
        <ele>9.8000001907349</ele>
        <time>2022-04-28T07:57:49.000Z</time>
      </trkpt>
      <trkpt lat="47.31102" lon="-2.32237">
        <ele>9.3999996185303</ele>
        <time>2022-04-28T07:57:50.000Z</time>
      </trkpt>
      <trkpt lat="47.31099" lon="-2.32227">
        <ele>9</ele>
        <time>2022-04-28T07:57:51.000Z</time>
      </trkpt>
      <trkpt lat="47.31095" lon="-2.32217">
        <ele>8.3999996185303</ele>
        <time>2022-04-28T07:57:52.000Z</time>
      </trkpt>
      <trkpt lat="47.31091" lon="-2.32207">
        <ele>8</ele>
        <time>2022-04-28T07:57:53.000Z</time>
      </trkpt>
      <trkpt lat="47.31088" lon="-2.32198">
        <ele>8</ele>
        <time>2022-04-28T07:57:54.000Z</time>
      </trkpt>
      <trkpt lat="47.31082" lon="-2.32182">
        <ele>8</ele>
        <time>2022-04-28T07:57:56.000Z</time>
      </trkpt>
      <trkpt lat="47.31079" lon="-2.32175">
        <ele>7.1999998092651</ele>
        <time>2022-04-28T07:57:57.000Z</time>
      </trkpt>
      <trkpt lat="47.31076" lon="-2.32169">
        <ele>6.8000001907349</ele>
        <time>2022-04-28T07:57:58.000Z</time>
      </trkpt>
      <trkpt lat="47.31072" lon="-2.32163">
        <ele>6.1999998092651</ele>
        <time>2022-04-28T07:57:59.000Z</time>
      </trkpt>
      <trkpt lat="47.31068" lon="-2.32156">
        <ele>5.8000001907349</ele>
        <time>2022-04-28T07:58:00.000Z</time>
      </trkpt>
      <trkpt lat="47.3106" lon="-2.32143">
        <ele>5.8000001907349</ele>
        <time>2022-04-28T07:58:02.000Z</time>
      </trkpt>
      <trkpt lat="47.31039" lon="-2.32115">
        <ele>5.8000001907349</ele>
        <time>2022-04-28T07:58:07.000Z</time>
      </trkpt>
      <trkpt lat="47.31031" lon="-2.32104">
        <ele>5.4000000953674</ele>
        <time>2022-04-28T07:58:09.000Z</time>
      </trkpt>
      <trkpt lat="47.31028" lon="-2.32099">
        <ele>5</ele>
        <time>2022-04-28T07:58:10.000Z</time>
      </trkpt>
      <trkpt lat="47.31025" lon="-2.32094">
        <ele>4.5999999046326</ele>
        <time>2022-04-28T07:58:11.000Z</time>
      </trkpt>
      <trkpt lat="47.31021" lon="-2.32089">
        <ele>4.1999998092651</ele>
        <time>2022-04-28T07:58:12.000Z</time>
      </trkpt>
      <trkpt lat="47.31018" lon="-2.32084">
        <ele>3.7999999523163</ele>
        <time>2022-04-28T07:58:13.000Z</time>
      </trkpt>
      <trkpt lat="47.3099" lon="-2.32037">
        <ele>3.7999999523163</ele>
        <time>2022-04-28T07:58:21.000Z</time>
      </trkpt>
      <trkpt lat="47.30977" lon="-2.3201">
        <ele>3.4000000953674</ele>
        <time>2022-04-28T07:58:25.000Z</time>
      </trkpt>
      <trkpt lat="47.30975" lon="-2.32004">
        <ele>3</ele>
        <time>2022-04-28T07:58:26.000Z</time>
      </trkpt>
      <trkpt lat="47.30972" lon="-2.31997">
        <ele>2.5999999046326</ele>
        <time>2022-04-28T07:58:27.000Z</time>
      </trkpt>
      <trkpt lat="47.3097" lon="-2.3199">
        <ele>2.2000000476837</ele>
        <time>2022-04-28T07:58:28.000Z</time>
      </trkpt>
      <trkpt lat="47.30968" lon="-2.31984">
        <ele>1.7999999523163</ele>
        <time>2022-04-28T07:58:29.000Z</time>
      </trkpt>
      <trkpt lat="47.30964" lon="-2.31968">
        <ele>1.7999999523163</ele>
        <time>2022-04-28T07:58:31.000Z</time>
      </trkpt>
      <trkpt lat="47.30965" lon="-2.31961">
        <ele>1.7999999523163</ele>
        <time>2022-04-28T07:58:32.000Z</time>
      </trkpt>
      <trkpt lat="47.30968" lon="-2.31938">
        <ele>1.7999999523163</ele>
        <time>2022-04-28T07:58:35.000Z</time>
      </trkpt>
      <trkpt lat="47.30972" lon="-2.31925">
        <ele>1.7999999523163</ele>
        <time>2022-04-28T07:58:37.000Z</time>
      </trkpt>
      <trkpt lat="47.30975" lon="-2.31912">
        <ele>1.7999999523163</ele>
        <time>2022-04-28T07:58:39.000Z</time>
      </trkpt>
      <trkpt lat="47.30977" lon="-2.31891">
        <ele>1.7999999523163</ele>
        <time>2022-04-28T07:58:42.000Z</time>
      </trkpt>
      <trkpt lat="47.30977" lon="-2.31885">
        <ele>1.7999999523163</ele>
        <time>2022-04-28T07:58:43.000Z</time>
      </trkpt>
      <trkpt lat="47.30978" lon="-2.31871">
        <ele>1.7999999523163</ele>
        <time>2022-04-28T07:58:45.000Z</time>
      </trkpt>
      <trkpt lat="47.30982" lon="-2.31858">
        <ele>1.7999999523163</ele>
        <time>2022-04-28T07:58:47.000Z</time>
      </trkpt>
      <trkpt lat="47.30988" lon="-2.31847">
        <ele>1.7999999523163</ele>
        <time>2022-04-28T07:58:49.000Z</time>
      </trkpt>
      <trkpt lat="47.3099" lon="-2.31841">
        <ele>1.7999999523163</ele>
        <time>2022-04-28T07:58:50.000Z</time>
      </trkpt>
      <trkpt lat="47.3099" lon="-2.31829">
        <ele>1.7999999523163</ele>
        <time>2022-04-28T07:58:52.000Z</time>
      </trkpt>
      <trkpt lat="47.30984" lon="-2.31815">
        <ele>1.7999999523163</ele>
        <time>2022-04-28T07:58:55.000Z</time>
      </trkpt>
      <trkpt lat="47.30978" lon="-2.31809">
        <ele>1.7999999523163</ele>
        <time>2022-04-28T07:58:56.000Z</time>
      </trkpt>
      <trkpt lat="47.3095" lon="-2.31777">
        <ele>1.7999999523163</ele>
        <time>2022-04-28T07:59:02.000Z</time>
      </trkpt>
      <trkpt lat="47.30917" lon="-2.31736">
        <ele>1.7999999523163</ele>
        <time>2022-04-28T07:59:10.000Z</time>
      </trkpt>
      <trkpt lat="47.30889" lon="-2.317">
        <ele>1.7999999523163</ele>
        <time>2022-04-28T07:59:17.000Z</time>
      </trkpt>
      <trkpt lat="47.3086" lon="-2.31665">
        <ele>1.7999999523163</ele>
        <time>2022-04-28T07:59:24.000Z</time>
      </trkpt>
      <trkpt lat="47.30848" lon="-2.3165">
        <ele>1.7999999523163</ele>
        <time>2022-04-28T07:59:27.000Z</time>
      </trkpt>
      <trkpt lat="47.30839" lon="-2.31648">
        <ele>1.7999999523163</ele>
        <time>2022-04-28T07:59:29.000Z</time>
      </trkpt>
      <trkpt lat="47.3083" lon="-2.31657">
        <ele>1.7999999523163</ele>
        <time>2022-04-28T07:59:31.000Z</time>
      </trkpt>
      <trkpt lat="47.30825" lon="-2.31663">
        <ele>1.7999999523163</ele>
        <time>2022-04-28T07:59:32.000Z</time>
      </trkpt>
      <trkpt lat="47.30785" lon="-2.3171">
        <ele>1.7999999523163</ele>
        <time>2022-04-28T07:59:40.000Z</time>
      </trkpt>
      <trkpt lat="47.30775" lon="-2.31723">
        <ele>1.3999999761581</ele>
        <time>2022-04-28T07:59:42.000Z</time>
      </trkpt>
      <trkpt lat="47.30771" lon="-2.31729">
        <ele>1</ele>
        <time>2022-04-28T07:59:43.000Z</time>
      </trkpt>
      <trkpt lat="47.30766" lon="-2.31735">
        <ele>0.60000002384186</ele>
        <time>2022-04-28T07:59:44.000Z</time>
      </trkpt>
      <trkpt lat="47.30762" lon="-2.3174">
        <ele>13.2</ele>
        <time>2022-04-28T07:59:45.000Z</time>
      </trkpt>
      <trkpt lat="47.30758" lon="-2.31743">
        <ele>-0.40000000596046</ele>
        <time>2022-04-28T07:59:46.000Z</time>
      </trkpt>
      <trkpt lat="47.30746" lon="-2.31751">
        <ele>-0.40000000596046</ele>
        <time>2022-04-28T07:59:49.000Z</time>
      </trkpt>
      <trkpt lat="47.30733" lon="-2.31755">
        <ele>-0.40000000596046</ele>
        <time>2022-04-28T07:59:52.000Z</time>
      </trkpt>
      <trkpt lat="47.30728" lon="-2.31755">
        <ele>-0.40000000596046</ele>
        <time>2022-04-28T07:59:53.000Z</time>
      </trkpt>
      <trkpt lat="47.3072" lon="-2.31746">
        <ele>-0.40000000596046</ele>
        <time>2022-04-28T07:59:55.000Z</time>
      </trkpt>
      <trkpt lat="47.30715" lon="-2.31733">
        <ele>-0.40000000596046</ele>
        <time>2022-04-28T07:59:57.000Z</time>
      </trkpt>
      <trkpt lat="47.30711" lon="-2.3172">
        <ele>-0.40000000596046</ele>
        <time>2022-04-28T07:59:59.000Z</time>
      </trkpt>
      <trkpt lat="47.30686" lon="-2.31658">
        <ele>-0.40000000596046</ele>
        <time>2022-04-28T08:00:08.000Z</time>
      </trkpt>
      <trkpt lat="47.30683" lon="-2.31649">
        <ele>-0.80000001192093</ele>
        <time>2022-04-28T08:00:09.000Z</time>
      </trkpt>
      <trkpt lat="47.30681" lon="-2.3164">
        <ele>-1.2000000476837</ele>
        <time>2022-04-28T08:00:10.000Z</time>
      </trkpt>
      <trkpt lat="47.30679" lon="-2.31631">
        <ele>-1.6000000238419</ele>
        <time>2022-04-28T08:00:11.000Z</time>
      </trkpt>
      <trkpt lat="47.30677" lon="-2.31622">
        <ele>-2</ele>
        <time>2022-04-28T08:00:12.000Z</time>
      </trkpt>
      <trkpt lat="47.30674" lon="-2.31613">
        <ele>-2.5999999046326</ele>
        <time>2022-04-28T08:00:13.000Z</time>
      </trkpt>
      <trkpt lat="47.30661" lon="-2.31587">
        <ele>-2.5999999046326</ele>
        <time>2022-04-28T08:00:17.000Z</time>
      </trkpt>
      <trkpt lat="47.30644" lon="-2.31552">
        <ele>-2.5999999046326</ele>
        <time>2022-04-28T08:00:23.000Z</time>
      </trkpt>
      <trkpt lat="47.30629" lon="-2.31513">
        <ele>-2</ele>
        <time>2022-04-28T08:00:29.000Z</time>
      </trkpt>
      <trkpt lat="47.30627" lon="-2.31507">
        <ele>-1.6000000238419</ele>
        <time>2022-04-28T08:00:30.000Z</time>
      </trkpt>
      <trkpt lat="47.30625" lon="-2.31501">
        <ele>-1.2000000476837</ele>
        <time>2022-04-28T08:00:31.000Z</time>
      </trkpt>
      <trkpt lat="47.30622" lon="-2.31495">
        <ele>-0.80000001192093</ele>
        <time>2022-04-28T08:00:32.000Z</time>
      </trkpt>
      <trkpt lat="47.3062" lon="-2.31489">
        <ele>-0.40000000596046</ele>
        <time>2022-04-28T08:00:33.000Z</time>
      </trkpt>
      <trkpt lat="47.30604" lon="-2.3145">
        <ele>-0.40000000596046</ele>
        <time>2022-04-28T08:00:40.000Z</time>
      </trkpt>
      <trkpt lat="47.30598" lon="-2.31435">
        <ele>-0.40000000596046</ele>
        <time>2022-04-28T08:00:43.000Z</time>
      </trkpt>
      <trkpt lat="47.30591" lon="-2.31419">
        <ele>-0.40000000596046</ele>
        <time>2022-04-28T08:00:46.000Z</time>
      </trkpt>
      <trkpt lat="47.30588" lon="-2.31414">
        <ele>-0.40000000596046</ele>
        <time>2022-04-28T08:00:47.000Z</time>
      </trkpt>
      <trkpt lat="47.30575" lon="-2.31387">
        <ele>-0.40000000596046</ele>
        <time>2022-04-28T08:00:52.000Z</time>
      </trkpt>
      <trkpt lat="47.30572" lon="-2.31382">
        <ele>-0.40000000596046</ele>
        <time>2022-04-28T08:00:53.000Z</time>
      </trkpt>
      <trkpt lat="47.30556" lon="-2.31352">
        <ele>-0.40000000596046</ele>
        <time>2022-04-28T08:00:58.000Z</time>
      </trkpt>
      <trkpt lat="47.30552" lon="-2.31346">
        <ele>-0.40000000596046</ele>
        <time>2022-04-28T08:00:59.000Z</time>
      </trkpt>
      <trkpt lat="47.30523" lon="-2.31299">
        <ele>-0.40000000596046</ele>
        <time>2022-04-28T08:01:07.000Z</time>
      </trkpt>
      <trkpt lat="47.30497" lon="-2.31261">
        <ele>-0.40000000596046</ele>
        <time>2022-04-28T08:01:14.000Z</time>
      </trkpt>
      <trkpt lat="47.30484" lon="-2.31237">
        <ele>15.7</ele>
        <time>2022-04-28T08:01:18.000Z</time>
      </trkpt>
      <trkpt lat="47.30481" lon="-2.31231">
        <ele>0.40000000596046</ele>
        <time>2022-04-28T08:01:19.000Z</time>
      </trkpt>
      <trkpt lat="47.30477" lon="-2.31224">
        <ele>1</ele>
        <time>2022-04-28T08:01:20.000Z</time>
      </trkpt>
      <trkpt lat="47.30475" lon="-2.31218">
        <ele>1.3999999761581</ele>
        <time>2022-04-28T08:01:21.000Z</time>
      </trkpt>
      <trkpt lat="47.30472" lon="-2.31211">
        <ele>1.7999999523163</ele>
        <time>2022-04-28T08:01:22.000Z</time>
      </trkpt>
      <trkpt lat="47.30461" lon="-2.3118">
        <ele>1.7999999523163</ele>
        <time>2022-04-28T08:01:26.000Z</time>
      </trkpt>
      <trkpt lat="47.30447" lon="-2.31135">
        <ele>1.7999999523163</ele>
        <time>2022-04-28T08:01:32.000Z</time>
      </trkpt>
      <trkpt lat="47.30444" lon="-2.31129">
        <ele>1.7999999523163</ele>
        <time>2022-04-28T08:01:33.000Z</time>
      </trkpt>
      <trkpt lat="47.30431" lon="-2.31113">
        <ele>1.7999999523163</ele>
        <time>2022-04-28T08:01:36.000Z</time>
      </trkpt>
      <trkpt lat="47.30419" lon="-2.31104">
        <ele>1.7999999523163</ele>
        <time>2022-04-28T08:01:38.000Z</time>
      </trkpt>
      <trkpt lat="47.30402" lon="-2.31091">
        <ele>1.7999999523163</ele>
        <time>2022-04-28T08:01:41.000Z</time>
      </trkpt>
      <trkpt lat="47.30379" lon="-2.3107">
        <ele>1.7999999523163</ele>
        <time>2022-04-28T08:01:45.000Z</time>
      </trkpt>
      <trkpt lat="47.30373" lon="-2.31063">
        <ele>1.7999999523163</ele>
        <time>2022-04-28T08:01:46.000Z</time>
      </trkpt>
      <trkpt lat="47.30343" lon="-2.31021">
        <ele>1.3999999761581</ele>
        <time>2022-04-28T08:01:52.000Z</time>
      </trkpt>
      <trkpt lat="47.30338" lon="-2.31014">
        <ele>1</ele>
        <time>2022-04-28T08:01:53.000Z</time>
      </trkpt>
      <trkpt lat="47.30333" lon="-2.31007">
        <ele>0.60000002384186</ele>
        <time>2022-04-28T08:01:54.000Z</time>
      </trkpt>
      <trkpt lat="47.30328" lon="-2.31">
        <ele>12</ele>
        <time>2022-04-28T08:01:55.000Z</time>
      </trkpt>
      <trkpt lat="47.30322" lon="-2.30993">
        <ele>-0.40000000596046</ele>
        <time>2022-04-28T08:01:56.000Z</time>
      </trkpt>
      <trkpt lat="47.30308" lon="-2.30971">
        <ele>-0.80000001192093</ele>
        <time>2022-04-28T08:01:59.000Z</time>
      </trkpt>
      <trkpt lat="47.30302" lon="-2.30962">
        <ele>-1.2000000476837</ele>
        <time>2022-04-28T08:02:00.000Z</time>
      </trkpt>
      <trkpt lat="47.30297" lon="-2.30953">
        <ele>-1.6000000238419</ele>
        <time>2022-04-28T08:02:01.000Z</time>
      </trkpt>
      <trkpt lat="47.30291" lon="-2.30945">
        <ele>-2</ele>
        <time>2022-04-28T08:02:02.000Z</time>
      </trkpt>
      <trkpt lat="47.30286" lon="-2.30937">
        <ele>-2.4000000953674</ele>
        <time>2022-04-28T08:02:03.000Z</time>
      </trkpt>
      <trkpt lat="47.30274" lon="-2.30921">
        <ele>-2.7999999523163</ele>
        <time>2022-04-28T08:02:05.000Z</time>
      </trkpt>
      <trkpt lat="47.30269" lon="-2.30913">
        <ele>-3.2000000476837</ele>
        <time>2022-04-28T08:02:06.000Z</time>
      </trkpt>
      <trkpt lat="47.30262" lon="-2.30905">
        <ele>-3.5999999046326</ele>
        <time>2022-04-28T08:02:07.000Z</time>
      </trkpt>
      <trkpt lat="47.30256" lon="-2.30897">
        <ele>-4</ele>
        <time>2022-04-28T08:02:08.000Z</time>
      </trkpt>
      <trkpt lat="47.3025" lon="-2.30889">
        <ele>-4.4000000953674</ele>
        <time>2022-04-28T08:02:09.000Z</time>
      </trkpt>
      <trkpt lat="47.3023" lon="-2.30865">
        <ele>-5</ele>
        <time>2022-04-28T08:02:12.000Z</time>
      </trkpt>
      <trkpt lat="47.30224" lon="-2.30858">
        <ele>-5.4000000953674</ele>
        <time>2022-04-28T08:02:13.000Z</time>
      </trkpt>
      <trkpt lat="47.30217" lon="-2.30851">
        <ele>-5.8000001907349</ele>
        <time>2022-04-28T08:02:14.000Z</time>
      </trkpt>
      <trkpt lat="47.3021" lon="-2.30845">
        <ele>-6.1999998092651</ele>
        <time>2022-04-28T08:02:15.000Z</time>
      </trkpt>
      <trkpt lat="47.30204" lon="-2.30838">
        <ele>-6.8000001907349</ele>
        <time>2022-04-28T08:02:16.000Z</time>
      </trkpt>
      <trkpt lat="47.30191" lon="-2.30824">
        <ele>-6.8000001907349</ele>
        <time>2022-04-28T08:02:18.000Z</time>
      </trkpt>
      <trkpt lat="47.30176" lon="-2.30804">
        <ele>-7.1999998092651</ele>
        <time>2022-04-28T08:02:21.000Z</time>
      </trkpt>
      <trkpt lat="47.30173" lon="-2.30797">
        <ele>-7.5999999046326</ele>
        <time>2022-04-28T08:02:22.000Z</time>
      </trkpt>
      <trkpt lat="47.3017" lon="-2.30789">
        <ele>-8</ele>
        <time>2022-04-28T08:02:23.000Z</time>
      </trkpt>
      <trkpt lat="47.30169" lon="-2.30781">
        <ele>-8.3999996185303</ele>
        <time>2022-04-28T08:02:24.000Z</time>
      </trkpt>
      <trkpt lat="47.30168" lon="-2.30773">
        <ele>-9</ele>
        <time>2022-04-28T08:02:25.000Z</time>
      </trkpt>
      <trkpt lat="47.30167" lon="-2.30745">
        <ele>-9</ele>
        <time>2022-04-28T08:02:29.000Z</time>
      </trkpt>
      <trkpt lat="47.30164" lon="-2.30735">
        <ele>-9</ele>
        <time>2022-04-28T08:02:31.000Z</time>
      </trkpt>
      <trkpt lat="47.3016" lon="-2.30722">
        <ele>-9</ele>
        <time>2022-04-28T08:02:33.000Z</time>
      </trkpt>
      <trkpt lat="47.30157" lon="-2.30683">
        <ele>-9</ele>
        <time>2022-04-28T08:02:38.000Z</time>
      </trkpt>
      <trkpt lat="47.30154" lon="-2.30643">
        <ele>-9</ele>
        <time>2022-04-28T08:02:44.000Z</time>
      </trkpt>
      <trkpt lat="47.30162" lon="-2.30623">
        <ele>-9</ele>
        <time>2022-04-28T08:02:48.000Z</time>
      </trkpt>
      <trkpt lat="47.30164" lon="-2.30611">
        <ele>-9</ele>
        <time>2022-04-28T08:02:50.000Z</time>
      </trkpt>
      <trkpt lat="47.30166" lon="-2.30605">
        <ele>-9</ele>
        <time>2022-04-28T08:02:51.000Z</time>
      </trkpt>
      <trkpt lat="47.30168" lon="-2.306">
        <ele>-9</ele>
        <time>2022-04-28T08:02:52.000Z</time>
      </trkpt>
      <trkpt lat="47.30185" lon="-2.30586">
        <ele>-9</ele>
        <time>2022-04-28T08:02:56.000Z</time>
      </trkpt>
      <trkpt lat="47.30191" lon="-2.30585">
        <ele>-9</ele>
        <time>2022-04-28T08:02:57.000Z</time>
      </trkpt>
      <trkpt lat="47.30217" lon="-2.30576">
        <ele>-9</ele>
        <time>2022-04-28T08:03:02.000Z</time>
      </trkpt>
      <trkpt lat="47.30222" lon="-2.30572">
        <ele>-9</ele>
        <time>2022-04-28T08:03:03.000Z</time>
      </trkpt>
      <trkpt lat="47.30226" lon="-2.30559">
        <ele>-9</ele>
        <time>2022-04-28T08:03:05.000Z</time>
      </trkpt>
      <trkpt lat="47.30224" lon="-2.30541">
        <ele>-9</ele>
        <time>2022-04-28T08:03:08.000Z</time>
      </trkpt>
      <trkpt lat="47.30214" lon="-2.30525">
        <ele>-9</ele>
        <time>2022-04-28T08:03:12.000Z</time>
      </trkpt>
      <trkpt lat="47.30205" lon="-2.30512">
        <ele>-9</ele>
        <time>2022-04-28T08:03:16.000Z</time>
      </trkpt>
      <trkpt lat="47.30201" lon="-2.3051">
        <ele>-9</ele>
        <time>2022-04-28T08:03:18.000Z</time>
      </trkpt>
      <trkpt lat="47.3019" lon="-2.30505">
        <ele>-9</ele>
        <time>2022-04-28T08:03:24.000Z</time>
      </trkpt>
      <trkpt lat="47.30185" lon="-2.30499">
        <ele>-9</ele>
        <time>2022-04-28T08:03:26.000Z</time>
      </trkpt>
      <trkpt lat="47.30175" lon="-2.30488">
        <ele>-9</ele>
        <time>2022-04-28T08:03:29.000Z</time>
      </trkpt>
      <trkpt lat="47.30156" lon="-2.30458">
        <ele>-9</ele>
        <time>2022-04-28T08:03:35.000Z</time>
      </trkpt>
      <trkpt lat="47.30147" lon="-2.30443">
        <ele>-9</ele>
        <time>2022-04-28T08:03:38.000Z</time>
      </trkpt>
      <trkpt lat="47.30138" lon="-2.30418">
        <ele>-9</ele>
        <time>2022-04-28T08:03:42.000Z</time>
      </trkpt>
      <trkpt lat="47.30123" lon="-2.30365">
        <ele>-9</ele>
        <time>2022-04-28T08:03:50.000Z</time>
      </trkpt>
      <trkpt lat="47.30109" lon="-2.30313">
        <ele>-9</ele>
        <time>2022-04-28T08:03:58.000Z</time>
      </trkpt>
      <trkpt lat="47.30105" lon="-2.30292">
        <ele>-9</ele>
        <time>2022-04-28T08:04:01.000Z</time>
      </trkpt>
      <trkpt lat="47.30106" lon="-2.30277">
        <ele>-9</ele>
        <time>2022-04-28T08:04:03.000Z</time>
      </trkpt>
      <trkpt lat="47.30117" lon="-2.30263">
        <ele>-9</ele>
        <time>2022-04-28T08:04:06.000Z</time>
      </trkpt>
      <trkpt lat="47.30132" lon="-2.30257">
        <ele>-9</ele>
        <time>2022-04-28T08:04:09.000Z</time>
      </trkpt>
      <trkpt lat="47.30142" lon="-2.30253">
        <ele>-9</ele>
        <time>2022-04-28T08:04:11.000Z</time>
      </trkpt>
      <trkpt lat="47.30179" lon="-2.30241">
        <ele>-9</ele>
        <time>2022-04-28T08:04:18.000Z</time>
      </trkpt>
      <trkpt lat="47.30184" lon="-2.30238">
        <ele>-9</ele>
        <time>2022-04-28T08:04:19.000Z</time>
      </trkpt>
      <trkpt lat="47.30196" lon="-2.3023">
        <ele>-9</ele>
        <time>2022-04-28T08:04:22.000Z</time>
      </trkpt>
      <trkpt lat="47.30199" lon="-2.30226">
        <ele>-9</ele>
        <time>2022-04-28T08:04:23.000Z</time>
      </trkpt>
      <trkpt lat="47.302" lon="-2.30216">
        <ele>-9</ele>
        <time>2022-04-28T08:04:25.000Z</time>
      </trkpt>
      <trkpt lat="47.30196" lon="-2.30198">
        <ele>-9</ele>
        <time>2022-04-28T08:04:28.000Z</time>
      </trkpt>
      <trkpt lat="47.30193" lon="-2.30192">
        <ele>-9</ele>
        <time>2022-04-28T08:04:29.000Z</time>
      </trkpt>
      <trkpt lat="47.3018" lon="-2.30153">
        <ele>-9</ele>
        <time>2022-04-28T08:04:35.000Z</time>
      </trkpt>
      <trkpt lat="47.30166" lon="-2.30116">
        <ele>-9</ele>
        <time>2022-04-28T08:04:41.000Z</time>
      </trkpt>
      <trkpt lat="47.30151" lon="-2.30076">
        <ele>-9</ele>
        <time>2022-04-28T08:04:47.000Z</time>
      </trkpt>
      <trkpt lat="47.30148" lon="-2.3007">
        <ele>-9</ele>
        <time>2022-04-28T08:04:48.000Z</time>
      </trkpt>
      <trkpt lat="47.30127" lon="-2.30029">
        <ele>-9</ele>
        <time>2022-04-28T08:04:55.000Z</time>
      </trkpt>
      <trkpt lat="47.30124" lon="-2.30024">
        <ele>-9</ele>
        <time>2022-04-28T08:04:56.000Z</time>
      </trkpt>
      <trkpt lat="47.30114" lon="-2.30012">
        <ele>-9.3999996185303</ele>
        <time>2022-04-28T08:05:00.000Z</time>
      </trkpt>
      <trkpt lat="47.30113" lon="-2.3001">
        <ele>-9.8000001907349</ele>
        <time>2022-04-28T08:05:01.000Z</time>
      </trkpt>
      <trkpt lat="47.3011" lon="-2.30008">
        <ele>-10.199999809265</ele>
        <time>2022-04-28T08:05:02.000Z</time>
      </trkpt>
      <trkpt lat="47.30108" lon="-2.30007">
        <ele>-10.60000038147</ele>
        <time>2022-04-28T08:05:03.000Z</time>
      </trkpt>
      <trkpt lat="47.30106" lon="-2.30006">
        <ele>-11</ele>
        <time>2022-04-28T08:05:04.000Z</time>
      </trkpt>
      <trkpt lat="47.30104" lon="-2.30003">
        <ele>-11</ele>
        <time>2022-04-28T08:05:05.000Z</time>
      </trkpt>
      <trkpt lat="47.301" lon="-2.29993">
        <ele>-11</ele>
        <time>2022-04-28T08:05:08.000Z</time>
      </trkpt>
      <trkpt lat="47.30099" lon="-2.2999">
        <ele>-11</ele>
        <time>2022-04-28T08:05:09.000Z</time>
      </trkpt>
      <trkpt lat="47.30098" lon="-2.29986">
        <ele>-11</ele>
        <time>2022-04-28T08:05:10.000Z</time>
      </trkpt>
      <trkpt lat="47.30098" lon="-2.29975">
        <ele>-11</ele>
        <time>2022-04-28T08:05:13.000Z</time>
      </trkpt>
      <trkpt lat="47.30094" lon="-2.29958">
        <ele>-11</ele>
        <time>2022-04-28T08:05:17.000Z</time>
      </trkpt>
      <trkpt lat="47.30087" lon="-2.29938">
        <ele>-11</ele>
        <time>2022-04-28T08:05:22.000Z</time>
      </trkpt>
      <trkpt lat="47.30092" lon="-2.29922">
        <ele>-11</ele>
        <time>2022-04-28T08:05:27.000Z</time>
      </trkpt>
      <trkpt lat="47.301" lon="-2.29909">
        <ele>-11</ele>
        <time>2022-04-28T08:05:32.000Z</time>
      </trkpt>
      <trkpt lat="47.30105" lon="-2.29904">
        <ele>-11</ele>
        <time>2022-04-28T08:05:34.000Z</time>
      </trkpt>
      <trkpt lat="47.30117" lon="-2.29893">
        <ele>-11</ele>
        <time>2022-04-28T08:05:38.000Z</time>
      </trkpt>
      <trkpt lat="47.30132" lon="-2.29878">
        <ele>-11</ele>
        <time>2022-04-28T08:05:42.000Z</time>
      </trkpt>
      <trkpt lat="47.30151" lon="-2.29852">
        <ele>-11</ele>
        <time>2022-04-28T08:05:49.000Z</time>
      </trkpt>
      <trkpt lat="47.30155" lon="-2.29845">
        <ele>-11</ele>
        <time>2022-04-28T08:05:52.000Z</time>
      </trkpt>
      <trkpt lat="47.30157" lon="-2.29843">
        <ele>-11</ele>
        <time>2022-04-28T08:05:53.000Z</time>
      </trkpt>
      <trkpt lat="47.30162" lon="-2.29837">
        <ele>-11</ele>
        <time>2022-04-28T08:05:56.000Z</time>
      </trkpt>
      <trkpt lat="47.30167" lon="-2.29829">
        <ele>-11</ele>
        <time>2022-04-28T08:06:00.000Z</time>
      </trkpt>
      <trkpt lat="47.30176" lon="-2.29815">
        <ele>-11</ele>
        <time>2022-04-28T08:06:04.000Z</time>
      </trkpt>
      <trkpt lat="47.30189" lon="-2.29796">
        <ele>-11</ele>
        <time>2022-04-28T08:06:10.000Z</time>
      </trkpt>
      <trkpt lat="47.30203" lon="-2.29771">
        <ele>-11</ele>
        <time>2022-04-28T08:06:16.000Z</time>
      </trkpt>
      <trkpt lat="47.30215" lon="-2.29755">
        <ele>-11</ele>
        <time>2022-04-28T08:06:22.000Z</time>
      </trkpt>
      <trkpt lat="47.30226" lon="-2.2974">
        <ele>-11</ele>
        <time>2022-04-28T08:06:28.000Z</time>
      </trkpt>
      <trkpt lat="47.30232" lon="-2.29727">
        <ele>-11</ele>
        <time>2022-04-28T08:06:31.000Z</time>
      </trkpt>
      <trkpt lat="47.30231" lon="-2.2972">
        <ele>-11</ele>
        <time>2022-04-28T08:06:33.000Z</time>
      </trkpt>
      <trkpt lat="47.30227" lon="-2.29713">
        <ele>-11</ele>
        <time>2022-04-28T08:06:35.000Z</time>
      </trkpt>
      <trkpt lat="47.3022" lon="-2.29708">
        <ele>-11</ele>
        <time>2022-04-28T08:06:37.000Z</time>
      </trkpt>
      <trkpt lat="47.30216" lon="-2.29705">
        <ele>-11</ele>
        <time>2022-04-28T08:06:38.000Z</time>
      </trkpt>
      <trkpt lat="47.30197" lon="-2.29694">
        <ele>-11</ele>
        <time>2022-04-28T08:06:42.000Z</time>
      </trkpt>
      <trkpt lat="47.30173" lon="-2.29679">
        <ele>-11</ele>
        <time>2022-04-28T08:06:48.000Z</time>
      </trkpt>
      <trkpt lat="47.30157" lon="-2.29667">
        <ele>-11</ele>
        <time>2022-04-28T08:06:54.000Z</time>
      </trkpt>
      <trkpt lat="47.30143" lon="-2.2966">
        <ele>-11</ele>
        <time>2022-04-28T08:06:59.000Z</time>
      </trkpt>
      <trkpt lat="47.3014" lon="-2.29657">
        <ele>-11</ele>
        <time>2022-04-28T08:07:04.000Z</time>
      </trkpt>
      <trkpt lat="47.30135" lon="-2.29657">
        <ele>-11</ele>
        <time>2022-04-28T08:07:35.000Z</time>
      </trkpt>
      <trkpt lat="47.3013" lon="-2.29658">
        <ele>-11</ele>
        <time>2022-04-28T08:07:37.000Z</time>
      </trkpt>
      <trkpt lat="47.30119" lon="-2.29656">
        <ele>-11</ele>
        <time>2022-04-28T08:07:42.000Z</time>
      </trkpt>
      <trkpt lat="47.30108" lon="-2.29652">
        <ele>-11</ele>
        <time>2022-04-28T08:07:49.000Z</time>
      </trkpt>
      <trkpt lat="47.30105" lon="-2.2965">
        <ele>-11</ele>
        <time>2022-04-28T08:07:51.000Z</time>
      </trkpt>
      <trkpt lat="47.30104" lon="-2.29645">
        <ele>-11</ele>
        <time>2022-04-28T08:07:54.000Z</time>
      </trkpt>
      <trkpt lat="47.3011" lon="-2.29647">
        <ele>-11</ele>
        <time>2022-04-28T08:07:57.000Z</time>
      </trkpt>
      <trkpt lat="47.30112" lon="-2.29649">
        <ele>-11</ele>
        <time>2022-04-28T08:07:58.000Z</time>
      </trkpt>
      <trkpt lat="47.30123" lon="-2.29655">
        <ele>-11</ele>
        <time>2022-04-28T08:08:04.000Z</time>
      </trkpt>
      <trkpt lat="47.30133" lon="-2.29659">
        <ele>-11</ele>
        <time>2022-04-28T08:08:10.000Z</time>
      </trkpt>
      <trkpt lat="47.30137" lon="-2.29655">
        <ele>-11</ele>
        <time>2022-04-28T08:08:16.000Z</time>
      </trkpt>
      <trkpt lat="47.30137" lon="-2.29655">
        <ele>-11</ele>
        <time>2022-04-28T08:08:17.000Z</time>
      </trkpt>
      <trkpt lat="47.30137" lon="-2.2965">
        <ele>-11</ele>
        <time>2022-04-28T08:10:50.000Z</time>
      </trkpt>
      <trkpt lat="47.30137" lon="-2.29646">
        <ele>-11</ele>
        <time>2022-04-28T08:10:52.000Z</time>
      </trkpt>
      <trkpt lat="47.30137" lon="-2.29641">
        <ele>-11</ele>
        <time>2022-04-28T08:10:56.000Z</time>
      </trkpt>
      <trkpt lat="47.30137" lon="-2.29636">
        <ele>-11</ele>
        <time>2022-04-28T08:10:58.000Z</time>
      </trkpt>
      <trkpt lat="47.30138" lon="-2.29608">
        <ele>-11</ele>
        <time>2022-04-28T08:11:04.000Z</time>
      </trkpt>
      <trkpt lat="47.3014" lon="-2.29569">
        <ele>-11</ele>
        <time>2022-04-28T08:11:10.000Z</time>
      </trkpt>
      <trkpt lat="47.30141" lon="-2.29563">
        <ele>-11</ele>
        <time>2022-04-28T08:11:11.000Z</time>
      </trkpt>
      <trkpt lat="47.30152" lon="-2.2954">
        <ele>-11</ele>
        <time>2022-04-28T08:11:15.000Z</time>
      </trkpt>
      <trkpt lat="47.30169" lon="-2.29505">
        <ele>-11</ele>
        <time>2022-04-28T08:11:21.000Z</time>
      </trkpt>
      <trkpt lat="47.30186" lon="-2.29471">
        <ele>-11</ele>
        <time>2022-04-28T08:11:27.000Z</time>
      </trkpt>
      <trkpt lat="47.30206" lon="-2.29433">
        <ele>-11</ele>
        <time>2022-04-28T08:11:33.000Z</time>
      </trkpt>
      <trkpt lat="47.30212" lon="-2.29417">
        <ele>-11</ele>
        <time>2022-04-28T08:11:36.000Z</time>
      </trkpt>
      <trkpt lat="47.30212" lon="-2.2941">
        <ele>-11</ele>
        <time>2022-04-28T08:11:37.000Z</time>
      </trkpt>
      <trkpt lat="47.30208" lon="-2.29392">
        <ele>-11</ele>
        <time>2022-04-28T08:11:40.000Z</time>
      </trkpt>
      <trkpt lat="47.30205" lon="-2.29387">
        <ele>-11</ele>
        <time>2022-04-28T08:11:41.000Z</time>
      </trkpt>
      <trkpt lat="47.30195" lon="-2.29348">
        <ele>-11</ele>
        <time>2022-04-28T08:11:47.000Z</time>
      </trkpt>
      <trkpt lat="47.30192" lon="-2.29343">
        <ele>-11</ele>
        <time>2022-04-28T08:11:48.000Z</time>
      </trkpt>
      <trkpt lat="47.30183" lon="-2.29325">
        <ele>-11</ele>
        <time>2022-04-28T08:11:51.000Z</time>
      </trkpt>
      <trkpt lat="47.30175" lon="-2.29308">
        <ele>-11</ele>
        <time>2022-04-28T08:11:54.000Z</time>
      </trkpt>
      <trkpt lat="47.30166" lon="-2.29291">
        <ele>-11</ele>
        <time>2022-04-28T08:11:57.000Z</time>
      </trkpt>
      <trkpt lat="47.30147" lon="-2.29259">
        <ele>-11</ele>
        <time>2022-04-28T08:12:03.000Z</time>
      </trkpt>
      <trkpt lat="47.30143" lon="-2.29253">
        <ele>-11</ele>
        <time>2022-04-28T08:12:04.000Z</time>
      </trkpt>
      <trkpt lat="47.30114" lon="-2.29218">
        <ele>-11</ele>
        <time>2022-04-28T08:12:11.000Z</time>
      </trkpt>
      <trkpt lat="47.30107" lon="-2.29207">
        <ele>-10.60000038147</ele>
        <time>2022-04-28T08:12:13.000Z</time>
      </trkpt>
      <trkpt lat="47.30103" lon="-2.29203">
        <ele>-10.199999809265</ele>
        <time>2022-04-28T08:12:14.000Z</time>
      </trkpt>
      <trkpt lat="47.301" lon="-2.29198">
        <ele>-9.8000001907349</ele>
        <time>2022-04-28T08:12:15.000Z</time>
      </trkpt>
      <trkpt lat="47.30096" lon="-2.29193">
        <ele>-9.3999996185303</ele>
        <time>2022-04-28T08:12:16.000Z</time>
      </trkpt>
      <trkpt lat="47.30092" lon="-2.29189">
        <ele>-9</ele>
        <time>2022-04-28T08:12:17.000Z</time>
      </trkpt>
      <trkpt lat="47.30089" lon="-2.29184">
        <ele>-9</ele>
        <time>2022-04-28T08:12:18.000Z</time>
      </trkpt>
      <trkpt lat="47.30064" lon="-2.29147">
        <ele>-9</ele>
        <time>2022-04-28T08:12:25.000Z</time>
      </trkpt>
      <trkpt lat="47.30052" lon="-2.29135">
        <ele>-9</ele>
        <time>2022-04-28T08:12:28.000Z</time>
      </trkpt>
      <trkpt lat="47.30039" lon="-2.29128">
        <ele>-9</ele>
        <time>2022-04-28T08:12:31.000Z</time>
      </trkpt>
      <trkpt lat="47.30012" lon="-2.29106">
        <ele>-9</ele>
        <time>2022-04-28T08:12:37.000Z</time>
      </trkpt>
      <trkpt lat="47.2999" lon="-2.29086">
        <ele>-9</ele>
        <time>2022-04-28T08:12:42.000Z</time>
      </trkpt>
      <trkpt lat="47.29987" lon="-2.29081">
        <ele>-9</ele>
        <time>2022-04-28T08:12:43.000Z</time>
      </trkpt>
      <trkpt lat="47.29973" lon="-2.29054">
        <ele>-9</ele>
        <time>2022-04-28T08:12:48.000Z</time>
      </trkpt>
      <trkpt lat="47.29957" lon="-2.29026">
        <ele>-8.6000003814697</ele>
        <time>2022-04-28T08:12:53.000Z</time>
      </trkpt>
      <trkpt lat="47.29953" lon="-2.29021">
        <ele>-8.1999998092651</ele>
        <time>2022-04-28T08:12:54.000Z</time>
      </trkpt>
      <trkpt lat="47.2995" lon="-2.29015">
        <ele>-7.8000001907349</ele>
        <time>2022-04-28T08:12:55.000Z</time>
      </trkpt>
      <trkpt lat="47.29948" lon="-2.29011">
        <ele>-7.4000000953674</ele>
        <time>2022-04-28T08:12:56.000Z</time>
      </trkpt>
      <trkpt lat="47.29944" lon="-2.29006">
        <ele>-7</ele>
        <time>2022-04-28T08:12:57.000Z</time>
      </trkpt>
      <trkpt lat="47.29933" lon="-2.28983">
        <ele>-7</ele>
        <time>2022-04-28T08:13:01.000Z</time>
      </trkpt>
      <trkpt lat="47.29923" lon="-2.28965">
        <ele>-7</ele>
        <time>2022-04-28T08:13:04.000Z</time>
      </trkpt>
      <trkpt lat="47.29914" lon="-2.28957">
        <ele>-7</ele>
        <time>2022-04-28T08:13:06.000Z</time>
      </trkpt>
      <trkpt lat="47.29904" lon="-2.28953">
        <ele>-7</ele>
        <time>2022-04-28T08:13:08.000Z</time>
      </trkpt>
      <trkpt lat="47.29894" lon="-2.2895">
        <ele>-7</ele>
        <time>2022-04-28T08:13:10.000Z</time>
      </trkpt>
      <trkpt lat="47.29889" lon="-2.28949">
        <ele>-7</ele>
        <time>2022-04-28T08:13:11.000Z</time>
      </trkpt>
      <trkpt lat="47.29871" lon="-2.28939">
        <ele>-7</ele>
        <time>2022-04-28T08:13:16.000Z</time>
      </trkpt>
      <trkpt lat="47.2987" lon="-2.28923">
        <ele>-7</ele>
        <time>2022-04-28T08:13:19.000Z</time>
      </trkpt>
      <trkpt lat="47.29871" lon="-2.2891">
        <ele>-7</ele>
        <time>2022-04-28T08:13:21.000Z</time>
      </trkpt>
      <trkpt lat="47.29873" lon="-2.28895">
        <ele>-7</ele>
        <time>2022-04-28T08:13:24.000Z</time>
      </trkpt>
      <trkpt lat="47.29877" lon="-2.28892">
        <ele>-6.5999999046326</ele>
        <time>2022-04-28T08:13:25.000Z</time>
      </trkpt>
      <trkpt lat="47.2988" lon="-2.28887">
        <ele>-6.1999998092651</ele>
        <time>2022-04-28T08:13:26.000Z</time>
      </trkpt>
      <trkpt lat="47.29881" lon="-2.2888">
        <ele>-5.8000001907349</ele>
        <time>2022-04-28T08:13:27.000Z</time>
      </trkpt>
      <trkpt lat="47.29882" lon="-2.28874">
        <ele>-5.4000000953674</ele>
        <time>2022-04-28T08:13:28.000Z</time>
      </trkpt>
      <trkpt lat="47.29883" lon="-2.28867">
        <ele>-4.8000001907349</ele>
        <time>2022-04-28T08:13:29.000Z</time>
      </trkpt>
      <trkpt lat="47.29886" lon="-2.28847">
        <ele>-4.8000001907349</ele>
        <time>2022-04-28T08:13:32.000Z</time>
      </trkpt>
      <trkpt lat="47.29892" lon="-2.28806">
        <ele>-4.8000001907349</ele>
        <time>2022-04-28T08:13:38.000Z</time>
      </trkpt>
      <trkpt lat="47.29895" lon="-2.28792">
        <ele>-4.8000001907349</ele>
        <time>2022-04-28T08:13:40.000Z</time>
      </trkpt>
      <trkpt lat="47.29897" lon="-2.28771">
        <ele>-4.8000001907349</ele>
        <time>2022-04-28T08:13:43.000Z</time>
      </trkpt>
      <trkpt lat="47.29899" lon="-2.28756">
        <ele>-4.8000001907349</ele>
        <time>2022-04-28T08:13:45.000Z</time>
      </trkpt>
      <trkpt lat="47.29905" lon="-2.28734">
        <ele>-4.8000001907349</ele>
        <time>2022-04-28T08:13:48.000Z</time>
      </trkpt>
      <trkpt lat="47.29908" lon="-2.28718">
        <ele>-4.8000001907349</ele>
        <time>2022-04-28T08:13:50.000Z</time>
      </trkpt>
      <trkpt lat="47.29911" lon="-2.28705">
        <ele>-4.8000001907349</ele>
        <time>2022-04-28T08:13:52.000Z</time>
      </trkpt>
      <trkpt lat="47.29918" lon="-2.28669">
        <ele>-4.8000001907349</ele>
        <time>2022-04-28T08:13:58.000Z</time>
      </trkpt>
      <trkpt lat="47.29925" lon="-2.28634">
        <ele>-4.8000001907349</ele>
        <time>2022-04-28T08:14:03.000Z</time>
      </trkpt>
      <trkpt lat="47.29928" lon="-2.28615">
        <ele>-4.4000000953674</ele>
        <time>2022-04-28T08:14:06.000Z</time>
      </trkpt>
      <trkpt lat="47.2993" lon="-2.28609">
        <ele>-4</ele>
        <time>2022-04-28T08:14:07.000Z</time>
      </trkpt>
      <trkpt lat="47.29931" lon="-2.28602">
        <ele>-3.5999999046326</ele>
        <time>2022-04-28T08:14:08.000Z</time>
      </trkpt>
      <trkpt lat="47.29932" lon="-2.28595">
        <ele>-3.2000000476837</ele>
        <time>2022-04-28T08:14:09.000Z</time>
      </trkpt>
      <trkpt lat="47.29933" lon="-2.28588">
        <ele>-2.7999999523163</ele>
        <time>2022-04-28T08:14:10.000Z</time>
      </trkpt>
      <trkpt lat="47.29934" lon="-2.28573">
        <ele>-2.7999999523163</ele>
        <time>2022-04-28T08:14:13.000Z</time>
      </trkpt>
      <trkpt lat="47.29924" lon="-2.28561">
        <ele>-2.7999999523163</ele>
        <time>2022-04-28T08:14:17.000Z</time>
      </trkpt>
      <trkpt lat="47.29922" lon="-2.28538">
        <ele>-2.7999999523163</ele>
        <time>2022-04-28T08:14:21.000Z</time>
      </trkpt>
      <trkpt lat="47.29928" lon="-2.28518">
        <ele>-2.7999999523163</ele>
        <time>2022-04-28T08:14:24.000Z</time>
      </trkpt>
      <trkpt lat="47.29932" lon="-2.28506">
        <ele>-2.7999999523163</ele>
        <time>2022-04-28T08:14:26.000Z</time>
      </trkpt>
      <trkpt lat="47.29934" lon="-2.28498">
        <ele>-2.7999999523163</ele>
        <time>2022-04-28T08:14:27.000Z</time>
      </trkpt>
      <trkpt lat="47.29934" lon="-2.28484">
        <ele>-2.7999999523163</ele>
        <time>2022-04-28T08:14:29.000Z</time>
      </trkpt>
      <trkpt lat="47.29934" lon="-2.28476">
        <ele>-2.7999999523163</ele>
        <time>2022-04-28T08:14:30.000Z</time>
      </trkpt>
      <trkpt lat="47.29936" lon="-2.2845">
        <ele>-2.7999999523163</ele>
        <time>2022-04-28T08:14:34.000Z</time>
      </trkpt>
      <trkpt lat="47.2994" lon="-2.28441">
        <ele>-2.7999999523163</ele>
        <time>2022-04-28T08:14:36.000Z</time>
      </trkpt>
      <trkpt lat="47.29943" lon="-2.28435">
        <ele>-2.7999999523163</ele>
        <time>2022-04-28T08:14:37.000Z</time>
      </trkpt>
      <trkpt lat="47.29947" lon="-2.28414">
        <ele>-2.7999999523163</ele>
        <time>2022-04-28T08:14:40.000Z</time>
      </trkpt>
      <trkpt lat="47.29946" lon="-2.28388">
        <ele>-2.7999999523163</ele>
        <time>2022-04-28T08:14:44.000Z</time>
      </trkpt>
      <trkpt lat="47.29946" lon="-2.28381">
        <ele>-2.7999999523163</ele>
        <time>2022-04-28T08:14:45.000Z</time>
      </trkpt>
      <trkpt lat="47.29946" lon="-2.28367">
        <ele>-2.4000000953674</ele>
        <time>2022-04-28T08:14:47.000Z</time>
      </trkpt>
      <trkpt lat="47.29946" lon="-2.2836">
        <ele>-1.6000000238419</ele>
        <time>2022-04-28T08:14:48.000Z</time>
      </trkpt>
      <trkpt lat="47.29947" lon="-2.28353">
        <ele>-1.2000000476837</ele>
        <time>2022-04-28T08:14:49.000Z</time>
      </trkpt>
      <trkpt lat="47.29948" lon="-2.28345">
        <ele>-0.80000001192093</ele>
        <time>2022-04-28T08:14:50.000Z</time>
      </trkpt>
      <trkpt lat="47.2995" lon="-2.28337">
        <ele>-0.80000001192093</ele>
        <time>2022-04-28T08:14:51.000Z</time>
      </trkpt>
      <trkpt lat="47.29948" lon="-2.28301">
        <ele>-0.80000001192093</ele>
        <time>2022-04-28T08:14:56.000Z</time>
      </trkpt>
      <trkpt lat="47.29947" lon="-2.28286">
        <ele>-0.80000001192093</ele>
        <time>2022-04-28T08:14:58.000Z</time>
      </trkpt>
      <trkpt lat="47.29945" lon="-2.28254">
        <ele>-0.80000001192093</ele>
        <time>2022-04-28T08:15:02.000Z</time>
      </trkpt>
      <trkpt lat="47.29942" lon="-2.28215">
        <ele>-0.80000001192093</ele>
        <time>2022-04-28T08:15:07.000Z</time>
      </trkpt>
      <trkpt lat="47.29942" lon="-2.28208">
        <ele>-0.80000001192093</ele>
        <time>2022-04-28T08:15:08.000Z</time>
      </trkpt>
      <trkpt lat="47.29947" lon="-2.28172">
        <ele>-0.80000001192093</ele>
        <time>2022-04-28T08:15:14.000Z</time>
      </trkpt>
      <trkpt lat="47.29961" lon="-2.28123">
        <ele>-0.80000001192093</ele>
        <time>2022-04-28T08:15:20.000Z</time>
      </trkpt>
      <trkpt lat="47.29979" lon="-2.28066">
        <ele>-0.80000001192093</ele>
        <time>2022-04-28T08:15:27.000Z</time>
      </trkpt>
      <trkpt lat="47.29986" lon="-2.28043">
        <ele>-0.80000001192093</ele>
        <time>2022-04-28T08:15:31.000Z</time>
      </trkpt>
      <trkpt lat="47.29984" lon="-2.28039">
        <ele>-0.80000001192093</ele>
        <time>2022-04-28T08:15:32.000Z</time>
      </trkpt>
      <trkpt lat="47.2998" lon="-2.28039">
        <ele>-0.80000001192093</ele>
        <time>2022-04-28T08:15:35.000Z</time>
      </trkpt>
      <trkpt lat="47.29977" lon="-2.2804">
        <ele>-0.80000001192093</ele>
        <time>2022-04-28T08:15:36.000Z</time>
      </trkpt>
      <trkpt lat="47.29958" lon="-2.28046">
        <ele>-0.80000001192093</ele>
        <time>2022-04-28T08:15:41.000Z</time>
      </trkpt>
      <trkpt lat="47.29954" lon="-2.28046">
        <ele>-0.80000001192093</ele>
        <time>2022-04-28T08:15:42.000Z</time>
      </trkpt>
      <trkpt lat="47.29945" lon="-2.28038">
        <ele>-0.80000001192093</ele>
        <time>2022-04-28T08:15:45.000Z</time>
      </trkpt>
      <trkpt lat="47.29938" lon="-2.28019">
        <ele>-0.80000001192093</ele>
        <time>2022-04-28T08:15:49.000Z</time>
      </trkpt>
      <trkpt lat="47.29937" lon="-2.28014">
        <ele>-0.80000001192093</ele>
        <time>2022-04-28T08:15:50.000Z</time>
      </trkpt>
      <trkpt lat="47.29931" lon="-2.27986">
        <ele>-0.80000001192093</ele>
        <time>2022-04-28T08:15:56.000Z</time>
      </trkpt>
      <trkpt lat="47.2993" lon="-2.27966">
        <ele>-0.80000001192093</ele>
        <time>2022-04-28T08:15:59.000Z</time>
      </trkpt>
      <trkpt lat="47.2993" lon="-2.27951">
        <ele>-0.80000001192093</ele>
        <time>2022-04-28T08:16:01.000Z</time>
      </trkpt>
      <trkpt lat="47.29935" lon="-2.27907">
        <ele>-0.80000001192093</ele>
        <time>2022-04-28T08:16:07.000Z</time>
      </trkpt>
      <trkpt lat="47.29939" lon="-2.27859">
        <ele>-0.80000001192093</ele>
        <time>2022-04-28T08:16:14.000Z</time>
      </trkpt>
      <trkpt lat="47.29945" lon="-2.27802">
        <ele>-0.80000001192093</ele>
        <time>2022-04-28T08:16:22.000Z</time>
      </trkpt>
      <trkpt lat="47.29951" lon="-2.27746">
        <ele>-0.80000001192093</ele>
        <time>2022-04-28T08:16:29.000Z</time>
      </trkpt>
      <trkpt lat="47.29956" lon="-2.27682">
        <ele>-0.80000001192093</ele>
        <time>2022-04-28T08:16:36.000Z</time>
      </trkpt>
      <trkpt lat="47.29963" lon="-2.2763">
        <ele>-0.80000001192093</ele>
        <time>2022-04-28T08:16:42.000Z</time>
      </trkpt>
      <trkpt lat="47.29963" lon="-2.27622">
        <ele>-0.80000001192093</ele>
        <time>2022-04-28T08:16:43.000Z</time>
      </trkpt>
      <trkpt lat="47.29959" lon="-2.27607">
        <ele>-0.80000001192093</ele>
        <time>2022-04-28T08:16:45.000Z</time>
      </trkpt>
      <trkpt lat="47.29952" lon="-2.27598">
        <ele>-1.2000000476837</ele>
        <time>2022-04-28T08:16:47.000Z</time>
      </trkpt>
      <trkpt lat="47.29947" lon="-2.27596">
        <ele>-1.6000000238419</ele>
        <time>2022-04-28T08:16:48.000Z</time>
      </trkpt>
      <trkpt lat="47.29942" lon="-2.27596">
        <ele>-2</ele>
        <time>2022-04-28T08:16:49.000Z</time>
      </trkpt>
      <trkpt lat="47.29937" lon="-2.27596">
        <ele>-2.4000000953674</ele>
        <time>2022-04-28T08:16:50.000Z</time>
      </trkpt>
      <trkpt lat="47.29931" lon="-2.27597">
        <ele>-2.7999999523163</ele>
        <time>2022-04-28T08:16:51.000Z</time>
      </trkpt>
      <trkpt lat="47.29925" lon="-2.27597">
        <ele>-2.7999999523163</ele>
        <time>2022-04-28T08:16:52.000Z</time>
      </trkpt>
      <trkpt lat="47.29907" lon="-2.27602">
        <ele>-2.7999999523163</ele>
        <time>2022-04-28T08:16:55.000Z</time>
      </trkpt>
      <trkpt lat="47.29895" lon="-2.27609">
        <ele>-2.7999999523163</ele>
        <time>2022-04-28T08:16:57.000Z</time>
      </trkpt>
      <trkpt lat="47.29883" lon="-2.27617">
        <ele>-2.7999999523163</ele>
        <time>2022-04-28T08:16:59.000Z</time>
      </trkpt>
      <trkpt lat="47.29866" lon="-2.27625">
        <ele>-2.7999999523163</ele>
        <time>2022-04-28T08:17:02.000Z</time>
      </trkpt>
      <trkpt lat="47.2986" lon="-2.27625">
        <ele>-2.7999999523163</ele>
        <time>2022-04-28T08:17:03.000Z</time>
      </trkpt>
      <trkpt lat="47.29842" lon="-2.27622">
        <ele>-2.7999999523163</ele>
        <time>2022-04-28T08:17:06.000Z</time>
      </trkpt>
      <trkpt lat="47.29837" lon="-2.27619">
        <ele>-2.7999999523163</ele>
        <time>2022-04-28T08:17:07.000Z</time>
      </trkpt>
      <trkpt lat="47.29813" lon="-2.27605">
        <ele>-2.7999999523163</ele>
        <time>2022-04-28T08:17:11.000Z</time>
      </trkpt>
      <trkpt lat="47.29781" lon="-2.27594">
        <ele>-2.7999999523163</ele>
        <time>2022-04-28T08:17:16.000Z</time>
      </trkpt>
      <trkpt lat="47.29769" lon="-2.27595">
        <ele>-2.7999999523163</ele>
        <time>2022-04-28T08:17:18.000Z</time>
      </trkpt>
      <trkpt lat="47.29753" lon="-2.27602">
        <ele>-2.7999999523163</ele>
        <time>2022-04-28T08:17:21.000Z</time>
      </trkpt>
      <trkpt lat="47.29741" lon="-2.27607">
        <ele>-2.7999999523163</ele>
        <time>2022-04-28T08:17:23.000Z</time>
      </trkpt>
      <trkpt lat="47.29717" lon="-2.27615">
        <ele>-2.7999999523163</ele>
        <time>2022-04-28T08:17:27.000Z</time>
      </trkpt>
      <trkpt lat="47.29678" lon="-2.27616">
        <ele>-2.7999999523163</ele>
        <time>2022-04-28T08:17:33.000Z</time>
      </trkpt>
      <trkpt lat="47.29666" lon="-2.27613">
        <ele>-2.4000000953674</ele>
        <time>2022-04-28T08:17:35.000Z</time>
      </trkpt>
      <trkpt lat="47.2966" lon="-2.2761">
        <ele>-2</ele>
        <time>2022-04-28T08:17:36.000Z</time>
      </trkpt>
      <trkpt lat="47.29653" lon="-2.27608">
        <ele>-1.6000000238419</ele>
        <time>2022-04-28T08:17:37.000Z</time>
      </trkpt>
      <trkpt lat="47.29647" lon="-2.27605">
        <ele>-1.2000000476837</ele>
        <time>2022-04-28T08:17:38.000Z</time>
      </trkpt>
      <trkpt lat="47.29642" lon="-2.27602">
        <ele>-0.80000001192093</ele>
        <time>2022-04-28T08:17:39.000Z</time>
      </trkpt>
      <trkpt lat="47.29619" lon="-2.27586">
        <ele>-0.40000000596046</ele>
        <time>2022-04-28T08:17:43.000Z</time>
      </trkpt>
      <trkpt lat="47.29613" lon="-2.27582">
        <ele>0.20000000298023</ele>
        <time>2022-04-28T08:17:44.000Z</time>
      </trkpt>
      <trkpt lat="47.29607" lon="-2.27578">
        <ele>0.60000002384186</ele>
        <time>2022-04-28T08:17:45.000Z</time>
      </trkpt>
      <trkpt lat="47.29602" lon="-2.27574">
        <ele>1</ele>
        <time>2022-04-28T08:17:46.000Z</time>
      </trkpt>
      <trkpt lat="47.29596" lon="-2.27571">
        <ele>1.3999999761581</ele>
        <time>2022-04-28T08:17:47.000Z</time>
      </trkpt>
      <trkpt lat="47.29579" lon="-2.2756">
        <ele>1.3999999761581</ele>
        <time>2022-04-28T08:17:50.000Z</time>
      </trkpt>
      <trkpt lat="47.29536" lon="-2.27544">
        <ele>1.3999999761581</ele>
        <time>2022-04-28T08:17:57.000Z</time>
      </trkpt>
      <trkpt lat="47.29519" lon="-2.27536">
        <ele>1.7999999523163</ele>
        <time>2022-04-28T08:18:00.000Z</time>
      </trkpt>
      <trkpt lat="47.29513" lon="-2.27535">
        <ele>2.2000000476837</ele>
        <time>2022-04-28T08:18:01.000Z</time>
      </trkpt>
      <trkpt lat="47.29507" lon="-2.27534">
        <ele>2.5999999046326</ele>
        <time>2022-04-28T08:18:02.000Z</time>
      </trkpt>
      <trkpt lat="47.29502" lon="-2.27533">
        <ele>3</ele>
        <time>2022-04-28T08:18:03.000Z</time>
      </trkpt>
      <trkpt lat="47.29496" lon="-2.27531">
        <ele>3.4000000953674</ele>
        <time>2022-04-28T08:18:04.000Z</time>
      </trkpt>
      <trkpt lat="47.29461" lon="-2.27521">
        <ele>3.4000000953674</ele>
        <time>2022-04-28T08:18:10.000Z</time>
      </trkpt>
      <trkpt lat="47.29421" lon="-2.27516">
        <ele>3.4000000953674</ele>
        <time>2022-04-28T08:18:17.000Z</time>
      </trkpt>
      <trkpt lat="47.29383" lon="-2.27522">
        <ele>3.4000000953674</ele>
        <time>2022-04-28T08:18:24.000Z</time>
      </trkpt>
      <trkpt lat="47.29352" lon="-2.2753">
        <ele>3.4000000953674</ele>
        <time>2022-04-28T08:18:29.000Z</time>
      </trkpt>
      <trkpt lat="47.29316" lon="-2.27535">
        <ele>3.4000000953674</ele>
        <time>2022-04-28T08:18:35.000Z</time>
      </trkpt>
      <trkpt lat="47.29283" lon="-2.27537">
        <ele>3.4000000953674</ele>
        <time>2022-04-28T08:18:41.000Z</time>
      </trkpt>
      <trkpt lat="47.29279" lon="-2.2754">
        <ele>3.7999999523163</ele>
        <time>2022-04-28T08:18:42.000Z</time>
      </trkpt>
      <trkpt lat="47.29274" lon="-2.27542">
        <ele>4.1999998092651</ele>
        <time>2022-04-28T08:18:43.000Z</time>
      </trkpt>
      <trkpt lat="47.29269" lon="-2.27541">
        <ele>4.5999999046326</ele>
        <time>2022-04-28T08:18:44.000Z</time>
      </trkpt>
      <trkpt lat="47.29264" lon="-2.27539">
        <ele>5</ele>
        <time>2022-04-28T08:18:45.000Z</time>
      </trkpt>
      <trkpt lat="47.29259" lon="-2.27535">
        <ele>5.4000000953674</ele>
        <time>2022-04-28T08:18:46.000Z</time>
      </trkpt>
      <trkpt lat="47.29253" lon="-2.27532">
        <ele>5.4000000953674</ele>
        <time>2022-04-28T08:18:47.000Z</time>
      </trkpt>
      <trkpt lat="47.29248" lon="-2.27531">
        <ele>5.4000000953674</ele>
        <time>2022-04-28T08:18:48.000Z</time>
      </trkpt>
      <trkpt lat="47.29242" lon="-2.2753">
        <ele>5.4000000953674</ele>
        <time>2022-04-28T08:18:49.000Z</time>
      </trkpt>
      <trkpt lat="47.29207" lon="-2.27531">
        <ele>5.4000000953674</ele>
        <time>2022-04-28T08:18:55.000Z</time>
      </trkpt>
      <trkpt lat="47.29175" lon="-2.27531">
        <ele>5.4000000953674</ele>
        <time>2022-04-28T08:19:01.000Z</time>
      </trkpt>
      <trkpt lat="47.2915" lon="-2.27532">
        <ele>5</ele>
        <time>2022-04-28T08:19:06.000Z</time>
      </trkpt>
      <trkpt lat="47.29146" lon="-2.27531">
        <ele>4.5999999046326</ele>
        <time>2022-04-28T08:19:07.000Z</time>
      </trkpt>
      <trkpt lat="47.29142" lon="-2.2753">
        <ele>4.1999998092651</ele>
        <time>2022-04-28T08:19:08.000Z</time>
      </trkpt>
      <trkpt lat="47.29137" lon="-2.27529">
        <ele>3.7999999523163</ele>
        <time>2022-04-28T08:19:09.000Z</time>
      </trkpt>
      <trkpt lat="47.29132" lon="-2.27529">
        <ele>3.4000000953674</ele>
        <time>2022-04-28T08:19:10.000Z</time>
      </trkpt>
      <trkpt lat="47.29122" lon="-2.27529">
        <ele>3.4000000953674</ele>
        <time>2022-04-28T08:19:12.000Z</time>
      </trkpt>
      <trkpt lat="47.29112" lon="-2.2753">
        <ele>3.4000000953674</ele>
        <time>2022-04-28T08:19:14.000Z</time>
      </trkpt>
      <trkpt lat="47.29103" lon="-2.27526">
        <ele>3.4000000953674</ele>
        <time>2022-04-28T08:19:17.000Z</time>
      </trkpt>
      <trkpt lat="47.29101" lon="-2.27522">
        <ele>3.4000000953674</ele>
        <time>2022-04-28T08:19:18.000Z</time>
      </trkpt>
      <trkpt lat="47.291" lon="-2.27504">
        <ele>3.4000000953674</ele>
        <time>2022-04-28T08:19:22.000Z</time>
      </trkpt>
      <trkpt lat="47.291" lon="-2.27499">
        <ele>3.4000000953674</ele>
        <time>2022-04-28T08:19:23.000Z</time>
      </trkpt>
      <trkpt lat="47.29101" lon="-2.27473">
        <ele>3.4000000953674</ele>
        <time>2022-04-28T08:19:27.000Z</time>
      </trkpt>
      <trkpt lat="47.29102" lon="-2.27466">
        <ele>3.4000000953674</ele>
        <time>2022-04-28T08:19:28.000Z</time>
      </trkpt>
      <trkpt lat="47.29106" lon="-2.27421">
        <ele>3.4000000953674</ele>
        <time>2022-04-28T08:19:34.000Z</time>
      </trkpt>
      <trkpt lat="47.29105" lon="-2.27398">
        <ele>3.4000000953674</ele>
        <time>2022-04-28T08:19:37.000Z</time>
      </trkpt>
      <trkpt lat="47.29102" lon="-2.27376">
        <ele>3.4000000953674</ele>
        <time>2022-04-28T08:19:40.000Z</time>
      </trkpt>
      <trkpt lat="47.29101" lon="-2.27345">
        <ele>3.4000000953674</ele>
        <time>2022-04-28T08:19:45.000Z</time>
      </trkpt>
      <trkpt lat="47.29102" lon="-2.2734">
        <ele>3</ele>
        <time>2022-04-28T08:19:46.000Z</time>
      </trkpt>
      <trkpt lat="47.29102" lon="-2.27335">
        <ele>2.5999999046326</ele>
        <time>2022-04-28T08:19:47.000Z</time>
      </trkpt>
      <trkpt lat="47.29103" lon="-2.27331">
        <ele>2.2000000476837</ele>
        <time>2022-04-28T08:19:48.000Z</time>
      </trkpt>
      <trkpt lat="47.29104" lon="-2.27326">
        <ele>1.7999999523163</ele>
        <time>2022-04-28T08:19:49.000Z</time>
      </trkpt>
      <trkpt lat="47.29104" lon="-2.27321">
        <ele>1.3999999761581</ele>
        <time>2022-04-28T08:19:50.000Z</time>
      </trkpt>
      <trkpt lat="47.29106" lon="-2.27317">
        <ele>1.3999999761581</ele>
        <time>2022-04-28T08:19:51.000Z</time>
      </trkpt>
      <trkpt lat="47.29109" lon="-2.27299">
        <ele>1.3999999761581</ele>
        <time>2022-04-28T08:19:55.000Z</time>
      </trkpt>
      <trkpt lat="47.29116" lon="-2.27277">
        <ele>1.3999999761581</ele>
        <time>2022-04-28T08:20:00.000Z</time>
      </trkpt>
      <trkpt lat="47.29119" lon="-2.27261">
        <ele>1.3999999761581</ele>
        <time>2022-04-28T08:20:04.000Z</time>
      </trkpt>
      <trkpt lat="47.29122" lon="-2.27241">
        <ele>1.3999999761581</ele>
        <time>2022-04-28T08:20:09.000Z</time>
      </trkpt>
      <trkpt lat="47.29123" lon="-2.27237">
        <ele>1.3999999761581</ele>
        <time>2022-04-28T08:20:10.000Z</time>
      </trkpt>
      <trkpt lat="47.29126" lon="-2.2722">
        <ele>1.3999999761581</ele>
        <time>2022-04-28T08:20:14.000Z</time>
      </trkpt>
      <trkpt lat="47.29134" lon="-2.27203">
        <ele>1.3999999761581</ele>
        <time>2022-04-28T08:20:18.000Z</time>
      </trkpt>
      <trkpt lat="47.29143" lon="-2.27198">
        <ele>1.3999999761581</ele>
        <time>2022-04-28T08:20:21.000Z</time>
      </trkpt>
      <trkpt lat="47.29146" lon="-2.27196">
        <ele>1.3999999761581</ele>
        <time>2022-04-28T08:20:22.000Z</time>
      </trkpt>
      <trkpt lat="47.29155" lon="-2.27193">
        <ele>1.3999999761581</ele>
        <time>2022-04-28T08:20:27.000Z</time>
      </trkpt>
      <trkpt lat="47.29157" lon="-2.27192">
        <ele>1.3999999761581</ele>
        <time>2022-04-28T08:20:28.000Z</time>
      </trkpt>
      <trkpt lat="47.29164" lon="-2.27191">
        <ele>1.3999999761581</ele>
        <time>2022-04-28T08:20:31.000Z</time>
      </trkpt>
      <trkpt lat="47.29174" lon="-2.27188">
        <ele>1.3999999761581</ele>
        <time>2022-04-28T08:20:35.000Z</time>
      </trkpt>
      <trkpt lat="47.29177" lon="-2.27188">
        <ele>1.3999999761581</ele>
        <time>2022-04-28T08:20:36.000Z</time>
      </trkpt>
      <trkpt lat="47.29194" lon="-2.27184">
        <ele>1.3999999761581</ele>
        <time>2022-04-28T08:20:42.000Z</time>
      </trkpt>
      <trkpt lat="47.29213" lon="-2.27172">
        <ele>1.3999999761581</ele>
        <time>2022-04-28T08:20:48.000Z</time>
      </trkpt>
      <trkpt lat="47.2922" lon="-2.27163">
        <ele>1.3999999761581</ele>
        <time>2022-04-28T08:20:50.000Z</time>
      </trkpt>
      <trkpt lat="47.29226" lon="-2.27143">
        <ele>1.3999999761581</ele>
        <time>2022-04-28T08:20:53.000Z</time>
      </trkpt>
      <trkpt lat="47.29231" lon="-2.27123">
        <ele>1.3999999761581</ele>
        <time>2022-04-28T08:20:56.000Z</time>
      </trkpt>
      <trkpt lat="47.29232" lon="-2.27114">
        <ele>1.3999999761581</ele>
        <time>2022-04-28T08:20:57.000Z</time>
      </trkpt>
      <trkpt lat="47.29233" lon="-2.27106">
        <ele>1.3999999761581</ele>
        <time>2022-04-28T08:20:58.000Z</time>
      </trkpt>
      <trkpt lat="47.29233" lon="-2.27099">
        <ele>1.3999999761581</ele>
        <time>2022-04-28T08:20:59.000Z</time>
      </trkpt>
      <trkpt lat="47.29231" lon="-2.27082">
        <ele>1.3999999761581</ele>
        <time>2022-04-28T08:21:02.000Z</time>
      </trkpt>
      <trkpt lat="47.29231" lon="-2.27061">
        <ele>1.3999999761581</ele>
        <time>2022-04-28T08:21:06.000Z</time>
      </trkpt>
      <trkpt lat="47.29231" lon="-2.27056">
        <ele>1.3999999761581</ele>
        <time>2022-04-28T08:21:07.000Z</time>
      </trkpt>
      <trkpt lat="47.29226" lon="-2.27028">
        <ele>1.3999999761581</ele>
        <time>2022-04-28T08:21:13.000Z</time>
      </trkpt>
      <trkpt lat="47.29225" lon="-2.26993">
        <ele>1.3999999761581</ele>
        <time>2022-04-28T08:21:19.000Z</time>
      </trkpt>
      <trkpt lat="47.29224" lon="-2.26949">
        <ele>1.3999999761581</ele>
        <time>2022-04-28T08:21:26.000Z</time>
      </trkpt>
      <trkpt lat="47.29226" lon="-2.26942">
        <ele>1.3999999761581</ele>
        <time>2022-04-28T08:21:28.000Z</time>
      </trkpt>
      <trkpt lat="47.2923" lon="-2.26937">
        <ele>1.3999999761581</ele>
        <time>2022-04-28T08:21:30.000Z</time>
      </trkpt>
      <trkpt lat="47.29236" lon="-2.26928">
        <ele>1.3999999761581</ele>
        <time>2022-04-28T08:21:35.000Z</time>
      </trkpt>
      <trkpt lat="47.29235" lon="-2.26907">
        <ele>1.3999999761581</ele>
        <time>2022-04-28T08:21:39.000Z</time>
      </trkpt>
      <trkpt lat="47.29227" lon="-2.26866">
        <ele>1.3999999761581</ele>
        <time>2022-04-28T08:21:45.000Z</time>
      </trkpt>
      <trkpt lat="47.29218" lon="-2.26812">
        <ele>1.3999999761581</ele>
        <time>2022-04-28T08:21:52.000Z</time>
      </trkpt>
      <trkpt lat="47.29212" lon="-2.26768">
        <ele>1.3999999761581</ele>
        <time>2022-04-28T08:21:58.000Z</time>
      </trkpt>
      <trkpt lat="47.29211" lon="-2.26761">
        <ele>1.3999999761581</ele>
        <time>2022-04-28T08:21:59.000Z</time>
      </trkpt>
      <trkpt lat="47.29205" lon="-2.26738">
        <ele>1.3999999761581</ele>
        <time>2022-04-28T08:22:04.000Z</time>
      </trkpt>
      <trkpt lat="47.29205" lon="-2.26729">
        <ele>1.3999999761581</ele>
        <time>2022-04-28T08:22:07.000Z</time>
      </trkpt>
      <trkpt lat="47.2921" lon="-2.26725">
        <ele>1.3999999761581</ele>
        <time>2022-04-28T08:22:09.000Z</time>
      </trkpt>
      <trkpt lat="47.29223" lon="-2.26711">
        <ele>1.3999999761581</ele>
        <time>2022-04-28T08:22:14.000Z</time>
      </trkpt>
      <trkpt lat="47.29238" lon="-2.26691">
        <ele>1.3999999761581</ele>
        <time>2022-04-28T08:22:19.000Z</time>
      </trkpt>
      <trkpt lat="47.29246" lon="-2.26687">
        <ele>1.7999999523163</ele>
        <time>2022-04-28T08:22:21.000Z</time>
      </trkpt>
      <trkpt lat="47.2925" lon="-2.26686">
        <ele>2.2000000476837</ele>
        <time>2022-04-28T08:22:22.000Z</time>
      </trkpt>
      <trkpt lat="47.29255" lon="-2.26685">
        <ele>2.5999999046326</ele>
        <time>2022-04-28T08:22:23.000Z</time>
      </trkpt>
      <trkpt lat="47.2926" lon="-2.26684">
        <ele>3</ele>
        <time>2022-04-28T08:22:24.000Z</time>
      </trkpt>
      <trkpt lat="47.29265" lon="-2.26684">
        <ele>3.4000000953674</ele>
        <time>2022-04-28T08:22:25.000Z</time>
      </trkpt>
      <trkpt lat="47.29291" lon="-2.26679">
        <ele>3.4000000953674</ele>
        <time>2022-04-28T08:22:30.000Z</time>
      </trkpt>
      <trkpt lat="47.29301" lon="-2.26675">
        <ele>3.4000000953674</ele>
        <time>2022-04-28T08:22:32.000Z</time>
      </trkpt>
      <trkpt lat="47.2931" lon="-2.26669">
        <ele>3.4000000953674</ele>
        <time>2022-04-28T08:22:34.000Z</time>
      </trkpt>
      <trkpt lat="47.29315" lon="-2.26665">
        <ele>3.4000000953674</ele>
        <time>2022-04-28T08:22:35.000Z</time>
      </trkpt>
      <trkpt lat="47.29329" lon="-2.26659">
        <ele>3.4000000953674</ele>
        <time>2022-04-28T08:22:38.000Z</time>
      </trkpt>
      <trkpt lat="47.2934" lon="-2.26655">
        <ele>3.4000000953674</ele>
        <time>2022-04-28T08:22:40.000Z</time>
      </trkpt>
      <trkpt lat="47.2935" lon="-2.26653">
        <ele>3.4000000953674</ele>
        <time>2022-04-28T08:22:42.000Z</time>
      </trkpt>
      <trkpt lat="47.29368" lon="-2.26647">
        <ele>3.4000000953674</ele>
        <time>2022-04-28T08:22:45.000Z</time>
      </trkpt>
      <trkpt lat="47.29399" lon="-2.26629">
        <ele>3.4000000953674</ele>
        <time>2022-04-28T08:22:51.000Z</time>
      </trkpt>
      <trkpt lat="47.29433" lon="-2.26615">
        <ele>3.4000000953674</ele>
        <time>2022-04-28T08:22:58.000Z</time>
      </trkpt>
      <trkpt lat="47.29468" lon="-2.26601">
        <ele>3.4000000953674</ele>
        <time>2022-04-28T08:23:05.000Z</time>
      </trkpt>
      <trkpt lat="47.29478" lon="-2.26596">
        <ele>3.4000000953674</ele>
        <time>2022-04-28T08:23:07.000Z</time>
      </trkpt>
      <trkpt lat="47.2949" lon="-2.26589">
        <ele>3.4000000953674</ele>
        <time>2022-04-28T08:23:10.000Z</time>
      </trkpt>
      <trkpt lat="47.29497" lon="-2.26583">
        <ele>3.4000000953674</ele>
        <time>2022-04-28T08:23:12.000Z</time>
      </trkpt>
      <trkpt lat="47.29514" lon="-2.26567">
        <ele>3.4000000953674</ele>
        <time>2022-04-28T08:23:16.000Z</time>
      </trkpt>
      <trkpt lat="47.29546" lon="-2.26536">
        <ele>3.4000000953674</ele>
        <time>2022-04-28T08:23:23.000Z</time>
      </trkpt>
      <trkpt lat="47.29572" lon="-2.26516">
        <ele>2.7999999523163</ele>
        <time>2022-04-28T08:23:28.000Z</time>
      </trkpt>
      <trkpt lat="47.29577" lon="-2.26512">
        <ele>2.4000000953674</ele>
        <time>2022-04-28T08:23:29.000Z</time>
      </trkpt>
      <trkpt lat="47.29582" lon="-2.26508">
        <ele>2</ele>
        <time>2022-04-28T08:23:30.000Z</time>
      </trkpt>
      <trkpt lat="47.29586" lon="-2.26504">
        <ele>1.6000000238419</ele>
        <time>2022-04-28T08:23:31.000Z</time>
      </trkpt>
      <trkpt lat="47.29591" lon="-2.265">
        <ele>1.2000000476837</ele>
        <time>2022-04-28T08:23:32.000Z</time>
      </trkpt>
      <trkpt lat="47.29595" lon="-2.26495">
        <ele>1.2000000476837</ele>
        <time>2022-04-28T08:23:33.000Z</time>
      </trkpt>
      <trkpt lat="47.29597" lon="-2.26489">
        <ele>0.80000001192093</ele>
        <time>2022-04-28T08:23:34.000Z</time>
      </trkpt>
      <trkpt lat="47.29598" lon="-2.26482">
        <ele>0.40000000596046</ele>
        <time>2022-04-28T08:23:35.000Z</time>
      </trkpt>
      <trkpt lat="47.29597" lon="-2.26475">
        <ele>12.1</ele>
        <time>2022-04-28T08:23:36.000Z</time>
      </trkpt>
      <trkpt lat="47.29598" lon="-2.26467">
        <ele>-0.40000000596046</ele>
        <time>2022-04-28T08:23:37.000Z</time>
      </trkpt>
      <trkpt lat="47.29599" lon="-2.26458">
        <ele>-0.80000001192093</ele>
        <time>2022-04-28T08:23:38.000Z</time>
      </trkpt>
      <trkpt lat="47.29599" lon="-2.26449">
        <ele>-0.80000001192093</ele>
        <time>2022-04-28T08:23:39.000Z</time>
      </trkpt>
      <trkpt lat="47.29602" lon="-2.26424">
        <ele>-1.3999999761581</ele>
        <time>2022-04-28T08:23:42.000Z</time>
      </trkpt>
      <trkpt lat="47.29606" lon="-2.26417">
        <ele>-2</ele>
        <time>2022-04-28T08:23:43.000Z</time>
      </trkpt>
      <trkpt lat="47.29609" lon="-2.26411">
        <ele>-2.5999999046326</ele>
        <time>2022-04-28T08:23:44.000Z</time>
      </trkpt>
      <trkpt lat="47.29612" lon="-2.26402">
        <ele>-3</ele>
        <time>2022-04-28T08:23:45.000Z</time>
      </trkpt>
      <trkpt lat="47.29613" lon="-2.26393">
        <ele>-3.5999999046326</ele>
        <time>2022-04-28T08:23:46.000Z</time>
      </trkpt>
      <trkpt lat="47.29613" lon="-2.26384">
        <ele>-4.1999998092651</ele>
        <time>2022-04-28T08:23:47.000Z</time>
      </trkpt>
      <trkpt lat="47.29613" lon="-2.26378">
        <ele>-4.8000001907349</ele>
        <time>2022-04-28T08:23:48.000Z</time>
      </trkpt>
      <trkpt lat="47.29611" lon="-2.26374">
        <ele>-5.4000000953674</ele>
        <time>2022-04-28T08:23:49.000Z</time>
      </trkpt>
      <trkpt lat="47.29609" lon="-2.2637">
        <ele>-6</ele>
        <time>2022-04-28T08:23:50.000Z</time>
      </trkpt>
      <trkpt lat="47.29607" lon="-2.26369">
        <ele>-6.4000000953674</ele>
        <time>2022-04-28T08:23:51.000Z</time>
      </trkpt>
      <trkpt lat="47.29605" lon="-2.26367">
        <ele>-7.1999998092651</ele>
        <time>2022-04-28T08:23:52.000Z</time>
      </trkpt>
      <trkpt lat="47.29605" lon="-2.26365">
        <ele>-7.5999999046326</ele>
        <time>2022-04-28T08:23:53.000Z</time>
      </trkpt>
      <trkpt lat="47.29605" lon="-2.26361">
        <ele>-8</ele>
        <time>2022-04-28T08:23:54.000Z</time>
      </trkpt>
      <trkpt lat="47.29608" lon="-2.26353">
        <ele>-8</ele>
        <time>2022-04-28T08:23:56.000Z</time>
      </trkpt>
      <trkpt lat="47.29609" lon="-2.26349">
        <ele>-8</ele>
        <time>2022-04-28T08:23:57.000Z</time>
      </trkpt>
      <trkpt lat="47.29613" lon="-2.26337">
        <ele>-8</ele>
        <time>2022-04-28T08:24:02.000Z</time>
      </trkpt>
      <trkpt lat="47.29612" lon="-2.26333">
        <ele>-8</ele>
        <time>2022-04-28T08:24:05.000Z</time>
      </trkpt>
      <trkpt lat="47.29609" lon="-2.26328">
        <ele>-8</ele>
        <time>2022-04-28T08:24:08.000Z</time>
      </trkpt>
      <trkpt lat="47.29603" lon="-2.2632">
        <ele>-8</ele>
        <time>2022-04-28T08:24:14.000Z</time>
      </trkpt>
      <trkpt lat="47.29603" lon="-2.2632">
        <ele>-8</ele>
        <time>2022-04-28T08:24:15.000Z</time>
      </trkpt>
      <trkpt lat="47.29599" lon="-2.263">
        <ele>-8</ele>
        <time>2022-04-28T08:24:37.000Z</time>
      </trkpt>
      <trkpt lat="47.296" lon="-2.26294">
        <ele>-8</ele>
        <time>2022-04-28T08:24:39.000Z</time>
      </trkpt>
      <trkpt lat="47.29606" lon="-2.26287">
        <ele>-8</ele>
        <time>2022-04-28T08:24:42.000Z</time>
      </trkpt>
      <trkpt lat="47.2961" lon="-2.26282">
        <ele>-8</ele>
        <time>2022-04-28T08:24:44.000Z</time>
      </trkpt>
      <trkpt lat="47.29617" lon="-2.26269">
        <ele>-8</ele>
        <time>2022-04-28T08:24:50.000Z</time>
      </trkpt>
      <trkpt lat="47.29619" lon="-2.26258">
        <ele>-8</ele>
        <time>2022-04-28T08:24:56.000Z</time>
      </trkpt>
      <trkpt lat="47.29617" lon="-2.26258">
        <ele>-8</ele>
        <time>2022-04-28T08:24:57.000Z</time>
      </trkpt>
      <trkpt lat="47.29611" lon="-2.26256">
        <ele>-8</ele>
        <time>2022-04-28T08:25:00.000Z</time>
      </trkpt>
      <trkpt lat="47.29592" lon="-2.26252">
        <ele>-8</ele>
        <time>2022-04-28T08:25:08.000Z</time>
      </trkpt>
      <trkpt lat="47.29587" lon="-2.26251">
        <ele>-7.5999999046326</ele>
        <time>2022-04-28T08:25:10.000Z</time>
      </trkpt>
      <trkpt lat="47.29585" lon="-2.2625">
        <ele>-7.1999998092651</ele>
        <time>2022-04-28T08:25:11.000Z</time>
      </trkpt>
      <trkpt lat="47.29582" lon="-2.2625">
        <ele>-6.8000001907349</ele>
        <time>2022-04-28T08:25:12.000Z</time>
      </trkpt>
      <trkpt lat="47.2958" lon="-2.26249">
        <ele>-6.4000000953674</ele>
        <time>2022-04-28T08:25:13.000Z</time>
      </trkpt>
      <trkpt lat="47.29578" lon="-2.26249">
        <ele>-6</ele>
        <time>2022-04-28T08:25:14.000Z</time>
      </trkpt>
      <trkpt lat="47.29564" lon="-2.26247">
        <ele>-6</ele>
        <time>2022-04-28T08:25:20.000Z</time>
      </trkpt>
      <trkpt lat="47.29556" lon="-2.26247">
        <ele>-5.5999999046326</ele>
        <time>2022-04-28T08:25:24.000Z</time>
      </trkpt>
      <trkpt lat="47.29554" lon="-2.26246">
        <ele>-5.1999998092651</ele>
        <time>2022-04-28T08:25:25.000Z</time>
      </trkpt>
      <trkpt lat="47.29552" lon="-2.26246">
        <ele>-4.8000001907349</ele>
        <time>2022-04-28T08:25:26.000Z</time>
      </trkpt>
      <trkpt lat="47.2955" lon="-2.26246">
        <ele>-4.4000000953674</ele>
        <time>2022-04-28T08:25:27.000Z</time>
      </trkpt>
      <trkpt lat="47.29547" lon="-2.26246">
        <ele>-4</ele>
        <time>2022-04-28T08:25:28.000Z</time>
      </trkpt>
      <trkpt lat="47.29538" lon="-2.26245">
        <ele>-4</ele>
        <time>2022-04-28T08:25:33.000Z</time>
      </trkpt>
      <trkpt lat="47.29537" lon="-2.26243">
        <ele>-4</ele>
        <time>2022-04-28T08:25:34.000Z</time>
      </trkpt>
      <trkpt lat="47.29537" lon="-2.26238">
        <ele>-3.5999999046326</ele>
        <time>2022-04-28T08:25:37.000Z</time>
      </trkpt>
      <trkpt lat="47.29538" lon="-2.26236">
        <ele>-3.2000000476837</ele>
        <time>2022-04-28T08:25:38.000Z</time>
      </trkpt>
      <trkpt lat="47.29539" lon="-2.26235">
        <ele>-2.7999999523163</ele>
        <time>2022-04-28T08:25:39.000Z</time>
      </trkpt>
      <trkpt lat="47.2954" lon="-2.26232">
        <ele>-2.4000000953674</ele>
        <time>2022-04-28T08:25:40.000Z</time>
      </trkpt>
      <trkpt lat="47.29542" lon="-2.26231">
        <ele>-2</ele>
        <time>2022-04-28T08:25:41.000Z</time>
      </trkpt>
      <trkpt lat="47.29543" lon="-2.26228">
        <ele>-2</ele>
        <time>2022-04-28T08:25:42.000Z</time>
      </trkpt>
      <trkpt lat="47.29544" lon="-2.26227">
        <ele>-2</ele>
        <time>2022-04-28T08:25:43.000Z</time>
      </trkpt>
      <trkpt lat="47.29546" lon="-2.26217">
        <ele>-2</ele>
        <time>2022-04-28T08:25:46.000Z</time>
      </trkpt>
      <trkpt lat="47.29546" lon="-2.26214">
        <ele>-2</ele>
        <time>2022-04-28T08:25:47.000Z</time>
      </trkpt>
      <trkpt lat="47.29544" lon="-2.26208">
        <ele>-2</ele>
        <time>2022-04-28T08:25:50.000Z</time>
      </trkpt>
      <trkpt lat="47.29541" lon="-2.26206">
        <ele>-2</ele>
        <time>2022-04-28T08:25:52.000Z</time>
      </trkpt>
      <trkpt lat="47.29539" lon="-2.26207">
        <ele>-2</ele>
        <time>2022-04-28T08:25:53.000Z</time>
      </trkpt>
      <trkpt lat="47.29535" lon="-2.26209">
        <ele>-2</ele>
        <time>2022-04-28T08:25:56.000Z</time>
      </trkpt>
      <trkpt lat="47.2953" lon="-2.26208">
        <ele>-2</ele>
        <time>2022-04-28T08:26:00.000Z</time>
      </trkpt>
      <trkpt lat="47.29528" lon="-2.26209">
        <ele>-2</ele>
        <time>2022-04-28T08:26:04.000Z</time>
      </trkpt>
      <trkpt lat="47.29528" lon="-2.26209">
        <ele>-2</ele>
        <time>2022-04-28T08:26:05.000Z</time>
      </trkpt>
      <trkpt lat="47.29517" lon="-2.262">
        <ele>14.9</ele>
        <time>2022-04-28T08:27:34.000Z</time>
      </trkpt>
      <trkpt lat="47.29513" lon="-2.26199">
        <ele>15.1</ele>
        <time>2022-04-28T08:27:36.000Z</time>
      </trkpt>
      <trkpt lat="47.29508" lon="-2.26197">
        <ele>15.5</ele>
        <time>2022-04-28T08:27:40.000Z</time>
      </trkpt>
      <trkpt lat="47.29505" lon="-2.26194">
        <ele>15.6</ele>
        <time>2022-04-28T08:27:42.000Z</time>
      </trkpt>
      <trkpt lat="47.29496" lon="-2.26191">
        <ele>16</ele>
        <time>2022-04-28T08:27:48.000Z</time>
      </trkpt>
      <trkpt lat="47.29486" lon="-2.26187">
        <ele>16.3</ele>
        <time>2022-04-28T08:27:55.000Z</time>
      </trkpt>
      <trkpt lat="47.29479" lon="-2.26185">
        <ele>0.40000000596046</ele>
        <time>2022-04-28T08:28:00.000Z</time>
      </trkpt>
      <trkpt lat="47.29478" lon="-2.26185">
        <ele>0.80000001192093</ele>
        <time>2022-04-28T08:28:01.000Z</time>
      </trkpt>
      <trkpt lat="47.29476" lon="-2.26185">
        <ele>1.2000000476837</ele>
        <time>2022-04-28T08:28:02.000Z</time>
      </trkpt>
      <trkpt lat="47.29475" lon="-2.26185">
        <ele>1.6000000238419</ele>
        <time>2022-04-28T08:28:03.000Z</time>
      </trkpt>
      <trkpt lat="47.29473" lon="-2.26184">
        <ele>2</ele>
        <time>2022-04-28T08:28:04.000Z</time>
      </trkpt>
      <trkpt lat="47.29462" lon="-2.26184">
        <ele>2</ele>
        <time>2022-04-28T08:28:10.000Z</time>
      </trkpt>
      <trkpt lat="47.29449" lon="-2.26184">
        <ele>2</ele>
        <time>2022-04-28T08:28:17.000Z</time>
      </trkpt>
      <trkpt lat="47.29435" lon="-2.26181">
        <ele>2</ele>
        <time>2022-04-28T08:28:25.000Z</time>
      </trkpt>
      <trkpt lat="47.29433" lon="-2.26181">
        <ele>2.4000000953674</ele>
        <time>2022-04-28T08:28:26.000Z</time>
      </trkpt>
      <trkpt lat="47.29431" lon="-2.26181">
        <ele>2.7999999523163</ele>
        <time>2022-04-28T08:28:27.000Z</time>
      </trkpt>
      <trkpt lat="47.29429" lon="-2.2618">
        <ele>3.2000000476837</ele>
        <time>2022-04-28T08:28:28.000Z</time>
      </trkpt>
      <trkpt lat="47.29427" lon="-2.2618">
        <ele>3.7999999523163</ele>
        <time>2022-04-28T08:28:29.000Z</time>
      </trkpt>
      <trkpt lat="47.29426" lon="-2.26179">
        <ele>4.1999998092651</ele>
        <time>2022-04-28T08:28:30.000Z</time>
      </trkpt>
      <trkpt lat="47.29422" lon="-2.26177">
        <ele>4.1999998092651</ele>
        <time>2022-04-28T08:28:32.000Z</time>
      </trkpt>
      <trkpt lat="47.29413" lon="-2.26171">
        <ele>4.1999998092651</ele>
        <time>2022-04-28T08:28:38.000Z</time>
      </trkpt>
      <trkpt lat="47.29411" lon="-2.26171">
        <ele>4.1999998092651</ele>
        <time>2022-04-28T08:28:39.000Z</time>
      </trkpt>
      <trkpt lat="47.29402" lon="-2.26168">
        <ele>4.1999998092651</ele>
        <time>2022-04-28T08:28:46.000Z</time>
      </trkpt>
      <trkpt lat="47.29389" lon="-2.26163">
        <ele>4.1999998092651</ele>
        <time>2022-04-28T08:28:53.000Z</time>
      </trkpt>
      <trkpt lat="47.29385" lon="-2.26163">
        <ele>4.5999999046326</ele>
        <time>2022-04-28T08:28:54.000Z</time>
      </trkpt>
      <trkpt lat="47.29384" lon="-2.26163">
        <ele>5</ele>
        <time>2022-04-28T08:28:55.000Z</time>
      </trkpt>
      <trkpt lat="47.29382" lon="-2.26162">
        <ele>5.4000000953674</ele>
        <time>2022-04-28T08:28:56.000Z</time>
      </trkpt>
      <trkpt lat="47.29374" lon="-2.2616">
        <ele>6.1999998092651</ele>
        <time>2022-04-28T08:30:38.000Z</time>
      </trkpt>
      <trkpt lat="47.29371" lon="-2.26161">
        <ele>6.1999998092651</ele>
        <time>2022-04-28T08:30:39.000Z</time>
      </trkpt>
      <trkpt lat="47.29361" lon="-2.26166">
        <ele>6.1999998092651</ele>
        <time>2022-04-28T08:30:44.000Z</time>
      </trkpt>
      <trkpt lat="47.29344" lon="-2.26166">
        <ele>6.1999998092651</ele>
        <time>2022-04-28T08:30:50.000Z</time>
      </trkpt>
      <trkpt lat="47.2934" lon="-2.26168">
        <ele>6.5999999046326</ele>
        <time>2022-04-28T08:30:52.000Z</time>
      </trkpt>
      <trkpt lat="47.29338" lon="-2.2617">
        <ele>7</ele>
        <time>2022-04-28T08:30:53.000Z</time>
      </trkpt>
      <trkpt lat="47.29336" lon="-2.2617">
        <ele>7.4000000953674</ele>
        <time>2022-04-28T08:30:54.000Z</time>
      </trkpt>
      <trkpt lat="47.29334" lon="-2.2617">
        <ele>8</ele>
        <time>2022-04-28T08:30:55.000Z</time>
      </trkpt>
      <trkpt lat="47.29331" lon="-2.2617">
        <ele>8.3999996185303</ele>
        <time>2022-04-28T08:30:56.000Z</time>
      </trkpt>
      <trkpt lat="47.29323" lon="-2.26171">
        <ele>8.3999996185303</ele>
        <time>2022-04-28T08:31:00.000Z</time>
      </trkpt>
      <trkpt lat="47.29325" lon="-2.26168">
        <ele>8.3999996185303</ele>
        <time>2022-04-28T08:31:14.000Z</time>
      </trkpt>
      <trkpt lat="47.29324" lon="-2.2617">
        <ele>8.3999996185303</ele>
        <time>2022-04-28T08:31:17.000Z</time>
      </trkpt>
      <trkpt lat="47.2932" lon="-2.2617">
        <ele>8.3999996185303</ele>
        <time>2022-04-28T08:31:20.000Z</time>
      </trkpt>
      <trkpt lat="47.29315" lon="-2.26173">
        <ele>8.3999996185303</ele>
        <time>2022-04-28T08:31:23.000Z</time>
      </trkpt>
      <trkpt lat="47.29309" lon="-2.26183">
        <ele>8.3999996185303</ele>
        <time>2022-04-28T08:31:27.000Z</time>
      </trkpt>
      <trkpt lat="47.29306" lon="-2.26183">
        <ele>8.8000001907349</ele>
        <time>2022-04-28T08:31:28.000Z</time>
      </trkpt>
      <trkpt lat="47.29303" lon="-2.26183">
        <ele>9.1999998092651</ele>
        <time>2022-04-28T08:31:29.000Z</time>
      </trkpt>
      <trkpt lat="47.293" lon="-2.26181">
        <ele>9.6000003814697</ele>
        <time>2022-04-28T08:31:30.000Z</time>
      </trkpt>
      <trkpt lat="47.29297" lon="-2.26181">
        <ele>10</ele>
        <time>2022-04-28T08:31:31.000Z</time>
      </trkpt>
      <trkpt lat="47.29293" lon="-2.26181">
        <ele>10.39999961853</ele>
        <time>2022-04-28T08:31:32.000Z</time>
      </trkpt>
      <trkpt lat="47.2928" lon="-2.26182">
        <ele>10.39999961853</ele>
        <time>2022-04-28T08:31:36.000Z</time>
      </trkpt>
      <trkpt lat="47.29264" lon="-2.2618">
        <ele>10.39999961853</ele>
        <time>2022-04-28T08:31:42.000Z</time>
      </trkpt>
      <trkpt lat="47.29262" lon="-2.26177">
        <ele>10.39999961853</ele>
        <time>2022-04-28T08:31:43.000Z</time>
      </trkpt>
      <trkpt lat="47.29259" lon="-2.26168">
        <ele>10.39999961853</ele>
        <time>2022-04-28T08:31:45.000Z</time>
      </trkpt>
      <trkpt lat="47.29258" lon="-2.26158">
        <ele>10.39999961853</ele>
        <time>2022-04-28T08:31:47.000Z</time>
      </trkpt>
      <trkpt lat="47.29255" lon="-2.26142">
        <ele>10.39999961853</ele>
        <time>2022-04-28T08:31:50.000Z</time>
      </trkpt>
      <trkpt lat="47.29244" lon="-2.26118">
        <ele>10.39999961853</ele>
        <time>2022-04-28T08:31:55.000Z</time>
      </trkpt>
      <trkpt lat="47.29231" lon="-2.26087">
        <ele>10.39999961853</ele>
        <time>2022-04-28T08:32:01.000Z</time>
      </trkpt>
      <trkpt lat="47.29213" lon="-2.26059">
        <ele>10.39999961853</ele>
        <time>2022-04-28T08:32:07.000Z</time>
      </trkpt>
      <trkpt lat="47.29193" lon="-2.26028">
        <ele>10.39999961853</ele>
        <time>2022-04-28T08:32:14.000Z</time>
      </trkpt>
      <trkpt lat="47.29184" lon="-2.26">
        <ele>10.39999961853</ele>
        <time>2022-04-28T08:32:18.000Z</time>
      </trkpt>
      <trkpt lat="47.29184" lon="-2.25994">
        <ele>10.39999961853</ele>
        <time>2022-04-28T08:32:19.000Z</time>
      </trkpt>
      <trkpt lat="47.29187" lon="-2.25979">
        <ele>10.39999961853</ele>
        <time>2022-04-28T08:32:22.000Z</time>
      </trkpt>
      <trkpt lat="47.29189" lon="-2.25977">
        <ele>10.39999961853</ele>
        <time>2022-04-28T08:32:23.000Z</time>
      </trkpt>
      <trkpt lat="47.29203" lon="-2.25974">
        <ele>10.39999961853</ele>
        <time>2022-04-28T08:32:27.000Z</time>
      </trkpt>
      <trkpt lat="47.29207" lon="-2.25973">
        <ele>10.39999961853</ele>
        <time>2022-04-28T08:32:28.000Z</time>
      </trkpt>
      <trkpt lat="47.29212" lon="-2.25972">
        <ele>10.39999961853</ele>
        <time>2022-04-28T08:32:29.000Z</time>
      </trkpt>
      <trkpt lat="47.29225" lon="-2.25964">
        <ele>10.39999961853</ele>
        <time>2022-04-28T08:32:32.000Z</time>
      </trkpt>
      <trkpt lat="47.29251" lon="-2.25948">
        <ele>10.39999961853</ele>
        <time>2022-04-28T08:32:38.000Z</time>
      </trkpt>
      <trkpt lat="47.29267" lon="-2.25938">
        <ele>10</ele>
        <time>2022-04-28T08:32:42.000Z</time>
      </trkpt>
      <trkpt lat="47.29271" lon="-2.25935">
        <ele>9.6000003814697</ele>
        <time>2022-04-28T08:32:43.000Z</time>
      </trkpt>
      <trkpt lat="47.29275" lon="-2.25931">
        <ele>9.1999998092651</ele>
        <time>2022-04-28T08:32:44.000Z</time>
      </trkpt>
      <trkpt lat="47.29278" lon="-2.25928">
        <ele>8.8000001907349</ele>
        <time>2022-04-28T08:32:45.000Z</time>
      </trkpt>
      <trkpt lat="47.29282" lon="-2.25926">
        <ele>8.3999996185303</ele>
        <time>2022-04-28T08:32:46.000Z</time>
      </trkpt>
      <trkpt lat="47.29288" lon="-2.25923">
        <ele>8.3999996185303</ele>
        <time>2022-04-28T08:32:48.000Z</time>
      </trkpt>
      <trkpt lat="47.29293" lon="-2.25921">
        <ele>8.3999996185303</ele>
        <time>2022-04-28T08:32:50.000Z</time>
      </trkpt>
      <trkpt lat="47.29298" lon="-2.25917">
        <ele>8.3999996185303</ele>
        <time>2022-04-28T08:32:53.000Z</time>
      </trkpt>
      <trkpt lat="47.29306" lon="-2.25905">
        <ele>8.3999996185303</ele>
        <time>2022-04-28T08:32:56.000Z</time>
      </trkpt>
      <trkpt lat="47.29308" lon="-2.259">
        <ele>8.3999996185303</ele>
        <time>2022-04-28T08:32:57.000Z</time>
      </trkpt>
      <trkpt lat="47.29309" lon="-2.25881">
        <ele>8.3999996185303</ele>
        <time>2022-04-28T08:33:02.000Z</time>
      </trkpt>
      <trkpt lat="47.29305" lon="-2.25866">
        <ele>8.3999996185303</ele>
        <time>2022-04-28T08:33:08.000Z</time>
      </trkpt>
      <trkpt lat="47.29302" lon="-2.25857">
        <ele>8.3999996185303</ele>
        <time>2022-04-28T08:33:12.000Z</time>
      </trkpt>
      <trkpt lat="47.29304" lon="-2.25854">
        <ele>8.3999996185303</ele>
        <time>2022-04-28T08:33:13.000Z</time>
      </trkpt>
      <trkpt lat="47.29312" lon="-2.25853">
        <ele>8.3999996185303</ele>
        <time>2022-04-28T08:33:17.000Z</time>
      </trkpt>
      <trkpt lat="47.29315" lon="-2.25857">
        <ele>8.3999996185303</ele>
        <time>2022-04-28T08:33:19.000Z</time>
      </trkpt>
      <trkpt lat="47.29318" lon="-2.25861">
        <ele>8.3999996185303</ele>
        <time>2022-04-28T08:33:21.000Z</time>
      </trkpt>
      <trkpt lat="47.29329" lon="-2.25875">
        <ele>8.3999996185303</ele>
        <time>2022-04-28T08:33:26.000Z</time>
      </trkpt>
      <trkpt lat="47.29332" lon="-2.25875">
        <ele>7.8000001907349</ele>
        <time>2022-04-28T08:33:27.000Z</time>
      </trkpt>
      <trkpt lat="47.29334" lon="-2.25875">
        <ele>7.4000000953674</ele>
        <time>2022-04-28T08:33:28.000Z</time>
      </trkpt>
      <trkpt lat="47.29337" lon="-2.25875">
        <ele>7</ele>
        <time>2022-04-28T08:33:29.000Z</time>
      </trkpt>
      <trkpt lat="47.2934" lon="-2.25874">
        <ele>6.4000000953674</ele>
        <time>2022-04-28T08:33:30.000Z</time>
      </trkpt>
      <trkpt lat="47.29342" lon="-2.25873">
        <ele>6</ele>
        <time>2022-04-28T08:33:31.000Z</time>
      </trkpt>
      <trkpt lat="47.2935" lon="-2.25868">
        <ele>6</ele>
        <time>2022-04-28T08:33:34.000Z</time>
      </trkpt>
      <trkpt lat="47.29353" lon="-2.25868">
        <ele>6</ele>
        <time>2022-04-28T08:33:35.000Z</time>
      </trkpt>
      <trkpt lat="47.29362" lon="-2.25861">
        <ele>6</ele>
        <time>2022-04-28T08:33:40.000Z</time>
      </trkpt>
      <trkpt lat="47.29363" lon="-2.2586">
        <ele>6</ele>
        <time>2022-04-28T08:33:41.000Z</time>
      </trkpt>
      <trkpt lat="47.2936" lon="-2.25783">
        <ele>6</ele>
        <time>2022-04-28T08:48:21.000Z</time>
      </trkpt>
      <trkpt lat="47.29363" lon="-2.25774">
        <ele>6</ele>
        <time>2022-04-28T08:48:24.000Z</time>
      </trkpt>
      <trkpt lat="47.29373" lon="-2.25764">
        <ele>6</ele>
        <time>2022-04-28T08:48:30.000Z</time>
      </trkpt>
      <trkpt lat="47.29387" lon="-2.25753">
        <ele>6</ele>
        <time>2022-04-28T08:48:36.000Z</time>
      </trkpt>
      <trkpt lat="47.29398" lon="-2.25758">
        <ele>6</ele>
        <time>2022-04-28T08:48:40.000Z</time>
      </trkpt>
      <trkpt lat="47.29401" lon="-2.25758">
        <ele>6</ele>
        <time>2022-04-28T08:48:41.000Z</time>
      </trkpt>
      <trkpt lat="47.29408" lon="-2.2576">
        <ele>6</ele>
        <time>2022-04-28T08:48:43.000Z</time>
      </trkpt>
      <trkpt lat="47.29411" lon="-2.25766">
        <ele>6</ele>
        <time>2022-04-28T08:48:45.000Z</time>
      </trkpt>
      <trkpt lat="47.2942" lon="-2.25774">
        <ele>6</ele>
        <time>2022-04-28T08:48:49.000Z</time>
      </trkpt>
      <trkpt lat="47.29423" lon="-2.25776">
        <ele>6</ele>
        <time>2022-04-28T08:48:50.000Z</time>
      </trkpt>
      <trkpt lat="47.29424" lon="-2.25778">
        <ele>5.5999999046326</ele>
        <time>2022-04-28T08:48:51.000Z</time>
      </trkpt>
      <trkpt lat="47.29424" lon="-2.25781">
        <ele>5.1999998092651</ele>
        <time>2022-04-28T08:48:52.000Z</time>
      </trkpt>
      <trkpt lat="47.29424" lon="-2.25783">
        <ele>4.8000001907349</ele>
        <time>2022-04-28T08:48:53.000Z</time>
      </trkpt>
      <trkpt lat="47.29424" lon="-2.25785">
        <ele>4.4000000953674</ele>
        <time>2022-04-28T08:48:54.000Z</time>
      </trkpt>
      <trkpt lat="47.29424" lon="-2.25787">
        <ele>3.7999999523163</ele>
        <time>2022-04-28T08:48:55.000Z</time>
      </trkpt>
      <trkpt lat="47.29425" lon="-2.25792">
        <ele>3.7999999523163</ele>
        <time>2022-04-28T08:48:57.000Z</time>
      </trkpt>
      <trkpt lat="47.29427" lon="-2.25796">
        <ele>3.7999999523163</ele>
        <time>2022-04-28T08:49:00.000Z</time>
      </trkpt>
      <trkpt lat="47.29428" lon="-2.25799">
        <ele>3.7999999523163</ele>
        <time>2022-04-28T08:49:03.000Z</time>
      </trkpt>
      <trkpt lat="47.29431" lon="-2.25826">
        <ele>3.7999999523163</ele>
        <time>2022-04-28T08:49:17.000Z</time>
      </trkpt>
      <trkpt lat="47.29429" lon="-2.25835">
        <ele>3.7999999523163</ele>
        <time>2022-04-28T08:49:19.000Z</time>
      </trkpt>
      <trkpt lat="47.29426" lon="-2.2585">
        <ele>3.7999999523163</ele>
        <time>2022-04-28T08:49:23.000Z</time>
      </trkpt>
      <trkpt lat="47.29427" lon="-2.25854">
        <ele>3.7999999523163</ele>
        <time>2022-04-28T08:49:24.000Z</time>
      </trkpt>
      <trkpt lat="47.29434" lon="-2.25872">
        <ele>3.7999999523163</ele>
        <time>2022-04-28T08:49:28.000Z</time>
      </trkpt>
      <trkpt lat="47.29441" lon="-2.25902">
        <ele>3.7999999523163</ele>
        <time>2022-04-28T08:49:33.000Z</time>
      </trkpt>
      <trkpt lat="47.29443" lon="-2.25928">
        <ele>3.7999999523163</ele>
        <time>2022-04-28T08:49:37.000Z</time>
      </trkpt>
      <trkpt lat="47.29441" lon="-2.25932">
        <ele>3.7999999523163</ele>
        <time>2022-04-28T08:49:38.000Z</time>
      </trkpt>
      <trkpt lat="47.29434" lon="-2.25941">
        <ele>3.7999999523163</ele>
        <time>2022-04-28T08:49:41.000Z</time>
      </trkpt>
      <trkpt lat="47.29426" lon="-2.25949">
        <ele>3.7999999523163</ele>
        <time>2022-04-28T08:49:44.000Z</time>
      </trkpt>
      <trkpt lat="47.29408" lon="-2.25959">
        <ele>3.7999999523163</ele>
        <time>2022-04-28T08:49:50.000Z</time>
      </trkpt>
      <trkpt lat="47.294" lon="-2.25956">
        <ele>4.1999998092651</ele>
        <time>2022-04-28T08:49:53.000Z</time>
      </trkpt>
      <trkpt lat="47.29397" lon="-2.25955">
        <ele>4.8000001907349</ele>
        <time>2022-04-28T08:49:54.000Z</time>
      </trkpt>
      <trkpt lat="47.29395" lon="-2.25954">
        <ele>5.1999998092651</ele>
        <time>2022-04-28T08:49:55.000Z</time>
      </trkpt>
      <trkpt lat="47.29393" lon="-2.25954">
        <ele>5.5999999046326</ele>
        <time>2022-04-28T08:49:56.000Z</time>
      </trkpt>
      <trkpt lat="47.2939" lon="-2.25953">
        <ele>6</ele>
        <time>2022-04-28T08:49:57.000Z</time>
      </trkpt>
      <trkpt lat="47.29384" lon="-2.25951">
        <ele>6</ele>
        <time>2022-04-28T08:50:01.000Z</time>
      </trkpt>
      <trkpt lat="47.29374" lon="-2.25961">
        <ele>6</ele>
        <time>2022-04-28T08:50:07.000Z</time>
      </trkpt>
      <trkpt lat="47.29362" lon="-2.25973">
        <ele>6</ele>
        <time>2022-04-28T08:50:12.000Z</time>
      </trkpt>
      <trkpt lat="47.29345" lon="-2.25974">
        <ele>6</ele>
        <time>2022-04-28T08:50:18.000Z</time>
      </trkpt>
      <trkpt lat="47.29328" lon="-2.2597">
        <ele>6</ele>
        <time>2022-04-28T08:50:23.000Z</time>
      </trkpt>
      <trkpt lat="47.29315" lon="-2.25975">
        <ele>6.4000000953674</ele>
        <time>2022-04-28T08:50:27.000Z</time>
      </trkpt>
      <trkpt lat="47.29311" lon="-2.25975">
        <ele>6.8000001907349</ele>
        <time>2022-04-28T08:50:28.000Z</time>
      </trkpt>
      <trkpt lat="47.29307" lon="-2.25975">
        <ele>7.1999998092651</ele>
        <time>2022-04-28T08:50:29.000Z</time>
      </trkpt>
      <trkpt lat="47.29304" lon="-2.25975">
        <ele>7.5999999046326</ele>
        <time>2022-04-28T08:50:30.000Z</time>
      </trkpt>
      <trkpt lat="47.293" lon="-2.25975">
        <ele>8</ele>
        <time>2022-04-28T08:50:31.000Z</time>
      </trkpt>
      <trkpt lat="47.29294" lon="-2.25979">
        <ele>8</ele>
        <time>2022-04-28T08:50:33.000Z</time>
      </trkpt>
      <trkpt lat="47.29279" lon="-2.25985">
        <ele>8</ele>
        <time>2022-04-28T08:50:39.000Z</time>
      </trkpt>
      <trkpt lat="47.29267" lon="-2.25981">
        <ele>8</ele>
        <time>2022-04-28T08:50:43.000Z</time>
      </trkpt>
      <trkpt lat="47.2926" lon="-2.25985">
        <ele>8.3999996185303</ele>
        <time>2022-04-28T08:50:45.000Z</time>
      </trkpt>
      <trkpt lat="47.29257" lon="-2.25986">
        <ele>8.8000001907349</ele>
        <time>2022-04-28T08:50:46.000Z</time>
      </trkpt>
      <trkpt lat="47.29252" lon="-2.25987">
        <ele>9.1999998092651</ele>
        <time>2022-04-28T08:50:47.000Z</time>
      </trkpt>
      <trkpt lat="47.29248" lon="-2.25988">
        <ele>9.6000003814697</ele>
        <time>2022-04-28T08:50:48.000Z</time>
      </trkpt>
      <trkpt lat="47.29244" lon="-2.25988">
        <ele>10</ele>
        <time>2022-04-28T08:50:49.000Z</time>
      </trkpt>
      <trkpt lat="47.29239" lon="-2.25989">
        <ele>10</ele>
        <time>2022-04-28T08:50:50.000Z</time>
      </trkpt>
      <trkpt lat="47.2922" lon="-2.25999">
        <ele>10</ele>
        <time>2022-04-28T08:50:56.000Z</time>
      </trkpt>
      <trkpt lat="47.29217" lon="-2.26002">
        <ele>10</ele>
        <time>2022-04-28T08:50:57.000Z</time>
      </trkpt>
      <trkpt lat="47.29209" lon="-2.26009">
        <ele>10</ele>
        <time>2022-04-28T08:51:00.000Z</time>
      </trkpt>
      <trkpt lat="47.29201" lon="-2.26014">
        <ele>10</ele>
        <time>2022-04-28T08:51:03.000Z</time>
      </trkpt>
      <trkpt lat="47.29196" lon="-2.26023">
        <ele>10</ele>
        <time>2022-04-28T08:51:07.000Z</time>
      </trkpt>
      <trkpt lat="47.29189" lon="-2.26021">
        <ele>10</ele>
        <time>2022-04-28T08:51:08.000Z</time>
      </trkpt>
      <trkpt lat="47.29174" lon="-2.26002">
        <ele>10</ele>
        <time>2022-04-28T08:51:12.000Z</time>
      </trkpt>
      <trkpt lat="47.29173" lon="-2.25997">
        <ele>10</ele>
        <time>2022-04-28T08:51:13.000Z</time>
      </trkpt>
      <trkpt lat="47.29164" lon="-2.25982">
        <ele>10</ele>
        <time>2022-04-28T08:51:17.000Z</time>
      </trkpt>
      <trkpt lat="47.29164" lon="-2.25973">
        <ele>10</ele>
        <time>2022-04-28T08:51:21.000Z</time>
      </trkpt>
      <trkpt lat="47.29173" lon="-2.25976">
        <ele>10</ele>
        <time>2022-04-28T08:51:25.000Z</time>
      </trkpt>
      <trkpt lat="47.29172" lon="-2.25982">
        <ele>10</ele>
        <time>2022-04-28T08:51:28.000Z</time>
      </trkpt>
      <trkpt lat="47.29164" lon="-2.2598">
        <ele>10</ele>
        <time>2022-04-28T08:51:32.000Z</time>
      </trkpt>
      <trkpt lat="47.29157" lon="-2.25977">
        <ele>10</ele>
        <time>2022-04-28T08:51:34.000Z</time>
      </trkpt>
      <trkpt lat="47.29145" lon="-2.25975">
        <ele>10</ele>
        <time>2022-04-28T08:51:37.000Z</time>
      </trkpt>
      <trkpt lat="47.29116" lon="-2.25972">
        <ele>10</ele>
        <time>2022-04-28T08:51:44.000Z</time>
      </trkpt>
      <trkpt lat="47.29099" lon="-2.25981">
        <ele>10</ele>
        <time>2022-04-28T08:51:49.000Z</time>
      </trkpt>
      <trkpt lat="47.29088" lon="-2.25992">
        <ele>10</ele>
        <time>2022-04-28T08:51:53.000Z</time>
      </trkpt>
      <trkpt lat="47.29079" lon="-2.26009">
        <ele>10</ele>
        <time>2022-04-28T08:51:59.000Z</time>
      </trkpt>
      <trkpt lat="47.29087" lon="-2.26035">
        <ele>10</ele>
        <time>2022-04-28T08:52:04.000Z</time>
      </trkpt>
      <trkpt lat="47.29089" lon="-2.26041">
        <ele>10</ele>
        <time>2022-04-28T08:52:05.000Z</time>
      </trkpt>
      <trkpt lat="47.29102" lon="-2.2608">
        <ele>10</ele>
        <time>2022-04-28T08:52:12.000Z</time>
      </trkpt>
      <trkpt lat="47.29104" lon="-2.26092">
        <ele>10</ele>
        <time>2022-04-28T08:52:14.000Z</time>
      </trkpt>
      <trkpt lat="47.29104" lon="-2.26104">
        <ele>10</ele>
        <time>2022-04-28T08:52:16.000Z</time>
      </trkpt>
      <trkpt lat="47.29103" lon="-2.2611">
        <ele>10</ele>
        <time>2022-04-28T08:52:17.000Z</time>
      </trkpt>
      <trkpt lat="47.29099" lon="-2.2613">
        <ele>10</ele>
        <time>2022-04-28T08:52:20.000Z</time>
      </trkpt>
      <trkpt lat="47.29095" lon="-2.2615">
        <ele>10</ele>
        <time>2022-04-28T08:52:23.000Z</time>
      </trkpt>
      <trkpt lat="47.29094" lon="-2.26157">
        <ele>10</ele>
        <time>2022-04-28T08:52:24.000Z</time>
      </trkpt>
      <trkpt lat="47.29091" lon="-2.26187">
        <ele>10</ele>
        <time>2022-04-28T08:52:28.000Z</time>
      </trkpt>
      <trkpt lat="47.29089" lon="-2.26194">
        <ele>10</ele>
        <time>2022-04-28T08:52:29.000Z</time>
      </trkpt>
      <trkpt lat="47.29084" lon="-2.26223">
        <ele>10</ele>
        <time>2022-04-28T08:52:33.000Z</time>
      </trkpt>
      <trkpt lat="47.29077" lon="-2.26264">
        <ele>10.39999961853</ele>
        <time>2022-04-28T08:52:39.000Z</time>
      </trkpt>
      <trkpt lat="47.29075" lon="-2.26271">
        <ele>10.800000190735</ele>
        <time>2022-04-28T08:52:40.000Z</time>
      </trkpt>
      <trkpt lat="47.29074" lon="-2.26278">
        <ele>11.60000038147</ele>
        <time>2022-04-28T08:52:41.000Z</time>
      </trkpt>
      <trkpt lat="47.29072" lon="-2.26285">
        <ele>12</ele>
        <time>2022-04-28T08:52:42.000Z</time>
      </trkpt>
      <trkpt lat="47.29064" lon="-2.26313">
        <ele>12</ele>
        <time>2022-04-28T08:52:46.000Z</time>
      </trkpt>
      <trkpt lat="47.29057" lon="-2.26326">
        <ele>12</ele>
        <time>2022-04-28T08:52:48.000Z</time>
      </trkpt>
      <trkpt lat="47.29046" lon="-2.26341">
        <ele>12</ele>
        <time>2022-04-28T08:52:51.000Z</time>
      </trkpt>
      <trkpt lat="47.29033" lon="-2.26354">
        <ele>12</ele>
        <time>2022-04-28T08:52:54.000Z</time>
      </trkpt>
      <trkpt lat="47.2902" lon="-2.26365">
        <ele>12</ele>
        <time>2022-04-28T08:52:57.000Z</time>
      </trkpt>
      <trkpt lat="47.29016" lon="-2.2637">
        <ele>12</ele>
        <time>2022-04-28T08:52:58.000Z</time>
      </trkpt>
      <trkpt lat="47.29009" lon="-2.26387">
        <ele>12</ele>
        <time>2022-04-28T08:53:01.000Z</time>
      </trkpt>
      <trkpt lat="47.29008" lon="-2.26399">
        <ele>12</ele>
        <time>2022-04-28T08:53:03.000Z</time>
      </trkpt>
      <trkpt lat="47.29008" lon="-2.26423">
        <ele>12</ele>
        <time>2022-04-28T08:53:06.000Z</time>
      </trkpt>
      <trkpt lat="47.29015" lon="-2.26475">
        <ele>12</ele>
        <time>2022-04-28T08:53:11.000Z</time>
      </trkpt>
      <trkpt lat="47.29018" lon="-2.26494">
        <ele>11.60000038147</ele>
        <time>2022-04-28T08:53:13.000Z</time>
      </trkpt>
      <trkpt lat="47.2902" lon="-2.26502">
        <ele>11.199999809265</ele>
        <time>2022-04-28T08:53:14.000Z</time>
      </trkpt>
      <trkpt lat="47.29022" lon="-2.2651">
        <ele>10.800000190735</ele>
        <time>2022-04-28T08:53:15.000Z</time>
      </trkpt>
      <trkpt lat="47.29024" lon="-2.26518">
        <ele>10.39999961853</ele>
        <time>2022-04-28T08:53:16.000Z</time>
      </trkpt>
      <trkpt lat="47.29026" lon="-2.26526">
        <ele>10</ele>
        <time>2022-04-28T08:53:17.000Z</time>
      </trkpt>
      <trkpt lat="47.29037" lon="-2.26564">
        <ele>10</ele>
        <time>2022-04-28T08:53:23.000Z</time>
      </trkpt>
      <trkpt lat="47.29043" lon="-2.26595">
        <ele>10</ele>
        <time>2022-04-28T08:53:29.000Z</time>
      </trkpt>
      <trkpt lat="47.29045" lon="-2.26643">
        <ele>10</ele>
        <time>2022-04-28T08:53:36.000Z</time>
      </trkpt>
      <trkpt lat="47.29048" lon="-2.26684">
        <ele>9.3999996185303</ele>
        <time>2022-04-28T08:53:41.000Z</time>
      </trkpt>
      <trkpt lat="47.29049" lon="-2.26694">
        <ele>9</ele>
        <time>2022-04-28T08:53:42.000Z</time>
      </trkpt>
      <trkpt lat="47.2905" lon="-2.26704">
        <ele>8.6000003814697</ele>
        <time>2022-04-28T08:53:43.000Z</time>
      </trkpt>
      <trkpt lat="47.29051" lon="-2.26714">
        <ele>8.1999998092651</ele>
        <time>2022-04-28T08:53:44.000Z</time>
      </trkpt>
      <trkpt lat="47.29053" lon="-2.26725">
        <ele>7.8000001907349</ele>
        <time>2022-04-28T08:53:45.000Z</time>
      </trkpt>
      <trkpt lat="47.29057" lon="-2.26748">
        <ele>7.1999998092651</ele>
        <time>2022-04-28T08:53:47.000Z</time>
      </trkpt>
      <trkpt lat="47.29058" lon="-2.2676">
        <ele>6.8000001907349</ele>
        <time>2022-04-28T08:53:48.000Z</time>
      </trkpt>
      <trkpt lat="47.29059" lon="-2.26772">
        <ele>6.1999998092651</ele>
        <time>2022-04-28T08:53:49.000Z</time>
      </trkpt>
      <trkpt lat="47.2906" lon="-2.26784">
        <ele>5.8000001907349</ele>
        <time>2022-04-28T08:53:50.000Z</time>
      </trkpt>
      <trkpt lat="47.29061" lon="-2.26797">
        <ele>5.4000000953674</ele>
        <time>2022-04-28T08:53:51.000Z</time>
      </trkpt>
      <trkpt lat="47.29062" lon="-2.26823">
        <ele>4.8000001907349</ele>
        <time>2022-04-28T08:53:53.000Z</time>
      </trkpt>
      <trkpt lat="47.29061" lon="-2.26835">
        <ele>4.4000000953674</ele>
        <time>2022-04-28T08:53:54.000Z</time>
      </trkpt>
      <trkpt lat="47.2906" lon="-2.26847">
        <ele>3.4000000953674</ele>
        <time>2022-04-28T08:53:55.000Z</time>
      </trkpt>
      <trkpt lat="47.2906" lon="-2.26858">
        <ele>2.7999999523163</ele>
        <time>2022-04-28T08:53:56.000Z</time>
      </trkpt>
      <trkpt lat="47.29059" lon="-2.26889">
        <ele>2.7999999523163</ele>
        <time>2022-04-28T08:53:59.000Z</time>
      </trkpt>
      <trkpt lat="47.29059" lon="-2.26943">
        <ele>2.7999999523163</ele>
        <time>2022-04-28T08:54:05.000Z</time>
      </trkpt>
      <trkpt lat="47.29058" lon="-2.27021">
        <ele>2.7999999523163</ele>
        <time>2022-04-28T08:54:14.000Z</time>
      </trkpt>
      <trkpt lat="47.29064" lon="-2.2705">
        <ele>2.7999999523163</ele>
        <time>2022-04-28T08:54:18.000Z</time>
      </trkpt>
      <trkpt lat="47.29062" lon="-2.27061">
        <ele>2.7999999523163</ele>
        <time>2022-04-28T08:54:20.000Z</time>
      </trkpt>
      <trkpt lat="47.29059" lon="-2.27072">
        <ele>2.7999999523163</ele>
        <time>2022-04-28T08:54:22.000Z</time>
      </trkpt>
      <trkpt lat="47.29054" lon="-2.27083">
        <ele>2.7999999523163</ele>
        <time>2022-04-28T08:54:24.000Z</time>
      </trkpt>
      <trkpt lat="47.29049" lon="-2.27092">
        <ele>2.7999999523163</ele>
        <time>2022-04-28T08:54:26.000Z</time>
      </trkpt>
      <trkpt lat="47.29037" lon="-2.27096">
        <ele>2.7999999523163</ele>
        <time>2022-04-28T08:54:29.000Z</time>
      </trkpt>
      <trkpt lat="47.29029" lon="-2.2711">
        <ele>2.7999999523163</ele>
        <time>2022-04-28T08:54:33.000Z</time>
      </trkpt>
      <trkpt lat="47.29034" lon="-2.27123">
        <ele>2.7999999523163</ele>
        <time>2022-04-28T08:54:36.000Z</time>
      </trkpt>
      <trkpt lat="47.29047" lon="-2.27138">
        <ele>2.7999999523163</ele>
        <time>2022-04-28T08:54:40.000Z</time>
      </trkpt>
      <trkpt lat="47.2905" lon="-2.27142">
        <ele>2.7999999523163</ele>
        <time>2022-04-28T08:54:41.000Z</time>
      </trkpt>
      <trkpt lat="47.29054" lon="-2.27148">
        <ele>2.7999999523163</ele>
        <time>2022-04-28T08:54:42.000Z</time>
      </trkpt>
      <trkpt lat="47.2906" lon="-2.27162">
        <ele>2.7999999523163</ele>
        <time>2022-04-28T08:54:45.000Z</time>
      </trkpt>
      <trkpt lat="47.29073" lon="-2.27189">
        <ele>2.7999999523163</ele>
        <time>2022-04-28T08:54:50.000Z</time>
      </trkpt>
      <trkpt lat="47.29082" lon="-2.27197">
        <ele>2.7999999523163</ele>
        <time>2022-04-28T08:54:52.000Z</time>
      </trkpt>
      <trkpt lat="47.29089" lon="-2.27196">
        <ele>2.7999999523163</ele>
        <time>2022-04-28T08:54:54.000Z</time>
      </trkpt>
      <trkpt lat="47.29098" lon="-2.27198">
        <ele>2.7999999523163</ele>
        <time>2022-04-28T08:54:58.000Z</time>
      </trkpt>
      <trkpt lat="47.29107" lon="-2.272">
        <ele>2.7999999523163</ele>
        <time>2022-04-28T08:55:04.000Z</time>
      </trkpt>
      <trkpt lat="47.29109" lon="-2.27203">
        <ele>2.7999999523163</ele>
        <time>2022-04-28T08:55:06.000Z</time>
      </trkpt>
      <trkpt lat="47.29112" lon="-2.27213">
        <ele>2.7999999523163</ele>
        <time>2022-04-28T08:55:10.000Z</time>
      </trkpt>
      <trkpt lat="47.29112" lon="-2.27219">
        <ele>2.7999999523163</ele>
        <time>2022-04-28T08:55:12.000Z</time>
      </trkpt>
      <trkpt lat="47.2911" lon="-2.2723">
        <ele>2.7999999523163</ele>
        <time>2022-04-28T08:55:15.000Z</time>
      </trkpt>
      <trkpt lat="47.29109" lon="-2.27245">
        <ele>2.7999999523163</ele>
        <time>2022-04-28T08:55:18.000Z</time>
      </trkpt>
      <trkpt lat="47.29107" lon="-2.27254">
        <ele>2.7999999523163</ele>
        <time>2022-04-28T08:55:20.000Z</time>
      </trkpt>
      <trkpt lat="47.29106" lon="-2.27262">
        <ele>2.7999999523163</ele>
        <time>2022-04-28T08:55:22.000Z</time>
      </trkpt>
      <trkpt lat="47.29102" lon="-2.27273">
        <ele>2.7999999523163</ele>
        <time>2022-04-28T08:55:25.000Z</time>
      </trkpt>
      <trkpt lat="47.29096" lon="-2.27298">
        <ele>2.7999999523163</ele>
        <time>2022-04-28T08:55:30.000Z</time>
      </trkpt>
      <trkpt lat="47.29091" lon="-2.27323">
        <ele>2.7999999523163</ele>
        <time>2022-04-28T08:55:35.000Z</time>
      </trkpt>
      <trkpt lat="47.29092" lon="-2.27333">
        <ele>2.7999999523163</ele>
        <time>2022-04-28T08:55:37.000Z</time>
      </trkpt>
      <trkpt lat="47.29094" lon="-2.27338">
        <ele>2.7999999523163</ele>
        <time>2022-04-28T08:55:39.000Z</time>
      </trkpt>
      <trkpt lat="47.29101" lon="-2.2736">
        <ele>2.7999999523163</ele>
        <time>2022-04-28T08:55:44.000Z</time>
      </trkpt>
      <trkpt lat="47.29102" lon="-2.27366">
        <ele>2.7999999523163</ele>
        <time>2022-04-28T08:55:45.000Z</time>
      </trkpt>
      <trkpt lat="47.29107" lon="-2.27391">
        <ele>2.7999999523163</ele>
        <time>2022-04-28T08:55:48.000Z</time>
      </trkpt>
      <trkpt lat="47.29106" lon="-2.274">
        <ele>2.7999999523163</ele>
        <time>2022-04-28T08:55:49.000Z</time>
      </trkpt>
      <trkpt lat="47.29104" lon="-2.27462">
        <ele>2.7999999523163</ele>
        <time>2022-04-28T08:55:56.000Z</time>
      </trkpt>
      <trkpt lat="47.29103" lon="-2.275">
        <ele>2.7999999523163</ele>
        <time>2022-04-28T08:56:02.000Z</time>
      </trkpt>
      <trkpt lat="47.29103" lon="-2.27516">
        <ele>2.7999999523163</ele>
        <time>2022-04-28T08:56:07.000Z</time>
      </trkpt>
      <trkpt lat="47.291" lon="-2.27525">
        <ele>2.7999999523163</ele>
        <time>2022-04-28T08:56:32.000Z</time>
      </trkpt>
      <trkpt lat="47.29094" lon="-2.27528">
        <ele>2.7999999523163</ele>
        <time>2022-04-28T08:56:34.000Z</time>
      </trkpt>
      <trkpt lat="47.29083" lon="-2.27528">
        <ele>2.7999999523163</ele>
        <time>2022-04-28T08:56:37.000Z</time>
      </trkpt>
      <trkpt lat="47.29072" lon="-2.27528">
        <ele>2.7999999523163</ele>
        <time>2022-04-28T08:56:40.000Z</time>
      </trkpt>
      <trkpt lat="47.29042" lon="-2.27524">
        <ele>2.7999999523163</ele>
        <time>2022-04-28T08:56:46.000Z</time>
      </trkpt>
      <trkpt lat="47.29009" lon="-2.27523">
        <ele>2.7999999523163</ele>
        <time>2022-04-28T08:56:52.000Z</time>
      </trkpt>
      <trkpt lat="47.28973" lon="-2.27524">
        <ele>2.7999999523163</ele>
        <time>2022-04-28T08:56:58.000Z</time>
      </trkpt>
      <trkpt lat="47.28937" lon="-2.27525">
        <ele>2.7999999523163</ele>
        <time>2022-04-28T08:57:04.000Z</time>
      </trkpt>
      <trkpt lat="47.28892" lon="-2.27529">
        <ele>2.7999999523163</ele>
        <time>2022-04-28T08:57:12.000Z</time>
      </trkpt>
      <trkpt lat="47.28855" lon="-2.27536">
        <ele>2.7999999523163</ele>
        <time>2022-04-28T08:57:19.000Z</time>
      </trkpt>
      <trkpt lat="47.28821" lon="-2.27543">
        <ele>2.7999999523163</ele>
        <time>2022-04-28T08:57:25.000Z</time>
      </trkpt>
      <trkpt lat="47.2881" lon="-2.27549">
        <ele>2.7999999523163</ele>
        <time>2022-04-28T08:57:27.000Z</time>
      </trkpt>
      <trkpt lat="47.28799" lon="-2.27559">
        <ele>2.7999999523163</ele>
        <time>2022-04-28T08:57:29.000Z</time>
      </trkpt>
      <trkpt lat="47.2879" lon="-2.2757">
        <ele>2.7999999523163</ele>
        <time>2022-04-28T08:57:31.000Z</time>
      </trkpt>
      <trkpt lat="47.28767" lon="-2.27593">
        <ele>2.7999999523163</ele>
        <time>2022-04-28T08:57:36.000Z</time>
      </trkpt>
      <trkpt lat="47.28742" lon="-2.27627">
        <ele>2.7999999523163</ele>
        <time>2022-04-28T08:57:42.000Z</time>
      </trkpt>
      <trkpt lat="47.2871" lon="-2.27675">
        <ele>2.7999999523163</ele>
        <time>2022-04-28T08:57:50.000Z</time>
      </trkpt>
      <trkpt lat="47.28689" lon="-2.2771">
        <ele>2.7999999523163</ele>
        <time>2022-04-28T08:57:56.000Z</time>
      </trkpt>
      <trkpt lat="47.28664" lon="-2.27752">
        <ele>2.7999999523163</ele>
        <time>2022-04-28T08:58:02.000Z</time>
      </trkpt>
      <trkpt lat="47.28657" lon="-2.27767">
        <ele>2.7999999523163</ele>
        <time>2022-04-28T08:58:04.000Z</time>
      </trkpt>
      <trkpt lat="47.28651" lon="-2.27793">
        <ele>2.7999999523163</ele>
        <time>2022-04-28T08:58:07.000Z</time>
      </trkpt>
      <trkpt lat="47.28648" lon="-2.2781">
        <ele>2.7999999523163</ele>
        <time>2022-04-28T08:58:09.000Z</time>
      </trkpt>
      <trkpt lat="47.28641" lon="-2.27843">
        <ele>2.7999999523163</ele>
        <time>2022-04-28T08:58:13.000Z</time>
      </trkpt>
      <trkpt lat="47.28637" lon="-2.27867">
        <ele>3.4000000953674</ele>
        <time>2022-04-28T08:58:16.000Z</time>
      </trkpt>
      <trkpt lat="47.28636" lon="-2.27875">
        <ele>3.7999999523163</ele>
        <time>2022-04-28T08:58:17.000Z</time>
      </trkpt>
      <trkpt lat="47.28635" lon="-2.27882">
        <ele>4.1999998092651</ele>
        <time>2022-04-28T08:58:18.000Z</time>
      </trkpt>
      <trkpt lat="47.28634" lon="-2.27889">
        <ele>4.5999999046326</ele>
        <time>2022-04-28T08:58:19.000Z</time>
      </trkpt>
      <trkpt lat="47.28633" lon="-2.27896">
        <ele>5</ele>
        <time>2022-04-28T08:58:20.000Z</time>
      </trkpt>
      <trkpt lat="47.28631" lon="-2.27902">
        <ele>5</ele>
        <time>2022-04-28T08:58:21.000Z</time>
      </trkpt>
      <trkpt lat="47.28627" lon="-2.27935">
        <ele>5</ele>
        <time>2022-04-28T08:58:26.000Z</time>
      </trkpt>
      <trkpt lat="47.28625" lon="-2.27941">
        <ele>5</ele>
        <time>2022-04-28T08:58:27.000Z</time>
      </trkpt>
      <trkpt lat="47.28612" lon="-2.2796">
        <ele>5</ele>
        <time>2022-04-28T08:58:31.000Z</time>
      </trkpt>
      <trkpt lat="47.2861" lon="-2.27967">
        <ele>5</ele>
        <time>2022-04-28T08:58:32.000Z</time>
      </trkpt>
      <trkpt lat="47.28606" lon="-2.27992">
        <ele>5</ele>
        <time>2022-04-28T08:58:36.000Z</time>
      </trkpt>
      <trkpt lat="47.28591" lon="-2.28022">
        <ele>5</ele>
        <time>2022-04-28T08:58:41.000Z</time>
      </trkpt>
      <trkpt lat="47.28584" lon="-2.2803">
        <ele>5</ele>
        <time>2022-04-28T08:58:43.000Z</time>
      </trkpt>
      <trkpt lat="47.28575" lon="-2.28041">
        <ele>5</ele>
        <time>2022-04-28T08:58:46.000Z</time>
      </trkpt>
      <trkpt lat="47.28565" lon="-2.28048">
        <ele>5</ele>
        <time>2022-04-28T08:58:50.000Z</time>
      </trkpt>
      <trkpt lat="47.28558" lon="-2.28051">
        <ele>5.8000001907349</ele>
        <time>2022-04-28T08:58:52.000Z</time>
      </trkpt>
      <trkpt lat="47.28555" lon="-2.28051">
        <ele>6.1999998092651</ele>
        <time>2022-04-28T08:58:53.000Z</time>
      </trkpt>
      <trkpt lat="47.28552" lon="-2.2805">
        <ele>6.5999999046326</ele>
        <time>2022-04-28T08:58:54.000Z</time>
      </trkpt>
      <trkpt lat="47.28548" lon="-2.28048">
        <ele>7</ele>
        <time>2022-04-28T08:58:55.000Z</time>
      </trkpt>
      <trkpt lat="47.28539" lon="-2.28048">
        <ele>7</ele>
        <time>2022-04-28T08:58:59.000Z</time>
      </trkpt>
      <trkpt lat="47.28536" lon="-2.28048">
        <ele>7.4000000953674</ele>
        <time>2022-04-28T08:59:00.000Z</time>
      </trkpt>
      <trkpt lat="47.28533" lon="-2.28047">
        <ele>8</ele>
        <time>2022-04-28T08:59:01.000Z</time>
      </trkpt>
      <trkpt lat="47.2853" lon="-2.28047">
        <ele>8.3999996185303</ele>
        <time>2022-04-28T08:59:02.000Z</time>
      </trkpt>
      <trkpt lat="47.28527" lon="-2.28048">
        <ele>8.8000001907349</ele>
        <time>2022-04-28T08:59:03.000Z</time>
      </trkpt>
      <trkpt lat="47.28524" lon="-2.28047">
        <ele>9.3999996185303</ele>
        <time>2022-04-28T08:59:04.000Z</time>
      </trkpt>
      <trkpt lat="47.2852" lon="-2.28046">
        <ele>9.8000001907349</ele>
        <time>2022-04-28T08:59:05.000Z</time>
      </trkpt>
      <trkpt lat="47.28517" lon="-2.28045">
        <ele>10.199999809265</ele>
        <time>2022-04-28T08:59:06.000Z</time>
      </trkpt>
      <trkpt lat="47.28515" lon="-2.28044">
        <ele>10.60000038147</ele>
        <time>2022-04-28T08:59:07.000Z</time>
      </trkpt>
      <trkpt lat="47.28512" lon="-2.28042">
        <ele>11</ele>
        <time>2022-04-28T08:59:08.000Z</time>
      </trkpt>
      <trkpt lat="47.2851" lon="-2.28039">
        <ele>11.39999961853</ele>
        <time>2022-04-28T08:59:09.000Z</time>
      </trkpt>
      <trkpt lat="47.28508" lon="-2.28038">
        <ele>11.39999961853</ele>
        <time>2022-04-28T08:59:10.000Z</time>
      </trkpt>
      <trkpt lat="47.28503" lon="-2.28035">
        <ele>11.800000190735</ele>
        <time>2022-04-28T08:59:12.000Z</time>
      </trkpt>
      <trkpt lat="47.28499" lon="-2.28035">
        <ele>12.199999809265</ele>
        <time>2022-04-28T08:59:13.000Z</time>
      </trkpt>
      <trkpt lat="47.28497" lon="-2.28037">
        <ele>12.60000038147</ele>
        <time>2022-04-28T08:59:14.000Z</time>
      </trkpt>
      <trkpt lat="47.28494" lon="-2.28039">
        <ele>13</ele>
        <time>2022-04-28T08:59:15.000Z</time>
      </trkpt>
      <trkpt lat="47.28491" lon="-2.28041">
        <ele>13.39999961853</ele>
        <time>2022-04-28T08:59:16.000Z</time>
      </trkpt>
      <trkpt lat="47.28481" lon="-2.2805">
        <ele>13.39999961853</ele>
        <time>2022-04-28T08:59:20.000Z</time>
      </trkpt>
      <trkpt lat="47.28481" lon="-2.28062">
        <ele>13.39999961853</ele>
        <time>2022-04-28T08:59:23.000Z</time>
      </trkpt>
      <trkpt lat="47.28486" lon="-2.2807">
        <ele>13.39999961853</ele>
        <time>2022-04-28T08:59:25.000Z</time>
      </trkpt>
      <trkpt lat="47.28488" lon="-2.28081">
        <ele>13.39999961853</ele>
        <time>2022-04-28T08:59:27.000Z</time>
      </trkpt>
      <trkpt lat="47.28486" lon="-2.28084">
        <ele>13.39999961853</ele>
        <time>2022-04-28T08:59:28.000Z</time>
      </trkpt>
      <trkpt lat="47.28476" lon="-2.28093">
        <ele>13.39999961853</ele>
        <time>2022-04-28T08:59:31.000Z</time>
      </trkpt>
      <trkpt lat="47.28472" lon="-2.28095">
        <ele>13</ele>
        <time>2022-04-28T08:59:32.000Z</time>
      </trkpt>
      <trkpt lat="47.28467" lon="-2.28095">
        <ele>12.60000038147</ele>
        <time>2022-04-28T08:59:33.000Z</time>
      </trkpt>
      <trkpt lat="47.28464" lon="-2.28095">
        <ele>12.199999809265</ele>
        <time>2022-04-28T08:59:34.000Z</time>
      </trkpt>
      <trkpt lat="47.28461" lon="-2.28091">
        <ele>11.60000038147</ele>
        <time>2022-04-28T08:59:35.000Z</time>
      </trkpt>
      <trkpt lat="47.28458" lon="-2.28089">
        <ele>11.199999809265</ele>
        <time>2022-04-28T08:59:36.000Z</time>
      </trkpt>
      <trkpt lat="47.2845" lon="-2.28086">
        <ele>11.199999809265</ele>
        <time>2022-04-28T08:59:39.000Z</time>
      </trkpt>
      <trkpt lat="47.28439" lon="-2.28086">
        <ele>11.199999809265</ele>
        <time>2022-04-28T08:59:43.000Z</time>
      </trkpt>
      <trkpt lat="47.28437" lon="-2.28087">
        <ele>11.199999809265</ele>
        <time>2022-04-28T08:59:44.000Z</time>
      </trkpt>
      <trkpt lat="47.28423" lon="-2.28086">
        <ele>11.199999809265</ele>
        <time>2022-04-28T08:59:48.000Z</time>
      </trkpt>
      <trkpt lat="47.2842" lon="-2.28086">
        <ele>11.199999809265</ele>
        <time>2022-04-28T08:59:49.000Z</time>
      </trkpt>
      <trkpt lat="47.28417" lon="-2.28084">
        <ele>11.199999809265</ele>
        <time>2022-04-28T08:59:50.000Z</time>
      </trkpt>
      <trkpt lat="47.28406" lon="-2.2808">
        <ele>11.199999809265</ele>
        <time>2022-04-28T08:59:53.000Z</time>
      </trkpt>
      <trkpt lat="47.28392" lon="-2.2808">
        <ele>11.199999809265</ele>
        <time>2022-04-28T08:59:57.000Z</time>
      </trkpt>
      <trkpt lat="47.28375" lon="-2.28078">
        <ele>11.199999809265</ele>
        <time>2022-04-28T09:00:02.000Z</time>
      </trkpt>
      <trkpt lat="47.28371" lon="-2.28067">
        <ele>11.199999809265</ele>
        <time>2022-04-28T09:00:06.000Z</time>
      </trkpt>
      <trkpt lat="47.2837" lon="-2.2806">
        <ele>11.199999809265</ele>
        <time>2022-04-28T09:00:09.000Z</time>
      </trkpt>
      <trkpt lat="47.28369" lon="-2.28058">
        <ele>11.199999809265</ele>
        <time>2022-04-28T09:00:10.000Z</time>
      </trkpt>
      <trkpt lat="47.28368" lon="-2.28056">
        <ele>11.199999809265</ele>
        <time>2022-04-28T09:00:11.000Z</time>
      </trkpt>
      <trkpt lat="47.28366" lon="-2.28056">
        <ele>11.199999809265</ele>
        <time>2022-04-28T09:00:14.000Z</time>
      </trkpt>
      <trkpt lat="47.28366" lon="-2.28057">
        <ele>11.199999809265</ele>
        <time>2022-04-28T09:00:15.000Z</time>
      </trkpt>
      <trkpt lat="47.28365" lon="-2.28062">
        <ele>11.199999809265</ele>
        <time>2022-04-28T09:00:19.000Z</time>
      </trkpt>
      <trkpt lat="47.28366" lon="-2.28065">
        <ele>11.199999809265</ele>
        <time>2022-04-28T09:01:43.000Z</time>
      </trkpt>
      <trkpt lat="47.28365" lon="-2.28075">
        <ele>11.199999809265</ele>
        <time>2022-04-28T09:01:47.000Z</time>
      </trkpt>
      <trkpt lat="47.28364" lon="-2.28079">
        <ele>10.800000190735</ele>
        <time>2022-04-28T09:01:48.000Z</time>
      </trkpt>
      <trkpt lat="47.28363" lon="-2.28082">
        <ele>10.39999961853</ele>
        <time>2022-04-28T09:01:49.000Z</time>
      </trkpt>
      <trkpt lat="47.28361" lon="-2.28085">
        <ele>10</ele>
        <time>2022-04-28T09:01:50.000Z</time>
      </trkpt>
      <trkpt lat="47.28359" lon="-2.28087">
        <ele>9.6000003814697</ele>
        <time>2022-04-28T09:01:51.000Z</time>
      </trkpt>
      <trkpt lat="47.28357" lon="-2.28088">
        <ele>9</ele>
        <time>2022-04-28T09:01:52.000Z</time>
      </trkpt>
      <trkpt lat="47.2833" lon="-2.28089">
        <ele>9</ele>
        <time>2022-04-28T09:02:05.000Z</time>
      </trkpt>
      <trkpt lat="47.28329" lon="-2.28086">
        <ele>9</ele>
        <time>2022-04-28T09:02:06.000Z</time>
      </trkpt>
      <trkpt lat="47.28328" lon="-2.28074">
        <ele>9</ele>
        <time>2022-04-28T09:02:09.000Z</time>
      </trkpt>
      <trkpt lat="47.28327" lon="-2.2807">
        <ele>9</ele>
        <time>2022-04-28T09:02:10.000Z</time>
      </trkpt>
      <trkpt lat="47.28324" lon="-2.28038">
        <ele>9.6000003814697</ele>
        <time>2022-04-28T09:02:16.000Z</time>
      </trkpt>
      <trkpt lat="47.28324" lon="-2.28034">
        <ele>10</ele>
        <time>2022-04-28T09:02:17.000Z</time>
      </trkpt>
      <trkpt lat="47.28324" lon="-2.28029">
        <ele>10.39999961853</ele>
        <time>2022-04-28T09:02:18.000Z</time>
      </trkpt>
      <trkpt lat="47.28323" lon="-2.28025">
        <ele>10.800000190735</ele>
        <time>2022-04-28T09:02:19.000Z</time>
      </trkpt>
      <trkpt lat="47.28323" lon="-2.28021">
        <ele>11.39999961853</ele>
        <time>2022-04-28T09:02:20.000Z</time>
      </trkpt>
      <trkpt lat="47.28323" lon="-2.28009">
        <ele>11.800000190735</ele>
        <time>2022-04-28T09:02:23.000Z</time>
      </trkpt>
      <trkpt lat="47.28322" lon="-2.28005">
        <ele>12.199999809265</ele>
        <time>2022-04-28T09:02:24.000Z</time>
      </trkpt>
      <trkpt lat="47.28321" lon="-2.28001">
        <ele>12.60000038147</ele>
        <time>2022-04-28T09:02:25.000Z</time>
      </trkpt>
      <trkpt lat="47.2832" lon="-2.27997">
        <ele>13</ele>
        <time>2022-04-28T09:02:26.000Z</time>
      </trkpt>
      <trkpt lat="47.28319" lon="-2.27994">
        <ele>13.39999961853</ele>
        <time>2022-04-28T09:02:27.000Z</time>
      </trkpt>
      <trkpt lat="47.28318" lon="-2.2799">
        <ele>13.39999961853</ele>
        <time>2022-04-28T09:02:28.000Z</time>
      </trkpt>
      <trkpt lat="47.28317" lon="-2.27974">
        <ele>13.800000190735</ele>
        <time>2022-04-28T09:02:33.000Z</time>
      </trkpt>
      <trkpt lat="47.28318" lon="-2.27971">
        <ele>14.39999961853</ele>
        <time>2022-04-28T09:02:34.000Z</time>
      </trkpt>
      <trkpt lat="47.28319" lon="-2.27968">
        <ele>15.199999809265</ele>
        <time>2022-04-28T09:02:35.000Z</time>
      </trkpt>
      <trkpt lat="47.2832" lon="-2.27964">
        <ele>15.60000038147</ele>
        <time>2022-04-28T09:02:36.000Z</time>
      </trkpt>
      <trkpt lat="47.2832" lon="-2.27955">
        <ele>15.60000038147</ele>
        <time>2022-04-28T09:02:38.000Z</time>
      </trkpt>
      <trkpt lat="47.28321" lon="-2.27921">
        <ele>15.60000038147</ele>
        <time>2022-04-28T09:02:45.000Z</time>
      </trkpt>
      <trkpt lat="47.28324" lon="-2.27889">
        <ele>15.60000038147</ele>
        <time>2022-04-28T09:02:51.000Z</time>
      </trkpt>
      <trkpt lat="47.28327" lon="-2.27854">
        <ele>15.60000038147</ele>
        <time>2022-04-28T09:02:57.000Z</time>
      </trkpt>
      <trkpt lat="47.28332" lon="-2.27809">
        <ele>15.60000038147</ele>
        <time>2022-04-28T09:03:04.000Z</time>
      </trkpt>
      <trkpt lat="47.28336" lon="-2.2775">
        <ele>15.60000038147</ele>
        <time>2022-04-28T09:03:12.000Z</time>
      </trkpt>
      <trkpt lat="47.28339" lon="-2.27712">
        <ele>15.60000038147</ele>
        <time>2022-04-28T09:03:18.000Z</time>
      </trkpt>
      <trkpt lat="47.28341" lon="-2.2768">
        <ele>15.60000038147</ele>
        <time>2022-04-28T09:03:25.000Z</time>
      </trkpt>
      <trkpt lat="47.28346" lon="-2.27636">
        <ele>15.60000038147</ele>
        <time>2022-04-28T09:03:34.000Z</time>
      </trkpt>
      <trkpt lat="47.28347" lon="-2.27626">
        <ele>16</ele>
        <time>2022-04-28T09:03:36.000Z</time>
      </trkpt>
      <trkpt lat="47.28347" lon="-2.27621">
        <ele>16.39999961853</ele>
        <time>2022-04-28T09:03:37.000Z</time>
      </trkpt>
      <trkpt lat="47.28347" lon="-2.27617">
        <ele>16.799999237061</ele>
        <time>2022-04-28T09:03:38.000Z</time>
      </trkpt>
      <trkpt lat="47.28348" lon="-2.27611">
        <ele>17.200000762939</ele>
        <time>2022-04-28T09:03:39.000Z</time>
      </trkpt>
      <trkpt lat="47.28348" lon="-2.27606">
        <ele>17.799999237061</ele>
        <time>2022-04-28T09:03:40.000Z</time>
      </trkpt>
      <trkpt lat="47.28348" lon="-2.27601">
        <ele>17.799999237061</ele>
        <time>2022-04-28T09:03:41.000Z</time>
      </trkpt>
      <trkpt lat="47.28348" lon="-2.27576">
        <ele>17.799999237061</ele>
        <time>2022-04-28T09:03:46.000Z</time>
      </trkpt>
      <trkpt lat="47.28353" lon="-2.27545">
        <ele>17.799999237061</ele>
        <time>2022-04-28T09:03:52.000Z</time>
      </trkpt>
      <trkpt lat="47.28357" lon="-2.27506">
        <ele>17.799999237061</ele>
        <time>2022-04-28T09:03:59.000Z</time>
      </trkpt>
      <trkpt lat="47.28362" lon="-2.27461">
        <ele>17.799999237061</ele>
        <time>2022-04-28T09:04:06.000Z</time>
      </trkpt>
      <trkpt lat="47.28372" lon="-2.27412">
        <ele>17.799999237061</ele>
        <time>2022-04-28T09:04:13.000Z</time>
      </trkpt>
      <trkpt lat="47.2838" lon="-2.27376">
        <ele>17.200000762939</ele>
        <time>2022-04-28T09:04:18.000Z</time>
      </trkpt>
      <trkpt lat="47.28381" lon="-2.2737">
        <ele>16.60000038147</ele>
        <time>2022-04-28T09:04:19.000Z</time>
      </trkpt>
      <trkpt lat="47.28381" lon="-2.27365">
        <ele>16.200000762939</ele>
        <time>2022-04-28T09:04:20.000Z</time>
      </trkpt>
      <trkpt lat="47.28381" lon="-2.2736">
        <ele>15.60000038147</ele>
        <time>2022-04-28T09:04:21.000Z</time>
      </trkpt>
      <trkpt lat="47.2838" lon="-2.27357">
        <ele>15.199999809265</ele>
        <time>2022-04-28T09:04:22.000Z</time>
      </trkpt>
      <trkpt lat="47.28379" lon="-2.27355">
        <ele>14.60000038147</ele>
        <time>2022-04-28T09:04:23.000Z</time>
      </trkpt>
      <trkpt lat="47.28378" lon="-2.27354">
        <ele>14</ele>
        <time>2022-04-28T09:04:24.000Z</time>
      </trkpt>
      <trkpt lat="47.28376" lon="-2.27353">
        <ele>13.60000038147</ele>
        <time>2022-04-28T09:04:25.000Z</time>
      </trkpt>
      <trkpt lat="47.28375" lon="-2.27353">
        <ele>13</ele>
        <time>2022-04-28T09:04:26.000Z</time>
      </trkpt>
      <trkpt lat="47.28362" lon="-2.27349">
        <ele>13</ele>
        <time>2022-04-28T09:04:32.000Z</time>
      </trkpt>
      <trkpt lat="47.28357" lon="-2.27349">
        <ele>13.39999961853</ele>
        <time>2022-04-28T09:04:34.000Z</time>
      </trkpt>
      <trkpt lat="47.28355" lon="-2.27349">
        <ele>13.800000190735</ele>
        <time>2022-04-28T09:04:35.000Z</time>
      </trkpt>
      <trkpt lat="47.28352" lon="-2.27349">
        <ele>14.199999809265</ele>
        <time>2022-04-28T09:04:36.000Z</time>
      </trkpt>
      <trkpt lat="47.2835" lon="-2.2735">
        <ele>14.60000038147</ele>
        <time>2022-04-28T09:04:37.000Z</time>
      </trkpt>
      <trkpt lat="47.28348" lon="-2.2735">
        <ele>15</ele>
        <time>2022-04-28T09:04:38.000Z</time>
      </trkpt>
      <trkpt lat="47.28338" lon="-2.2735">
        <ele>15</ele>
        <time>2022-04-28T09:04:42.000Z</time>
      </trkpt>
      <trkpt lat="47.28336" lon="-2.27351">
        <ele>15.39999961853</ele>
        <time>2022-04-28T09:04:43.000Z</time>
      </trkpt>
      <trkpt lat="47.28333" lon="-2.27351">
        <ele>15.800000190735</ele>
        <time>2022-04-28T09:04:44.000Z</time>
      </trkpt>
      <trkpt lat="47.2833" lon="-2.2735">
        <ele>16.39999961853</ele>
        <time>2022-04-28T09:04:45.000Z</time>
      </trkpt>
      <trkpt lat="47.28328" lon="-2.27351">
        <ele>16.799999237061</ele>
        <time>2022-04-28T09:04:46.000Z</time>
      </trkpt>
      <trkpt lat="47.28325" lon="-2.27351">
        <ele>17.200000762939</ele>
        <time>2022-04-28T09:04:47.000Z</time>
      </trkpt>
      <trkpt lat="47.28308" lon="-2.27353">
        <ele>17.60000038147</ele>
        <time>2022-04-28T09:04:53.000Z</time>
      </trkpt>
      <trkpt lat="47.28305" lon="-2.27352">
        <ele>18</ele>
        <time>2022-04-28T09:04:54.000Z</time>
      </trkpt>
      <trkpt lat="47.28303" lon="-2.27352">
        <ele>18.60000038147</ele>
        <time>2022-04-28T09:04:55.000Z</time>
      </trkpt>
      <trkpt lat="47.283" lon="-2.27353">
        <ele>19</ele>
        <time>2022-04-28T09:04:56.000Z</time>
      </trkpt>
      <trkpt lat="47.28297" lon="-2.27353">
        <ele>19.39999961853</ele>
        <time>2022-04-28T09:04:57.000Z</time>
      </trkpt>
      <trkpt lat="47.28287" lon="-2.27353">
        <ele>19.39999961853</ele>
        <time>2022-04-28T09:05:00.000Z</time>
      </trkpt>
      <trkpt lat="47.2828" lon="-2.27352">
        <ele>19.799999237061</ele>
        <time>2022-04-28T09:05:02.000Z</time>
      </trkpt>
      <trkpt lat="47.28277" lon="-2.27351">
        <ele>20.60000038147</ele>
        <time>2022-04-28T09:05:03.000Z</time>
      </trkpt>
      <trkpt lat="47.28274" lon="-2.27351">
        <ele>21</ele>
        <time>2022-04-28T09:05:04.000Z</time>
      </trkpt>
      <trkpt lat="47.2827" lon="-2.2735">
        <ele>21.39999961853</ele>
        <time>2022-04-28T09:05:05.000Z</time>
      </trkpt>
      <trkpt lat="47.28268" lon="-2.2735">
        <ele>21.39999961853</ele>
        <time>2022-04-28T09:05:06.000Z</time>
      </trkpt>
      <trkpt lat="47.28255" lon="-2.27349">
        <ele>21.39999961853</ele>
        <time>2022-04-28T09:05:12.000Z</time>
      </trkpt>
      <trkpt lat="47.28243" lon="-2.27351">
        <ele>21.39999961853</ele>
        <time>2022-04-28T09:05:19.000Z</time>
      </trkpt>
      <trkpt lat="47.28233" lon="-2.27352">
        <ele>21.799999237061</ele>
        <time>2022-04-28T09:05:24.000Z</time>
      </trkpt>
      <trkpt lat="47.28231" lon="-2.27353">
        <ele>22.39999961853</ele>
        <time>2022-04-28T09:05:25.000Z</time>
      </trkpt>
      <trkpt lat="47.28229" lon="-2.27353">
        <ele>22.799999237061</ele>
        <time>2022-04-28T09:05:26.000Z</time>
      </trkpt>
      <trkpt lat="47.28227" lon="-2.27354">
        <ele>23.200000762939</ele>
        <time>2022-04-28T09:05:27.000Z</time>
      </trkpt>
      <trkpt lat="47.28224" lon="-2.27354">
        <ele>23.60000038147</ele>
        <time>2022-04-28T09:05:28.000Z</time>
      </trkpt>
      <trkpt lat="47.28218" lon="-2.27356">
        <ele>23.60000038147</ele>
        <time>2022-04-28T09:05:31.000Z</time>
      </trkpt>
      <trkpt lat="47.28201" lon="-2.27359">
        <ele>23.60000038147</ele>
        <time>2022-04-28T09:05:37.000Z</time>
      </trkpt>
      <trkpt lat="47.2818" lon="-2.27364">
        <ele>23.60000038147</ele>
        <time>2022-04-28T09:05:43.000Z</time>
      </trkpt>
      <trkpt lat="47.28158" lon="-2.27369">
        <ele>23.60000038147</ele>
        <time>2022-04-28T09:05:50.000Z</time>
      </trkpt>
      <trkpt lat="47.28142" lon="-2.27368">
        <ele>23.60000038147</ele>
        <time>2022-04-28T09:05:56.000Z</time>
      </trkpt>
      <trkpt lat="47.28136" lon="-2.2737">
        <ele>23.60000038147</ele>
        <time>2022-04-28T09:05:59.000Z</time>
      </trkpt>
      <trkpt lat="47.28134" lon="-2.27371">
        <ele>23.60000038147</ele>
        <time>2022-04-28T09:06:00.000Z</time>
      </trkpt>
      <trkpt lat="47.28125" lon="-2.27377">
        <ele>23.60000038147</ele>
        <time>2022-04-28T09:06:07.000Z</time>
      </trkpt>
      <trkpt lat="47.28125" lon="-2.27377">
        <ele>23.60000038147</ele>
        <time>2022-04-28T09:06:08.000Z</time>
      </trkpt>
      <trkpt lat="47.28122" lon="-2.27381">
        <ele>23.60000038147</ele>
        <time>2022-04-28T09:07:00.000Z</time>
      </trkpt>
      <trkpt lat="47.28121" lon="-2.27387">
        <ele>23.60000038147</ele>
        <time>2022-04-28T09:07:02.000Z</time>
      </trkpt>
      <trkpt lat="47.28117" lon="-2.27407">
        <ele>23.60000038147</ele>
        <time>2022-04-28T09:07:07.000Z</time>
      </trkpt>
      <trkpt lat="47.28113" lon="-2.27419">
        <ele>23.60000038147</ele>
        <time>2022-04-28T09:07:09.000Z</time>
      </trkpt>
      <trkpt lat="47.28111" lon="-2.27426">
        <ele>23.60000038147</ele>
        <time>2022-04-28T09:07:10.000Z</time>
      </trkpt>
      <trkpt lat="47.28105" lon="-2.2744">
        <ele>23.60000038147</ele>
        <time>2022-04-28T09:07:12.000Z</time>
      </trkpt>
      <trkpt lat="47.28097" lon="-2.27462">
        <ele>23.60000038147</ele>
        <time>2022-04-28T09:07:15.000Z</time>
      </trkpt>
      <trkpt lat="47.28089" lon="-2.27487">
        <ele>23.60000038147</ele>
        <time>2022-04-28T09:07:18.000Z</time>
      </trkpt>
      <trkpt lat="47.28086" lon="-2.27496">
        <ele>23.200000762939</ele>
        <time>2022-04-28T09:07:19.000Z</time>
      </trkpt>
      <trkpt lat="47.28083" lon="-2.27506">
        <ele>22.60000038147</ele>
        <time>2022-04-28T09:07:20.000Z</time>
      </trkpt>
      <trkpt lat="47.28079" lon="-2.27515">
        <ele>22.200000762939</ele>
        <time>2022-04-28T09:07:21.000Z</time>
      </trkpt>
      <trkpt lat="47.28075" lon="-2.27524">
        <ele>21.799999237061</ele>
        <time>2022-04-28T09:07:22.000Z</time>
      </trkpt>
      <trkpt lat="47.2807" lon="-2.27532">
        <ele>21.39999961853</ele>
        <time>2022-04-28T09:07:23.000Z</time>
      </trkpt>
      <trkpt lat="47.28049" lon="-2.27549">
        <ele>21</ele>
        <time>2022-04-28T09:07:26.000Z</time>
      </trkpt>
      <trkpt lat="47.28041" lon="-2.27553">
        <ele>20.39999961853</ele>
        <time>2022-04-28T09:07:27.000Z</time>
      </trkpt>
      <trkpt lat="47.28033" lon="-2.27556">
        <ele>20</ele>
        <time>2022-04-28T09:07:28.000Z</time>
      </trkpt>
      <trkpt lat="47.28024" lon="-2.27558">
        <ele>19.60000038147</ele>
        <time>2022-04-28T09:07:29.000Z</time>
      </trkpt>
      <trkpt lat="47.28016" lon="-2.27558">
        <ele>19.200000762939</ele>
        <time>2022-04-28T09:07:30.000Z</time>
      </trkpt>
      <trkpt lat="47.28008" lon="-2.27559">
        <ele>19.200000762939</ele>
        <time>2022-04-28T09:07:31.000Z</time>
      </trkpt>
      <trkpt lat="47.27999" lon="-2.27559">
        <ele>18.799999237061</ele>
        <time>2022-04-28T09:07:32.000Z</time>
      </trkpt>
      <trkpt lat="47.27991" lon="-2.27558">
        <ele>18.200000762939</ele>
        <time>2022-04-28T09:07:33.000Z</time>
      </trkpt>
      <trkpt lat="47.27983" lon="-2.27557">
        <ele>17.799999237061</ele>
        <time>2022-04-28T09:07:34.000Z</time>
      </trkpt>
      <trkpt lat="47.27976" lon="-2.27557">
        <ele>17.200000762939</ele>
        <time>2022-04-28T09:07:35.000Z</time>
      </trkpt>
      <trkpt lat="47.2797" lon="-2.27557">
        <ele>16.799999237061</ele>
        <time>2022-04-28T09:07:36.000Z</time>
      </trkpt>
      <trkpt lat="47.27962" lon="-2.27559">
        <ele>16.200000762939</ele>
        <time>2022-04-28T09:07:38.000Z</time>
      </trkpt>
      <trkpt lat="47.27958" lon="-2.2756">
        <ele>15.800000190735</ele>
        <time>2022-04-28T09:07:39.000Z</time>
      </trkpt>
      <trkpt lat="47.27954" lon="-2.2756">
        <ele>15.199999809265</ele>
        <time>2022-04-28T09:07:40.000Z</time>
      </trkpt>
      <trkpt lat="47.2795" lon="-2.27561">
        <ele>14.800000190735</ele>
        <time>2022-04-28T09:07:41.000Z</time>
      </trkpt>
      <trkpt lat="47.27945" lon="-2.27561">
        <ele>14.39999961853</ele>
        <time>2022-04-28T09:07:42.000Z</time>
      </trkpt>
      <trkpt lat="47.2794" lon="-2.27563">
        <ele>14.39999961853</ele>
        <time>2022-04-28T09:07:43.000Z</time>
      </trkpt>
      <trkpt lat="47.27929" lon="-2.27569">
        <ele>14.39999961853</ele>
        <time>2022-04-28T09:07:45.000Z</time>
      </trkpt>
      <trkpt lat="47.27919" lon="-2.27582">
        <ele>14.39999961853</ele>
        <time>2022-04-28T09:07:48.000Z</time>
      </trkpt>
      <trkpt lat="47.27917" lon="-2.27587">
        <ele>14</ele>
        <time>2022-04-28T09:07:49.000Z</time>
      </trkpt>
      <trkpt lat="47.27914" lon="-2.27593">
        <ele>13.39999961853</ele>
        <time>2022-04-28T09:07:50.000Z</time>
      </trkpt>
      <trkpt lat="47.27912" lon="-2.27599">
        <ele>13</ele>
        <time>2022-04-28T09:07:51.000Z</time>
      </trkpt>
      <trkpt lat="47.2791" lon="-2.27605">
        <ele>12.60000038147</ele>
        <time>2022-04-28T09:07:52.000Z</time>
      </trkpt>
      <trkpt lat="47.27909" lon="-2.27611">
        <ele>12.199999809265</ele>
        <time>2022-04-28T09:07:53.000Z</time>
      </trkpt>
      <trkpt lat="47.27905" lon="-2.27624">
        <ele>12.199999809265</ele>
        <time>2022-04-28T09:07:55.000Z</time>
      </trkpt>
      <trkpt lat="47.27888" lon="-2.27682">
        <ele>12.199999809265</ele>
        <time>2022-04-28T09:08:03.000Z</time>
      </trkpt>
      <trkpt lat="47.27865" lon="-2.27729">
        <ele>12.199999809265</ele>
        <time>2022-04-28T09:08:10.000Z</time>
      </trkpt>
      <trkpt lat="47.27839" lon="-2.27783">
        <ele>12.199999809265</ele>
        <time>2022-04-28T09:08:18.000Z</time>
      </trkpt>
      <trkpt lat="47.27816" lon="-2.27829">
        <ele>12.199999809265</ele>
        <time>2022-04-28T09:08:25.000Z</time>
      </trkpt>
      <trkpt lat="47.2779" lon="-2.27882">
        <ele>12.199999809265</ele>
        <time>2022-04-28T09:08:33.000Z</time>
      </trkpt>
      <trkpt lat="47.27786" lon="-2.27893">
        <ele>12.199999809265</ele>
        <time>2022-04-28T09:08:35.000Z</time>
      </trkpt>
      <trkpt lat="47.27776" lon="-2.27912">
        <ele>12.199999809265</ele>
        <time>2022-04-28T09:08:39.000Z</time>
      </trkpt>
      <trkpt lat="47.27769" lon="-2.27926">
        <ele>12.199999809265</ele>
        <time>2022-04-28T09:08:44.000Z</time>
      </trkpt>
      <trkpt lat="47.27769" lon="-2.27931">
        <ele>12.199999809265</ele>
        <time>2022-04-28T09:09:25.000Z</time>
      </trkpt>
      <trkpt lat="47.27767" lon="-2.27941">
        <ele>12.199999809265</ele>
        <time>2022-04-28T09:09:28.000Z</time>
      </trkpt>
      <trkpt lat="47.27764" lon="-2.27945">
        <ele>12.199999809265</ele>
        <time>2022-04-28T09:09:29.000Z</time>
      </trkpt>
      <trkpt lat="47.27761" lon="-2.27954">
        <ele>12.199999809265</ele>
        <time>2022-04-28T09:09:31.000Z</time>
      </trkpt>
      <trkpt lat="47.27759" lon="-2.27965">
        <ele>12.199999809265</ele>
        <time>2022-04-28T09:09:33.000Z</time>
      </trkpt>
      <trkpt lat="47.27756" lon="-2.27983">
        <ele>12.199999809265</ele>
        <time>2022-04-28T09:09:36.000Z</time>
      </trkpt>
      <trkpt lat="47.27755" lon="-2.27989">
        <ele>12.199999809265</ele>
        <time>2022-04-28T09:09:37.000Z</time>
      </trkpt>
      <trkpt lat="47.27748" lon="-2.28026">
        <ele>12.199999809265</ele>
        <time>2022-04-28T09:09:43.000Z</time>
      </trkpt>
      <trkpt lat="47.27743" lon="-2.28061">
        <ele>12.60000038147</ele>
        <time>2022-04-28T09:09:48.000Z</time>
      </trkpt>
      <trkpt lat="47.27742" lon="-2.28069">
        <ele>13</ele>
        <time>2022-04-28T09:09:49.000Z</time>
      </trkpt>
      <trkpt lat="47.27742" lon="-2.28077">
        <ele>13.39999961853</ele>
        <time>2022-04-28T09:09:50.000Z</time>
      </trkpt>
      <trkpt lat="47.27741" lon="-2.28085">
        <ele>13.800000190735</ele>
        <time>2022-04-28T09:09:51.000Z</time>
      </trkpt>
      <trkpt lat="47.2774" lon="-2.28092">
        <ele>14.199999809265</ele>
        <time>2022-04-28T09:09:52.000Z</time>
      </trkpt>
      <trkpt lat="47.27738" lon="-2.28116">
        <ele>14.199999809265</ele>
        <time>2022-04-28T09:09:55.000Z</time>
      </trkpt>
      <trkpt lat="47.27735" lon="-2.2813">
        <ele>14.199999809265</ele>
        <time>2022-04-28T09:09:57.000Z</time>
      </trkpt>
      <trkpt lat="47.27729" lon="-2.28157">
        <ele>14.199999809265</ele>
        <time>2022-04-28T09:10:01.000Z</time>
      </trkpt>
      <trkpt lat="47.27724" lon="-2.28169">
        <ele>14.199999809265</ele>
        <time>2022-04-28T09:10:03.000Z</time>
      </trkpt>
      <trkpt lat="47.27719" lon="-2.28181">
        <ele>14.199999809265</ele>
        <time>2022-04-28T09:10:05.000Z</time>
      </trkpt>
      <trkpt lat="47.2771" lon="-2.28202">
        <ele>14.199999809265</ele>
        <time>2022-04-28T09:10:09.000Z</time>
      </trkpt>
      <trkpt lat="47.27701" lon="-2.28221">
        <ele>14.199999809265</ele>
        <time>2022-04-28T09:10:12.000Z</time>
      </trkpt>
      <trkpt lat="47.27688" lon="-2.28241">
        <ele>14.199999809265</ele>
        <time>2022-04-28T09:10:15.000Z</time>
      </trkpt>
      <trkpt lat="47.27664" lon="-2.28277">
        <ele>14.199999809265</ele>
        <time>2022-04-28T09:10:22.000Z</time>
      </trkpt>
      <trkpt lat="47.27662" lon="-2.28281">
        <ele>14.199999809265</ele>
        <time>2022-04-28T09:10:23.000Z</time>
      </trkpt>
      <trkpt lat="47.27658" lon="-2.28288">
        <ele>14.199999809265</ele>
        <time>2022-04-28T09:10:26.000Z</time>
      </trkpt>
      <trkpt lat="47.27658" lon="-2.28288">
        <ele>14.199999809265</ele>
        <time>2022-04-28T09:10:27.000Z</time>
      </trkpt>
      <trkpt lat="47.27655" lon="-2.28291">
        <ele>14.199999809265</ele>
        <time>2022-04-28T09:10:32.000Z</time>
      </trkpt>
      <trkpt lat="47.27653" lon="-2.28293">
        <ele>14.199999809265</ele>
        <time>2022-04-28T09:10:33.000Z</time>
      </trkpt>
      <trkpt lat="47.2764" lon="-2.28307">
        <ele>14.199999809265</ele>
        <time>2022-04-28T09:10:37.000Z</time>
      </trkpt>
      <trkpt lat="47.27613" lon="-2.28335">
        <ele>14.199999809265</ele>
        <time>2022-04-28T09:10:43.000Z</time>
      </trkpt>
      <trkpt lat="47.27587" lon="-2.28367">
        <ele>14.199999809265</ele>
        <time>2022-04-28T09:10:49.000Z</time>
      </trkpt>
      <trkpt lat="47.27578" lon="-2.28376">
        <ele>14.199999809265</ele>
        <time>2022-04-28T09:10:51.000Z</time>
      </trkpt>
      <trkpt lat="47.27566" lon="-2.28389">
        <ele>14.199999809265</ele>
        <time>2022-04-28T09:10:54.000Z</time>
      </trkpt>
      <trkpt lat="47.27553" lon="-2.28404">
        <ele>14.199999809265</ele>
        <time>2022-04-28T09:10:57.000Z</time>
      </trkpt>
      <trkpt lat="47.27545" lon="-2.28417">
        <ele>14.199999809265</ele>
        <time>2022-04-28T09:10:59.000Z</time>
      </trkpt>
      <trkpt lat="47.27525" lon="-2.28452">
        <ele>14.199999809265</ele>
        <time>2022-04-28T09:11:04.000Z</time>
      </trkpt>
      <trkpt lat="47.27522" lon="-2.28461">
        <ele>14.199999809265</ele>
        <time>2022-04-28T09:11:05.000Z</time>
      </trkpt>
      <trkpt lat="47.27506" lon="-2.28507">
        <ele>14.199999809265</ele>
        <time>2022-04-28T09:11:11.000Z</time>
      </trkpt>
      <trkpt lat="47.27488" lon="-2.28544">
        <ele>14.199999809265</ele>
        <time>2022-04-28T09:11:16.000Z</time>
      </trkpt>
      <trkpt lat="47.27485" lon="-2.28553">
        <ele>14.199999809265</ele>
        <time>2022-04-28T09:11:17.000Z</time>
      </trkpt>
      <trkpt lat="47.2747" lon="-2.28604">
        <ele>14.199999809265</ele>
        <time>2022-04-28T09:11:23.000Z</time>
      </trkpt>
      <trkpt lat="47.27467" lon="-2.28612">
        <ele>13.800000190735</ele>
        <time>2022-04-28T09:11:24.000Z</time>
      </trkpt>
      <trkpt lat="47.27463" lon="-2.28619">
        <ele>13.39999961853</ele>
        <time>2022-04-28T09:11:25.000Z</time>
      </trkpt>
      <trkpt lat="47.27459" lon="-2.28626">
        <ele>13</ele>
        <time>2022-04-28T09:11:26.000Z</time>
      </trkpt>
      <trkpt lat="47.27455" lon="-2.28633">
        <ele>12.60000038147</ele>
        <time>2022-04-28T09:11:27.000Z</time>
      </trkpt>
      <trkpt lat="47.27451" lon="-2.28638">
        <ele>12.199999809265</ele>
        <time>2022-04-28T09:11:28.000Z</time>
      </trkpt>
      <trkpt lat="47.27447" lon="-2.28642">
        <ele>12.199999809265</ele>
        <time>2022-04-28T09:11:29.000Z</time>
      </trkpt>
      <trkpt lat="47.27426" lon="-2.28644">
        <ele>12.199999809265</ele>
        <time>2022-04-28T09:11:33.000Z</time>
      </trkpt>
      <trkpt lat="47.27392" lon="-2.28631">
        <ele>12.199999809265</ele>
        <time>2022-04-28T09:11:39.000Z</time>
      </trkpt>
      <trkpt lat="47.2736" lon="-2.28613">
        <ele>12.199999809265</ele>
        <time>2022-04-28T09:11:45.000Z</time>
      </trkpt>
      <trkpt lat="47.27333" lon="-2.28603">
        <ele>12.60000038147</ele>
        <time>2022-04-28T09:11:50.000Z</time>
      </trkpt>
      <trkpt lat="47.27326" lon="-2.28602">
        <ele>13</ele>
        <time>2022-04-28T09:11:51.000Z</time>
      </trkpt>
      <trkpt lat="47.27321" lon="-2.286">
        <ele>13.60000038147</ele>
        <time>2022-04-28T09:11:52.000Z</time>
      </trkpt>
      <trkpt lat="47.27315" lon="-2.28598">
        <ele>14</ele>
        <time>2022-04-28T09:11:53.000Z</time>
      </trkpt>
      <trkpt lat="47.2731" lon="-2.28596">
        <ele>14.39999961853</ele>
        <time>2022-04-28T09:11:54.000Z</time>
      </trkpt>
      <trkpt lat="47.27282" lon="-2.28588">
        <ele>14.39999961853</ele>
        <time>2022-04-28T09:11:59.000Z</time>
      </trkpt>
      <trkpt lat="47.27254" lon="-2.28585">
        <ele>14.39999961853</ele>
        <time>2022-04-28T09:12:04.000Z</time>
      </trkpt>
      <trkpt lat="47.27236" lon="-2.28588">
        <ele>14.39999961853</ele>
        <time>2022-04-28T09:12:07.000Z</time>
      </trkpt>
      <trkpt lat="47.27218" lon="-2.2859">
        <ele>14.39999961853</ele>
        <time>2022-04-28T09:12:10.000Z</time>
      </trkpt>
      <trkpt lat="47.27192" lon="-2.28596">
        <ele>14.39999961853</ele>
        <time>2022-04-28T09:12:15.000Z</time>
      </trkpt>
      <trkpt lat="47.27189" lon="-2.286">
        <ele>14.39999961853</ele>
        <time>2022-04-28T09:12:16.000Z</time>
      </trkpt>
      <trkpt lat="47.27185" lon="-2.28611">
        <ele>14.39999961853</ele>
        <time>2022-04-28T09:12:18.000Z</time>
      </trkpt>
      <trkpt lat="47.27183" lon="-2.28633">
        <ele>14.39999961853</ele>
        <time>2022-04-28T09:12:22.000Z</time>
      </trkpt>
      <trkpt lat="47.27183" lon="-2.28638">
        <ele>14.39999961853</ele>
        <time>2022-04-28T09:12:23.000Z</time>
      </trkpt>
      <trkpt lat="47.27184" lon="-2.28649">
        <ele>14.39999961853</ele>
        <time>2022-04-28T09:12:27.000Z</time>
      </trkpt>
      <trkpt lat="47.27185" lon="-2.28653">
        <ele>14.39999961853</ele>
        <time>2022-04-28T09:12:31.000Z</time>
      </trkpt>
      <trkpt lat="47.27179" lon="-2.28701">
        <ele>14.39999961853</ele>
        <time>2022-04-28T09:13:20.000Z</time>
      </trkpt>
      <trkpt lat="47.2718" lon="-2.2872">
        <ele>14.39999961853</ele>
        <time>2022-04-28T09:13:24.000Z</time>
      </trkpt>
      <trkpt lat="47.27183" lon="-2.28755">
        <ele>14.39999961853</ele>
        <time>2022-04-28T09:13:30.000Z</time>
      </trkpt>
      <trkpt lat="47.2718" lon="-2.28804">
        <ele>14.39999961853</ele>
        <time>2022-04-28T09:13:36.000Z</time>
      </trkpt>
      <trkpt lat="47.27177" lon="-2.28847">
        <ele>14.39999961853</ele>
        <time>2022-04-28T09:13:42.000Z</time>
      </trkpt>
      <trkpt lat="47.27174" lon="-2.28882">
        <ele>14.39999961853</ele>
        <time>2022-04-28T09:13:47.000Z</time>
      </trkpt>
      <trkpt lat="47.27173" lon="-2.28897">
        <ele>14.39999961853</ele>
        <time>2022-04-28T09:13:49.000Z</time>
      </trkpt>
      <trkpt lat="47.27172" lon="-2.28924">
        <ele>14.39999961853</ele>
        <time>2022-04-28T09:13:52.000Z</time>
      </trkpt>
      <trkpt lat="47.27176" lon="-2.28969">
        <ele>14.39999961853</ele>
        <time>2022-04-28T09:13:57.000Z</time>
      </trkpt>
      <trkpt lat="47.27178" lon="-2.28987">
        <ele>14.39999961853</ele>
        <time>2022-04-28T09:13:59.000Z</time>
      </trkpt>
      <trkpt lat="47.27181" lon="-2.29013">
        <ele>14.39999961853</ele>
        <time>2022-04-28T09:14:02.000Z</time>
      </trkpt>
      <trkpt lat="47.27188" lon="-2.29055">
        <ele>14.39999961853</ele>
        <time>2022-04-28T09:14:07.000Z</time>
      </trkpt>
      <trkpt lat="47.27193" lon="-2.29095">
        <ele>14.39999961853</ele>
        <time>2022-04-28T09:14:12.000Z</time>
      </trkpt>
      <trkpt lat="47.27191" lon="-2.29102">
        <ele>14.39999961853</ele>
        <time>2022-04-28T09:14:13.000Z</time>
      </trkpt>
      <trkpt lat="47.27178" lon="-2.29109">
        <ele>14.39999961853</ele>
        <time>2022-04-28T09:14:16.000Z</time>
      </trkpt>
      <trkpt lat="47.27165" lon="-2.29104">
        <ele>14.39999961853</ele>
        <time>2022-04-28T09:14:19.000Z</time>
      </trkpt>
      <trkpt lat="47.27156" lon="-2.291">
        <ele>14.39999961853</ele>
        <time>2022-04-28T09:14:21.000Z</time>
      </trkpt>
      <trkpt lat="47.27143" lon="-2.29103">
        <ele>14.39999961853</ele>
        <time>2022-04-28T09:14:25.000Z</time>
      </trkpt>
      <trkpt lat="47.27136" lon="-2.29122">
        <ele>14.39999961853</ele>
        <time>2022-04-28T09:14:30.000Z</time>
      </trkpt>
      <trkpt lat="47.27125" lon="-2.29139">
        <ele>14.39999961853</ele>
        <time>2022-04-28T09:14:35.000Z</time>
      </trkpt>
      <trkpt lat="47.27119" lon="-2.29147">
        <ele>14.39999961853</ele>
        <time>2022-04-28T09:14:38.000Z</time>
      </trkpt>
      <trkpt lat="47.27119" lon="-2.2915">
        <ele>14.39999961853</ele>
        <time>2022-04-28T09:14:39.000Z</time>
      </trkpt>
      <trkpt lat="47.27123" lon="-2.29162">
        <ele>14.39999961853</ele>
        <time>2022-04-28T09:14:44.000Z</time>
      </trkpt>
      <trkpt lat="47.27133" lon="-2.29179">
        <ele>14.39999961853</ele>
        <time>2022-04-28T09:14:50.000Z</time>
      </trkpt>
      <trkpt lat="47.27129" lon="-2.29189">
        <ele>14.39999961853</ele>
        <time>2022-04-28T09:14:54.000Z</time>
      </trkpt>
      <trkpt lat="47.27127" lon="-2.29191">
        <ele>14.39999961853</ele>
        <time>2022-04-28T09:14:55.000Z</time>
      </trkpt>
      <trkpt lat="47.27108" lon="-2.29216">
        <ele>14.39999961853</ele>
        <time>2022-04-28T09:15:02.000Z</time>
      </trkpt>
      <trkpt lat="47.27093" lon="-2.29236">
        <ele>14.39999961853</ele>
        <time>2022-04-28T09:15:09.000Z</time>
      </trkpt>
      <trkpt lat="47.27089" lon="-2.29237">
        <ele>14.39999961853</ele>
        <time>2022-04-28T09:15:12.000Z</time>
      </trkpt>
      <trkpt lat="47.27088" lon="-2.29231">
        <ele>14.39999961853</ele>
        <time>2022-04-28T09:15:14.000Z</time>
      </trkpt>
      <trkpt lat="47.27089" lon="-2.29216">
        <ele>14.39999961853</ele>
        <time>2022-04-28T09:15:18.000Z</time>
      </trkpt>
      <trkpt lat="47.27087" lon="-2.29206">
        <ele>14.39999961853</ele>
        <time>2022-04-28T09:15:20.000Z</time>
      </trkpt>
      <trkpt lat="47.27083" lon="-2.29187">
        <ele>14.39999961853</ele>
        <time>2022-04-28T09:15:23.000Z</time>
      </trkpt>
      <trkpt lat="47.27074" lon="-2.2914">
        <ele>14.39999961853</ele>
        <time>2022-04-28T09:15:30.000Z</time>
      </trkpt>
      <trkpt lat="47.27062" lon="-2.29098">
        <ele>14.39999961853</ele>
        <time>2022-04-28T09:15:36.000Z</time>
      </trkpt>
      <trkpt lat="47.2705" lon="-2.29057">
        <ele>14.39999961853</ele>
        <time>2022-04-28T09:15:42.000Z</time>
      </trkpt>
      <trkpt lat="47.27036" lon="-2.29019">
        <ele>14.39999961853</ele>
        <time>2022-04-28T09:15:48.000Z</time>
      </trkpt>
      <trkpt lat="47.27027" lon="-2.29013">
        <ele>14.39999961853</ele>
        <time>2022-04-28T09:15:51.000Z</time>
      </trkpt>
      <trkpt lat="47.27024" lon="-2.29012">
        <ele>14.39999961853</ele>
        <time>2022-04-28T09:15:52.000Z</time>
      </trkpt>
      <trkpt lat="47.27001" lon="-2.29005">
        <ele>14.39999961853</ele>
        <time>2022-04-28T09:15:58.000Z</time>
      </trkpt>
      <trkpt lat="47.26993" lon="-2.29002">
        <ele>14.39999961853</ele>
        <time>2022-04-28T09:16:00.000Z</time>
      </trkpt>
      <trkpt lat="47.26974" lon="-2.28998">
        <ele>14.39999961853</ele>
        <time>2022-04-28T09:16:04.000Z</time>
      </trkpt>
      <trkpt lat="47.2695" lon="-2.28992">
        <ele>14.39999961853</ele>
        <time>2022-04-28T09:16:09.000Z</time>
      </trkpt>
      <trkpt lat="47.26935" lon="-2.28991">
        <ele>14.39999961853</ele>
        <time>2022-04-28T09:16:12.000Z</time>
      </trkpt>
      <trkpt lat="47.26925" lon="-2.28993">
        <ele>14.39999961853</ele>
        <time>2022-04-28T09:16:14.000Z</time>
      </trkpt>
      <trkpt lat="47.2692" lon="-2.28996">
        <ele>14.39999961853</ele>
        <time>2022-04-28T09:16:15.000Z</time>
      </trkpt>
      <trkpt lat="47.2689" lon="-2.29012">
        <ele>14.39999961853</ele>
        <time>2022-04-28T09:16:21.000Z</time>
      </trkpt>
      <trkpt lat="47.26865" lon="-2.29034">
        <ele>14.39999961853</ele>
        <time>2022-04-28T09:16:26.000Z</time>
      </trkpt>
      <trkpt lat="47.2685" lon="-2.29048">
        <ele>14.39999961853</ele>
        <time>2022-04-28T09:16:29.000Z</time>
      </trkpt>
      <trkpt lat="47.26835" lon="-2.29063">
        <ele>14.39999961853</ele>
        <time>2022-04-28T09:16:32.000Z</time>
      </trkpt>
      <trkpt lat="47.26799" lon="-2.29099">
        <ele>14.39999961853</ele>
        <time>2022-04-28T09:16:39.000Z</time>
      </trkpt>
      <trkpt lat="47.26794" lon="-2.29103">
        <ele>14.800000190735</ele>
        <time>2022-04-28T09:16:40.000Z</time>
      </trkpt>
      <trkpt lat="47.26789" lon="-2.29108">
        <ele>15.199999809265</ele>
        <time>2022-04-28T09:16:41.000Z</time>
      </trkpt>
      <trkpt lat="47.26784" lon="-2.29113">
        <ele>15.60000038147</ele>
        <time>2022-04-28T09:16:42.000Z</time>
      </trkpt>
      <trkpt lat="47.2678" lon="-2.29118">
        <ele>16</ele>
        <time>2022-04-28T09:16:43.000Z</time>
      </trkpt>
      <trkpt lat="47.26775" lon="-2.29122">
        <ele>16.39999961853</ele>
        <time>2022-04-28T09:16:44.000Z</time>
      </trkpt>
      <trkpt lat="47.2676" lon="-2.29136">
        <ele>16.39999961853</ele>
        <time>2022-04-28T09:16:47.000Z</time>
      </trkpt>
      <trkpt lat="47.26751" lon="-2.29145">
        <ele>16.39999961853</ele>
        <time>2022-04-28T09:16:49.000Z</time>
      </trkpt>
      <trkpt lat="47.26747" lon="-2.29149">
        <ele>16.39999961853</ele>
        <time>2022-04-28T09:16:50.000Z</time>
      </trkpt>
      <trkpt lat="47.26742" lon="-2.29153">
        <ele>16.799999237061</ele>
        <time>2022-04-28T09:16:51.000Z</time>
      </trkpt>
      <trkpt lat="47.26738" lon="-2.29158">
        <ele>17.200000762939</ele>
        <time>2022-04-28T09:16:52.000Z</time>
      </trkpt>
      <trkpt lat="47.26733" lon="-2.29163">
        <ele>17.799999237061</ele>
        <time>2022-04-28T09:16:53.000Z</time>
      </trkpt>
      <trkpt lat="47.26729" lon="-2.29168">
        <ele>18.200000762939</ele>
        <time>2022-04-28T09:16:54.000Z</time>
      </trkpt>
      <trkpt lat="47.26724" lon="-2.29172">
        <ele>18.60000038147</ele>
        <time>2022-04-28T09:16:55.000Z</time>
      </trkpt>
      <trkpt lat="47.26702" lon="-2.29193">
        <ele>19</ele>
        <time>2022-04-28T09:17:00.000Z</time>
      </trkpt>
      <trkpt lat="47.26698" lon="-2.29197">
        <ele>19.39999961853</ele>
        <time>2022-04-28T09:17:01.000Z</time>
      </trkpt>
      <trkpt lat="47.26694" lon="-2.29202">
        <ele>19.799999237061</ele>
        <time>2022-04-28T09:17:02.000Z</time>
      </trkpt>
      <trkpt lat="47.2669" lon="-2.29206">
        <ele>20.39999961853</ele>
        <time>2022-04-28T09:17:03.000Z</time>
      </trkpt>
      <trkpt lat="47.26685" lon="-2.2921">
        <ele>20.799999237061</ele>
        <time>2022-04-28T09:17:04.000Z</time>
      </trkpt>
      <trkpt lat="47.26673" lon="-2.29223">
        <ele>20.799999237061</ele>
        <time>2022-04-28T09:17:07.000Z</time>
      </trkpt>
      <trkpt lat="47.26664" lon="-2.29232">
        <ele>20.799999237061</ele>
        <time>2022-04-28T09:17:09.000Z</time>
      </trkpt>
      <trkpt lat="47.26652" lon="-2.29245">
        <ele>20.799999237061</ele>
        <time>2022-04-28T09:17:12.000Z</time>
      </trkpt>
      <trkpt lat="47.26648" lon="-2.29249">
        <ele>20.799999237061</ele>
        <time>2022-04-28T09:17:13.000Z</time>
      </trkpt>
      <trkpt lat="47.26628" lon="-2.29267">
        <ele>20.799999237061</ele>
        <time>2022-04-28T09:17:18.000Z</time>
      </trkpt>
      <trkpt lat="47.26624" lon="-2.2927">
        <ele>21.200000762939</ele>
        <time>2022-04-28T09:17:19.000Z</time>
      </trkpt>
      <trkpt lat="47.26619" lon="-2.29273">
        <ele>21.60000038147</ele>
        <time>2022-04-28T09:17:20.000Z</time>
      </trkpt>
      <trkpt lat="47.26615" lon="-2.29276">
        <ele>22</ele>
        <time>2022-04-28T09:17:21.000Z</time>
      </trkpt>
      <trkpt lat="47.2661" lon="-2.29279">
        <ele>22.39999961853</ele>
        <time>2022-04-28T09:17:22.000Z</time>
      </trkpt>
      <trkpt lat="47.26606" lon="-2.29282">
        <ele>22.799999237061</ele>
        <time>2022-04-28T09:17:23.000Z</time>
      </trkpt>
      <trkpt lat="47.26597" lon="-2.29288">
        <ele>22.799999237061</ele>
        <time>2022-04-28T09:17:25.000Z</time>
      </trkpt>
      <trkpt lat="47.26561" lon="-2.2931">
        <ele>22.799999237061</ele>
        <time>2022-04-28T09:17:33.000Z</time>
      </trkpt>
      <trkpt lat="47.26538" lon="-2.29323">
        <ele>23.39999961853</ele>
        <time>2022-04-28T09:17:38.000Z</time>
      </trkpt>
      <trkpt lat="47.26533" lon="-2.29326">
        <ele>23.799999237061</ele>
        <time>2022-04-28T09:17:39.000Z</time>
      </trkpt>
      <trkpt lat="47.26529" lon="-2.29328">
        <ele>24.200000762939</ele>
        <time>2022-04-28T09:17:40.000Z</time>
      </trkpt>
      <trkpt lat="47.26524" lon="-2.29329">
        <ele>24.60000038147</ele>
        <time>2022-04-28T09:17:41.000Z</time>
      </trkpt>
      <trkpt lat="47.26519" lon="-2.29331">
        <ele>25</ele>
        <time>2022-04-28T09:17:42.000Z</time>
      </trkpt>
      <trkpt lat="47.26491" lon="-2.29339">
        <ele>25</ele>
        <time>2022-04-28T09:17:48.000Z</time>
      </trkpt>
      <trkpt lat="47.26486" lon="-2.29338">
        <ele>25</ele>
        <time>2022-04-28T09:17:49.000Z</time>
      </trkpt>
      <trkpt lat="47.26468" lon="-2.29335">
        <ele>25</ele>
        <time>2022-04-28T09:17:53.000Z</time>
      </trkpt>
      <trkpt lat="47.26436" lon="-2.29321">
        <ele>25</ele>
        <time>2022-04-28T09:17:59.000Z</time>
      </trkpt>
      <trkpt lat="47.26394" lon="-2.29298">
        <ele>25</ele>
        <time>2022-04-28T09:18:07.000Z</time>
      </trkpt>
      <trkpt lat="47.26358" lon="-2.29281">
        <ele>25</ele>
        <time>2022-04-28T09:18:14.000Z</time>
      </trkpt>
      <trkpt lat="47.26319" lon="-2.29273">
        <ele>25</ele>
        <time>2022-04-28T09:18:21.000Z</time>
      </trkpt>
      <trkpt lat="47.26284" lon="-2.29282">
        <ele>25</ele>
        <time>2022-04-28T09:18:27.000Z</time>
      </trkpt>
      <trkpt lat="47.2626" lon="-2.29296">
        <ele>24.60000038147</ele>
        <time>2022-04-28T09:18:31.000Z</time>
      </trkpt>
      <trkpt lat="47.26254" lon="-2.29301">
        <ele>24.200000762939</ele>
        <time>2022-04-28T09:18:32.000Z</time>
      </trkpt>
      <trkpt lat="47.26248" lon="-2.29305">
        <ele>23.799999237061</ele>
        <time>2022-04-28T09:18:33.000Z</time>
      </trkpt>
      <trkpt lat="47.26242" lon="-2.2931">
        <ele>23.200000762939</ele>
        <time>2022-04-28T09:18:34.000Z</time>
      </trkpt>
      <trkpt lat="47.26237" lon="-2.29315">
        <ele>22.799999237061</ele>
        <time>2022-04-28T09:18:35.000Z</time>
      </trkpt>
      <trkpt lat="47.26209" lon="-2.2934">
        <ele>22.799999237061</ele>
        <time>2022-04-28T09:18:40.000Z</time>
      </trkpt>
      <trkpt lat="47.2619" lon="-2.29352">
        <ele>22.39999961853</ele>
        <time>2022-04-28T09:18:43.000Z</time>
      </trkpt>
      <trkpt lat="47.26184" lon="-2.29356">
        <ele>22</ele>
        <time>2022-04-28T09:18:44.000Z</time>
      </trkpt>
      <trkpt lat="47.26179" lon="-2.2936">
        <ele>21.60000038147</ele>
        <time>2022-04-28T09:18:45.000Z</time>
      </trkpt>
      <trkpt lat="47.26173" lon="-2.29362">
        <ele>21.200000762939</ele>
        <time>2022-04-28T09:18:46.000Z</time>
      </trkpt>
      <trkpt lat="47.26166" lon="-2.29363">
        <ele>20.799999237061</ele>
        <time>2022-04-28T09:18:47.000Z</time>
      </trkpt>
      <trkpt lat="47.26154" lon="-2.2936">
        <ele>20.799999237061</ele>
        <time>2022-04-28T09:18:49.000Z</time>
      </trkpt>
      <trkpt lat="47.26149" lon="-2.29358">
        <ele>20.39999961853</ele>
        <time>2022-04-28T09:18:50.000Z</time>
      </trkpt>
      <trkpt lat="47.26144" lon="-2.29355">
        <ele>20</ele>
        <time>2022-04-28T09:18:51.000Z</time>
      </trkpt>
      <trkpt lat="47.2614" lon="-2.29354">
        <ele>19.60000038147</ele>
        <time>2022-04-28T09:18:52.000Z</time>
      </trkpt>
      <trkpt lat="47.26138" lon="-2.29355">
        <ele>19</ele>
        <time>2022-04-28T09:18:53.000Z</time>
      </trkpt>
      <trkpt lat="47.26136" lon="-2.29355">
        <ele>18.60000038147</ele>
        <time>2022-04-28T09:18:54.000Z</time>
      </trkpt>
      <trkpt lat="47.26133" lon="-2.29349">
        <ele>18.200000762939</ele>
        <time>2022-04-28T09:18:56.000Z</time>
      </trkpt>
      <trkpt lat="47.26132" lon="-2.29345">
        <ele>17.799999237061</ele>
        <time>2022-04-28T09:18:57.000Z</time>
      </trkpt>
      <trkpt lat="47.26132" lon="-2.2934">
        <ele>17.39999961853</ele>
        <time>2022-04-28T09:18:58.000Z</time>
      </trkpt>
      <trkpt lat="47.26133" lon="-2.29336">
        <ele>17</ele>
        <time>2022-04-28T09:18:59.000Z</time>
      </trkpt>
      <trkpt lat="47.26134" lon="-2.29334">
        <ele>16.60000038147</ele>
        <time>2022-04-28T09:19:00.000Z</time>
      </trkpt>
      <trkpt lat="47.26139" lon="-2.29337">
        <ele>16.60000038147</ele>
        <time>2022-04-28T09:19:03.000Z</time>
      </trkpt>
      <trkpt lat="47.26135" lon="-2.29342">
        <ele>16.60000038147</ele>
        <time>2022-04-28T09:19:06.000Z</time>
      </trkpt>
      <trkpt lat="47.26134" lon="-2.29344">
        <ele>16.60000038147</ele>
        <time>2022-04-28T09:19:07.000Z</time>
      </trkpt>
      <trkpt lat="47.26133" lon="-2.29349">
        <ele>16.60000038147</ele>
        <time>2022-04-28T09:19:09.000Z</time>
      </trkpt>
      <trkpt lat="47.26134" lon="-2.29354">
        <ele>16.60000038147</ele>
        <time>2022-04-28T09:19:11.000Z</time>
      </trkpt>
      <trkpt lat="47.26135" lon="-2.2936">
        <ele>16.60000038147</ele>
        <time>2022-04-28T09:19:14.000Z</time>
      </trkpt>
      <trkpt lat="47.26133" lon="-2.29367">
        <ele>16.60000038147</ele>
        <time>2022-04-28T09:19:18.000Z</time>
      </trkpt>
      <trkpt lat="47.2613" lon="-2.29381">
        <ele>16.60000038147</ele>
        <time>2022-04-28T09:19:23.000Z</time>
      </trkpt>
      <trkpt lat="47.26129" lon="-2.29391">
        <ele>16.60000038147</ele>
        <time>2022-04-28T09:19:26.000Z</time>
      </trkpt>
      <trkpt lat="47.26127" lon="-2.29398">
        <ele>16.60000038147</ele>
        <time>2022-04-28T09:19:28.000Z</time>
      </trkpt>
      <trkpt lat="47.26123" lon="-2.29427">
        <ele>16.60000038147</ele>
        <time>2022-04-28T09:19:34.000Z</time>
      </trkpt>
      <trkpt lat="47.26124" lon="-2.29453">
        <ele>16.60000038147</ele>
        <time>2022-04-28T09:19:39.000Z</time>
      </trkpt>
      <trkpt lat="47.26133" lon="-2.29483">
        <ele>16.60000038147</ele>
        <time>2022-04-28T09:19:45.000Z</time>
      </trkpt>
      <trkpt lat="47.26152" lon="-2.29517">
        <ele>16.60000038147</ele>
        <time>2022-04-28T09:19:53.000Z</time>
      </trkpt>
      <trkpt lat="47.26163" lon="-2.29524">
        <ele>17</ele>
        <time>2022-04-28T09:19:56.000Z</time>
      </trkpt>
      <trkpt lat="47.26166" lon="-2.29527">
        <ele>17.39999961853</ele>
        <time>2022-04-28T09:19:57.000Z</time>
      </trkpt>
      <trkpt lat="47.26169" lon="-2.29529">
        <ele>17.799999237061</ele>
        <time>2022-04-28T09:19:58.000Z</time>
      </trkpt>
      <trkpt lat="47.26173" lon="-2.2953">
        <ele>18.200000762939</ele>
        <time>2022-04-28T09:19:59.000Z</time>
      </trkpt>
      <trkpt lat="47.26176" lon="-2.29532">
        <ele>18.60000038147</ele>
        <time>2022-04-28T09:20:00.000Z</time>
      </trkpt>
      <trkpt lat="47.26187" lon="-2.29541">
        <ele>18.60000038147</ele>
        <time>2022-04-28T09:20:03.000Z</time>
      </trkpt>
      <trkpt lat="47.2619" lon="-2.29546">
        <ele>18.60000038147</ele>
        <time>2022-04-28T09:20:04.000Z</time>
      </trkpt>
      <trkpt lat="47.26195" lon="-2.29563">
        <ele>18.60000038147</ele>
        <time>2022-04-28T09:20:07.000Z</time>
      </trkpt>
      <trkpt lat="47.26195" lon="-2.29568">
        <ele>18.60000038147</ele>
        <time>2022-04-28T09:20:08.000Z</time>
      </trkpt>
      <trkpt lat="47.262" lon="-2.29583">
        <ele>18.60000038147</ele>
        <time>2022-04-28T09:20:12.000Z</time>
      </trkpt>
      <trkpt lat="47.26208" lon="-2.29606">
        <ele>18.60000038147</ele>
        <time>2022-04-28T09:20:17.000Z</time>
      </trkpt>
      <trkpt lat="47.26221" lon="-2.29643">
        <ele>19</ele>
        <time>2022-04-28T09:20:24.000Z</time>
      </trkpt>
      <trkpt lat="47.26224" lon="-2.29648">
        <ele>19.39999961853</ele>
        <time>2022-04-28T09:20:25.000Z</time>
      </trkpt>
      <trkpt lat="47.26226" lon="-2.29653">
        <ele>20</ele>
        <time>2022-04-28T09:20:26.000Z</time>
      </trkpt>
      <trkpt lat="47.26229" lon="-2.29656">
        <ele>20.39999961853</ele>
        <time>2022-04-28T09:20:27.000Z</time>
      </trkpt>
      <trkpt lat="47.26233" lon="-2.2966">
        <ele>20.799999237061</ele>
        <time>2022-04-28T09:20:28.000Z</time>
      </trkpt>
      <trkpt lat="47.26237" lon="-2.29662">
        <ele>20.799999237061</ele>
        <time>2022-04-28T09:20:29.000Z</time>
      </trkpt>
      <trkpt lat="47.26245" lon="-2.29666">
        <ele>20.799999237061</ele>
        <time>2022-04-28T09:20:31.000Z</time>
      </trkpt>
      <trkpt lat="47.26262" lon="-2.2967">
        <ele>20.799999237061</ele>
        <time>2022-04-28T09:20:35.000Z</time>
      </trkpt>
      <trkpt lat="47.26282" lon="-2.29674">
        <ele>21.200000762939</ele>
        <time>2022-04-28T09:20:40.000Z</time>
      </trkpt>
      <trkpt lat="47.26286" lon="-2.29675">
        <ele>21.60000038147</ele>
        <time>2022-04-28T09:20:41.000Z</time>
      </trkpt>
      <trkpt lat="47.26289" lon="-2.29676">
        <ele>22.39999961853</ele>
        <time>2022-04-28T09:20:42.000Z</time>
      </trkpt>
      <trkpt lat="47.26293" lon="-2.29677">
        <ele>22.799999237061</ele>
        <time>2022-04-28T09:20:43.000Z</time>
      </trkpt>
      <trkpt lat="47.26316" lon="-2.29681">
        <ele>22.799999237061</ele>
        <time>2022-04-28T09:20:50.000Z</time>
      </trkpt>
      <trkpt lat="47.26321" lon="-2.29687">
        <ele>22.799999237061</ele>
        <time>2022-04-28T09:20:52.000Z</time>
      </trkpt>
      <trkpt lat="47.26322" lon="-2.29692">
        <ele>22.799999237061</ele>
        <time>2022-04-28T09:20:53.000Z</time>
      </trkpt>
      <trkpt lat="47.26329" lon="-2.29719">
        <ele>22.799999237061</ele>
        <time>2022-04-28T09:20:58.000Z</time>
      </trkpt>
      <trkpt lat="47.26338" lon="-2.29754">
        <ele>22.799999237061</ele>
        <time>2022-04-28T09:21:05.000Z</time>
      </trkpt>
      <trkpt lat="47.26344" lon="-2.29778">
        <ele>22.799999237061</ele>
        <time>2022-04-28T09:21:11.000Z</time>
      </trkpt>
      <trkpt lat="47.26345" lon="-2.2978">
        <ele>22.799999237061</ele>
        <time>2022-04-28T09:21:13.000Z</time>
      </trkpt>
      <trkpt lat="47.26343" lon="-2.29784">
        <ele>20.799999237061</ele>
        <time>2022-04-28T09:21:51.000Z</time>
      </trkpt>
      <trkpt lat="47.26343" lon="-2.29787">
        <ele>20.799999237061</ele>
        <time>2022-04-28T09:21:52.000Z</time>
      </trkpt>
      <trkpt lat="47.26338" lon="-2.29794">
        <ele>20.799999237061</ele>
        <time>2022-04-28T09:21:57.000Z</time>
      </trkpt>
      <trkpt lat="47.26328" lon="-2.29803">
        <ele>20.799999237061</ele>
        <time>2022-04-28T09:22:01.000Z</time>
      </trkpt>
      <trkpt lat="47.26315" lon="-2.29811">
        <ele>20.799999237061</ele>
        <time>2022-04-28T09:22:05.000Z</time>
      </trkpt>
      <trkpt lat="47.26291" lon="-2.29823">
        <ele>20.799999237061</ele>
        <time>2022-04-28T09:22:11.000Z</time>
      </trkpt>
      <trkpt lat="47.26261" lon="-2.29832">
        <ele>20.799999237061</ele>
        <time>2022-04-28T09:22:17.000Z</time>
      </trkpt>
      <trkpt lat="47.26255" lon="-2.29833">
        <ele>20.39999961853</ele>
        <time>2022-04-28T09:22:18.000Z</time>
      </trkpt>
      <trkpt lat="47.26249" lon="-2.29835">
        <ele>20</ele>
        <time>2022-04-28T09:22:19.000Z</time>
      </trkpt>
      <trkpt lat="47.26244" lon="-2.29837">
        <ele>19.60000038147</ele>
        <time>2022-04-28T09:22:20.000Z</time>
      </trkpt>
      <trkpt lat="47.26238" lon="-2.29838">
        <ele>18.60000038147</ele>
        <time>2022-04-28T09:22:21.000Z</time>
      </trkpt>
      <trkpt lat="47.26227" lon="-2.29839">
        <ele>18.60000038147</ele>
        <time>2022-04-28T09:22:23.000Z</time>
      </trkpt>
      <trkpt lat="47.26222" lon="-2.29841">
        <ele>18.60000038147</ele>
        <time>2022-04-28T09:22:24.000Z</time>
      </trkpt>
      <trkpt lat="47.26218" lon="-2.29845">
        <ele>18.200000762939</ele>
        <time>2022-04-28T09:22:25.000Z</time>
      </trkpt>
      <trkpt lat="47.26217" lon="-2.29851">
        <ele>17.799999237061</ele>
        <time>2022-04-28T09:22:26.000Z</time>
      </trkpt>
      <trkpt lat="47.26216" lon="-2.29857">
        <ele>17.39999961853</ele>
        <time>2022-04-28T09:22:27.000Z</time>
      </trkpt>
      <trkpt lat="47.26216" lon="-2.29864">
        <ele>17</ele>
        <time>2022-04-28T09:22:28.000Z</time>
      </trkpt>
      <trkpt lat="47.26218" lon="-2.2987">
        <ele>16.60000038147</ele>
        <time>2022-04-28T09:22:29.000Z</time>
      </trkpt>
      <trkpt lat="47.26219" lon="-2.29884">
        <ele>16.60000038147</ele>
        <time>2022-04-28T09:22:31.000Z</time>
      </trkpt>
      <trkpt lat="47.26219" lon="-2.29891">
        <ele>16.60000038147</ele>
        <time>2022-04-28T09:22:32.000Z</time>
      </trkpt>
      <trkpt lat="47.26221" lon="-2.29929">
        <ele>16.60000038147</ele>
        <time>2022-04-28T09:22:37.000Z</time>
      </trkpt>
      <trkpt lat="47.26225" lon="-2.29984">
        <ele>16.60000038147</ele>
        <time>2022-04-28T09:22:44.000Z</time>
      </trkpt>
      <trkpt lat="47.26224" lon="-2.30035">
        <ele>16.60000038147</ele>
        <time>2022-04-28T09:22:50.000Z</time>
      </trkpt>
      <trkpt lat="47.26226" lon="-2.30051">
        <ele>16.60000038147</ele>
        <time>2022-04-28T09:22:52.000Z</time>
      </trkpt>
      <trkpt lat="47.26232" lon="-2.30071">
        <ele>16.60000038147</ele>
        <time>2022-04-28T09:22:55.000Z</time>
      </trkpt>
      <trkpt lat="47.26236" lon="-2.30084">
        <ele>16.60000038147</ele>
        <time>2022-04-28T09:22:57.000Z</time>
      </trkpt>
      <trkpt lat="47.26243" lon="-2.30111">
        <ele>16.60000038147</ele>
        <time>2022-04-28T09:23:01.000Z</time>
      </trkpt>
      <trkpt lat="47.26242" lon="-2.30126">
        <ele>16.60000038147</ele>
        <time>2022-04-28T09:23:04.000Z</time>
      </trkpt>
      <trkpt lat="47.26238" lon="-2.30128">
        <ele>16.200000762939</ele>
        <time>2022-04-28T09:23:06.000Z</time>
      </trkpt>
      <trkpt lat="47.26235" lon="-2.30129">
        <ele>15.800000190735</ele>
        <time>2022-04-28T09:23:07.000Z</time>
      </trkpt>
      <trkpt lat="47.26231" lon="-2.30131">
        <ele>15.39999961853</ele>
        <time>2022-04-28T09:23:08.000Z</time>
      </trkpt>
      <trkpt lat="47.26228" lon="-2.30133">
        <ele>15</ele>
        <time>2022-04-28T09:23:09.000Z</time>
      </trkpt>
      <trkpt lat="47.26224" lon="-2.30135">
        <ele>14.60000038147</ele>
        <time>2022-04-28T09:23:10.000Z</time>
      </trkpt>
      <trkpt lat="47.26219" lon="-2.30136">
        <ele>14.60000038147</ele>
        <time>2022-04-28T09:23:11.000Z</time>
      </trkpt>
      <trkpt lat="47.2619" lon="-2.3015">
        <ele>14.60000038147</ele>
        <time>2022-04-28T09:23:17.000Z</time>
      </trkpt>
      <trkpt lat="47.26173" lon="-2.30155">
        <ele>14</ele>
        <time>2022-04-28T09:23:21.000Z</time>
      </trkpt>
      <trkpt lat="47.26172" lon="-2.30152">
        <ele>13.60000038147</ele>
        <time>2022-04-28T09:23:22.000Z</time>
      </trkpt>
      <trkpt lat="47.2617" lon="-2.30148">
        <ele>13.199999809265</ele>
        <time>2022-04-28T09:23:23.000Z</time>
      </trkpt>
      <trkpt lat="47.26169" lon="-2.30145">
        <ele>12.60000038147</ele>
        <time>2022-04-28T09:23:24.000Z</time>
      </trkpt>
      <trkpt lat="47.26168" lon="-2.30144">
        <ele>12.199999809265</ele>
        <time>2022-04-28T09:23:25.000Z</time>
      </trkpt>
      <trkpt lat="47.26164" lon="-2.30146">
        <ele>12.199999809265</ele>
        <time>2022-04-28T09:23:27.000Z</time>
      </trkpt>
      <trkpt lat="47.26158" lon="-2.30149">
        <ele>12.199999809265</ele>
        <time>2022-04-28T09:23:29.000Z</time>
      </trkpt>
      <trkpt lat="47.26146" lon="-2.30154">
        <ele>12.199999809265</ele>
        <time>2022-04-28T09:23:32.000Z</time>
      </trkpt>
      <trkpt lat="47.26136" lon="-2.30157">
        <ele>11.800000190735</ele>
        <time>2022-04-28T09:23:34.000Z</time>
      </trkpt>
      <trkpt lat="47.26131" lon="-2.30158">
        <ele>11.39999961853</ele>
        <time>2022-04-28T09:23:35.000Z</time>
      </trkpt>
      <trkpt lat="47.26126" lon="-2.3016">
        <ele>11</ele>
        <time>2022-04-28T09:23:36.000Z</time>
      </trkpt>
      <trkpt lat="47.2612" lon="-2.30161">
        <ele>10.60000038147</ele>
        <time>2022-04-28T09:23:37.000Z</time>
      </trkpt>
      <trkpt lat="47.26115" lon="-2.30163">
        <ele>10.199999809265</ele>
        <time>2022-04-28T09:23:38.000Z</time>
      </trkpt>
      <trkpt lat="47.26104" lon="-2.30165">
        <ele>9.8000001907349</ele>
        <time>2022-04-28T09:23:41.000Z</time>
      </trkpt>
      <trkpt lat="47.26102" lon="-2.30162">
        <ele>9.3999996185303</ele>
        <time>2022-04-28T09:23:42.000Z</time>
      </trkpt>
      <trkpt lat="47.261" lon="-2.30158">
        <ele>9</ele>
        <time>2022-04-28T09:23:43.000Z</time>
      </trkpt>
      <trkpt lat="47.26098" lon="-2.30155">
        <ele>8.3999996185303</ele>
        <time>2022-04-28T09:23:44.000Z</time>
      </trkpt>
      <trkpt lat="47.26096" lon="-2.30153">
        <ele>8</ele>
        <time>2022-04-28T09:23:45.000Z</time>
      </trkpt>
      <trkpt lat="47.26093" lon="-2.30153">
        <ele>8</ele>
        <time>2022-04-28T09:23:46.000Z</time>
      </trkpt>
      <trkpt lat="47.2608" lon="-2.30155">
        <ele>8</ele>
        <time>2022-04-28T09:23:49.000Z</time>
      </trkpt>
      <trkpt lat="47.26076" lon="-2.30154">
        <ele>8</ele>
        <time>2022-04-28T09:23:50.000Z</time>
      </trkpt>
      <trkpt lat="47.26066" lon="-2.30146">
        <ele>8</ele>
        <time>2022-04-28T09:23:53.000Z</time>
      </trkpt>
      <trkpt lat="47.26062" lon="-2.30142">
        <ele>8</ele>
        <time>2022-04-28T09:23:54.000Z</time>
      </trkpt>
      <trkpt lat="47.26057" lon="-2.30139">
        <ele>7.5999999046326</ele>
        <time>2022-04-28T09:23:55.000Z</time>
      </trkpt>
      <trkpt lat="47.26052" lon="-2.3014">
        <ele>7.1999998092651</ele>
        <time>2022-04-28T09:23:56.000Z</time>
      </trkpt>
      <trkpt lat="47.26046" lon="-2.30141">
        <ele>6.8000001907349</ele>
        <time>2022-04-28T09:23:57.000Z</time>
      </trkpt>
      <trkpt lat="47.26041" lon="-2.30142">
        <ele>6.4000000953674</ele>
        <time>2022-04-28T09:23:58.000Z</time>
      </trkpt>
      <trkpt lat="47.26036" lon="-2.30142">
        <ele>6</ele>
        <time>2022-04-28T09:23:59.000Z</time>
      </trkpt>
      <trkpt lat="47.26026" lon="-2.30139">
        <ele>6</ele>
        <time>2022-04-28T09:24:01.000Z</time>
      </trkpt>
      <trkpt lat="47.26022" lon="-2.30137">
        <ele>6</ele>
        <time>2022-04-28T09:24:02.000Z</time>
      </trkpt>
      <trkpt lat="47.26017" lon="-2.30136">
        <ele>6</ele>
        <time>2022-04-28T09:24:03.000Z</time>
      </trkpt>
      <trkpt lat="47.26012" lon="-2.30137">
        <ele>5.5999999046326</ele>
        <time>2022-04-28T09:24:04.000Z</time>
      </trkpt>
      <trkpt lat="47.26006" lon="-2.30136">
        <ele>5.1999998092651</ele>
        <time>2022-04-28T09:24:05.000Z</time>
      </trkpt>
      <trkpt lat="47.26002" lon="-2.30136">
        <ele>4.5999999046326</ele>
        <time>2022-04-28T09:24:06.000Z</time>
      </trkpt>
      <trkpt lat="47.25997" lon="-2.30138">
        <ele>4.1999998092651</ele>
        <time>2022-04-28T09:24:07.000Z</time>
      </trkpt>
      <trkpt lat="47.25992" lon="-2.30138">
        <ele>3.7999999523163</ele>
        <time>2022-04-28T09:24:08.000Z</time>
      </trkpt>
      <trkpt lat="47.25987" lon="-2.3014">
        <ele>3.7999999523163</ele>
        <time>2022-04-28T09:24:09.000Z</time>
      </trkpt>
      <trkpt lat="47.25976" lon="-2.30148">
        <ele>3.4000000953674</ele>
        <time>2022-04-28T09:24:11.000Z</time>
      </trkpt>
      <trkpt lat="47.25972" lon="-2.30153">
        <ele>3</ele>
        <time>2022-04-28T09:24:12.000Z</time>
      </trkpt>
      <trkpt lat="47.25968" lon="-2.30158">
        <ele>2.5999999046326</ele>
        <time>2022-04-28T09:24:13.000Z</time>
      </trkpt>
      <trkpt lat="47.25964" lon="-2.30163">
        <ele>2.2000000476837</ele>
        <time>2022-04-28T09:24:14.000Z</time>
      </trkpt>
      <trkpt lat="47.25958" lon="-2.30167">
        <ele>1.7999999523163</ele>
        <time>2022-04-28T09:24:15.000Z</time>
      </trkpt>
      <trkpt lat="47.25944" lon="-2.30176">
        <ele>1.7999999523163</ele>
        <time>2022-04-28T09:24:18.000Z</time>
      </trkpt>
      <trkpt lat="47.25928" lon="-2.30178">
        <ele>1.7999999523163</ele>
        <time>2022-04-28T09:24:21.000Z</time>
      </trkpt>
      <trkpt lat="47.25923" lon="-2.30178">
        <ele>1.7999999523163</ele>
        <time>2022-04-28T09:24:22.000Z</time>
      </trkpt>
      <trkpt lat="47.25918" lon="-2.30179">
        <ele>1.7999999523163</ele>
        <time>2022-04-28T09:24:23.000Z</time>
      </trkpt>
      <trkpt lat="47.25901" lon="-2.30182">
        <ele>1.7999999523163</ele>
        <time>2022-04-28T09:24:27.000Z</time>
      </trkpt>
      <trkpt lat="47.25897" lon="-2.30185">
        <ele>1.7999999523163</ele>
        <time>2022-04-28T09:24:28.000Z</time>
      </trkpt>
      <trkpt lat="47.25892" lon="-2.30196">
        <ele>1.7999999523163</ele>
        <time>2022-04-28T09:24:30.000Z</time>
      </trkpt>
      <trkpt lat="47.25893" lon="-2.30215">
        <ele>1.7999999523163</ele>
        <time>2022-04-28T09:24:33.000Z</time>
      </trkpt>
      <trkpt lat="47.25893" lon="-2.30222">
        <ele>1.7999999523163</ele>
        <time>2022-04-28T09:24:34.000Z</time>
      </trkpt>
      <trkpt lat="47.25893" lon="-2.30228">
        <ele>1.7999999523163</ele>
        <time>2022-04-28T09:24:35.000Z</time>
      </trkpt>
      <trkpt lat="47.25893" lon="-2.30264">
        <ele>1.7999999523163</ele>
        <time>2022-04-28T09:24:40.000Z</time>
      </trkpt>
      <trkpt lat="47.25893" lon="-2.30294">
        <ele>2.2000000476837</ele>
        <time>2022-04-28T09:24:44.000Z</time>
      </trkpt>
      <trkpt lat="47.25891" lon="-2.303">
        <ele>2.5999999046326</ele>
        <time>2022-04-28T09:24:45.000Z</time>
      </trkpt>
      <trkpt lat="47.25888" lon="-2.30305">
        <ele>3</ele>
        <time>2022-04-28T09:24:46.000Z</time>
      </trkpt>
      <trkpt lat="47.25885" lon="-2.30309">
        <ele>3.7999999523163</ele>
        <time>2022-04-28T09:24:47.000Z</time>
      </trkpt>
      <trkpt lat="47.25876" lon="-2.30307">
        <ele>3.7999999523163</ele>
        <time>2022-04-28T09:24:49.000Z</time>
      </trkpt>
      <trkpt lat="47.25863" lon="-2.3029">
        <ele>3.7999999523163</ele>
        <time>2022-04-28T09:24:52.000Z</time>
      </trkpt>
      <trkpt lat="47.25852" lon="-2.3028">
        <ele>3.7999999523163</ele>
        <time>2022-04-28T09:24:54.000Z</time>
      </trkpt>
      <trkpt lat="47.2584" lon="-2.30273">
        <ele>3.7999999523163</ele>
        <time>2022-04-28T09:24:56.000Z</time>
      </trkpt>
      <trkpt lat="47.25803" lon="-2.30255">
        <ele>3.7999999523163</ele>
        <time>2022-04-28T09:25:01.000Z</time>
      </trkpt>
      <trkpt lat="47.25755" lon="-2.3023">
        <ele>3.7999999523163</ele>
        <time>2022-04-28T09:25:08.000Z</time>
      </trkpt>
      <trkpt lat="47.25713" lon="-2.30213">
        <ele>3.7999999523163</ele>
        <time>2022-04-28T09:25:15.000Z</time>
      </trkpt>
      <trkpt lat="47.25698" lon="-2.30224">
        <ele>3.7999999523163</ele>
        <time>2022-04-28T09:25:18.000Z</time>
      </trkpt>
      <trkpt lat="47.25686" lon="-2.30252">
        <ele>3.7999999523163</ele>
        <time>2022-04-28T09:25:22.000Z</time>
      </trkpt>
      <trkpt lat="47.25685" lon="-2.30267">
        <ele>4.1999998092651</ele>
        <time>2022-04-28T09:25:24.000Z</time>
      </trkpt>
      <trkpt lat="47.25686" lon="-2.30275">
        <ele>4.8000001907349</ele>
        <time>2022-04-28T09:25:25.000Z</time>
      </trkpt>
      <trkpt lat="47.25686" lon="-2.30283">
        <ele>5.1999998092651</ele>
        <time>2022-04-28T09:25:26.000Z</time>
      </trkpt>
      <trkpt lat="47.25686" lon="-2.3029">
        <ele>5.5999999046326</ele>
        <time>2022-04-28T09:25:27.000Z</time>
      </trkpt>
      <trkpt lat="47.25685" lon="-2.30298">
        <ele>6</ele>
        <time>2022-04-28T09:25:28.000Z</time>
      </trkpt>
      <trkpt lat="47.2568" lon="-2.30311">
        <ele>6</ele>
        <time>2022-04-28T09:25:30.000Z</time>
      </trkpt>
      <trkpt lat="47.25666" lon="-2.30322">
        <ele>6</ele>
        <time>2022-04-28T09:25:33.000Z</time>
      </trkpt>
      <trkpt lat="47.25661" lon="-2.30325">
        <ele>6</ele>
        <time>2022-04-28T09:25:34.000Z</time>
      </trkpt>
      <trkpt lat="47.25656" lon="-2.30329">
        <ele>6</ele>
        <time>2022-04-28T09:25:35.000Z</time>
      </trkpt>
      <trkpt lat="47.25643" lon="-2.30342">
        <ele>6</ele>
        <time>2022-04-28T09:25:38.000Z</time>
      </trkpt>
      <trkpt lat="47.25636" lon="-2.30345">
        <ele>6</ele>
        <time>2022-04-28T09:25:40.000Z</time>
      </trkpt>
      <trkpt lat="47.25633" lon="-2.30342">
        <ele>6</ele>
        <time>2022-04-28T09:25:41.000Z</time>
      </trkpt>
      <trkpt lat="47.25629" lon="-2.30324">
        <ele>6</ele>
        <time>2022-04-28T09:25:44.000Z</time>
      </trkpt>
      <trkpt lat="47.25628" lon="-2.3031">
        <ele>6</ele>
        <time>2022-04-28T09:25:46.000Z</time>
      </trkpt>
      <trkpt lat="47.25625" lon="-2.30282">
        <ele>6</ele>
        <time>2022-04-28T09:25:50.000Z</time>
      </trkpt>
      <trkpt lat="47.25619" lon="-2.3025">
        <ele>6</ele>
        <time>2022-04-28T09:25:55.000Z</time>
      </trkpt>
      <trkpt lat="47.25618" lon="-2.30243">
        <ele>6</ele>
        <time>2022-04-28T09:25:56.000Z</time>
      </trkpt>
      <trkpt lat="47.25612" lon="-2.30228">
        <ele>6</ele>
        <time>2022-04-28T09:25:58.000Z</time>
      </trkpt>
      <trkpt lat="47.25604" lon="-2.30215">
        <ele>6</ele>
        <time>2022-04-28T09:26:00.000Z</time>
      </trkpt>
      <trkpt lat="47.256" lon="-2.3021">
        <ele>6</ele>
        <time>2022-04-28T09:26:01.000Z</time>
      </trkpt>
      <trkpt lat="47.25591" lon="-2.302">
        <ele>6</ele>
        <time>2022-04-28T09:26:03.000Z</time>
      </trkpt>
      <trkpt lat="47.25577" lon="-2.30188">
        <ele>6</ele>
        <time>2022-04-28T09:26:06.000Z</time>
      </trkpt>
      <trkpt lat="47.25567" lon="-2.30182">
        <ele>6</ele>
        <time>2022-04-28T09:26:08.000Z</time>
      </trkpt>
      <trkpt lat="47.25552" lon="-2.30183">
        <ele>6</ele>
        <time>2022-04-28T09:26:11.000Z</time>
      </trkpt>
      <trkpt lat="47.25541" lon="-2.30187">
        <ele>6</ele>
        <time>2022-04-28T09:26:13.000Z</time>
      </trkpt>
      <trkpt lat="47.25531" lon="-2.30193">
        <ele>6</ele>
        <time>2022-04-28T09:26:15.000Z</time>
      </trkpt>
      <trkpt lat="47.25523" lon="-2.30196">
        <ele>6</ele>
        <time>2022-04-28T09:26:17.000Z</time>
      </trkpt>
      <trkpt lat="47.25516" lon="-2.30197">
        <ele>6</ele>
        <time>2022-04-28T09:26:19.000Z</time>
      </trkpt>
      <trkpt lat="47.25504" lon="-2.30203">
        <ele>6</ele>
        <time>2022-04-28T09:26:23.000Z</time>
      </trkpt>
      <trkpt lat="47.25491" lon="-2.30219">
        <ele>6.4000000953674</ele>
        <time>2022-04-28T09:26:27.000Z</time>
      </trkpt>
      <trkpt lat="47.25488" lon="-2.30225">
        <ele>6.8000001907349</ele>
        <time>2022-04-28T09:26:28.000Z</time>
      </trkpt>
      <trkpt lat="47.25486" lon="-2.30232">
        <ele>7.1999998092651</ele>
        <time>2022-04-28T09:26:29.000Z</time>
      </trkpt>
      <trkpt lat="47.25485" lon="-2.30238">
        <ele>7.5999999046326</ele>
        <time>2022-04-28T09:26:30.000Z</time>
      </trkpt>
      <trkpt lat="47.25483" lon="-2.30243">
        <ele>8.1999998092651</ele>
        <time>2022-04-28T09:26:31.000Z</time>
      </trkpt>
      <trkpt lat="47.25475" lon="-2.30244">
        <ele>8.1999998092651</ele>
        <time>2022-04-28T09:26:34.000Z</time>
      </trkpt>
      <trkpt lat="47.25472" lon="-2.30243">
        <ele>8.1999998092651</ele>
        <time>2022-04-28T09:26:35.000Z</time>
      </trkpt>
      <trkpt lat="47.25455" lon="-2.30241">
        <ele>8.1999998092651</ele>
        <time>2022-04-28T09:26:39.000Z</time>
      </trkpt>
      <trkpt lat="47.25442" lon="-2.30236">
        <ele>8.6000003814697</ele>
        <time>2022-04-28T09:26:42.000Z</time>
      </trkpt>
      <trkpt lat="47.25436" lon="-2.30234">
        <ele>9</ele>
        <time>2022-04-28T09:26:43.000Z</time>
      </trkpt>
      <trkpt lat="47.25431" lon="-2.30233">
        <ele>9.3999996185303</ele>
        <time>2022-04-28T09:26:44.000Z</time>
      </trkpt>
      <trkpt lat="47.25425" lon="-2.30232">
        <ele>9.8000001907349</ele>
        <time>2022-04-28T09:26:45.000Z</time>
      </trkpt>
      <trkpt lat="47.2542" lon="-2.3023">
        <ele>10.199999809265</ele>
        <time>2022-04-28T09:26:46.000Z</time>
      </trkpt>
      <trkpt lat="47.25403" lon="-2.30221">
        <ele>10.199999809265</ele>
        <time>2022-04-28T09:26:49.000Z</time>
      </trkpt>
      <trkpt lat="47.25389" lon="-2.30213">
        <ele>10.199999809265</ele>
        <time>2022-04-28T09:26:52.000Z</time>
      </trkpt>
      <trkpt lat="47.25374" lon="-2.30211">
        <ele>10.199999809265</ele>
        <time>2022-04-28T09:26:55.000Z</time>
      </trkpt>
      <trkpt lat="47.25368" lon="-2.30211">
        <ele>10.199999809265</ele>
        <time>2022-04-28T09:26:56.000Z</time>
      </trkpt>
      <trkpt lat="47.25344" lon="-2.3021">
        <ele>10.199999809265</ele>
        <time>2022-04-28T09:27:00.000Z</time>
      </trkpt>
      <trkpt lat="47.25325" lon="-2.30209">
        <ele>10.60000038147</ele>
        <time>2022-04-28T09:27:04.000Z</time>
      </trkpt>
      <trkpt lat="47.2532" lon="-2.30208">
        <ele>11</ele>
        <time>2022-04-28T09:27:05.000Z</time>
      </trkpt>
      <trkpt lat="47.25315" lon="-2.30207">
        <ele>11.39999961853</ele>
        <time>2022-04-28T09:27:06.000Z</time>
      </trkpt>
      <trkpt lat="47.25311" lon="-2.30206">
        <ele>11.800000190735</ele>
        <time>2022-04-28T09:27:07.000Z</time>
      </trkpt>
      <trkpt lat="47.25308" lon="-2.30207">
        <ele>12.199999809265</ele>
        <time>2022-04-28T09:27:08.000Z</time>
      </trkpt>
      <trkpt lat="47.25305" lon="-2.30211">
        <ele>12.199999809265</ele>
        <time>2022-04-28T09:27:10.000Z</time>
      </trkpt>
      <trkpt lat="47.25301" lon="-2.30212">
        <ele>12.199999809265</ele>
        <time>2022-04-28T09:27:12.000Z</time>
      </trkpt>
      <trkpt lat="47.25296" lon="-2.30208">
        <ele>12.199999809265</ele>
        <time>2022-04-28T09:27:14.000Z</time>
      </trkpt>
      <trkpt lat="47.25282" lon="-2.302">
        <ele>12.199999809265</ele>
        <time>2022-04-28T09:27:18.000Z</time>
      </trkpt>
      <trkpt lat="47.25278" lon="-2.30198">
        <ele>12.199999809265</ele>
        <time>2022-04-28T09:27:19.000Z</time>
      </trkpt>
      <trkpt lat="47.25256" lon="-2.30191">
        <ele>12.60000038147</ele>
        <time>2022-04-28T09:27:24.000Z</time>
      </trkpt>
      <trkpt lat="47.25252" lon="-2.30189">
        <ele>13</ele>
        <time>2022-04-28T09:27:25.000Z</time>
      </trkpt>
      <trkpt lat="47.25247" lon="-2.30187">
        <ele>13.39999961853</ele>
        <time>2022-04-28T09:27:26.000Z</time>
      </trkpt>
      <trkpt lat="47.25243" lon="-2.30185">
        <ele>13.800000190735</ele>
        <time>2022-04-28T09:27:27.000Z</time>
      </trkpt>
      <trkpt lat="47.25238" lon="-2.30183">
        <ele>14.199999809265</ele>
        <time>2022-04-28T09:27:28.000Z</time>
      </trkpt>
      <trkpt lat="47.25222" lon="-2.30172">
        <ele>14.199999809265</ele>
        <time>2022-04-28T09:27:32.000Z</time>
      </trkpt>
      <trkpt lat="47.25218" lon="-2.30168">
        <ele>14.199999809265</ele>
        <time>2022-04-28T09:27:33.000Z</time>
      </trkpt>
      <trkpt lat="47.252" lon="-2.30148">
        <ele>14.199999809265</ele>
        <time>2022-04-28T09:27:37.000Z</time>
      </trkpt>
      <trkpt lat="47.25196" lon="-2.30143">
        <ele>14.60000038147</ele>
        <time>2022-04-28T09:27:38.000Z</time>
      </trkpt>
      <trkpt lat="47.25193" lon="-2.30137">
        <ele>15</ele>
        <time>2022-04-28T09:27:39.000Z</time>
      </trkpt>
      <trkpt lat="47.2519" lon="-2.30131">
        <ele>16</ele>
        <time>2022-04-28T09:27:40.000Z</time>
      </trkpt>
      <trkpt lat="47.25187" lon="-2.30125">
        <ele>16.39999961853</ele>
        <time>2022-04-28T09:27:41.000Z</time>
      </trkpt>
      <trkpt lat="47.25183" lon="-2.30121">
        <ele>16.39999961853</ele>
        <time>2022-04-28T09:27:42.000Z</time>
      </trkpt>
      <trkpt lat="47.25167" lon="-2.30118">
        <ele>16.39999961853</ele>
        <time>2022-04-28T09:27:45.000Z</time>
      </trkpt>
      <trkpt lat="47.25141" lon="-2.30128">
        <ele>16.39999961853</ele>
        <time>2022-04-28T09:27:50.000Z</time>
      </trkpt>
      <trkpt lat="47.25116" lon="-2.30131">
        <ele>16.799999237061</ele>
        <time>2022-04-28T09:27:55.000Z</time>
      </trkpt>
      <trkpt lat="47.25111" lon="-2.30132">
        <ele>17.200000762939</ele>
        <time>2022-04-28T09:27:56.000Z</time>
      </trkpt>
      <trkpt lat="47.25106" lon="-2.30134">
        <ele>17.60000038147</ele>
        <time>2022-04-28T09:27:57.000Z</time>
      </trkpt>
      <trkpt lat="47.25101" lon="-2.30135">
        <ele>18</ele>
        <time>2022-04-28T09:27:58.000Z</time>
      </trkpt>
      <trkpt lat="47.25096" lon="-2.30136">
        <ele>18.39999961853</ele>
        <time>2022-04-28T09:27:59.000Z</time>
      </trkpt>
      <trkpt lat="47.25092" lon="-2.30138">
        <ele>18.39999961853</ele>
        <time>2022-04-28T09:28:00.000Z</time>
      </trkpt>
      <trkpt lat="47.25087" lon="-2.30138">
        <ele>18.39999961853</ele>
        <time>2022-04-28T09:28:01.000Z</time>
      </trkpt>
      <trkpt lat="47.25069" lon="-2.30136">
        <ele>18.39999961853</ele>
        <time>2022-04-28T09:28:06.000Z</time>
      </trkpt>
      <trkpt lat="47.25066" lon="-2.30135">
        <ele>18.39999961853</ele>
        <time>2022-04-28T09:28:09.000Z</time>
      </trkpt>
      <trkpt lat="47.25066" lon="-2.30133">
        <ele>18.39999961853</ele>
        <time>2022-04-28T09:28:15.000Z</time>
      </trkpt>
      <trkpt lat="47.25066" lon="-2.30108">
        <ele>18.39999961853</ele>
        <time>2022-04-28T09:28:21.000Z</time>
      </trkpt>
      <trkpt lat="47.25068" lon="-2.3008">
        <ele>18.39999961853</ele>
        <time>2022-04-28T09:28:26.000Z</time>
      </trkpt>
      <trkpt lat="47.25066" lon="-2.30056">
        <ele>18.39999961853</ele>
        <time>2022-04-28T09:28:31.000Z</time>
      </trkpt>
      <trkpt lat="47.25055" lon="-2.30056">
        <ele>18.39999961853</ele>
        <time>2022-04-28T09:28:34.000Z</time>
      </trkpt>
      <trkpt lat="47.25052" lon="-2.30057">
        <ele>18.39999961853</ele>
        <time>2022-04-28T09:28:35.000Z</time>
      </trkpt>
      <trkpt lat="47.25032" lon="-2.30055">
        <ele>18.799999237061</ele>
        <time>2022-04-28T09:28:40.000Z</time>
      </trkpt>
      <trkpt lat="47.25028" lon="-2.30055">
        <ele>19.39999961853</ele>
        <time>2022-04-28T09:28:41.000Z</time>
      </trkpt>
      <trkpt lat="47.25024" lon="-2.30056">
        <ele>19.799999237061</ele>
        <time>2022-04-28T09:28:42.000Z</time>
      </trkpt>
      <trkpt lat="47.25019" lon="-2.30054">
        <ele>20.200000762939</ele>
        <time>2022-04-28T09:28:43.000Z</time>
      </trkpt>
      <trkpt lat="47.25015" lon="-2.30053">
        <ele>20.60000038147</ele>
        <time>2022-04-28T09:28:44.000Z</time>
      </trkpt>
      <trkpt lat="47.25006" lon="-2.30054">
        <ele>20.60000038147</ele>
        <time>2022-04-28T09:28:46.000Z</time>
      </trkpt>
      <trkpt lat="47.24989" lon="-2.30056">
        <ele>20.60000038147</ele>
        <time>2022-04-28T09:28:50.000Z</time>
      </trkpt>
      <trkpt lat="47.24985" lon="-2.30057">
        <ele>20.60000038147</ele>
        <time>2022-04-28T09:28:51.000Z</time>
      </trkpt>
      <trkpt lat="47.24972" lon="-2.30058">
        <ele>20.60000038147</ele>
        <time>2022-04-28T09:28:54.000Z</time>
      </trkpt>
      <trkpt lat="47.24961" lon="-2.30058">
        <ele>20.60000038147</ele>
        <time>2022-04-28T09:28:56.000Z</time>
      </trkpt>
      <trkpt lat="47.24928" lon="-2.30057">
        <ele>20.60000038147</ele>
        <time>2022-04-28T09:29:02.000Z</time>
      </trkpt>
      <trkpt lat="47.24904" lon="-2.30053">
        <ele>20.60000038147</ele>
        <time>2022-04-28T09:29:07.000Z</time>
      </trkpt>
      <trkpt lat="47.24903" lon="-2.30046">
        <ele>20.60000038147</ele>
        <time>2022-04-28T09:29:08.000Z</time>
      </trkpt>
      <trkpt lat="47.24903" lon="-2.30025">
        <ele>20.60000038147</ele>
        <time>2022-04-28T09:29:11.000Z</time>
      </trkpt>
      <trkpt lat="47.24902" lon="-2.30018">
        <ele>20.60000038147</ele>
        <time>2022-04-28T09:29:12.000Z</time>
      </trkpt>
      <trkpt lat="47.249" lon="-2.30011">
        <ele>20.60000038147</ele>
        <time>2022-04-28T09:29:13.000Z</time>
      </trkpt>
      <trkpt lat="47.24895" lon="-2.29989">
        <ele>20.60000038147</ele>
        <time>2022-04-28T09:29:16.000Z</time>
      </trkpt>
      <trkpt lat="47.2488" lon="-2.2993">
        <ele>20.60000038147</ele>
        <time>2022-04-28T09:29:24.000Z</time>
      </trkpt>
      <trkpt lat="47.24876" lon="-2.29885">
        <ele>20.60000038147</ele>
        <time>2022-04-28T09:29:30.000Z</time>
      </trkpt>
      <trkpt lat="47.24873" lon="-2.29871">
        <ele>21</ele>
        <time>2022-04-28T09:29:32.000Z</time>
      </trkpt>
      <trkpt lat="47.24872" lon="-2.29864">
        <ele>21.39999961853</ele>
        <time>2022-04-28T09:29:33.000Z</time>
      </trkpt>
      <trkpt lat="47.2487" lon="-2.29856">
        <ele>21.799999237061</ele>
        <time>2022-04-28T09:29:34.000Z</time>
      </trkpt>
      <trkpt lat="47.24868" lon="-2.29849">
        <ele>22.200000762939</ele>
        <time>2022-04-28T09:29:35.000Z</time>
      </trkpt>
      <trkpt lat="47.24867" lon="-2.29842">
        <ele>22.60000038147</ele>
        <time>2022-04-28T09:29:36.000Z</time>
      </trkpt>
      <trkpt lat="47.24854" lon="-2.29831">
        <ele>22.60000038147</ele>
        <time>2022-04-28T09:29:40.000Z</time>
      </trkpt>
      <trkpt lat="47.24836" lon="-2.29842">
        <ele>22.60000038147</ele>
        <time>2022-04-28T09:29:44.000Z</time>
      </trkpt>
      <trkpt lat="47.2483" lon="-2.29845">
        <ele>22.60000038147</ele>
        <time>2022-04-28T09:29:45.000Z</time>
      </trkpt>
      <trkpt lat="47.24808" lon="-2.29851">
        <ele>22.60000038147</ele>
        <time>2022-04-28T09:29:49.000Z</time>
      </trkpt>
      <trkpt lat="47.24769" lon="-2.29875">
        <ele>22.60000038147</ele>
        <time>2022-04-28T09:29:56.000Z</time>
      </trkpt>
      <trkpt lat="47.2473" lon="-2.299">
        <ele>22.60000038147</ele>
        <time>2022-04-28T09:30:03.000Z</time>
      </trkpt>
      <trkpt lat="47.24694" lon="-2.29909">
        <ele>22.60000038147</ele>
        <time>2022-04-28T09:30:09.000Z</time>
      </trkpt>
      <trkpt lat="47.24657" lon="-2.29922">
        <ele>22.200000762939</ele>
        <time>2022-04-28T09:30:15.000Z</time>
      </trkpt>
      <trkpt lat="47.24651" lon="-2.29925">
        <ele>21.799999237061</ele>
        <time>2022-04-28T09:30:16.000Z</time>
      </trkpt>
      <trkpt lat="47.24644" lon="-2.29927">
        <ele>21.39999961853</ele>
        <time>2022-04-28T09:30:17.000Z</time>
      </trkpt>
      <trkpt lat="47.24638" lon="-2.29929">
        <ele>21</ele>
        <time>2022-04-28T09:30:18.000Z</time>
      </trkpt>
      <trkpt lat="47.24633" lon="-2.29931">
        <ele>20.60000038147</ele>
        <time>2022-04-28T09:30:19.000Z</time>
      </trkpt>
      <trkpt lat="47.24611" lon="-2.2994">
        <ele>20.60000038147</ele>
        <time>2022-04-28T09:30:23.000Z</time>
      </trkpt>
      <trkpt lat="47.246" lon="-2.29946">
        <ele>20.60000038147</ele>
        <time>2022-04-28T09:30:27.000Z</time>
      </trkpt>
      <trkpt lat="47.24601" lon="-2.29945">
        <ele>20.60000038147</ele>
        <time>2022-04-28T09:30:28.000Z</time>
      </trkpt>
      <trkpt lat="47.24601" lon="-2.29945">
        <ele>20.60000038147</ele>
        <time>2022-04-28T09:31:34.000Z</time>
      </trkpt>
      <trkpt lat="47.24599" lon="-2.29944">
        <ele>20.60000038147</ele>
        <time>2022-04-28T09:31:35.000Z</time>
      </trkpt>
      <trkpt lat="47.24586" lon="-2.29932">
        <ele>20.60000038147</ele>
        <time>2022-04-28T09:31:41.000Z</time>
      </trkpt>
      <trkpt lat="47.24575" lon="-2.29915">
        <ele>20.60000038147</ele>
        <time>2022-04-28T09:31:45.000Z</time>
      </trkpt>
      <trkpt lat="47.24563" lon="-2.29888">
        <ele>20.60000038147</ele>
        <time>2022-04-28T09:31:51.000Z</time>
      </trkpt>
      <trkpt lat="47.2455" lon="-2.29871">
        <ele>20.60000038147</ele>
        <time>2022-04-28T09:31:56.000Z</time>
      </trkpt>
      <trkpt lat="47.24546" lon="-2.29869">
        <ele>20.60000038147</ele>
        <time>2022-04-28T09:31:57.000Z</time>
      </trkpt>
      <trkpt lat="47.24522" lon="-2.29861">
        <ele>20.60000038147</ele>
        <time>2022-04-28T09:32:03.000Z</time>
      </trkpt>
      <trkpt lat="47.24513" lon="-2.29856">
        <ele>20.60000038147</ele>
        <time>2022-04-28T09:32:05.000Z</time>
      </trkpt>
      <trkpt lat="47.24485" lon="-2.29836">
        <ele>20.60000038147</ele>
        <time>2022-04-28T09:32:11.000Z</time>
      </trkpt>
      <trkpt lat="47.24468" lon="-2.29809">
        <ele>20.60000038147</ele>
        <time>2022-04-28T09:32:16.000Z</time>
      </trkpt>
      <trkpt lat="47.24465" lon="-2.29803">
        <ele>20.200000762939</ele>
        <time>2022-04-28T09:32:17.000Z</time>
      </trkpt>
      <trkpt lat="47.24463" lon="-2.29796">
        <ele>19.799999237061</ele>
        <time>2022-04-28T09:32:18.000Z</time>
      </trkpt>
      <trkpt lat="47.24461" lon="-2.29787">
        <ele>19.39999961853</ele>
        <time>2022-04-28T09:32:19.000Z</time>
      </trkpt>
      <trkpt lat="47.24459" lon="-2.29779">
        <ele>19</ele>
        <time>2022-04-28T09:32:20.000Z</time>
      </trkpt>
      <trkpt lat="47.24458" lon="-2.29771">
        <ele>18.60000038147</ele>
        <time>2022-04-28T09:32:21.000Z</time>
      </trkpt>
      <trkpt lat="47.24457" lon="-2.29763">
        <ele>18.60000038147</ele>
        <time>2022-04-28T09:32:22.000Z</time>
      </trkpt>
      <trkpt lat="47.24455" lon="-2.29755">
        <ele>18.60000038147</ele>
        <time>2022-04-28T09:32:23.000Z</time>
      </trkpt>
      <trkpt lat="47.24447" lon="-2.29732">
        <ele>18.60000038147</ele>
        <time>2022-04-28T09:32:26.000Z</time>
      </trkpt>
      <trkpt lat="47.24439" lon="-2.29706">
        <ele>18.60000038147</ele>
        <time>2022-04-28T09:32:30.000Z</time>
      </trkpt>
      <trkpt lat="47.24436" lon="-2.297">
        <ele>18.60000038147</ele>
        <time>2022-04-28T09:32:31.000Z</time>
      </trkpt>
      <trkpt lat="47.24424" lon="-2.29691">
        <ele>18.60000038147</ele>
        <time>2022-04-28T09:32:34.000Z</time>
      </trkpt>
      <trkpt lat="47.24405" lon="-2.297">
        <ele>18.60000038147</ele>
        <time>2022-04-28T09:32:38.000Z</time>
      </trkpt>
      <trkpt lat="47.24401" lon="-2.29703">
        <ele>18.60000038147</ele>
        <time>2022-04-28T09:32:39.000Z</time>
      </trkpt>
      <trkpt lat="47.24392" lon="-2.2972">
        <ele>18.60000038147</ele>
        <time>2022-04-28T09:32:42.000Z</time>
      </trkpt>
      <trkpt lat="47.24382" lon="-2.29747">
        <ele>18.60000038147</ele>
        <time>2022-04-28T09:32:46.000Z</time>
      </trkpt>
      <trkpt lat="47.24376" lon="-2.29761">
        <ele>18.60000038147</ele>
        <time>2022-04-28T09:32:48.000Z</time>
      </trkpt>
      <trkpt lat="47.24363" lon="-2.29789">
        <ele>18.60000038147</ele>
        <time>2022-04-28T09:32:52.000Z</time>
      </trkpt>
      <trkpt lat="47.24359" lon="-2.29795">
        <ele>18.60000038147</ele>
        <time>2022-04-28T09:32:53.000Z</time>
      </trkpt>
      <trkpt lat="47.24343" lon="-2.29806">
        <ele>18.60000038147</ele>
        <time>2022-04-28T09:32:56.000Z</time>
      </trkpt>
      <trkpt lat="47.24324" lon="-2.29816">
        <ele>18.60000038147</ele>
        <time>2022-04-28T09:32:59.000Z</time>
      </trkpt>
      <trkpt lat="47.24319" lon="-2.29822">
        <ele>18.60000038147</ele>
        <time>2022-04-28T09:33:00.000Z</time>
      </trkpt>
      <trkpt lat="47.24316" lon="-2.29839">
        <ele>18.60000038147</ele>
        <time>2022-04-28T09:33:02.000Z</time>
      </trkpt>
      <trkpt lat="47.24318" lon="-2.29848">
        <ele>18.60000038147</ele>
        <time>2022-04-28T09:33:03.000Z</time>
      </trkpt>
      <trkpt lat="47.24319" lon="-2.29878">
        <ele>18.200000762939</ele>
        <time>2022-04-28T09:33:06.000Z</time>
      </trkpt>
      <trkpt lat="47.24316" lon="-2.29885">
        <ele>17.799999237061</ele>
        <time>2022-04-28T09:33:07.000Z</time>
      </trkpt>
      <trkpt lat="47.24311" lon="-2.2989">
        <ele>17.200000762939</ele>
        <time>2022-04-28T09:33:08.000Z</time>
      </trkpt>
      <trkpt lat="47.24305" lon="-2.29895">
        <ele>16.799999237061</ele>
        <time>2022-04-28T09:33:09.000Z</time>
      </trkpt>
      <trkpt lat="47.24299" lon="-2.29899">
        <ele>16.39999961853</ele>
        <time>2022-04-28T09:33:10.000Z</time>
      </trkpt>
      <trkpt lat="47.24272" lon="-2.29922">
        <ele>16.39999961853</ele>
        <time>2022-04-28T09:33:15.000Z</time>
      </trkpt>
      <trkpt lat="47.24261" lon="-2.29934">
        <ele>16.39999961853</ele>
        <time>2022-04-28T09:33:17.000Z</time>
      </trkpt>
      <trkpt lat="47.24249" lon="-2.29946">
        <ele>16.39999961853</ele>
        <time>2022-04-28T09:33:19.000Z</time>
      </trkpt>
      <trkpt lat="47.24232" lon="-2.29952">
        <ele>16.39999961853</ele>
        <time>2022-04-28T09:33:22.000Z</time>
      </trkpt>
      <trkpt lat="47.24227" lon="-2.29954">
        <ele>16.39999961853</ele>
        <time>2022-04-28T09:33:23.000Z</time>
      </trkpt>
      <trkpt lat="47.24218" lon="-2.29957">
        <ele>16.39999961853</ele>
        <time>2022-04-28T09:33:25.000Z</time>
      </trkpt>
      <trkpt lat="47.24207" lon="-2.29963">
        <ele>16.39999961853</ele>
        <time>2022-04-28T09:33:28.000Z</time>
      </trkpt>
      <trkpt lat="47.24186" lon="-2.29971">
        <ele>16.39999961853</ele>
        <time>2022-04-28T09:33:33.000Z</time>
      </trkpt>
      <trkpt lat="47.24166" lon="-2.29976">
        <ele>16.39999961853</ele>
        <time>2022-04-28T09:33:39.000Z</time>
      </trkpt>
      <trkpt lat="47.24158" lon="-2.29982">
        <ele>16.39999961853</ele>
        <time>2022-04-28T09:33:44.000Z</time>
      </trkpt>
      <trkpt lat="47.24153" lon="-2.29986">
        <ele>16.39999961853</ele>
        <time>2022-04-28T09:33:59.000Z</time>
      </trkpt>
      <trkpt lat="47.24144" lon="-2.29988">
        <ele>16.39999961853</ele>
        <time>2022-04-28T09:34:05.000Z</time>
      </trkpt>
      <trkpt lat="47.24141" lon="-2.29988">
        <ele>16.39999961853</ele>
        <time>2022-04-28T09:34:07.000Z</time>
      </trkpt>
      <trkpt lat="47.24131" lon="-2.29988">
        <ele>16.39999961853</ele>
        <time>2022-04-28T09:34:10.000Z</time>
      </trkpt>
      <trkpt lat="47.24109" lon="-2.29988">
        <ele>16.39999961853</ele>
        <time>2022-04-28T09:34:17.000Z</time>
      </trkpt>
      <trkpt lat="47.24089" lon="-2.29988">
        <ele>16.39999961853</ele>
        <time>2022-04-28T09:34:23.000Z</time>
      </trkpt>
      <trkpt lat="47.24082" lon="-2.29987">
        <ele>16.799999237061</ele>
        <time>2022-04-28T09:34:25.000Z</time>
      </trkpt>
      <trkpt lat="47.2408" lon="-2.29988">
        <ele>17.200000762939</ele>
        <time>2022-04-28T09:34:26.000Z</time>
      </trkpt>
      <trkpt lat="47.24076" lon="-2.29989">
        <ele>17.60000038147</ele>
        <time>2022-04-28T09:34:27.000Z</time>
      </trkpt>
      <trkpt lat="47.24074" lon="-2.29989">
        <ele>18</ele>
        <time>2022-04-28T09:34:28.000Z</time>
      </trkpt>
      <trkpt lat="47.2407" lon="-2.29988">
        <ele>18.39999961853</ele>
        <time>2022-04-28T09:34:29.000Z</time>
      </trkpt>
      <trkpt lat="47.24058" lon="-2.29984">
        <ele>18.39999961853</ele>
        <time>2022-04-28T09:34:33.000Z</time>
      </trkpt>
      <trkpt lat="47.24041" lon="-2.29978">
        <ele>18.39999961853</ele>
        <time>2022-04-28T09:34:37.000Z</time>
      </trkpt>
      <trkpt lat="47.24034" lon="-2.29981">
        <ele>18.39999961853</ele>
        <time>2022-04-28T09:34:40.000Z</time>
      </trkpt>
      <trkpt lat="47.24032" lon="-2.29983">
        <ele>18.39999961853</ele>
        <time>2022-04-28T09:34:41.000Z</time>
      </trkpt>
      <trkpt lat="47.24026" lon="-2.29991">
        <ele>18.39999961853</ele>
        <time>2022-04-28T09:34:44.000Z</time>
      </trkpt>
      <trkpt lat="47.24018" lon="-2.30003">
        <ele>18.39999961853</ele>
        <time>2022-04-28T09:34:48.000Z</time>
      </trkpt>
      <trkpt lat="47.24005" lon="-2.30026">
        <ele>18.39999961853</ele>
        <time>2022-04-28T09:34:53.000Z</time>
      </trkpt>
      <trkpt lat="47.24002" lon="-2.30032">
        <ele>18.39999961853</ele>
        <time>2022-04-28T09:34:54.000Z</time>
      </trkpt>
      <trkpt lat="47.23989" lon="-2.30056">
        <ele>18</ele>
        <time>2022-04-28T09:34:58.000Z</time>
      </trkpt>
      <trkpt lat="47.23987" lon="-2.30063">
        <ele>17.60000038147</ele>
        <time>2022-04-28T09:34:59.000Z</time>
      </trkpt>
      <trkpt lat="47.23987" lon="-2.3007">
        <ele>17.200000762939</ele>
        <time>2022-04-28T09:35:00.000Z</time>
      </trkpt>
      <trkpt lat="47.23986" lon="-2.30078">
        <ele>16.799999237061</ele>
        <time>2022-04-28T09:35:01.000Z</time>
      </trkpt>
      <trkpt lat="47.23984" lon="-2.30085">
        <ele>16.39999961853</ele>
        <time>2022-04-28T09:35:02.000Z</time>
      </trkpt>
      <trkpt lat="47.2398" lon="-2.30098">
        <ele>16.39999961853</ele>
        <time>2022-04-28T09:35:04.000Z</time>
      </trkpt>
      <trkpt lat="47.23971" lon="-2.30122">
        <ele>16.39999961853</ele>
        <time>2022-04-28T09:35:09.000Z</time>
      </trkpt>
      <trkpt lat="47.23959" lon="-2.3013">
        <ele>16.39999961853</ele>
        <time>2022-04-28T09:35:13.000Z</time>
      </trkpt>
      <trkpt lat="47.23952" lon="-2.30131">
        <ele>16</ele>
        <time>2022-04-28T09:35:15.000Z</time>
      </trkpt>
      <trkpt lat="47.23948" lon="-2.30132">
        <ele>15.60000038147</ele>
        <time>2022-04-28T09:35:16.000Z</time>
      </trkpt>
      <trkpt lat="47.23944" lon="-2.30133">
        <ele>15.199999809265</ele>
        <time>2022-04-28T09:35:17.000Z</time>
      </trkpt>
      <trkpt lat="47.2394" lon="-2.30133">
        <ele>14.800000190735</ele>
        <time>2022-04-28T09:35:18.000Z</time>
      </trkpt>
      <trkpt lat="47.23935" lon="-2.30136">
        <ele>14.39999961853</ele>
        <time>2022-04-28T09:35:19.000Z</time>
      </trkpt>
      <trkpt lat="47.23921" lon="-2.30139">
        <ele>14.39999961853</ele>
        <time>2022-04-28T09:35:22.000Z</time>
      </trkpt>
      <trkpt lat="47.23918" lon="-2.30137">
        <ele>14.39999961853</ele>
        <time>2022-04-28T09:35:23.000Z</time>
      </trkpt>
      <trkpt lat="47.23906" lon="-2.30119">
        <ele>14</ele>
        <time>2022-04-28T09:35:27.000Z</time>
      </trkpt>
      <trkpt lat="47.23905" lon="-2.30115">
        <ele>13.60000038147</ele>
        <time>2022-04-28T09:35:28.000Z</time>
      </trkpt>
      <trkpt lat="47.23905" lon="-2.30111">
        <ele>12.800000190735</ele>
        <time>2022-04-28T09:35:29.000Z</time>
      </trkpt>
      <trkpt lat="47.23905" lon="-2.30107">
        <ele>12.39999961853</ele>
        <time>2022-04-28T09:35:30.000Z</time>
      </trkpt>
      <trkpt lat="47.23906" lon="-2.30099">
        <ele>12.39999961853</ele>
        <time>2022-04-28T09:35:32.000Z</time>
      </trkpt>
      <trkpt lat="47.23906" lon="-2.30096">
        <ele>12.39999961853</ele>
        <time>2022-04-28T09:35:33.000Z</time>
      </trkpt>
      <trkpt lat="47.23899" lon="-2.30089">
        <ele>12.39999961853</ele>
        <time>2022-04-28T09:35:36.000Z</time>
      </trkpt>
      <trkpt lat="47.23878" lon="-2.30074">
        <ele>12.39999961853</ele>
        <time>2022-04-28T09:35:41.000Z</time>
      </trkpt>
      <trkpt lat="47.23853" lon="-2.30055">
        <ele>12.39999961853</ele>
        <time>2022-04-28T09:35:46.000Z</time>
      </trkpt>
      <trkpt lat="47.23851" lon="-2.30049">
        <ele>12.39999961853</ele>
        <time>2022-04-28T09:35:47.000Z</time>
      </trkpt>
      <trkpt lat="47.23848" lon="-2.30043">
        <ele>12.800000190735</ele>
        <time>2022-04-28T09:35:48.000Z</time>
      </trkpt>
      <trkpt lat="47.23846" lon="-2.30035">
        <ele>13.199999809265</ele>
        <time>2022-04-28T09:35:49.000Z</time>
      </trkpt>
      <trkpt lat="47.23845" lon="-2.30028">
        <ele>13.60000038147</ele>
        <time>2022-04-28T09:35:50.000Z</time>
      </trkpt>
      <trkpt lat="47.23843" lon="-2.30021">
        <ele>14</ele>
        <time>2022-04-28T09:35:51.000Z</time>
      </trkpt>
      <trkpt lat="47.23842" lon="-2.30014">
        <ele>14.39999961853</ele>
        <time>2022-04-28T09:35:52.000Z</time>
      </trkpt>
      <trkpt lat="47.2384" lon="-2.30008">
        <ele>14.39999961853</ele>
        <time>2022-04-28T09:35:53.000Z</time>
      </trkpt>
      <trkpt lat="47.23836" lon="-2.29988">
        <ele>14.800000190735</ele>
        <time>2022-04-28T09:35:56.000Z</time>
      </trkpt>
      <trkpt lat="47.23835" lon="-2.29981">
        <ele>15.199999809265</ele>
        <time>2022-04-28T09:35:57.000Z</time>
      </trkpt>
      <trkpt lat="47.23834" lon="-2.29975">
        <ele>15.60000038147</ele>
        <time>2022-04-28T09:35:58.000Z</time>
      </trkpt>
      <trkpt lat="47.23832" lon="-2.29968">
        <ele>16</ele>
        <time>2022-04-28T09:35:59.000Z</time>
      </trkpt>
      <trkpt lat="47.23831" lon="-2.29961">
        <ele>16.60000038147</ele>
        <time>2022-04-28T09:36:00.000Z</time>
      </trkpt>
      <trkpt lat="47.23829" lon="-2.29955">
        <ele>16.60000038147</ele>
        <time>2022-04-28T09:36:01.000Z</time>
      </trkpt>
      <trkpt lat="47.2382" lon="-2.29901">
        <ele>16.60000038147</ele>
        <time>2022-04-28T09:36:09.000Z</time>
      </trkpt>
      <trkpt lat="47.23817" lon="-2.29888">
        <ele>17</ele>
        <time>2022-04-28T09:36:11.000Z</time>
      </trkpt>
      <trkpt lat="47.23816" lon="-2.29882">
        <ele>17.39999961853</ele>
        <time>2022-04-28T09:36:12.000Z</time>
      </trkpt>
      <trkpt lat="47.23815" lon="-2.29875">
        <ele>17.799999237061</ele>
        <time>2022-04-28T09:36:13.000Z</time>
      </trkpt>
      <trkpt lat="47.23814" lon="-2.29869">
        <ele>18.200000762939</ele>
        <time>2022-04-28T09:36:14.000Z</time>
      </trkpt>
      <trkpt lat="47.23813" lon="-2.29862">
        <ele>18.60000038147</ele>
        <time>2022-04-28T09:36:15.000Z</time>
      </trkpt>
      <trkpt lat="47.2381" lon="-2.29848">
        <ele>18.60000038147</ele>
        <time>2022-04-28T09:36:17.000Z</time>
      </trkpt>
      <trkpt lat="47.23808" lon="-2.29818">
        <ele>18.60000038147</ele>
        <time>2022-04-28T09:36:21.000Z</time>
      </trkpt>
      <trkpt lat="47.23808" lon="-2.29796">
        <ele>18.60000038147</ele>
        <time>2022-04-28T09:36:24.000Z</time>
      </trkpt>
      <trkpt lat="47.2381" lon="-2.2973">
        <ele>18.60000038147</ele>
        <time>2022-04-28T09:36:33.000Z</time>
      </trkpt>
      <trkpt lat="47.23812" lon="-2.29682">
        <ele>18.60000038147</ele>
        <time>2022-04-28T09:36:39.000Z</time>
      </trkpt>
      <trkpt lat="47.23813" lon="-2.29622">
        <ele>18.60000038147</ele>
        <time>2022-04-28T09:36:47.000Z</time>
      </trkpt>
      <trkpt lat="47.23813" lon="-2.29575">
        <ele>18.60000038147</ele>
        <time>2022-04-28T09:36:53.000Z</time>
      </trkpt>
      <trkpt lat="47.23814" lon="-2.2955">
        <ele>18.60000038147</ele>
        <time>2022-04-28T09:36:56.000Z</time>
      </trkpt>
      <trkpt lat="47.23814" lon="-2.29535">
        <ele>18.60000038147</ele>
        <time>2022-04-28T09:36:58.000Z</time>
      </trkpt>
      <trkpt lat="47.23815" lon="-2.29474">
        <ele>18.60000038147</ele>
        <time>2022-04-28T09:37:05.000Z</time>
      </trkpt>
      <trkpt lat="47.23818" lon="-2.29427">
        <ele>18.60000038147</ele>
        <time>2022-04-28T09:37:11.000Z</time>
      </trkpt>
      <trkpt lat="47.23832" lon="-2.29396">
        <ele>18.60000038147</ele>
        <time>2022-04-28T09:37:16.000Z</time>
      </trkpt>
      <trkpt lat="47.23854" lon="-2.2935">
        <ele>18.60000038147</ele>
        <time>2022-04-28T09:37:23.000Z</time>
      </trkpt>
      <trkpt lat="47.23864" lon="-2.29333">
        <ele>18.60000038147</ele>
        <time>2022-04-28T09:37:26.000Z</time>
      </trkpt>
      <trkpt lat="47.23869" lon="-2.2933">
        <ele>18.60000038147</ele>
        <time>2022-04-28T09:37:27.000Z</time>
      </trkpt>
      <trkpt lat="47.23887" lon="-2.29328">
        <ele>18.60000038147</ele>
        <time>2022-04-28T09:37:30.000Z</time>
      </trkpt>
      <trkpt lat="47.23892" lon="-2.29328">
        <ele>18.60000038147</ele>
        <time>2022-04-28T09:37:31.000Z</time>
      </trkpt>
      <trkpt lat="47.23903" lon="-2.2933">
        <ele>18.60000038147</ele>
        <time>2022-04-28T09:37:33.000Z</time>
      </trkpt>
      <trkpt lat="47.23912" lon="-2.2934">
        <ele>18.60000038147</ele>
        <time>2022-04-28T09:37:35.000Z</time>
      </trkpt>
      <trkpt lat="47.23935" lon="-2.29384">
        <ele>18.60000038147</ele>
        <time>2022-04-28T09:37:42.000Z</time>
      </trkpt>
      <trkpt lat="47.23953" lon="-2.2942">
        <ele>18.60000038147</ele>
        <time>2022-04-28T09:37:48.000Z</time>
      </trkpt>
      <trkpt lat="47.23975" lon="-2.29463">
        <ele>18.60000038147</ele>
        <time>2022-04-28T09:37:55.000Z</time>
      </trkpt>
      <trkpt lat="47.23981" lon="-2.29474">
        <ele>19</ele>
        <time>2022-04-28T09:37:57.000Z</time>
      </trkpt>
      <trkpt lat="47.23985" lon="-2.2948">
        <ele>19.39999961853</ele>
        <time>2022-04-28T09:37:58.000Z</time>
      </trkpt>
      <trkpt lat="47.23988" lon="-2.29486">
        <ele>19.799999237061</ele>
        <time>2022-04-28T09:37:59.000Z</time>
      </trkpt>
      <trkpt lat="47.23991" lon="-2.29493">
        <ele>20.200000762939</ele>
        <time>2022-04-28T09:38:00.000Z</time>
      </trkpt>
      <trkpt lat="47.23993" lon="-2.295">
        <ele>20.60000038147</ele>
        <time>2022-04-28T09:38:01.000Z</time>
      </trkpt>
      <trkpt lat="47.23995" lon="-2.2953">
        <ele>20.60000038147</ele>
        <time>2022-04-28T09:38:05.000Z</time>
      </trkpt>
      <trkpt lat="47.23998" lon="-2.29578">
        <ele>20.60000038147</ele>
        <time>2022-04-28T09:38:11.000Z</time>
      </trkpt>
      <trkpt lat="47.24003" lon="-2.29629">
        <ele>20.60000038147</ele>
        <time>2022-04-28T09:38:18.000Z</time>
      </trkpt>
      <trkpt lat="47.24007" lon="-2.29675">
        <ele>20.60000038147</ele>
        <time>2022-04-28T09:38:24.000Z</time>
      </trkpt>
      <trkpt lat="47.24007" lon="-2.29736">
        <ele>20.60000038147</ele>
        <time>2022-04-28T09:38:32.000Z</time>
      </trkpt>
      <trkpt lat="47.2401" lon="-2.29777">
        <ele>20.60000038147</ele>
        <time>2022-04-28T09:38:38.000Z</time>
      </trkpt>
      <trkpt lat="47.24011" lon="-2.29788">
        <ele>20.60000038147</ele>
        <time>2022-04-28T09:38:42.000Z</time>
      </trkpt>
      <trkpt lat="47.24011" lon="-2.2979">
        <ele>20.60000038147</ele>
        <time>2022-04-28T09:38:44.000Z</time>
      </trkpt>
      <trkpt lat="47.24016" lon="-2.29797">
        <ele>20.60000038147</ele>
        <time>2022-04-28T09:41:01.000Z</time>
      </trkpt>
      <trkpt lat="47.24017" lon="-2.29799">
        <ele>20.60000038147</ele>
        <time>2022-04-28T09:41:02.000Z</time>
      </trkpt>
      <trkpt lat="47.24026" lon="-2.29806">
        <ele>20.60000038147</ele>
        <time>2022-04-28T09:41:06.000Z</time>
      </trkpt>
      <trkpt lat="47.24028" lon="-2.29807">
        <ele>20.60000038147</ele>
        <time>2022-04-28T09:41:07.000Z</time>
      </trkpt>
      <trkpt lat="47.24039" lon="-2.29813">
        <ele>20.60000038147</ele>
        <time>2022-04-28T09:41:11.000Z</time>
      </trkpt>
      <trkpt lat="47.24041" lon="-2.29815">
        <ele>20.60000038147</ele>
        <time>2022-04-28T09:41:12.000Z</time>
      </trkpt>
      <trkpt lat="47.24049" lon="-2.29814">
        <ele>20.60000038147</ele>
        <time>2022-04-28T09:41:15.000Z</time>
      </trkpt>
      <trkpt lat="47.24054" lon="-2.29801">
        <ele>20.60000038147</ele>
        <time>2022-04-28T09:41:19.000Z</time>
      </trkpt>
      <trkpt lat="47.24056" lon="-2.29794">
        <ele>20.60000038147</ele>
        <time>2022-04-28T09:41:21.000Z</time>
      </trkpt>
      <trkpt lat="47.24059" lon="-2.29793">
        <ele>20.60000038147</ele>
        <time>2022-04-28T09:41:22.000Z</time>
      </trkpt>
      <trkpt lat="47.24064" lon="-2.29796">
        <ele>20.60000038147</ele>
        <time>2022-04-28T09:41:24.000Z</time>
      </trkpt>
      <trkpt lat="47.24072" lon="-2.29814">
        <ele>20.60000038147</ele>
        <time>2022-04-28T09:41:29.000Z</time>
      </trkpt>
      <trkpt lat="47.24072" lon="-2.29818">
        <ele>20.60000038147</ele>
        <time>2022-04-28T09:41:30.000Z</time>
      </trkpt>
      <trkpt lat="47.24077" lon="-2.29831">
        <ele>20.60000038147</ele>
        <time>2022-04-28T09:41:33.000Z</time>
      </trkpt>
      <trkpt lat="47.2408" lon="-2.29833">
        <ele>20.60000038147</ele>
        <time>2022-04-28T09:41:34.000Z</time>
      </trkpt>
      <trkpt lat="47.24099" lon="-2.29837">
        <ele>20.60000038147</ele>
        <time>2022-04-28T09:41:39.000Z</time>
      </trkpt>
      <trkpt lat="47.24104" lon="-2.29836">
        <ele>20.60000038147</ele>
        <time>2022-04-28T09:41:40.000Z</time>
      </trkpt>
      <trkpt lat="47.24126" lon="-2.29831">
        <ele>20.60000038147</ele>
        <time>2022-04-28T09:41:44.000Z</time>
      </trkpt>
      <trkpt lat="47.24133" lon="-2.2983">
        <ele>20.60000038147</ele>
        <time>2022-04-28T09:41:45.000Z</time>
      </trkpt>
      <trkpt lat="47.24145" lon="-2.29834">
        <ele>20.200000762939</ele>
        <time>2022-04-28T09:41:47.000Z</time>
      </trkpt>
      <trkpt lat="47.2415" lon="-2.29836">
        <ele>19.799999237061</ele>
        <time>2022-04-28T09:41:48.000Z</time>
      </trkpt>
      <trkpt lat="47.24155" lon="-2.29838">
        <ele>19.39999961853</ele>
        <time>2022-04-28T09:41:49.000Z</time>
      </trkpt>
      <trkpt lat="47.2416" lon="-2.2984">
        <ele>19</ele>
        <time>2022-04-28T09:41:50.000Z</time>
      </trkpt>
      <trkpt lat="47.24163" lon="-2.29841">
        <ele>18.60000038147</ele>
        <time>2022-04-28T09:41:51.000Z</time>
      </trkpt>
      <trkpt lat="47.24167" lon="-2.29845">
        <ele>18.60000038147</ele>
        <time>2022-04-28T09:41:53.000Z</time>
      </trkpt>
      <trkpt lat="47.24167" lon="-2.29847">
        <ele>18.60000038147</ele>
        <time>2022-04-28T09:41:54.000Z</time>
      </trkpt>
      <trkpt lat="47.24166" lon="-2.29856">
        <ele>18.60000038147</ele>
        <time>2022-04-28T09:41:57.000Z</time>
      </trkpt>
      <trkpt lat="47.24169" lon="-2.29868">
        <ele>18.60000038147</ele>
        <time>2022-04-28T09:42:01.000Z</time>
      </trkpt>
      <trkpt lat="47.24171" lon="-2.29872">
        <ele>18.60000038147</ele>
        <time>2022-04-28T09:42:03.000Z</time>
      </trkpt>
      <trkpt lat="47.24169" lon="-2.29887">
        <ele>18.60000038147</ele>
        <time>2022-04-28T09:42:07.000Z</time>
      </trkpt>
      <trkpt lat="47.24165" lon="-2.29894">
        <ele>18.60000038147</ele>
        <time>2022-04-28T09:42:09.000Z</time>
      </trkpt>
      <trkpt lat="47.24162" lon="-2.29901">
        <ele>18.60000038147</ele>
        <time>2022-04-28T09:42:11.000Z</time>
      </trkpt>
      <trkpt lat="47.24158" lon="-2.2992">
        <ele>18.60000038147</ele>
        <time>2022-04-28T09:42:15.000Z</time>
      </trkpt>
      <trkpt lat="47.24156" lon="-2.29943">
        <ele>18.60000038147</ele>
        <time>2022-04-28T09:42:19.000Z</time>
      </trkpt>
      <trkpt lat="47.24164" lon="-2.2996">
        <ele>18.60000038147</ele>
        <time>2022-04-28T09:42:24.000Z</time>
      </trkpt>
      <trkpt lat="47.24166" lon="-2.29964">
        <ele>18.60000038147</ele>
        <time>2022-04-28T09:42:25.000Z</time>
      </trkpt>
      <trkpt lat="47.24169" lon="-2.29969">
        <ele>18.200000762939</ele>
        <time>2022-04-28T09:42:26.000Z</time>
      </trkpt>
      <trkpt lat="47.24171" lon="-2.29973">
        <ele>17.799999237061</ele>
        <time>2022-04-28T09:42:27.000Z</time>
      </trkpt>
      <trkpt lat="47.24173" lon="-2.29978">
        <ele>17.200000762939</ele>
        <time>2022-04-28T09:42:28.000Z</time>
      </trkpt>
      <trkpt lat="47.24175" lon="-2.29984">
        <ele>16.39999961853</ele>
        <time>2022-04-28T09:42:29.000Z</time>
      </trkpt>
      <trkpt lat="47.24175" lon="-2.29989">
        <ele>16</ele>
        <time>2022-04-28T09:42:30.000Z</time>
      </trkpt>
      <trkpt lat="47.24175" lon="-2.29996">
        <ele>15.60000038147</ele>
        <time>2022-04-28T09:42:31.000Z</time>
      </trkpt>
      <trkpt lat="47.24174" lon="-2.30001">
        <ele>15</ele>
        <time>2022-04-28T09:42:32.000Z</time>
      </trkpt>
      <trkpt lat="47.24174" lon="-2.30006">
        <ele>14.60000038147</ele>
        <time>2022-04-28T09:42:33.000Z</time>
      </trkpt>
      <trkpt lat="47.24173" lon="-2.30009">
        <ele>14.199999809265</ele>
        <time>2022-04-28T09:42:34.000Z</time>
      </trkpt>
      <trkpt lat="47.24173" lon="-2.30013">
        <ele>14.199999809265</ele>
        <time>2022-04-28T09:42:35.000Z</time>
      </trkpt>
      <trkpt lat="47.24172" lon="-2.30019">
        <ele>14.199999809265</ele>
        <time>2022-04-28T09:42:37.000Z</time>
      </trkpt>
      <trkpt lat="47.24167" lon="-2.30026">
        <ele>14.199999809265</ele>
        <time>2022-04-28T09:42:41.000Z</time>
      </trkpt>
      <trkpt lat="47.24166" lon="-2.30028">
        <ele>14.199999809265</ele>
        <time>2022-04-28T09:42:42.000Z</time>
      </trkpt>
      <trkpt lat="47.24157" lon="-2.30046">
        <ele>14.199999809265</ele>
        <time>2022-04-28T09:42:46.000Z</time>
      </trkpt>
      <trkpt lat="47.2415" lon="-2.30054">
        <ele>14.199999809265</ele>
        <time>2022-04-28T09:42:48.000Z</time>
      </trkpt>
      <trkpt lat="47.24139" lon="-2.30057">
        <ele>14.199999809265</ele>
        <time>2022-04-28T09:42:50.000Z</time>
      </trkpt>
      <trkpt lat="47.24117" lon="-2.30067">
        <ele>14.199999809265</ele>
        <time>2022-04-28T09:42:56.000Z</time>
      </trkpt>
      <trkpt lat="47.24112" lon="-2.30071">
        <ele>14.199999809265</ele>
        <time>2022-04-28T09:42:58.000Z</time>
      </trkpt>
      <trkpt lat="47.24108" lon="-2.3008">
        <ele>14.199999809265</ele>
        <time>2022-04-28T09:43:00.000Z</time>
      </trkpt>
      <trkpt lat="47.24108" lon="-2.30103">
        <ele>14.199999809265</ele>
        <time>2022-04-28T09:43:04.000Z</time>
      </trkpt>
      <trkpt lat="47.24111" lon="-2.3011">
        <ele>14.199999809265</ele>
        <time>2022-04-28T09:43:05.000Z</time>
      </trkpt>
      <trkpt lat="47.24114" lon="-2.30126">
        <ele>14.199999809265</ele>
        <time>2022-04-28T09:43:08.000Z</time>
      </trkpt>
      <trkpt lat="47.24117" lon="-2.30133">
        <ele>13.800000190735</ele>
        <time>2022-04-28T09:43:10.000Z</time>
      </trkpt>
      <trkpt lat="47.24117" lon="-2.30138">
        <ele>13.39999961853</ele>
        <time>2022-04-28T09:43:11.000Z</time>
      </trkpt>
      <trkpt lat="47.24117" lon="-2.30142">
        <ele>13</ele>
        <time>2022-04-28T09:43:12.000Z</time>
      </trkpt>
      <trkpt lat="47.24117" lon="-2.30145">
        <ele>12.60000038147</ele>
        <time>2022-04-28T09:43:13.000Z</time>
      </trkpt>
      <trkpt lat="47.24117" lon="-2.30148">
        <ele>12.199999809265</ele>
        <time>2022-04-28T09:43:14.000Z</time>
      </trkpt>
      <trkpt lat="47.24126" lon="-2.30161">
        <ele>12.199999809265</ele>
        <time>2022-04-28T09:43:20.000Z</time>
      </trkpt>
      <trkpt lat="47.24128" lon="-2.30162">
        <ele>11.800000190735</ele>
        <time>2022-04-28T09:43:21.000Z</time>
      </trkpt>
      <trkpt lat="47.2413" lon="-2.30162">
        <ele>11.199999809265</ele>
        <time>2022-04-28T09:43:22.000Z</time>
      </trkpt>
      <trkpt lat="47.24132" lon="-2.30163">
        <ele>10.800000190735</ele>
        <time>2022-04-28T09:43:23.000Z</time>
      </trkpt>
      <trkpt lat="47.24133" lon="-2.30165">
        <ele>10.39999961853</ele>
        <time>2022-04-28T09:43:24.000Z</time>
      </trkpt>
      <trkpt lat="47.24134" lon="-2.30168">
        <ele>10</ele>
        <time>2022-04-28T09:43:25.000Z</time>
      </trkpt>
      <trkpt lat="47.24135" lon="-2.30171">
        <ele>9.6000003814697</ele>
        <time>2022-04-28T09:43:26.000Z</time>
      </trkpt>
      <trkpt lat="47.24136" lon="-2.30173">
        <ele>9.1999998092651</ele>
        <time>2022-04-28T09:43:27.000Z</time>
      </trkpt>
      <trkpt lat="47.24137" lon="-2.30175">
        <ele>8.6000003814697</ele>
        <time>2022-04-28T09:43:28.000Z</time>
      </trkpt>
      <trkpt lat="47.24138" lon="-2.30176">
        <ele>8.1999998092651</ele>
        <time>2022-04-28T09:43:29.000Z</time>
      </trkpt>
      <trkpt lat="47.24137" lon="-2.30183">
        <ele>7.8000001907349</ele>
        <time>2022-04-28T09:43:35.000Z</time>
      </trkpt>
      <trkpt lat="47.24148" lon="-2.30203">
        <ele>7.8000001907349</ele>
        <time>2022-04-28T09:43:39.000Z</time>
      </trkpt>
      <trkpt lat="47.24157" lon="-2.30221">
        <ele>7</ele>
        <time>2022-04-28T09:43:43.000Z</time>
      </trkpt>
      <trkpt lat="47.24159" lon="-2.30225">
        <ele>6.5999999046326</ele>
        <time>2022-04-28T09:43:44.000Z</time>
      </trkpt>
      <trkpt lat="47.2416" lon="-2.30229">
        <ele>6.1999998092651</ele>
        <time>2022-04-28T09:43:45.000Z</time>
      </trkpt>
      <trkpt lat="47.24162" lon="-2.30231">
        <ele>5.8000001907349</ele>
        <time>2022-04-28T09:43:46.000Z</time>
      </trkpt>
      <trkpt lat="47.24166" lon="-2.30235">
        <ele>5.8000001907349</ele>
        <time>2022-04-28T09:43:49.000Z</time>
      </trkpt>
      <trkpt lat="47.24167" lon="-2.30236">
        <ele>5.8000001907349</ele>
        <time>2022-04-28T09:44:08.000Z</time>
      </trkpt>
      <trkpt lat="47.24172" lon="-2.3024">
        <ele>5.8000001907349</ele>
        <time>2022-04-28T09:44:10.000Z</time>
      </trkpt>
      <trkpt lat="47.2418" lon="-2.30239">
        <ele>5.8000001907349</ele>
        <time>2022-04-28T09:44:12.000Z</time>
      </trkpt>
      <trkpt lat="47.24184" lon="-2.30237">
        <ele>5.8000001907349</ele>
        <time>2022-04-28T09:44:13.000Z</time>
      </trkpt>
      <trkpt lat="47.24192" lon="-2.30244">
        <ele>5.8000001907349</ele>
        <time>2022-04-28T09:44:16.000Z</time>
      </trkpt>
      <trkpt lat="47.24194" lon="-2.30263">
        <ele>5.8000001907349</ele>
        <time>2022-04-28T09:44:19.000Z</time>
      </trkpt>
      <trkpt lat="47.24195" lon="-2.30275">
        <ele>5.8000001907349</ele>
        <time>2022-04-28T09:44:21.000Z</time>
      </trkpt>
      <trkpt lat="47.24197" lon="-2.30298">
        <ele>5.8000001907349</ele>
        <time>2022-04-28T09:44:25.000Z</time>
      </trkpt>
      <trkpt lat="47.24199" lon="-2.30311">
        <ele>5.8000001907349</ele>
        <time>2022-04-28T09:44:27.000Z</time>
      </trkpt>
      <trkpt lat="47.24203" lon="-2.30321">
        <ele>5.8000001907349</ele>
        <time>2022-04-28T09:44:29.000Z</time>
      </trkpt>
      <trkpt lat="47.24212" lon="-2.30327">
        <ele>5.8000001907349</ele>
        <time>2022-04-28T09:44:32.000Z</time>
      </trkpt>
      <trkpt lat="47.24223" lon="-2.30322">
        <ele>6.1999998092651</ele>
        <time>2022-04-28T09:44:36.000Z</time>
      </trkpt>
      <trkpt lat="47.24225" lon="-2.30321">
        <ele>6.5999999046326</ele>
        <time>2022-04-28T09:44:37.000Z</time>
      </trkpt>
      <trkpt lat="47.24227" lon="-2.3032">
        <ele>7</ele>
        <time>2022-04-28T09:44:38.000Z</time>
      </trkpt>
      <trkpt lat="47.24229" lon="-2.30321">
        <ele>7.4000000953674</ele>
        <time>2022-04-28T09:44:39.000Z</time>
      </trkpt>
      <trkpt lat="47.24231" lon="-2.30322">
        <ele>7.8000001907349</ele>
        <time>2022-04-28T09:44:40.000Z</time>
      </trkpt>
      <trkpt lat="47.24234" lon="-2.30323">
        <ele>8.1999998092651</ele>
        <time>2022-04-28T09:44:42.000Z</time>
      </trkpt>
      <trkpt lat="47.24236" lon="-2.30325">
        <ele>8.6000003814697</ele>
        <time>2022-04-28T09:44:43.000Z</time>
      </trkpt>
      <trkpt lat="47.24238" lon="-2.30328">
        <ele>9.1999998092651</ele>
        <time>2022-04-28T09:44:44.000Z</time>
      </trkpt>
      <trkpt lat="47.2424" lon="-2.30331">
        <ele>9.6000003814697</ele>
        <time>2022-04-28T09:44:45.000Z</time>
      </trkpt>
      <trkpt lat="47.24243" lon="-2.30335">
        <ele>10</ele>
        <time>2022-04-28T09:44:46.000Z</time>
      </trkpt>
      <trkpt lat="47.24259" lon="-2.30363">
        <ele>10</ele>
        <time>2022-04-28T09:44:53.000Z</time>
      </trkpt>
      <trkpt lat="47.24279" lon="-2.30397">
        <ele>10</ele>
        <time>2022-04-28T09:45:00.000Z</time>
      </trkpt>
      <trkpt lat="47.24285" lon="-2.30407">
        <ele>10</ele>
        <time>2022-04-28T09:45:02.000Z</time>
      </trkpt>
      <trkpt lat="47.24295" lon="-2.30417">
        <ele>10</ele>
        <time>2022-04-28T09:45:05.000Z</time>
      </trkpt>
      <trkpt lat="47.24307" lon="-2.30423">
        <ele>10</ele>
        <time>2022-04-28T09:45:08.000Z</time>
      </trkpt>
      <trkpt lat="47.24318" lon="-2.3043">
        <ele>10</ele>
        <time>2022-04-28T09:45:11.000Z</time>
      </trkpt>
      <trkpt lat="47.24322" lon="-2.30434">
        <ele>10</ele>
        <time>2022-04-28T09:45:12.000Z</time>
      </trkpt>
      <trkpt lat="47.24332" lon="-2.3044">
        <ele>10</ele>
        <time>2022-04-28T09:45:15.000Z</time>
      </trkpt>
      <trkpt lat="47.24336" lon="-2.30442">
        <ele>10</ele>
        <time>2022-04-28T09:45:16.000Z</time>
      </trkpt>
      <trkpt lat="47.24358" lon="-2.30449">
        <ele>10</ele>
        <time>2022-04-28T09:45:21.000Z</time>
      </trkpt>
      <trkpt lat="47.24372" lon="-2.30447">
        <ele>10</ele>
        <time>2022-04-28T09:45:24.000Z</time>
      </trkpt>
      <trkpt lat="47.24377" lon="-2.30453">
        <ele>9.3999996185303</ele>
        <time>2022-04-28T09:45:26.000Z</time>
      </trkpt>
      <trkpt lat="47.24377" lon="-2.30459">
        <ele>9</ele>
        <time>2022-04-28T09:45:27.000Z</time>
      </trkpt>
      <trkpt lat="47.24376" lon="-2.30465">
        <ele>8.6000003814697</ele>
        <time>2022-04-28T09:45:28.000Z</time>
      </trkpt>
      <trkpt lat="47.24375" lon="-2.30471">
        <ele>8.1999998092651</ele>
        <time>2022-04-28T09:45:29.000Z</time>
      </trkpt>
      <trkpt lat="47.24372" lon="-2.30478">
        <ele>7.8000001907349</ele>
        <time>2022-04-28T09:45:30.000Z</time>
      </trkpt>
      <trkpt lat="47.24371" lon="-2.30484">
        <ele>7.8000001907349</ele>
        <time>2022-04-28T09:45:31.000Z</time>
      </trkpt>
      <trkpt lat="47.24366" lon="-2.30503">
        <ele>7.4000000953674</ele>
        <time>2022-04-28T09:45:34.000Z</time>
      </trkpt>
      <trkpt lat="47.24365" lon="-2.30509">
        <ele>6.8000001907349</ele>
        <time>2022-04-28T09:45:35.000Z</time>
      </trkpt>
      <trkpt lat="47.24365" lon="-2.30516">
        <ele>6.4000000953674</ele>
        <time>2022-04-28T09:45:36.000Z</time>
      </trkpt>
      <trkpt lat="47.24365" lon="-2.30522">
        <ele>6</ele>
        <time>2022-04-28T09:45:37.000Z</time>
      </trkpt>
      <trkpt lat="47.24365" lon="-2.30528">
        <ele>5.4000000953674</ele>
        <time>2022-04-28T09:45:38.000Z</time>
      </trkpt>
      <trkpt lat="47.24366" lon="-2.30535">
        <ele>5</ele>
        <time>2022-04-28T09:45:39.000Z</time>
      </trkpt>
      <trkpt lat="47.24368" lon="-2.30543">
        <ele>4.4000000953674</ele>
        <time>2022-04-28T09:45:40.000Z</time>
      </trkpt>
      <trkpt lat="47.24371" lon="-2.30549">
        <ele>4</ele>
        <time>2022-04-28T09:45:41.000Z</time>
      </trkpt>
      <trkpt lat="47.24374" lon="-2.30555">
        <ele>3.4000000953674</ele>
        <time>2022-04-28T09:45:42.000Z</time>
      </trkpt>
      <trkpt lat="47.24378" lon="-2.3056">
        <ele>3</ele>
        <time>2022-04-28T09:45:43.000Z</time>
      </trkpt>
      <trkpt lat="47.24387" lon="-2.30567">
        <ele>3</ele>
        <time>2022-04-28T09:45:45.000Z</time>
      </trkpt>
      <trkpt lat="47.24404" lon="-2.30575">
        <ele>3</ele>
        <time>2022-04-28T09:45:49.000Z</time>
      </trkpt>
      <trkpt lat="47.24408" lon="-2.30575">
        <ele>3</ele>
        <time>2022-04-28T09:45:50.000Z</time>
      </trkpt>
      <trkpt lat="47.24421" lon="-2.30571">
        <ele>3</ele>
        <time>2022-04-28T09:45:53.000Z</time>
      </trkpt>
      <trkpt lat="47.24425" lon="-2.30569">
        <ele>3</ele>
        <time>2022-04-28T09:45:54.000Z</time>
      </trkpt>
      <trkpt lat="47.24438" lon="-2.30562">
        <ele>3</ele>
        <time>2022-04-28T09:45:57.000Z</time>
      </trkpt>
      <trkpt lat="47.24452" lon="-2.30552">
        <ele>3</ele>
        <time>2022-04-28T09:46:00.000Z</time>
      </trkpt>
      <trkpt lat="47.24456" lon="-2.30548">
        <ele>3.4000000953674</ele>
        <time>2022-04-28T09:46:01.000Z</time>
      </trkpt>
      <trkpt lat="47.2446" lon="-2.30547">
        <ele>3.7999999523163</ele>
        <time>2022-04-28T09:46:02.000Z</time>
      </trkpt>
      <trkpt lat="47.24463" lon="-2.30547">
        <ele>4.1999998092651</ele>
        <time>2022-04-28T09:46:03.000Z</time>
      </trkpt>
      <trkpt lat="47.24466" lon="-2.30548">
        <ele>4.5999999046326</ele>
        <time>2022-04-28T09:46:04.000Z</time>
      </trkpt>
      <trkpt lat="47.24468" lon="-2.30549">
        <ele>5</ele>
        <time>2022-04-28T09:46:05.000Z</time>
      </trkpt>
      <trkpt lat="47.24474" lon="-2.30563">
        <ele>5</ele>
        <time>2022-04-28T09:46:10.000Z</time>
      </trkpt>
      <trkpt lat="47.2447" lon="-2.30573">
        <ele>5.4000000953674</ele>
        <time>2022-04-28T09:46:14.000Z</time>
      </trkpt>
      <trkpt lat="47.24469" lon="-2.30577">
        <ele>5.8000001907349</ele>
        <time>2022-04-28T09:46:15.000Z</time>
      </trkpt>
      <trkpt lat="47.24467" lon="-2.30581">
        <ele>6.4000000953674</ele>
        <time>2022-04-28T09:46:16.000Z</time>
      </trkpt>
      <trkpt lat="47.24465" lon="-2.30584">
        <ele>6.8000001907349</ele>
        <time>2022-04-28T09:46:17.000Z</time>
      </trkpt>
      <trkpt lat="47.24463" lon="-2.30587">
        <ele>7.1999998092651</ele>
        <time>2022-04-28T09:46:18.000Z</time>
      </trkpt>
      <trkpt lat="47.24458" lon="-2.30592">
        <ele>7.1999998092651</ele>
        <time>2022-04-28T09:46:20.000Z</time>
      </trkpt>
      <trkpt lat="47.2444" lon="-2.30612">
        <ele>7.1999998092651</ele>
        <time>2022-04-28T09:46:27.000Z</time>
      </trkpt>
      <trkpt lat="47.24423" lon="-2.30629">
        <ele>7.1999998092651</ele>
        <time>2022-04-28T09:46:33.000Z</time>
      </trkpt>
      <trkpt lat="47.2442" lon="-2.30633">
        <ele>7.5999999046326</ele>
        <time>2022-04-28T09:46:34.000Z</time>
      </trkpt>
      <trkpt lat="47.24419" lon="-2.30638">
        <ele>8</ele>
        <time>2022-04-28T09:46:35.000Z</time>
      </trkpt>
      <trkpt lat="47.24418" lon="-2.30642">
        <ele>8.3999996185303</ele>
        <time>2022-04-28T09:46:36.000Z</time>
      </trkpt>
      <trkpt lat="47.24416" lon="-2.30647">
        <ele>9.1999998092651</ele>
        <time>2022-04-28T09:46:37.000Z</time>
      </trkpt>
      <trkpt lat="47.24405" lon="-2.30689">
        <ele>9.1999998092651</ele>
        <time>2022-04-28T09:46:44.000Z</time>
      </trkpt>
      <trkpt lat="47.24402" lon="-2.30703">
        <ele>9.1999998092651</ele>
        <time>2022-04-28T09:46:46.000Z</time>
      </trkpt>
      <trkpt lat="47.24399" lon="-2.3072">
        <ele>9.1999998092651</ele>
        <time>2022-04-28T09:46:49.000Z</time>
      </trkpt>
      <trkpt lat="47.24398" lon="-2.30733">
        <ele>9.1999998092651</ele>
        <time>2022-04-28T09:46:51.000Z</time>
      </trkpt>
      <trkpt lat="47.24395" lon="-2.30748">
        <ele>9.1999998092651</ele>
        <time>2022-04-28T09:46:54.000Z</time>
      </trkpt>
      <trkpt lat="47.24382" lon="-2.30767">
        <ele>9.1999998092651</ele>
        <time>2022-04-28T09:46:58.000Z</time>
      </trkpt>
      <trkpt lat="47.24361" lon="-2.30788">
        <ele>9.1999998092651</ele>
        <time>2022-04-28T09:47:02.000Z</time>
      </trkpt>
      <trkpt lat="47.24334" lon="-2.30798">
        <ele>8.8000001907349</ele>
        <time>2022-04-28T09:47:06.000Z</time>
      </trkpt>
      <trkpt lat="47.24327" lon="-2.308">
        <ele>8.3999996185303</ele>
        <time>2022-04-28T09:47:07.000Z</time>
      </trkpt>
      <trkpt lat="47.2432" lon="-2.30803">
        <ele>8</ele>
        <time>2022-04-28T09:47:08.000Z</time>
      </trkpt>
      <trkpt lat="47.24313" lon="-2.30808">
        <ele>7.5999999046326</ele>
        <time>2022-04-28T09:47:09.000Z</time>
      </trkpt>
      <trkpt lat="47.24307" lon="-2.30813">
        <ele>7.1999998092651</ele>
        <time>2022-04-28T09:47:10.000Z</time>
      </trkpt>
      <trkpt lat="47.24303" lon="-2.30819">
        <ele>7.1999998092651</ele>
        <time>2022-04-28T09:47:11.000Z</time>
      </trkpt>
      <trkpt lat="47.24289" lon="-2.30851">
        <ele>7.1999998092651</ele>
        <time>2022-04-28T09:47:15.000Z</time>
      </trkpt>
      <trkpt lat="47.24288" lon="-2.30861">
        <ele>6.8000001907349</ele>
        <time>2022-04-28T09:47:16.000Z</time>
      </trkpt>
      <trkpt lat="47.24288" lon="-2.30872">
        <ele>6.4000000953674</ele>
        <time>2022-04-28T09:47:17.000Z</time>
      </trkpt>
      <trkpt lat="47.24289" lon="-2.30882">
        <ele>6</ele>
        <time>2022-04-28T09:47:18.000Z</time>
      </trkpt>
      <trkpt lat="47.2429" lon="-2.30891">
        <ele>5.5999999046326</ele>
        <time>2022-04-28T09:47:19.000Z</time>
      </trkpt>
      <trkpt lat="47.24292" lon="-2.309">
        <ele>5</ele>
        <time>2022-04-28T09:47:20.000Z</time>
      </trkpt>
      <trkpt lat="47.24294" lon="-2.30918">
        <ele>5</ele>
        <time>2022-04-28T09:47:22.000Z</time>
      </trkpt>
      <trkpt lat="47.24294" lon="-2.30928">
        <ele>5</ele>
        <time>2022-04-28T09:47:23.000Z</time>
      </trkpt>
      <trkpt lat="47.24294" lon="-2.30938">
        <ele>4.5999999046326</ele>
        <time>2022-04-28T09:47:24.000Z</time>
      </trkpt>
      <trkpt lat="47.24293" lon="-2.30948">
        <ele>4.1999998092651</ele>
        <time>2022-04-28T09:47:25.000Z</time>
      </trkpt>
      <trkpt lat="47.24292" lon="-2.30959">
        <ele>3.4000000953674</ele>
        <time>2022-04-28T09:47:26.000Z</time>
      </trkpt>
      <trkpt lat="47.24289" lon="-2.30972">
        <ele>3</ele>
        <time>2022-04-28T09:47:27.000Z</time>
      </trkpt>
      <trkpt lat="47.24287" lon="-2.30984">
        <ele>2.5999999046326</ele>
        <time>2022-04-28T09:47:28.000Z</time>
      </trkpt>
      <trkpt lat="47.24284" lon="-2.30996">
        <ele>2</ele>
        <time>2022-04-28T09:47:29.000Z</time>
      </trkpt>
      <trkpt lat="47.24282" lon="-2.31006">
        <ele>1.6000000238419</ele>
        <time>2022-04-28T09:47:30.000Z</time>
      </trkpt>
      <trkpt lat="47.2428" lon="-2.31016">
        <ele>1</ele>
        <time>2022-04-28T09:47:32.000Z</time>
      </trkpt>
      <trkpt lat="47.2428" lon="-2.31023">
        <ele>0.20000000298023</ele>
        <time>2022-04-28T09:47:33.000Z</time>
      </trkpt>
      <trkpt lat="47.2428" lon="-2.31028">
        <ele>-0.40000000596046</ele>
        <time>2022-04-28T09:47:34.000Z</time>
      </trkpt>
      <trkpt lat="47.24282" lon="-2.31031">
        <ele>-1</ele>
        <time>2022-04-28T09:47:35.000Z</time>
      </trkpt>
      <trkpt lat="47.24285" lon="-2.31033">
        <ele>-1.6000000238419</ele>
        <time>2022-04-28T09:47:36.000Z</time>
      </trkpt>
      <trkpt lat="47.24292" lon="-2.31033">
        <ele>-1.6000000238419</ele>
        <time>2022-04-28T09:47:38.000Z</time>
      </trkpt>
      <trkpt lat="47.243" lon="-2.31032">
        <ele>-1.6000000238419</ele>
        <time>2022-04-28T09:47:40.000Z</time>
      </trkpt>
      <trkpt lat="47.24316" lon="-2.31036">
        <ele>-1.6000000238419</ele>
        <time>2022-04-28T09:47:45.000Z</time>
      </trkpt>
      <trkpt lat="47.24338" lon="-2.31053">
        <ele>-1.6000000238419</ele>
        <time>2022-04-28T09:47:52.000Z</time>
      </trkpt>
      <trkpt lat="47.24343" lon="-2.31063">
        <ele>-1.6000000238419</ele>
        <time>2022-04-28T09:47:54.000Z</time>
      </trkpt>
      <trkpt lat="47.24347" lon="-2.31075">
        <ele>-1.6000000238419</ele>
        <time>2022-04-28T09:47:56.000Z</time>
      </trkpt>
      <trkpt lat="47.24348" lon="-2.31082">
        <ele>-1.6000000238419</ele>
        <time>2022-04-28T09:47:57.000Z</time>
      </trkpt>
      <trkpt lat="47.24358" lon="-2.31113">
        <ele>-1.6000000238419</ele>
        <time>2022-04-28T09:48:02.000Z</time>
      </trkpt>
      <trkpt lat="47.24372" lon="-2.31139">
        <ele>-1.6000000238419</ele>
        <time>2022-04-28T09:48:07.000Z</time>
      </trkpt>
      <trkpt lat="47.24375" lon="-2.31144">
        <ele>-1.2000000476837</ele>
        <time>2022-04-28T09:48:08.000Z</time>
      </trkpt>
      <trkpt lat="47.24378" lon="-2.31149">
        <ele>-0.80000001192093</ele>
        <time>2022-04-28T09:48:09.000Z</time>
      </trkpt>
      <trkpt lat="47.24382" lon="-2.31154">
        <ele>-0.40000000596046</ele>
        <time>2022-04-28T09:48:10.000Z</time>
      </trkpt>
      <trkpt lat="47.24385" lon="-2.31158">
        <ele>18.5</ele>
        <time>2022-04-28T09:48:11.000Z</time>
      </trkpt>
      <trkpt lat="47.24389" lon="-2.31161">
        <ele>0.60000002384186</ele>
        <time>2022-04-28T09:48:12.000Z</time>
      </trkpt>
      <trkpt lat="47.24391" lon="-2.31164">
        <ele>0.60000002384186</ele>
        <time>2022-04-28T09:48:13.000Z</time>
      </trkpt>
      <trkpt lat="47.24405" lon="-2.3118">
        <ele>0.60000002384186</ele>
        <time>2022-04-28T09:48:18.000Z</time>
      </trkpt>
      <trkpt lat="47.24412" lon="-2.31191">
        <ele>15.4</ele>
        <time>2022-04-28T09:48:22.000Z</time>
      </trkpt>
      <trkpt lat="47.24413" lon="-2.31194">
        <ele>-0.40000000596046</ele>
        <time>2022-04-28T09:48:23.000Z</time>
      </trkpt>
      <trkpt lat="47.24414" lon="-2.31199">
        <ele>-1</ele>
        <time>2022-04-28T09:48:24.000Z</time>
      </trkpt>
      <trkpt lat="47.24416" lon="-2.31204">
        <ele>-1.3999999761581</ele>
        <time>2022-04-28T09:48:25.000Z</time>
      </trkpt>
      <trkpt lat="47.24417" lon="-2.31209">
        <ele>-2</ele>
        <time>2022-04-28T09:48:26.000Z</time>
      </trkpt>
      <trkpt lat="47.24419" lon="-2.31215">
        <ele>-2</ele>
        <time>2022-04-28T09:48:27.000Z</time>
      </trkpt>
      <trkpt lat="47.24421" lon="-2.3122">
        <ele>-2.4000000953674</ele>
        <time>2022-04-28T09:48:28.000Z</time>
      </trkpt>
      <trkpt lat="47.24424" lon="-2.31222">
        <ele>-2.7999999523163</ele>
        <time>2022-04-28T09:48:29.000Z</time>
      </trkpt>
      <trkpt lat="47.24428" lon="-2.31222">
        <ele>-3.2000000476837</ele>
        <time>2022-04-28T09:48:30.000Z</time>
      </trkpt>
      <trkpt lat="47.24431" lon="-2.31221">
        <ele>-3.7999999523163</ele>
        <time>2022-04-28T09:48:31.000Z</time>
      </trkpt>
      <trkpt lat="47.24434" lon="-2.31221">
        <ele>-4.1999998092651</ele>
        <time>2022-04-28T09:48:32.000Z</time>
      </trkpt>
      <trkpt lat="47.24441" lon="-2.31226">
        <ele>-4.1999998092651</ele>
        <time>2022-04-28T09:48:35.000Z</time>
      </trkpt>
      <trkpt lat="47.24444" lon="-2.31228">
        <ele>-3.7999999523163</ele>
        <time>2022-04-28T09:48:36.000Z</time>
      </trkpt>
      <trkpt lat="47.24446" lon="-2.31231">
        <ele>-3.2000000476837</ele>
        <time>2022-04-28T09:48:37.000Z</time>
      </trkpt>
      <trkpt lat="47.24447" lon="-2.31234">
        <ele>-2.7999999523163</ele>
        <time>2022-04-28T09:48:38.000Z</time>
      </trkpt>
      <trkpt lat="47.24449" lon="-2.31239">
        <ele>-2.4000000953674</ele>
        <time>2022-04-28T09:48:39.000Z</time>
      </trkpt>
      <trkpt lat="47.24452" lon="-2.31244">
        <ele>-2</ele>
        <time>2022-04-28T09:48:40.000Z</time>
      </trkpt>
      <trkpt lat="47.24454" lon="-2.31249">
        <ele>-2</ele>
        <time>2022-04-28T09:48:41.000Z</time>
      </trkpt>
      <trkpt lat="47.2447" lon="-2.31286">
        <ele>-2</ele>
        <time>2022-04-28T09:48:48.000Z</time>
      </trkpt>
      <trkpt lat="47.24474" lon="-2.31296">
        <ele>-1.6000000238419</ele>
        <time>2022-04-28T09:48:50.000Z</time>
      </trkpt>
      <trkpt lat="47.24477" lon="-2.31301">
        <ele>-1.2000000476837</ele>
        <time>2022-04-28T09:48:51.000Z</time>
      </trkpt>
      <trkpt lat="47.24479" lon="-2.31305">
        <ele>-0.80000001192093</ele>
        <time>2022-04-28T09:48:52.000Z</time>
      </trkpt>
      <trkpt lat="47.24481" lon="-2.3131">
        <ele>-0.40000000596046</ele>
        <time>2022-04-28T09:48:53.000Z</time>
      </trkpt>
      <trkpt lat="47.24483" lon="-2.31314">
        <ele>18.9</ele>
        <time>2022-04-28T09:48:54.000Z</time>
      </trkpt>
      <trkpt lat="47.24491" lon="-2.31335">
        <ele>20</ele>
        <time>2022-04-28T09:49:00.000Z</time>
      </trkpt>
      <trkpt lat="47.24495" lon="-2.31346">
        <ele>0.40000000596046</ele>
        <time>2022-04-28T09:49:03.000Z</time>
      </trkpt>
      <trkpt lat="47.24497" lon="-2.31349">
        <ele>1</ele>
        <time>2022-04-28T09:49:04.000Z</time>
      </trkpt>
      <trkpt lat="47.24499" lon="-2.31352">
        <ele>1.3999999761581</ele>
        <time>2022-04-28T09:49:05.000Z</time>
      </trkpt>
      <trkpt lat="47.24501" lon="-2.31355">
        <ele>2.2000000476837</ele>
        <time>2022-04-28T09:49:06.000Z</time>
      </trkpt>
      <trkpt lat="47.24514" lon="-2.31369">
        <ele>2.5999999046326</ele>
        <time>2022-04-28T09:49:11.000Z</time>
      </trkpt>
      <trkpt lat="47.24516" lon="-2.31371">
        <ele>3</ele>
        <time>2022-04-28T09:49:12.000Z</time>
      </trkpt>
      <trkpt lat="47.24518" lon="-2.31373">
        <ele>3.4000000953674</ele>
        <time>2022-04-28T09:49:13.000Z</time>
      </trkpt>
      <trkpt lat="47.24519" lon="-2.31376">
        <ele>3.7999999523163</ele>
        <time>2022-04-28T09:49:14.000Z</time>
      </trkpt>
      <trkpt lat="47.24522" lon="-2.31378">
        <ele>4.1999998092651</ele>
        <time>2022-04-28T09:49:15.000Z</time>
      </trkpt>
      <trkpt lat="47.24527" lon="-2.31381">
        <ele>4.1999998092651</ele>
        <time>2022-04-28T09:49:17.000Z</time>
      </trkpt>
      <trkpt lat="47.2455" lon="-2.31385">
        <ele>4.1999998092651</ele>
        <time>2022-04-28T09:49:23.000Z</time>
      </trkpt>
      <trkpt lat="47.24554" lon="-2.31384">
        <ele>4.5999999046326</ele>
        <time>2022-04-28T09:49:24.000Z</time>
      </trkpt>
      <trkpt lat="47.24558" lon="-2.31384">
        <ele>5</ele>
        <time>2022-04-28T09:49:25.000Z</time>
      </trkpt>
      <trkpt lat="47.24561" lon="-2.31383">
        <ele>5.4000000953674</ele>
        <time>2022-04-28T09:49:26.000Z</time>
      </trkpt>
      <trkpt lat="47.24565" lon="-2.31382">
        <ele>5.8000001907349</ele>
        <time>2022-04-28T09:49:27.000Z</time>
      </trkpt>
      <trkpt lat="47.24568" lon="-2.31382">
        <ele>6.1999998092651</ele>
        <time>2022-04-28T09:49:28.000Z</time>
      </trkpt>
      <trkpt lat="47.24571" lon="-2.31382">
        <ele>6.1999998092651</ele>
        <time>2022-04-28T09:49:29.000Z</time>
      </trkpt>
      <trkpt lat="47.24591" lon="-2.31376">
        <ele>6.1999998092651</ele>
        <time>2022-04-28T09:49:34.000Z</time>
      </trkpt>
      <trkpt lat="47.24624" lon="-2.3136">
        <ele>6.1999998092651</ele>
        <time>2022-04-28T09:49:42.000Z</time>
      </trkpt>
      <trkpt lat="47.24653" lon="-2.31346">
        <ele>6.1999998092651</ele>
        <time>2022-04-28T09:49:49.000Z</time>
      </trkpt>
      <trkpt lat="47.24657" lon="-2.31343">
        <ele>6.1999998092651</ele>
        <time>2022-04-28T09:49:50.000Z</time>
      </trkpt>
      <trkpt lat="47.24674" lon="-2.31333">
        <ele>6.1999998092651</ele>
        <time>2022-04-28T09:49:54.000Z</time>
      </trkpt>
      <trkpt lat="47.24678" lon="-2.31331">
        <ele>6.1999998092651</ele>
        <time>2022-04-28T09:49:55.000Z</time>
      </trkpt>
      <trkpt lat="47.24696" lon="-2.31322">
        <ele>6.1999998092651</ele>
        <time>2022-04-28T09:49:59.000Z</time>
      </trkpt>
      <trkpt lat="47.24705" lon="-2.31317">
        <ele>6.1999998092651</ele>
        <time>2022-04-28T09:50:01.000Z</time>
      </trkpt>
      <trkpt lat="47.24714" lon="-2.31312">
        <ele>6.1999998092651</ele>
        <time>2022-04-28T09:50:03.000Z</time>
      </trkpt>
      <trkpt lat="47.24718" lon="-2.31312">
        <ele>6.1999998092651</ele>
        <time>2022-04-28T09:50:04.000Z</time>
      </trkpt>
      <trkpt lat="47.24727" lon="-2.31315">
        <ele>6.5999999046326</ele>
        <time>2022-04-28T09:50:06.000Z</time>
      </trkpt>
      <trkpt lat="47.24731" lon="-2.31318">
        <ele>7</ele>
        <time>2022-04-28T09:50:07.000Z</time>
      </trkpt>
      <trkpt lat="47.24734" lon="-2.31321">
        <ele>7.5999999046326</ele>
        <time>2022-04-28T09:50:08.000Z</time>
      </trkpt>
      <trkpt lat="47.24737" lon="-2.31325">
        <ele>8</ele>
        <time>2022-04-28T09:50:09.000Z</time>
      </trkpt>
      <trkpt lat="47.2474" lon="-2.3133">
        <ele>8.3999996185303</ele>
        <time>2022-04-28T09:50:10.000Z</time>
      </trkpt>
      <trkpt lat="47.24745" lon="-2.3134">
        <ele>8.3999996185303</ele>
        <time>2022-04-28T09:50:12.000Z</time>
      </trkpt>
      <trkpt lat="47.24747" lon="-2.31345">
        <ele>8.3999996185303</ele>
        <time>2022-04-28T09:50:13.000Z</time>
      </trkpt>
      <trkpt lat="47.24761" lon="-2.31369">
        <ele>8.3999996185303</ele>
        <time>2022-04-28T09:50:18.000Z</time>
      </trkpt>
      <trkpt lat="47.24771" lon="-2.31369">
        <ele>8.3999996185303</ele>
        <time>2022-04-28T09:50:21.000Z</time>
      </trkpt>
      <trkpt lat="47.24778" lon="-2.31364">
        <ele>8.3999996185303</ele>
        <time>2022-04-28T09:50:23.000Z</time>
      </trkpt>
      <trkpt lat="47.24789" lon="-2.31354">
        <ele>8.3999996185303</ele>
        <time>2022-04-28T09:50:26.000Z</time>
      </trkpt>
      <trkpt lat="47.24792" lon="-2.31351">
        <ele>8.8000001907349</ele>
        <time>2022-04-28T09:50:27.000Z</time>
      </trkpt>
      <trkpt lat="47.24796" lon="-2.31348">
        <ele>9.1999998092651</ele>
        <time>2022-04-28T09:50:28.000Z</time>
      </trkpt>
      <trkpt lat="47.24799" lon="-2.31344">
        <ele>9.6000003814697</ele>
        <time>2022-04-28T09:50:29.000Z</time>
      </trkpt>
      <trkpt lat="47.24804" lon="-2.31341">
        <ele>10</ele>
        <time>2022-04-28T09:50:30.000Z</time>
      </trkpt>
      <trkpt lat="47.24807" lon="-2.31337">
        <ele>10.39999961853</ele>
        <time>2022-04-28T09:50:31.000Z</time>
      </trkpt>
      <trkpt lat="47.24816" lon="-2.31331">
        <ele>10.39999961853</ele>
        <time>2022-04-28T09:50:33.000Z</time>
      </trkpt>
      <trkpt lat="47.24833" lon="-2.31324">
        <ele>10.39999961853</ele>
        <time>2022-04-28T09:50:37.000Z</time>
      </trkpt>
      <trkpt lat="47.2486" lon="-2.31313">
        <ele>10.39999961853</ele>
        <time>2022-04-28T09:50:43.000Z</time>
      </trkpt>
      <trkpt lat="47.24888" lon="-2.31304">
        <ele>10.39999961853</ele>
        <time>2022-04-28T09:50:49.000Z</time>
      </trkpt>
      <trkpt lat="47.24897" lon="-2.313">
        <ele>10.39999961853</ele>
        <time>2022-04-28T09:50:51.000Z</time>
      </trkpt>
      <trkpt lat="47.24915" lon="-2.31295">
        <ele>10.39999961853</ele>
        <time>2022-04-28T09:50:55.000Z</time>
      </trkpt>
      <trkpt lat="47.24943" lon="-2.31286">
        <ele>10.39999961853</ele>
        <time>2022-04-28T09:51:01.000Z</time>
      </trkpt>
      <trkpt lat="47.24961" lon="-2.31279">
        <ele>10.800000190735</ele>
        <time>2022-04-28T09:51:05.000Z</time>
      </trkpt>
      <trkpt lat="47.24966" lon="-2.31278">
        <ele>11.199999809265</ele>
        <time>2022-04-28T09:51:06.000Z</time>
      </trkpt>
      <trkpt lat="47.2497" lon="-2.31277">
        <ele>11.60000038147</ele>
        <time>2022-04-28T09:51:07.000Z</time>
      </trkpt>
      <trkpt lat="47.24975" lon="-2.31276">
        <ele>12</ele>
        <time>2022-04-28T09:51:08.000Z</time>
      </trkpt>
      <trkpt lat="47.24979" lon="-2.31275">
        <ele>12.39999961853</ele>
        <time>2022-04-28T09:51:09.000Z</time>
      </trkpt>
      <trkpt lat="47.25004" lon="-2.31264">
        <ele>12.39999961853</ele>
        <time>2022-04-28T09:51:15.000Z</time>
      </trkpt>
      <trkpt lat="47.25015" lon="-2.31268">
        <ele>12.39999961853</ele>
        <time>2022-04-28T09:51:18.000Z</time>
      </trkpt>
      <trkpt lat="47.25016" lon="-2.31274">
        <ele>12.39999961853</ele>
        <time>2022-04-28T09:51:19.000Z</time>
      </trkpt>
      <trkpt lat="47.25016" lon="-2.31285">
        <ele>12.39999961853</ele>
        <time>2022-04-28T09:51:21.000Z</time>
      </trkpt>
      <trkpt lat="47.25017" lon="-2.31314">
        <ele>12.39999961853</ele>
        <time>2022-04-28T09:51:26.000Z</time>
      </trkpt>
      <trkpt lat="47.25018" lon="-2.3132">
        <ele>12.39999961853</ele>
        <time>2022-04-28T09:51:27.000Z</time>
      </trkpt>
      <trkpt lat="47.25025" lon="-2.31357">
        <ele>12.39999961853</ele>
        <time>2022-04-28T09:51:33.000Z</time>
      </trkpt>
      <trkpt lat="47.25032" lon="-2.31376">
        <ele>12.39999961853</ele>
        <time>2022-04-28T09:51:36.000Z</time>
      </trkpt>
      <trkpt lat="47.25036" lon="-2.31388">
        <ele>12.39999961853</ele>
        <time>2022-04-28T09:51:38.000Z</time>
      </trkpt>
      <trkpt lat="47.25039" lon="-2.31401">
        <ele>12.39999961853</ele>
        <time>2022-04-28T09:51:40.000Z</time>
      </trkpt>
      <trkpt lat="47.25044" lon="-2.31421">
        <ele>12.39999961853</ele>
        <time>2022-04-28T09:51:43.000Z</time>
      </trkpt>
      <trkpt lat="47.25046" lon="-2.31427">
        <ele>12.39999961853</ele>
        <time>2022-04-28T09:51:44.000Z</time>
      </trkpt>
      <trkpt lat="47.25057" lon="-2.31462">
        <ele>12.39999961853</ele>
        <time>2022-04-28T09:51:49.000Z</time>
      </trkpt>
      <trkpt lat="47.25066" lon="-2.31492">
        <ele>12</ele>
        <time>2022-04-28T09:51:53.000Z</time>
      </trkpt>
      <trkpt lat="47.25069" lon="-2.315">
        <ele>11.60000038147</ele>
        <time>2022-04-28T09:51:54.000Z</time>
      </trkpt>
      <trkpt lat="47.25071" lon="-2.31508">
        <ele>11.199999809265</ele>
        <time>2022-04-28T09:51:55.000Z</time>
      </trkpt>
      <trkpt lat="47.25073" lon="-2.31516">
        <ele>10.800000190735</ele>
        <time>2022-04-28T09:51:56.000Z</time>
      </trkpt>
      <trkpt lat="47.25075" lon="-2.31523">
        <ele>10.39999961853</ele>
        <time>2022-04-28T09:51:57.000Z</time>
      </trkpt>
      <trkpt lat="47.2509" lon="-2.31573">
        <ele>10.39999961853</ele>
        <time>2022-04-28T09:52:04.000Z</time>
      </trkpt>
      <trkpt lat="47.25093" lon="-2.31578">
        <ele>10.39999961853</ele>
        <time>2022-04-28T09:52:05.000Z</time>
      </trkpt>
      <trkpt lat="47.25101" lon="-2.31579">
        <ele>10.39999961853</ele>
        <time>2022-04-28T09:52:07.000Z</time>
      </trkpt>
      <trkpt lat="47.25114" lon="-2.31569">
        <ele>10.39999961853</ele>
        <time>2022-04-28T09:52:10.000Z</time>
      </trkpt>
      <trkpt lat="47.25119" lon="-2.31565">
        <ele>10.39999961853</ele>
        <time>2022-04-28T09:52:11.000Z</time>
      </trkpt>
      <trkpt lat="47.25138" lon="-2.31551">
        <ele>10.39999961853</ele>
        <time>2022-04-28T09:52:15.000Z</time>
      </trkpt>
      <trkpt lat="47.25147" lon="-2.31541">
        <ele>10.39999961853</ele>
        <time>2022-04-28T09:52:17.000Z</time>
      </trkpt>
      <trkpt lat="47.2516" lon="-2.31525">
        <ele>10</ele>
        <time>2022-04-28T09:52:20.000Z</time>
      </trkpt>
      <trkpt lat="47.25165" lon="-2.3152">
        <ele>9.6000003814697</ele>
        <time>2022-04-28T09:52:21.000Z</time>
      </trkpt>
      <trkpt lat="47.25169" lon="-2.31515">
        <ele>9.1999998092651</ele>
        <time>2022-04-28T09:52:22.000Z</time>
      </trkpt>
      <trkpt lat="47.25173" lon="-2.3151">
        <ele>8.8000001907349</ele>
        <time>2022-04-28T09:52:23.000Z</time>
      </trkpt>
      <trkpt lat="47.25177" lon="-2.31504">
        <ele>8.1999998092651</ele>
        <time>2022-04-28T09:52:24.000Z</time>
      </trkpt>
      <trkpt lat="47.25189" lon="-2.31483">
        <ele>8.1999998092651</ele>
        <time>2022-04-28T09:52:28.000Z</time>
      </trkpt>
      <trkpt lat="47.2519" lon="-2.31477">
        <ele>8.1999998092651</ele>
        <time>2022-04-28T09:52:29.000Z</time>
      </trkpt>
      <trkpt lat="47.25187" lon="-2.31461">
        <ele>8.1999998092651</ele>
        <time>2022-04-28T09:52:32.000Z</time>
      </trkpt>
      <trkpt lat="47.25182" lon="-2.31452">
        <ele>8.1999998092651</ele>
        <time>2022-04-28T09:52:34.000Z</time>
      </trkpt>
      <trkpt lat="47.25175" lon="-2.31437">
        <ele>8.1999998092651</ele>
        <time>2022-04-28T09:52:37.000Z</time>
      </trkpt>
      <trkpt lat="47.25158" lon="-2.31403">
        <ele>8.1999998092651</ele>
        <time>2022-04-28T09:52:44.000Z</time>
      </trkpt>
      <trkpt lat="47.25147" lon="-2.31364">
        <ele>8.1999998092651</ele>
        <time>2022-04-28T09:52:51.000Z</time>
      </trkpt>
      <trkpt lat="47.25143" lon="-2.31341">
        <ele>8.1999998092651</ele>
        <time>2022-04-28T09:52:57.000Z</time>
      </trkpt>
      <trkpt lat="47.25141" lon="-2.31336">
        <ele>8.1999998092651</ele>
        <time>2022-04-28T09:53:01.000Z</time>
      </trkpt>
      <trkpt lat="47.25133" lon="-2.31331">
        <ele>8.1999998092651</ele>
        <time>2022-04-28T09:53:41.000Z</time>
      </trkpt>
      <trkpt lat="47.25133" lon="-2.31329">
        <ele>8.1999998092651</ele>
        <time>2022-04-28T09:53:44.000Z</time>
      </trkpt>
      <trkpt lat="47.25134" lon="-2.3132">
        <ele>12.39999961853</ele>
        <time>2022-04-28T10:56:19.000Z</time>
      </trkpt>
      <trkpt lat="47.25134" lon="-2.31324">
        <ele>12.39999961853</ele>
        <time>2022-04-28T10:56:21.000Z</time>
      </trkpt>
      <trkpt lat="47.25135" lon="-2.3133">
        <ele>12.39999961853</ele>
        <time>2022-04-28T10:56:24.000Z</time>
      </trkpt>
      <trkpt lat="47.25137" lon="-2.31334">
        <ele>12.39999961853</ele>
        <time>2022-04-28T10:56:28.000Z</time>
      </trkpt>
      <trkpt lat="47.2514" lon="-2.31334">
        <ele>12.39999961853</ele>
        <time>2022-04-28T10:56:29.000Z</time>
      </trkpt>
      <trkpt lat="47.25142" lon="-2.31334">
        <ele>12.39999961853</ele>
        <time>2022-04-28T10:56:32.000Z</time>
      </trkpt>
      <trkpt lat="47.25144" lon="-2.31334">
        <ele>12.39999961853</ele>
        <time>2022-04-28T10:56:34.000Z</time>
      </trkpt>
      <trkpt lat="47.25147" lon="-2.31336">
        <ele>12.39999961853</ele>
        <time>2022-04-28T10:56:36.000Z</time>
      </trkpt>
      <trkpt lat="47.25149" lon="-2.31342">
        <ele>12.39999961853</ele>
        <time>2022-04-28T10:56:38.000Z</time>
      </trkpt>
      <trkpt lat="47.25151" lon="-2.31351">
        <ele>12.39999961853</ele>
        <time>2022-04-28T10:56:40.000Z</time>
      </trkpt>
      <trkpt lat="47.25152" lon="-2.31357">
        <ele>12.39999961853</ele>
        <time>2022-04-28T10:56:41.000Z</time>
      </trkpt>
      <trkpt lat="47.25155" lon="-2.31368">
        <ele>12.39999961853</ele>
        <time>2022-04-28T10:56:43.000Z</time>
      </trkpt>
      <trkpt lat="47.25167" lon="-2.31406">
        <ele>12.39999961853</ele>
        <time>2022-04-28T10:56:50.000Z</time>
      </trkpt>
      <trkpt lat="47.25171" lon="-2.31415">
        <ele>12.39999961853</ele>
        <time>2022-04-28T10:56:52.000Z</time>
      </trkpt>
      <trkpt lat="47.25181" lon="-2.31435">
        <ele>12.39999961853</ele>
        <time>2022-04-28T10:56:56.000Z</time>
      </trkpt>
      <trkpt lat="47.25199" lon="-2.31467">
        <ele>12.39999961853</ele>
        <time>2022-04-28T10:57:03.000Z</time>
      </trkpt>
      <trkpt lat="47.25203" lon="-2.31468">
        <ele>12.39999961853</ele>
        <time>2022-04-28T10:57:04.000Z</time>
      </trkpt>
      <trkpt lat="47.25211" lon="-2.31466">
        <ele>12.39999961853</ele>
        <time>2022-04-28T10:57:06.000Z</time>
      </trkpt>
      <trkpt lat="47.25219" lon="-2.31461">
        <ele>12.39999961853</ele>
        <time>2022-04-28T10:57:08.000Z</time>
      </trkpt>
      <trkpt lat="47.25239" lon="-2.31447">
        <ele>12.39999961853</ele>
        <time>2022-04-28T10:57:13.000Z</time>
      </trkpt>
      <trkpt lat="47.25247" lon="-2.31442">
        <ele>12.39999961853</ele>
        <time>2022-04-28T10:57:15.000Z</time>
      </trkpt>
      <trkpt lat="47.25268" lon="-2.31433">
        <ele>12.39999961853</ele>
        <time>2022-04-28T10:57:20.000Z</time>
      </trkpt>
      <trkpt lat="47.25308" lon="-2.31418">
        <ele>12.39999961853</ele>
        <time>2022-04-28T10:57:29.000Z</time>
      </trkpt>
      <trkpt lat="47.25313" lon="-2.31415">
        <ele>12.39999961853</ele>
        <time>2022-04-28T10:57:30.000Z</time>
      </trkpt>
      <trkpt lat="47.25326" lon="-2.31408">
        <ele>12.39999961853</ele>
        <time>2022-04-28T10:57:33.000Z</time>
      </trkpt>
      <trkpt lat="47.2533" lon="-2.31409">
        <ele>12.39999961853</ele>
        <time>2022-04-28T10:57:34.000Z</time>
      </trkpt>
      <trkpt lat="47.25336" lon="-2.31425">
        <ele>12.39999961853</ele>
        <time>2022-04-28T10:57:37.000Z</time>
      </trkpt>
      <trkpt lat="47.25331" lon="-2.31442">
        <ele>12.39999961853</ele>
        <time>2022-04-28T10:57:40.000Z</time>
      </trkpt>
      <trkpt lat="47.2533" lon="-2.31448">
        <ele>12.39999961853</ele>
        <time>2022-04-28T10:57:41.000Z</time>
      </trkpt>
      <trkpt lat="47.2533" lon="-2.31476">
        <ele>12.39999961853</ele>
        <time>2022-04-28T10:57:45.000Z</time>
      </trkpt>
      <trkpt lat="47.25336" lon="-2.31524">
        <ele>12.39999961853</ele>
        <time>2022-04-28T10:57:51.000Z</time>
      </trkpt>
      <trkpt lat="47.25353" lon="-2.31569">
        <ele>12.39999961853</ele>
        <time>2022-04-28T10:57:57.000Z</time>
      </trkpt>
      <trkpt lat="47.25359" lon="-2.31582">
        <ele>12</ele>
        <time>2022-04-28T10:57:59.000Z</time>
      </trkpt>
      <trkpt lat="47.25363" lon="-2.31588">
        <ele>11.60000038147</ele>
        <time>2022-04-28T10:58:00.000Z</time>
      </trkpt>
      <trkpt lat="47.25367" lon="-2.31594">
        <ele>11.199999809265</ele>
        <time>2022-04-28T10:58:01.000Z</time>
      </trkpt>
      <trkpt lat="47.2537" lon="-2.316">
        <ele>10.800000190735</ele>
        <time>2022-04-28T10:58:02.000Z</time>
      </trkpt>
      <trkpt lat="47.25374" lon="-2.31605">
        <ele>10.39999961853</ele>
        <time>2022-04-28T10:58:03.000Z</time>
      </trkpt>
      <trkpt lat="47.254" lon="-2.31655">
        <ele>10.39999961853</ele>
        <time>2022-04-28T10:58:11.000Z</time>
      </trkpt>
      <trkpt lat="47.25415" lon="-2.31688">
        <ele>10</ele>
        <time>2022-04-28T10:58:16.000Z</time>
      </trkpt>
      <trkpt lat="47.25418" lon="-2.31694">
        <ele>9.6000003814697</ele>
        <time>2022-04-28T10:58:17.000Z</time>
      </trkpt>
      <trkpt lat="47.25421" lon="-2.31701">
        <ele>8.8000001907349</ele>
        <time>2022-04-28T10:58:18.000Z</time>
      </trkpt>
      <trkpt lat="47.25424" lon="-2.31707">
        <ele>8.3999996185303</ele>
        <time>2022-04-28T10:58:19.000Z</time>
      </trkpt>
      <trkpt lat="47.25426" lon="-2.31714">
        <ele>8.3999996185303</ele>
        <time>2022-04-28T10:58:20.000Z</time>
      </trkpt>
      <trkpt lat="47.25442" lon="-2.31769">
        <ele>8.3999996185303</ele>
        <time>2022-04-28T10:58:28.000Z</time>
      </trkpt>
      <trkpt lat="47.25447" lon="-2.31792">
        <ele>8.3999996185303</ele>
        <time>2022-04-28T10:58:31.000Z</time>
      </trkpt>
      <trkpt lat="47.25455" lon="-2.31827">
        <ele>8.3999996185303</ele>
        <time>2022-04-28T10:58:36.000Z</time>
      </trkpt>
      <trkpt lat="47.25469" lon="-2.31835">
        <ele>8.3999996185303</ele>
        <time>2022-04-28T10:58:39.000Z</time>
      </trkpt>
      <trkpt lat="47.25483" lon="-2.31828">
        <ele>8.3999996185303</ele>
        <time>2022-04-28T10:58:42.000Z</time>
      </trkpt>
      <trkpt lat="47.2552" lon="-2.3181">
        <ele>8.3999996185303</ele>
        <time>2022-04-28T10:58:50.000Z</time>
      </trkpt>
      <trkpt lat="47.25555" lon="-2.31799">
        <ele>8</ele>
        <time>2022-04-28T10:58:57.000Z</time>
      </trkpt>
      <trkpt lat="47.25559" lon="-2.31797">
        <ele>7.5999999046326</ele>
        <time>2022-04-28T10:58:58.000Z</time>
      </trkpt>
      <trkpt lat="47.25563" lon="-2.31794">
        <ele>7.1999998092651</ele>
        <time>2022-04-28T10:58:59.000Z</time>
      </trkpt>
      <trkpt lat="47.25565" lon="-2.31788">
        <ele>6.8000001907349</ele>
        <time>2022-04-28T10:59:00.000Z</time>
      </trkpt>
      <trkpt lat="47.25567" lon="-2.31783">
        <ele>6.4000000953674</ele>
        <time>2022-04-28T10:59:01.000Z</time>
      </trkpt>
      <trkpt lat="47.25581" lon="-2.31757">
        <ele>6.4000000953674</ele>
        <time>2022-04-28T10:59:06.000Z</time>
      </trkpt>
      <trkpt lat="47.25588" lon="-2.31744">
        <ele>5.4000000953674</ele>
        <time>2022-04-28T10:59:08.000Z</time>
      </trkpt>
      <trkpt lat="47.2559" lon="-2.31737">
        <ele>5</ele>
        <time>2022-04-28T10:59:09.000Z</time>
      </trkpt>
      <trkpt lat="47.25592" lon="-2.3173">
        <ele>4.4000000953674</ele>
        <time>2022-04-28T10:59:10.000Z</time>
      </trkpt>
      <trkpt lat="47.25594" lon="-2.31724">
        <ele>4</ele>
        <time>2022-04-28T10:59:11.000Z</time>
      </trkpt>
      <trkpt lat="47.25596" lon="-2.31718">
        <ele>4</ele>
        <time>2022-04-28T10:59:12.000Z</time>
      </trkpt>
      <trkpt lat="47.25603" lon="-2.3171">
        <ele>4</ele>
        <time>2022-04-28T10:59:14.000Z</time>
      </trkpt>
      <trkpt lat="47.25618" lon="-2.31707">
        <ele>4</ele>
        <time>2022-04-28T10:59:17.000Z</time>
      </trkpt>
      <trkpt lat="47.25623" lon="-2.31707">
        <ele>4</ele>
        <time>2022-04-28T10:59:18.000Z</time>
      </trkpt>
      <trkpt lat="47.25633" lon="-2.31704">
        <ele>4</ele>
        <time>2022-04-28T10:59:20.000Z</time>
      </trkpt>
      <trkpt lat="47.25643" lon="-2.31696">
        <ele>4</ele>
        <time>2022-04-28T10:59:22.000Z</time>
      </trkpt>
      <trkpt lat="47.25655" lon="-2.31674">
        <ele>3.5999999046326</ele>
        <time>2022-04-28T10:59:25.000Z</time>
      </trkpt>
      <trkpt lat="47.25658" lon="-2.31667">
        <ele>3.2000000476837</ele>
        <time>2022-04-28T10:59:26.000Z</time>
      </trkpt>
      <trkpt lat="47.2566" lon="-2.31662">
        <ele>2.7999999523163</ele>
        <time>2022-04-28T10:59:27.000Z</time>
      </trkpt>
      <trkpt lat="47.25664" lon="-2.31659">
        <ele>2.2000000476837</ele>
        <time>2022-04-28T10:59:28.000Z</time>
      </trkpt>
      <trkpt lat="47.25667" lon="-2.31658">
        <ele>1.7999999523163</ele>
        <time>2022-04-28T10:59:29.000Z</time>
      </trkpt>
      <trkpt lat="47.25678" lon="-2.31666">
        <ele>1.3999999761581</ele>
        <time>2022-04-28T10:59:32.000Z</time>
      </trkpt>
      <trkpt lat="47.25683" lon="-2.31668">
        <ele>1</ele>
        <time>2022-04-28T10:59:33.000Z</time>
      </trkpt>
      <trkpt lat="47.25688" lon="-2.31671">
        <ele>0.60000002384186</ele>
        <time>2022-04-28T10:59:34.000Z</time>
      </trkpt>
      <trkpt lat="47.25693" lon="-2.31674">
        <ele>0.20000000298023</ele>
        <time>2022-04-28T10:59:35.000Z</time>
      </trkpt>
      <trkpt lat="47.25698" lon="-2.31676">
        <ele>-0.20000000298023</ele>
        <time>2022-04-28T10:59:36.000Z</time>
      </trkpt>
      <trkpt lat="47.25703" lon="-2.3168">
        <ele>-0.20000000298023</ele>
        <time>2022-04-28T10:59:37.000Z</time>
      </trkpt>
      <trkpt lat="47.25724" lon="-2.31694">
        <ele>-0.20000000298023</ele>
        <time>2022-04-28T10:59:41.000Z</time>
      </trkpt>
      <trkpt lat="47.25729" lon="-2.31694">
        <ele>-0.20000000298023</ele>
        <time>2022-04-28T10:59:42.000Z</time>
      </trkpt>
      <trkpt lat="47.25741" lon="-2.31687">
        <ele>-0.20000000298023</ele>
        <time>2022-04-28T10:59:44.000Z</time>
      </trkpt>
      <trkpt lat="47.25755" lon="-2.31676">
        <ele>-0.20000000298023</ele>
        <time>2022-04-28T10:59:47.000Z</time>
      </trkpt>
      <trkpt lat="47.25769" lon="-2.31666">
        <ele>-0.20000000298023</ele>
        <time>2022-04-28T10:59:50.000Z</time>
      </trkpt>
      <trkpt lat="47.25793" lon="-2.31647">
        <ele>-0.20000000298023</ele>
        <time>2022-04-28T10:59:56.000Z</time>
      </trkpt>
      <trkpt lat="47.25798" lon="-2.31645">
        <ele>-0.20000000298023</ele>
        <time>2022-04-28T10:59:57.000Z</time>
      </trkpt>
      <trkpt lat="47.25829" lon="-2.31619">
        <ele>-0.20000000298023</ele>
        <time>2022-04-28T11:00:05.000Z</time>
      </trkpt>
      <trkpt lat="47.25845" lon="-2.31606">
        <ele>-0.20000000298023</ele>
        <time>2022-04-28T11:00:09.000Z</time>
      </trkpt>
      <trkpt lat="47.25853" lon="-2.31597">
        <ele>-0.20000000298023</ele>
        <time>2022-04-28T11:00:11.000Z</time>
      </trkpt>
      <trkpt lat="47.25889" lon="-2.31554">
        <ele>-0.20000000298023</ele>
        <time>2022-04-28T11:00:19.000Z</time>
      </trkpt>
      <trkpt lat="47.25895" lon="-2.3154">
        <ele>-1</ele>
        <time>2022-04-28T11:00:21.000Z</time>
      </trkpt>
      <trkpt lat="47.25897" lon="-2.31532">
        <ele>-1.3999999761581</ele>
        <time>2022-04-28T11:00:22.000Z</time>
      </trkpt>
      <trkpt lat="47.259" lon="-2.31525">
        <ele>-1.7999999523163</ele>
        <time>2022-04-28T11:00:23.000Z</time>
      </trkpt>
      <trkpt lat="47.25902" lon="-2.3152">
        <ele>-2.4000000953674</ele>
        <time>2022-04-28T11:00:24.000Z</time>
      </trkpt>
      <trkpt lat="47.25904" lon="-2.31516">
        <ele>-2.4000000953674</ele>
        <time>2022-04-28T11:00:25.000Z</time>
      </trkpt>
      <trkpt lat="47.2591" lon="-2.3151">
        <ele>-2.4000000953674</ele>
        <time>2022-04-28T11:00:27.000Z</time>
      </trkpt>
      <trkpt lat="47.25913" lon="-2.31502">
        <ele>-2.4000000953674</ele>
        <time>2022-04-28T11:00:31.000Z</time>
      </trkpt>
      <trkpt lat="47.25914" lon="-2.31493">
        <ele>-2.4000000953674</ele>
        <time>2022-04-28T11:00:36.000Z</time>
      </trkpt>
      <trkpt lat="47.25919" lon="-2.31475">
        <ele>-2.7999999523163</ele>
        <time>2022-04-28T11:00:41.000Z</time>
      </trkpt>
      <trkpt lat="47.25923" lon="-2.31471">
        <ele>-3.2000000476837</ele>
        <time>2022-04-28T11:00:42.000Z</time>
      </trkpt>
      <trkpt lat="47.25926" lon="-2.31467">
        <ele>-3.5999999046326</ele>
        <time>2022-04-28T11:00:43.000Z</time>
      </trkpt>
      <trkpt lat="47.2593" lon="-2.31465">
        <ele>-4</ele>
        <time>2022-04-28T11:00:44.000Z</time>
      </trkpt>
      <trkpt lat="47.25933" lon="-2.31467">
        <ele>-4.4000000953674</ele>
        <time>2022-04-28T11:00:45.000Z</time>
      </trkpt>
      <trkpt lat="47.25938" lon="-2.31469">
        <ele>-4.4000000953674</ele>
        <time>2022-04-28T11:00:46.000Z</time>
      </trkpt>
      <trkpt lat="47.25964" lon="-2.31486">
        <ele>-4.4000000953674</ele>
        <time>2022-04-28T11:00:51.000Z</time>
      </trkpt>
      <trkpt lat="47.25968" lon="-2.3149">
        <ele>-4.4000000953674</ele>
        <time>2022-04-28T11:00:52.000Z</time>
      </trkpt>
      <trkpt lat="47.25977" lon="-2.31508">
        <ele>-4.4000000953674</ele>
        <time>2022-04-28T11:00:55.000Z</time>
      </trkpt>
      <trkpt lat="47.25986" lon="-2.31524">
        <ele>-4.4000000953674</ele>
        <time>2022-04-28T11:00:58.000Z</time>
      </trkpt>
      <trkpt lat="47.25999" lon="-2.31544">
        <ele>-4.4000000953674</ele>
        <time>2022-04-28T11:01:02.000Z</time>
      </trkpt>
      <trkpt lat="47.26008" lon="-2.31558">
        <ele>-4.4000000953674</ele>
        <time>2022-04-28T11:01:05.000Z</time>
      </trkpt>
      <trkpt lat="47.26016" lon="-2.31559">
        <ele>-4.4000000953674</ele>
        <time>2022-04-28T11:01:07.000Z</time>
      </trkpt>
      <trkpt lat="47.26019" lon="-2.31555">
        <ele>-4.4000000953674</ele>
        <time>2022-04-28T11:01:08.000Z</time>
      </trkpt>
      <trkpt lat="47.2603" lon="-2.31533">
        <ele>-4.4000000953674</ele>
        <time>2022-04-28T11:01:12.000Z</time>
      </trkpt>
      <trkpt lat="47.26032" lon="-2.31527">
        <ele>-4.4000000953674</ele>
        <time>2022-04-28T11:01:13.000Z</time>
      </trkpt>
      <trkpt lat="47.26041" lon="-2.31512">
        <ele>-4.4000000953674</ele>
        <time>2022-04-28T11:01:17.000Z</time>
      </trkpt>
      <trkpt lat="47.26053" lon="-2.31526">
        <ele>-4.4000000953674</ele>
        <time>2022-04-28T11:01:20.000Z</time>
      </trkpt>
      <trkpt lat="47.26056" lon="-2.31532">
        <ele>-4.8000001907349</ele>
        <time>2022-04-28T11:01:21.000Z</time>
      </trkpt>
      <trkpt lat="47.2606" lon="-2.31537">
        <ele>-5.1999998092651</ele>
        <time>2022-04-28T11:01:22.000Z</time>
      </trkpt>
      <trkpt lat="47.26063" lon="-2.31543">
        <ele>-5.5999999046326</ele>
        <time>2022-04-28T11:01:23.000Z</time>
      </trkpt>
      <trkpt lat="47.26065" lon="-2.31548">
        <ele>-6.1999998092651</ele>
        <time>2022-04-28T11:01:24.000Z</time>
      </trkpt>
      <trkpt lat="47.26068" lon="-2.31553">
        <ele>-6.5999999046326</ele>
        <time>2022-04-28T11:01:25.000Z</time>
      </trkpt>
      <trkpt lat="47.26071" lon="-2.31559">
        <ele>-6.5999999046326</ele>
        <time>2022-04-28T11:01:26.000Z</time>
      </trkpt>
      <trkpt lat="47.26081" lon="-2.31576">
        <ele>-6.5999999046326</ele>
        <time>2022-04-28T11:01:30.000Z</time>
      </trkpt>
      <trkpt lat="47.26096" lon="-2.31596">
        <ele>-6.5999999046326</ele>
        <time>2022-04-28T11:01:35.000Z</time>
      </trkpt>
      <trkpt lat="47.26107" lon="-2.31611">
        <ele>-6.5999999046326</ele>
        <time>2022-04-28T11:01:38.000Z</time>
      </trkpt>
      <trkpt lat="47.26116" lon="-2.31615">
        <ele>-6.5999999046326</ele>
        <time>2022-04-28T11:01:40.000Z</time>
      </trkpt>
      <trkpt lat="47.26139" lon="-2.31613">
        <ele>-6.5999999046326</ele>
        <time>2022-04-28T11:01:45.000Z</time>
      </trkpt>
      <trkpt lat="47.26153" lon="-2.31608">
        <ele>-6.5999999046326</ele>
        <time>2022-04-28T11:01:48.000Z</time>
      </trkpt>
      <trkpt lat="47.26171" lon="-2.31601">
        <ele>-6.5999999046326</ele>
        <time>2022-04-28T11:01:52.000Z</time>
      </trkpt>
      <trkpt lat="47.26202" lon="-2.3159">
        <ele>-6.5999999046326</ele>
        <time>2022-04-28T11:01:59.000Z</time>
      </trkpt>
      <trkpt lat="47.26212" lon="-2.3159">
        <ele>-6.5999999046326</ele>
        <time>2022-04-28T11:02:01.000Z</time>
      </trkpt>
      <trkpt lat="47.26225" lon="-2.31594">
        <ele>-6.5999999046326</ele>
        <time>2022-04-28T11:02:04.000Z</time>
      </trkpt>
      <trkpt lat="47.26234" lon="-2.31599">
        <ele>-6.5999999046326</ele>
        <time>2022-04-28T11:02:06.000Z</time>
      </trkpt>
      <trkpt lat="47.26251" lon="-2.31613">
        <ele>-6.5999999046326</ele>
        <time>2022-04-28T11:02:10.000Z</time>
      </trkpt>
      <trkpt lat="47.26255" lon="-2.31618">
        <ele>-6.5999999046326</ele>
        <time>2022-04-28T11:02:11.000Z</time>
      </trkpt>
      <trkpt lat="47.26263" lon="-2.31634">
        <ele>-6.5999999046326</ele>
        <time>2022-04-28T11:02:14.000Z</time>
      </trkpt>
      <trkpt lat="47.26273" lon="-2.31657">
        <ele>-6.5999999046326</ele>
        <time>2022-04-28T11:02:19.000Z</time>
      </trkpt>
      <trkpt lat="47.26292" lon="-2.31688">
        <ele>-6.5999999046326</ele>
        <time>2022-04-28T11:02:25.000Z</time>
      </trkpt>
      <trkpt lat="47.26303" lon="-2.31702">
        <ele>-6.5999999046326</ele>
        <time>2022-04-28T11:02:28.000Z</time>
      </trkpt>
      <trkpt lat="47.26313" lon="-2.31707">
        <ele>-6.5999999046326</ele>
        <time>2022-04-28T11:02:31.000Z</time>
      </trkpt>
      <trkpt lat="47.26316" lon="-2.31707">
        <ele>-6.5999999046326</ele>
        <time>2022-04-28T11:02:32.000Z</time>
      </trkpt>
      <trkpt lat="47.2633" lon="-2.31698">
        <ele>-6.5999999046326</ele>
        <time>2022-04-28T11:02:37.000Z</time>
      </trkpt>
      <trkpt lat="47.26336" lon="-2.31685">
        <ele>-6.5999999046326</ele>
        <time>2022-04-28T11:02:40.000Z</time>
      </trkpt>
      <trkpt lat="47.26338" lon="-2.31684">
        <ele>-6.5999999046326</ele>
        <time>2022-04-28T11:02:41.000Z</time>
      </trkpt>
      <trkpt lat="47.26343" lon="-2.31682">
        <ele>-6.5999999046326</ele>
        <time>2022-04-28T11:02:43.000Z</time>
      </trkpt>
      <trkpt lat="47.26346" lon="-2.31681">
        <ele>-6.5999999046326</ele>
        <time>2022-04-28T11:02:44.000Z</time>
      </trkpt>
      <trkpt lat="47.26352" lon="-2.31678">
        <ele>-6.5999999046326</ele>
        <time>2022-04-28T11:02:46.000Z</time>
      </trkpt>
      <trkpt lat="47.26365" lon="-2.31674">
        <ele>-5.8000001907349</ele>
        <time>2022-04-28T11:02:50.000Z</time>
      </trkpt>
      <trkpt lat="47.26368" lon="-2.31673">
        <ele>-5.4000000953674</ele>
        <time>2022-04-28T11:02:51.000Z</time>
      </trkpt>
      <trkpt lat="47.26372" lon="-2.31672">
        <ele>-5</ele>
        <time>2022-04-28T11:02:52.000Z</time>
      </trkpt>
      <trkpt lat="47.26375" lon="-2.31671">
        <ele>-4.4000000953674</ele>
        <time>2022-04-28T11:02:53.000Z</time>
      </trkpt>
      <trkpt lat="47.26389" lon="-2.31662">
        <ele>-4.4000000953674</ele>
        <time>2022-04-28T11:02:58.000Z</time>
      </trkpt>
      <trkpt lat="47.26408" lon="-2.31648">
        <ele>-4.4000000953674</ele>
        <time>2022-04-28T11:03:05.000Z</time>
      </trkpt>
      <trkpt lat="47.26409" lon="-2.31628">
        <ele>-4.4000000953674</ele>
        <time>2022-04-28T11:03:09.000Z</time>
      </trkpt>
      <trkpt lat="47.26408" lon="-2.31586">
        <ele>-4.4000000953674</ele>
        <time>2022-04-28T11:03:17.000Z</time>
      </trkpt>
      <trkpt lat="47.26408" lon="-2.31559">
        <ele>-4.4000000953674</ele>
        <time>2022-04-28T11:03:23.000Z</time>
      </trkpt>
      <trkpt lat="47.2641" lon="-2.31552">
        <ele>-4</ele>
        <time>2022-04-28T11:03:25.000Z</time>
      </trkpt>
      <trkpt lat="47.26413" lon="-2.31552">
        <ele>-3.5999999046326</ele>
        <time>2022-04-28T11:03:26.000Z</time>
      </trkpt>
      <trkpt lat="47.26415" lon="-2.31553">
        <ele>-3.2000000476837</ele>
        <time>2022-04-28T11:03:27.000Z</time>
      </trkpt>
      <trkpt lat="47.26416" lon="-2.31552">
        <ele>-2.7999999523163</ele>
        <time>2022-04-28T11:03:28.000Z</time>
      </trkpt>
      <trkpt lat="47.26415" lon="-2.31553">
        <ele>-2.4000000953674</ele>
        <time>2022-04-28T11:03:29.000Z</time>
      </trkpt>
      <trkpt lat="47.26415" lon="-2.31553">
        <ele>-2.4000000953674</ele>
        <time>2022-04-28T11:03:30.000Z</time>
      </trkpt>
    </trkseg>
  </trk>
</gpx>